Wetterdaten: Dienstag, 27.06.2017
Datum Zeit Temp. A. Temp. A. max Feuchte A. Luftdruck Regen Wind Richtung Richtung Sonnenschein ET UV Solar Taupunkt Windchill Windböen
27.06.2017 00:00 15,2 °C 15,3 °C 92 % 1009,8 hPa 0,0 mm 1,7 km/h (1 Bft) N-NO 14 ° 0 min 0,000 mm 0,0 UV-I 0 W/m² 13,9 °C 15,2 °C 3,2 km/h (1 Bft)
27.06.2017 00:01 15,2 °C 15,2 °C 93 % 1009,8 hPa 0,0 mm 0,9 km/h (0 Bft) N-NO 15 ° 0 min 0,000 mm 0,0 UV-I 0 W/m² 14,1 °C 15,2 °C 1,6 km/h (1 Bft)
27.06.2017 00:02 15,2 °C 15,2 °C 93 % 1009,8 hPa 0,2 mm 1,7 km/h (1 Bft) NW 317 ° 0 min 0,000 mm 0,0 UV-I 0 W/m² 14,1 °C 15,2 °C 3,2 km/h (1 Bft)
27.06.2017 00:03 15,1 °C 15,2 °C 93 % 1009,7 hPa 0,0 mm 1,7 km/h (1 Bft) N-NW 341 ° 0 min 0,000 mm 0,0 UV-I 0 W/m² 14,0 °C 15,1 °C 4,8 km/h (1 Bft)
27.06.2017 00:04 15,1 °C 15,1 °C 93 % 1009,7 hPa 0,0 mm 1,3 km/h (1 Bft) SO 134 ° 0 min 0,000 mm 0,0 UV-I 0 W/m² 14,0 °C 15,1 °C 4,8 km/h (1 Bft)
27.06.2017 00:05 15,1 °C 15,1 °C 93 % 1009,7 hPa 0,0 mm 4,4 km/h (1 Bft) NO 44 ° 0 min 0,000 mm 0,0 UV-I 0 W/m² 14,0 °C 15,1 °C 8,0 km/h (2 Bft)
27.06.2017 00:06 15,1 °C 15,1 °C 93 % 1009,7 hPa 0,0 mm 3,6 km/h (1 Bft) O-NO 71 ° 0 min 0,000 mm 0,0 UV-I 0 W/m² 14,0 °C 15,1 °C 6,4 km/h (2 Bft)
27.06.2017 00:07 15,1 °C 15,1 °C 93 % 1009,6 hPa 0,2 mm 0,6 km/h (0 Bft) O-NO 72 ° 0 min 0,000 mm 0,0 UV-I 0 W/m² 14,0 °C 15,1 °C 1,6 km/h (1 Bft)
27.06.2017 00:08 15,1 °C 15,1 °C 93 % 1009,5 hPa 0,0 mm 1,3 km/h (1 Bft) O-SO 115 ° 0 min 0,000 mm 0,0 UV-I 0 W/m² 14,0 °C 15,1 °C 3,2 km/h (1 Bft)
27.06.2017 00:09 15,1 °C 15,1 °C 93 % 1009,5 hPa 0,0 mm 1,9 km/h (1 Bft) O 94 ° 0 min 0,000 mm 0,0 UV-I 0 W/m² 14,0 °C 15,1 °C 3,2 km/h (1 Bft)
27.06.2017 00:10 15,1 °C 15,1 °C 93 % 1009,5 hPa 0,0 mm 1,2 km/h (1 Bft) O 88 ° 0 min 0,000 mm 0,0 UV-I 0 W/m² 14,0 °C 15,1 °C 4,8 km/h (1 Bft)
27.06.2017 00:11 15,1 °C 15,1 °C 93 % 1009,4 hPa 0,2 mm 0,7 km/h (0 Bft) O-NO 76 ° 0 min 0,000 mm 0,0 UV-I 0 W/m² 14,0 °C 15,1 °C 4,8 km/h (1 Bft)
27.06.2017 00:12 15,0 °C 15,1 °C 93 % 1009,4 hPa 0,0 mm 0,0 km/h (0 Bft) O-NO 76 ° 0 min 0,000 mm 0,0 UV-I 0 W/m² 13,9 °C 15,0 °C 0,0 km/h (0 Bft)
27.06.2017 00:13 15,0 °C 15,0 °C 93 % 1009,5 hPa 0,0 mm 0,0 km/h (0 Bft) O-NO 76 ° 0 min 0,000 mm 0,0 UV-I 0 W/m² 13,9 °C 15,0 °C 0,0 km/h (0 Bft)
27.06.2017 00:14 15,0 °C 15,0 °C 93 % 1009,4 hPa 0,2 mm 0,5 km/h (0 Bft) O-NO 65 ° 0 min 0,000 mm 0,0 UV-I 0 W/m² 13,9 °C 15,0 °C 3,2 km/h (1 Bft)
27.06.2017 00:15 14,9 °C 15,0 °C 93 % 1009,3 hPa 0,2 mm 1,8 km/h (1 Bft) S 190 ° 0 min 0,000 mm 0,0 UV-I 0 W/m² 13,8 °C 14,9 °C 4,8 km/h (1 Bft)
27.06.2017 00:16 14,9 °C 14,9 °C 93 % 1009,3 hPa 0,0 mm 3,2 km/h (1 Bft) W-SW 252 ° 0 min 0,000 mm 0,0 UV-I 0 W/m² 13,8 °C 14,9 °C 6,4 km/h (2 Bft)
27.06.2017 00:17 14,9 °C 14,9 °C 93 % 1009,3 hPa 0,0 mm 0,1 km/h (0 Bft) W-SW 252 ° 0 min 0,000 mm 0,0 UV-I 0 W/m² 13,8 °C 14,9 °C 1,6 km/h (1 Bft)
27.06.2017 00:18 14,9 °C 14,9 °C 93 % 1009,3 hPa 0,2 mm 0,5 km/h (0 Bft) W-SW 252 ° 0 min 0,000 mm 0,0 UV-I 0 W/m² 13,8 °C 14,9 °C 1,6 km/h (1 Bft)
27.06.2017 00:19 14,9 °C 14,9 °C 93 % 1009,4 hPa 0,2 mm 0,8 km/h (0 Bft) W-SW 252 ° 0 min 0,000 mm 0,0 UV-I 0 W/m² 13,8 °C 14,9 °C 1,6 km/h (1 Bft)
27.06.2017 00:20 14,9 °C 14,9 °C 93 % 1009,4 hPa 0,0 mm 0,3 km/h (0 Bft) W-SW 252 ° 0 min 0,000 mm 0,0 UV-I 0 W/m² 13,8 °C 14,9 °C 1,6 km/h (1 Bft)
27.06.2017 00:21 14,9 °C 14,9 °C 93 % 1009,4 hPa 0,2 mm 0,3 km/h (0 Bft) W-SW 252 ° 0 min 0,000 mm 0,0 UV-I 0 W/m² 13,8 °C 14,9 °C 1,6 km/h (1 Bft)
27.06.2017 00:22 14,9 °C 14,9 °C 93 % 1009,4 hPa 0,0 mm 2,9 km/h (1 Bft) W 263 ° 0 min 0,000 mm 0,0 UV-I 0 W/m² 13,8 °C 14,9 °C 6,4 km/h (2 Bft)
27.06.2017 00:23 14,9 °C 15,0 °C 93 % 1009,5 hPa 0,2 mm 2,3 km/h (1 Bft) SW 225 ° 0 min 0,000 mm 0,0 UV-I 0 W/m² 13,8 °C 14,9 °C 4,8 km/h (1 Bft)
27.06.2017 00:24 15,0 °C 15,0 °C 93 % 1009,5 hPa 0,0 mm 0,4 km/h (0 Bft) W-SW 253 ° 0 min 0,000 mm 0,0 UV-I 0 W/m² 13,9 °C 15,0 °C 1,6 km/h (1 Bft)
27.06.2017 00:25 14,9 °C 15,0 °C 93 % 1009,5 hPa 0,2 mm 1,7 km/h (1 Bft) N-NO 29 ° 0 min 0,000 mm 0,0 UV-I 0 W/m² 13,8 °C 14,9 °C 4,8 km/h (1 Bft)
27.06.2017 00:26 15,0 °C 15,0 °C 93 % 1009,5 hPa 0,0 mm 3,8 km/h (1 Bft) N-NW 337 ° 0 min 0,000 mm 0,0 UV-I 0 W/m² 13,9 °C 15,0 °C 8,0 km/h (2 Bft)
27.06.2017 00:27 15,0 °C 15,0 °C 93 % 1009,5 hPa 0,0 mm 5,0 km/h (1 Bft) N 350 ° 0 min 0,000 mm 0,0 UV-I 0 W/m² 13,9 °C 15,0 °C 9,7 km/h (2 Bft)
27.06.2017 00:28 15,0 °C 15,0 °C 93 % 1009,5 hPa 0,2 mm 4,7 km/h (1 Bft) N 355 ° 0 min 0,000 mm 0,0 UV-I 0 W/m² 13,9 °C 15,0 °C 8,0 km/h (2 Bft)
27.06.2017 00:29 15,0 °C 15,0 °C 93 % 1009,6 hPa 0,0 mm 4,1 km/h (1 Bft) N 355 ° 0 min 0,000 mm 0,0 UV-I 0 W/m² 13,9 °C 15,0 °C 4,8 km/h (1 Bft)
27.06.2017 00:30 15,0 °C 15,1 °C 93 % 1009,7 hPa 0,0 mm 3,2 km/h (1 Bft) N-NO 16 ° 0 min 0,000 mm 0,0 UV-I 0 W/m² 13,9 °C 15,0 °C 6,4 km/h (2 Bft)
27.06.2017 00:31 15,1 °C 15,1 °C 93 % 1009,7 hPa 0,2 mm 3,8 km/h (1 Bft) N-NW 338 ° 0 min 0,000 mm 0,0 UV-I 0 W/m² 14,0 °C 15,1 °C 6,4 km/h (2 Bft)
27.06.2017 00:32 15,1 °C 15,1 °C 93 % 1009,7 hPa 0,0 mm 3,2 km/h (1 Bft) O-SO 123 ° 0 min 0,000 mm 0,0 UV-I 0 W/m² 14,0 °C 15,1 °C 4,8 km/h (1 Bft)
27.06.2017 00:33 15,1 °C 15,1 °C 93 % 1009,6 hPa 0,0 mm 1,3 km/h (1 Bft) O-SO 123 ° 0 min 0,000 mm 0,0 UV-I 0 W/m² 14,0 °C 15,1 °C 3,2 km/h (1 Bft)
27.06.2017 00:34 15,0 °C 15,1 °C 93 % 1009,7 hPa 0,2 mm 1,5 km/h (1 Bft) O-SO 123 ° 0 min 0,000 mm 0,0 UV-I 0 W/m² 13,9 °C 15,0 °C 4,8 km/h (1 Bft)
27.06.2017 00:35 15,0 °C 15,0 °C 93 % 1009,7 hPa 0,0 mm 0,1 km/h (0 Bft) O-SO 123 ° 0 min 0,000 mm 0,0 UV-I 0 W/m² 13,9 °C 15,0 °C 1,6 km/h (1 Bft)
27.06.2017 00:36 15,0 °C 15,0 °C 93 % 1009,7 hPa 0,0 mm 0,0 km/h (0 Bft) O-SO 123 ° 0 min 0,000 mm 0,0 UV-I 0 W/m² 13,9 °C 15,0 °C 0,0 km/h (0 Bft)
27.06.2017 00:37 14,9 °C 15,0 °C 93 % 1009,6 hPa 0,0 mm 0,6 km/h (0 Bft) SW 223 ° 0 min 0,000 mm 0,0 UV-I 0 W/m² 13,8 °C 14,9 °C 3,2 km/h (1 Bft)
27.06.2017 00:38 14,9 °C 14,9 °C 93 % 1009,6 hPa 0,0 mm 0,0 km/h (0 Bft) SW 223 ° 0 min 0,000 mm 0,0 UV-I 0 W/m² 13,8 °C 14,9 °C 0,0 km/h (0 Bft)
27.06.2017 00:39 14,9 °C 14,9 °C 93 % 1009,4 hPa 0,0 mm 0,0 km/h (0 Bft) SW 223 ° 0 min 0,000 mm 0,0 UV-I 0 W/m² 13,8 °C 14,9 °C 0,0 km/h (0 Bft)
27.06.2017 00:40 14,9 °C 14,9 °C 93 % 1009,4 hPa 0,2 mm 0,0 km/h (0 Bft) SW 223 ° 0 min 0,000 mm 0,0 UV-I 0 W/m² 13,8 °C 14,9 °C 0,0 km/h (0 Bft)
27.06.2017 00:41 14,9 °C 14,9 °C 93 % 1009,3 hPa 0,0 mm 0,0 km/h (0 Bft) SW 223 ° 0 min 0,000 mm 0,0 UV-I 0 W/m² 13,8 °C 14,9 °C 0,0 km/h (0 Bft)
27.06.2017 00:42 14,9 °C 14,9 °C 93 % 1009,3 hPa 0,0 mm 0,0 km/h (0 Bft) SW 223 ° 0 min 0,000 mm 0,0 UV-I 0 W/m² 13,8 °C 14,9 °C 0,0 km/h (0 Bft)
27.06.2017 00:43 14,9 °C 14,9 °C 93 % 1009,2 hPa 0,0 mm 0,0 km/h (0 Bft) SW 223 ° 0 min 0,000 mm 0,0 UV-I 0 W/m² 13,8 °C 14,9 °C 0,0 km/h (0 Bft)
27.06.2017 00:44 14,9 °C 14,9 °C 94 % 1009,2 hPa 0,0 mm 1,8 km/h (1 Bft) SW 223 ° 0 min 0,000 mm 0,0 UV-I 0 W/m² 13,9 °C 14,9 °C 3,2 km/h (1 Bft)
27.06.2017 00:45 14,8 °C 14,9 °C 94 % 1009,1 hPa 0,0 mm 1,3 km/h (1 Bft) SW 223 ° 0 min 0,000 mm 0,0 UV-I 0 W/m² 13,8 °C 14,8 °C 3,2 km/h (1 Bft)
27.06.2017 00:46 14,9 °C 14,9 °C 94 % 1009,1 hPa 0,0 mm 0,0 km/h (0 Bft) SW 223 ° 0 min 0,000 mm 0,0 UV-I 0 W/m² 13,9 °C 14,9 °C 0,0 km/h (0 Bft)
27.06.2017 00:47 14,9 °C 14,9 °C 94 % 1009,0 hPa 0,0 mm 0,2 km/h (0 Bft) SW 230 ° 0 min 0,000 mm 0,0 UV-I 0 W/m² 13,9 °C 14,9 °C 1,6 km/h (1 Bft)
27.06.2017 00:48 14,8 °C 14,9 °C 94 % 1009,0 hPa 0,2 mm 0,3 km/h (0 Bft) SW 230 ° 0 min 0,000 mm 0,0 UV-I 0 W/m² 13,8 °C 14,8 °C 1,6 km/h (1 Bft)
27.06.2017 00:49 14,9 °C 14,9 °C 94 % 1008,9 hPa 0,0 mm 0,1 km/h (0 Bft) SW 230 ° 0 min 0,000 mm 0,0 UV-I 0 W/m² 13,9 °C 14,9 °C 1,6 km/h (1 Bft)
27.06.2017 00:50 14,8 °C 14,9 °C 94 % 1008,9 hPa 0,0 mm 0,0 km/h (0 Bft) SW 230 ° 0 min 0,000 mm 0,0 UV-I 0 W/m² 13,8 °C 14,8 °C 0,0 km/h (0 Bft)
27.06.2017 00:51 14,8 °C 14,8 °C 94 % 1009,0 hPa 0,0 mm 0,2 km/h (0 Bft) SW 230 ° 0 min 0,000 mm 0,0 UV-I 0 W/m² 13,8 °C 14,8 °C 1,6 km/h (1 Bft)
27.06.2017 00:52 14,8 °C 14,8 °C 94 % 1009,0 hPa 0,0 mm 0,0 km/h (0 Bft) SW 230 ° 0 min 0,000 mm 0,0 UV-I 0 W/m² 13,8 °C 14,8 °C 0,0 km/h (0 Bft)
27.06.2017 00:53 14,8 °C 14,8 °C 94 % 1008,9 hPa 0,0 mm 0,0 km/h (0 Bft) SW 230 ° 0 min 0,000 mm 0,0 UV-I 0 W/m² 13,8 °C 14,8 °C 0,0 km/h (0 Bft)
27.06.2017 00:54 14,8 °C 14,8 °C 94 % 1008,9 hPa 0,0 mm 0,4 km/h (0 Bft) SW 229 ° 0 min 0,000 mm 0,0 UV-I 0 W/m² 13,8 °C 14,8 °C 1,6 km/h (1 Bft)
27.06.2017 00:55 14,8 °C 14,8 °C 94 % 1008,7 hPa 0,0 mm 0,0 km/h (0 Bft) SW 229 ° 0 min 0,000 mm 0,0 UV-I 0 W/m² 13,8 °C 14,8 °C 0,0 km/h (0 Bft)
27.06.2017 00:56 14,8 °C 14,8 °C 94 % 1008,6 hPa 0,0 mm 0,0 km/h (0 Bft) SW 229 ° 0 min 0,000 mm 0,0 UV-I 0 W/m² 13,8 °C 14,8 °C 0,0 km/h (0 Bft)
27.06.2017 00:57 14,8 °C 14,8 °C 94 % 1008,5 hPa 0,0 mm 0,0 km/h (0 Bft) SW 229 ° 0 min 0,000 mm 0,0 UV-I 0 W/m² 13,8 °C 14,8 °C 0,0 km/h (0 Bft)
27.06.2017 00:58 14,8 °C 14,8 °C 94 % 1008,5 hPa 0,0 mm 0,0 km/h (0 Bft) SW 229 ° 0 min 0,000 mm 0,0 UV-I 0 W/m² 13,8 °C 14,8 °C 0,0 km/h (0 Bft)
27.06.2017 00:59 14,8 °C 14,8 °C 94 % 1008,4 hPa 0,0 mm 0,0 km/h (0 Bft) SW 229 ° 0 min 0,000 mm 0,0 UV-I 0 W/m² 13,8 °C 14,8 °C 0,0 km/h (0 Bft)
27.06.2017 01:00 14,8 °C 14,8 °C 94 % 1008,4 hPa 0,0 mm 0,1 km/h (0 Bft) SW 229 ° 0 min 0,000 mm 0,0 UV-I 0 W/m² 13,8 °C 14,8 °C 1,6 km/h (1 Bft)
27.06.2017 01:01 14,8 °C 14,8 °C 94 % 1008,4 hPa 0,0 mm 0,0 km/h (0 Bft) SW 230 ° 0 min 0,000 mm 0,0 UV-I 0 W/m² 13,8 °C 14,8 °C 0,0 km/h (0 Bft)
27.06.2017 01:02 14,8 °C 14,8 °C 94 % 1008,4 hPa 0,0 mm 2,8 km/h (1 Bft) NW 313 ° 0 min 0,000 mm 0,0 UV-I 0 W/m² 13,8 °C 14,8 °C 6,4 km/h (2 Bft)
27.06.2017 01:03 14,8 °C 14,8 °C 94 % 1008,3 hPa 0,0 mm 2,5 km/h (1 Bft) NW 316 ° 0 min 0,000 mm 0,0 UV-I 0 W/m² 13,8 °C 14,8 °C 4,8 km/h (1 Bft)
27.06.2017 01:04 14,8 °C 14,8 °C 94 % 1008,4 hPa 0,0 mm 3,8 km/h (1 Bft) NW 315 ° 0 min 0,000 mm 0,0 UV-I 0 W/m² 13,8 °C 14,8 °C 6,4 km/h (2 Bft)
27.06.2017 01:05 14,8 °C 14,8 °C 94 % 1008,4 hPa 0,0 mm 2,4 km/h (1 Bft) NW 305 ° 0 min 0,000 mm 0,0 UV-I 0 W/m² 13,8 °C 14,8 °C 3,2 km/h (1 Bft)
27.06.2017 01:06 14,8 °C 14,8 °C 94 % 1008,3 hPa 0,0 mm 3,1 km/h (1 Bft) NW 304 ° 0 min 0,000 mm 0,0 UV-I 0 W/m² 13,8 °C 14,8 °C 4,8 km/h (1 Bft)
27.06.2017 01:07 14,8 °C 14,8 °C 94 % 1008,3 hPa 0,0 mm 4,2 km/h (1 Bft) S 186 ° 0 min 0,000 mm 0,0 UV-I 0 W/m² 13,8 °C 14,8 °C 6,4 km/h (2 Bft)
27.06.2017 01:08 14,8 °C 14,8 °C 94 % 1008,4 hPa 0,0 mm 5,4 km/h (1 Bft) S 186 ° 0 min 0,000 mm 0,0 UV-I 0 W/m² 13,8 °C 14,8 °C 6,4 km/h (2 Bft)
27.06.2017 01:09 14,8 °C 14,8 °C 94 % 1008,6 hPa 0,0 mm 4,4 km/h (1 Bft) S 186 ° 0 min 0,000 mm 0,0 UV-I 0 W/m² 13,8 °C 14,8 °C 6,4 km/h (2 Bft)
27.06.2017 01:10 14,8 °C 14,8 °C 94 % 1008,7 hPa 0,0 mm 2,6 km/h (1 Bft) S 186 ° 0 min 0,000 mm 0,0 UV-I 0 W/m² 13,8 °C 14,8 °C 3,2 km/h (1 Bft)
27.06.2017 01:11 14,8 °C 14,8 °C 94 % 1008,7 hPa 0,0 mm 2,1 km/h (1 Bft) S 186 ° 0 min 0,000 mm 0,0 UV-I 0 W/m² 13,8 °C 14,8 °C 3,2 km/h (1 Bft)
27.06.2017 01:12 14,8 °C 14,8 °C 94 % 1008,7 hPa 0,0 mm 0,6 km/h (0 Bft) S 186 ° 0 min 0,000 mm 0,0 UV-I 0 W/m² 13,8 °C 14,8 °C 1,6 km/h (1 Bft)
27.06.2017 01:13 14,8 °C 14,8 °C 94 % 1008,7 hPa 0,0 mm 0,9 km/h (0 Bft) S 187 ° 0 min 0,000 mm 0,0 UV-I 0 W/m² 13,8 °C 14,8 °C 3,2 km/h (1 Bft)
27.06.2017 01:14 14,8 °C 14,8 °C 94 % 1008,7 hPa 0,0 mm 0,0 km/h (0 Bft) S 187 ° 0 min 0,000 mm 0,0 UV-I 0 W/m² 13,8 °C 14,8 °C 0,0 km/h (0 Bft)
27.06.2017 01:15 14,8 °C 14,8 °C 94 % 1008,7 hPa 0,0 mm 2,1 km/h (1 Bft) W-SW 248 ° 0 min 0,000 mm 0,0 UV-I 0 W/m² 13,8 °C 14,8 °C 6,4 km/h (2 Bft)
27.06.2017 01:16 14,8 °C 14,8 °C 94 % 1008,5 hPa 0,0 mm 4,9 km/h (1 Bft) W 263 ° 0 min 0,000 mm 0,0 UV-I 0 W/m² 13,8 °C 14,8 °C 9,7 km/h (2 Bft)
27.06.2017 01:17 14,8 °C 14,8 °C 94 % 1008,5 hPa 0,0 mm 3,4 km/h (1 Bft) W 263 ° 0 min 0,000 mm 0,0 UV-I 0 W/m² 13,8 °C 14,8 °C 4,8 km/h (1 Bft)
27.06.2017 01:18 14,8 °C 14,8 °C 94 % 1008,5 hPa 0,0 mm 6,2 km/h (2 Bft) W-NW 286 ° 0 min 0,000 mm 0,0 UV-I 0 W/m² 13,8 °C 14,8 °C 9,7 km/h (2 Bft)
27.06.2017 01:19 14,9 °C 14,9 °C 94 % 1008,5 hPa 0,0 mm 4,2 km/h (1 Bft) W 259 ° 0 min 0,000 mm 0,0 UV-I 0 W/m² 13,9 °C 14,9 °C 6,4 km/h (2 Bft)
27.06.2017 01:20 14,9 °C 14,9 °C 94 % 1008,5 hPa 0,0 mm 4,6 km/h (1 Bft) W 270 ° 0 min 0,000 mm 0,0 UV-I 0 W/m² 13,9 °C 14,9 °C 6,4 km/h (2 Bft)
27.06.2017 01:21 14,9 °C 14,9 °C 94 % 1008,5 hPa 0,0 mm 5,6 km/h (1 Bft) W 269 ° 0 min 0,000 mm 0,0 UV-I 0 W/m² 13,9 °C 14,9 °C 9,7 km/h (2 Bft)
27.06.2017 01:22 14,9 °C 14,9 °C 94 % 1008,5 hPa 0,0 mm 3,1 km/h (1 Bft) W 269 ° 0 min 0,000 mm 0,0 UV-I 0 W/m² 13,9 °C 14,9 °C 4,8 km/h (1 Bft)
27.06.2017 01:23 14,9 °C 14,9 °C 94 % 1008,4 hPa 0,0 mm 3,6 km/h (1 Bft) S 188 ° 0 min 0,000 mm 0,0 UV-I 0 W/m² 13,9 °C 14,9 °C 6,4 km/h (2 Bft)
27.06.2017 01:24 14,9 °C 14,9 °C 94 % 1008,5 hPa 0,0 mm 0,9 km/h (0 Bft) S 189 ° 0 min 0,000 mm 0,0 UV-I 0 W/m² 13,9 °C 14,9 °C 3,2 km/h (1 Bft)
27.06.2017 01:25 14,9 °C 14,9 °C 93 % 1008,5 hPa 0,0 mm 0,0 km/h (0 Bft) S 189 ° 0 min 0,000 mm 0,0 UV-I 0 W/m² 13,8 °C 14,9 °C 0,0 km/h (0 Bft)
27.06.2017 01:26 14,9 °C 14,9 °C 93 % 1008,5 hPa 0,0 mm 0,0 km/h (0 Bft) S 189 ° 0 min 0,000 mm 0,0 UV-I 0 W/m² 13,8 °C 14,9 °C 0,0 km/h (0 Bft)
27.06.2017 01:27 14,9 °C 14,9 °C 93 % 1008,5 hPa 0,0 mm 0,0 km/h (0 Bft) S 189 ° 0 min 0,000 mm 0,0 UV-I 0 W/m² 13,8 °C 14,9 °C 0,0 km/h (0 Bft)
27.06.2017 01:28 14,9 °C 14,9 °C 93 % 1008,5 hPa 0,0 mm 0,6 km/h (0 Bft) S 189 ° 0 min 0,000 mm 0,0 UV-I 0 W/m² 13,8 °C 14,9 °C 1,6 km/h (1 Bft)
27.06.2017 01:29 14,9 °C 14,9 °C 93 % 1008,5 hPa 0,0 mm 0,0 km/h (0 Bft) S 189 ° 0 min 0,000 mm 0,0 UV-I 0 W/m² 13,8 °C 14,9 °C 0,0 km/h (0 Bft)
27.06.2017 01:30 14,9 °C 14,9 °C 94 % 1008,5 hPa 0,0 mm 0,0 km/h (0 Bft) S 189 ° 0 min 0,000 mm 0,0 UV-I 0 W/m² 13,9 °C 14,9 °C 0,0 km/h (0 Bft)
27.06.2017 01:31 14,9 °C 14,9 °C 94 % 1008,5 hPa 0,0 mm 0,0 km/h (0 Bft) S 189 ° 0 min 0,000 mm 0,0 UV-I 0 W/m² 13,9 °C 14,9 °C 0,0 km/h (0 Bft)
27.06.2017 01:32 14,8 °C 14,9 °C 94 % 1008,5 hPa 0,0 mm 0,0 km/h (0 Bft) S 189 ° 0 min 0,000 mm 0,0 UV-I 0 W/m² 13,8 °C 14,8 °C 0,0 km/h (0 Bft)
27.06.2017 01:33 14,8 °C 14,8 °C 94 % 1008,5 hPa 0,0 mm 0,0 km/h (0 Bft) S 189 ° 0 min 0,000 mm 0,0 UV-I 0 W/m² 13,8 °C 14,8 °C 0,0 km/h (0 Bft)
27.06.2017 01:34 14,8 °C 14,8 °C 94 % 1008,5 hPa 0,0 mm 0,1 km/h (0 Bft) S-SW 213 ° 0 min 0,000 mm 0,0 UV-I 0 W/m² 13,8 °C 14,8 °C 1,6 km/h (1 Bft)
27.06.2017 01:35 14,8 °C 14,8 °C 94 % 1008,5 hPa 0,0 mm 2,1 km/h (1 Bft) W-SW 258 ° 0 min 0,000 mm 0,0 UV-I 0 W/m² 13,8 °C 14,8 °C 3,2 km/h (1 Bft)
27.06.2017 01:36 14,8 °C 14,8 °C 94 % 1008,5 hPa 0,0 mm 0,1 km/h (0 Bft) W-SW 258 ° 0 min 0,000 mm 0,0 UV-I 0 W/m² 13,8 °C 14,8 °C 1,6 km/h (1 Bft)
27.06.2017 01:37 14,8 °C 14,8 °C 94 % 1008,5 hPa 0,0 mm 0,0 km/h (0 Bft) W-SW 258 ° 0 min 0,000 mm 0,0 UV-I 0 W/m² 13,8 °C 14,8 °C 0,0 km/h (0 Bft)
27.06.2017 01:38 14,8 °C 14,8 °C 94 % 1008,5 hPa 0,0 mm 0,0 km/h (0 Bft) W-SW 258 ° 0 min 0,000 mm 0,0 UV-I 0 W/m² 13,8 °C 14,8 °C 0,0 km/h (0 Bft)
27.06.2017 01:39 14,8 °C 14,8 °C 94 % 1008,6 hPa 0,0 mm 0,0 km/h (0 Bft) W-SW 258 ° 0 min 0,000 mm 0,0 UV-I 0 W/m² 13,8 °C 14,8 °C 0,0 km/h (0 Bft)
27.06.2017 01:40 14,8 °C 14,8 °C 94 % 1008,6 hPa 0,0 mm 0,3 km/h (0 Bft) W-SW 258 ° 0 min 0,000 mm 0,0 UV-I 0 W/m² 13,8 °C 14,8 °C 1,6 km/h (1 Bft)
27.06.2017 01:41 14,8 °C 14,8 °C 94 % 1008,5 hPa 0,0 mm 0,0 km/h (0 Bft) W-SW 258 ° 0 min 0,000 mm 0,0 UV-I 0 W/m² 13,8 °C 14,8 °C 0,0 km/h (0 Bft)
27.06.2017 01:42 14,7 °C 14,8 °C 94 % 1008,5 hPa 0,0 mm 0,0 km/h (0 Bft) W-SW 258 ° 0 min 0,000 mm 0,0 UV-I 0 W/m² 13,7 °C 14,7 °C 0,0 km/h (0 Bft)
27.06.2017 01:43 14,7 °C 14,8 °C 94 % 1008,5 hPa 0,0 mm 0,0 km/h (0 Bft) W-SW 258 ° 0 min 0,000 mm 0,0 UV-I 0 W/m² 13,7 °C 14,7 °C 0,0 km/h (0 Bft)
27.06.2017 01:44 14,7 °C 14,7 °C 94 % 1008,6 hPa 0,0 mm 0,0 km/h (0 Bft) W-SW 258 ° 0 min 0,000 mm 0,0 UV-I 0 W/m² 13,7 °C 14,7 °C 0,0 km/h (0 Bft)
27.06.2017 01:45 14,7 °C 14,7 °C 94 % 1008,6 hPa 0,0 mm 0,0 km/h (0 Bft) W-SW 258 ° 0 min 0,000 mm 0,0 UV-I 0 W/m² 13,7 °C 14,7 °C 0,0 km/h (0 Bft)
27.06.2017 01:46 14,7 °C 14,7 °C 94 % 1008,6 hPa 0,0 mm 1,2 km/h (1 Bft) W 263 ° 0 min 0,000 mm 0,0 UV-I 0 W/m² 13,7 °C 14,7 °C 3,2 km/h (1 Bft)
27.06.2017 01:47 14,8 °C 14,8 °C 94 % 1008,6 hPa 0,0 mm 4,4 km/h (1 Bft) W-NW 287 ° 0 min 0,000 mm 0,0 UV-I 0 W/m² 13,8 °C 14,8 °C 6,4 km/h (2 Bft)
27.06.2017 01:48 14,8 °C 14,8 °C 94 % 1008,6 hPa 0,0 mm 4,8 km/h (1 Bft) W-SW 248 ° 0 min 0,000 mm 0,0 UV-I 0 W/m² 13,8 °C 14,8 °C 8,0 km/h (2 Bft)
27.06.2017 01:49 14,8 °C 14,8 °C 94 % 1008,6 hPa 0,0 mm 0,3 km/h (0 Bft) W-SW 248 ° 0 min 0,000 mm 0,0 UV-I 0 W/m² 13,8 °C 14,8 °C 1,6 km/h (1 Bft)
27.06.2017 01:50 14,8 °C 14,8 °C 94 % 1008,6 hPa 0,0 mm 0,8 km/h (0 Bft) N 9 ° 0 min 0,000 mm 0,0 UV-I 0 W/m² 13,8 °C 14,8 °C 3,2 km/h (1 Bft)
27.06.2017 01:51 14,8 °C 14,8 °C 94 % 1008,7 hPa 0,0 mm 2,3 km/h (1 Bft) N 9 ° 0 min 0,000 mm 0,0 UV-I 0 W/m² 13,8 °C 14,8 °C 3,2 km/h (1 Bft)
27.06.2017 01:52 14,8 °C 14,8 °C 94 % 1008,7 hPa 0,0 mm 0,8 km/h (0 Bft) N 9 ° 0 min 0,000 mm 0,0 UV-I 0 W/m² 13,8 °C 14,8 °C 3,2 km/h (1 Bft)
27.06.2017 01:53 14,8 °C 14,8 °C 94 % 1008,8 hPa 0,2 mm 2,4 km/h (1 Bft) N 9 ° 0 min 0,000 mm 0,0 UV-I 0 W/m² 13,8 °C 14,8 °C 4,8 km/h (1 Bft)
27.06.2017 01:54 14,8 °C 14,8 °C 94 % 1008,7 hPa 0,0 mm 2,0 km/h (1 Bft) N 9 ° 0 min 0,000 mm 0,0 UV-I 0 W/m² 13,8 °C 14,8 °C 3,2 km/h (1 Bft)
27.06.2017 01:55 14,8 °C 14,8 °C 94 % 1008,8 hPa 0,0 mm 0,0 km/h (0 Bft) N 9 ° 0 min 0,000 mm 0,0 UV-I 0 W/m² 13,8 °C 14,8 °C 0,0 km/h (0 Bft)
27.06.2017 01:56 14,8 °C 14,8 °C 94 % 1008,9 hPa 0,0 mm 0,3 km/h (0 Bft) N-NO 21 ° 0 min 0,000 mm 0,0 UV-I 0 W/m² 13,8 °C 14,8 °C 3,2 km/h (1 Bft)
27.06.2017 01:57 14,8 °C 14,8 °C 94 % 1008,9 hPa 0,0 mm 1,7 km/h (1 Bft) N-NO 26 ° 0 min 0,000 mm 0,0 UV-I 0 W/m² 13,8 °C 14,8 °C 3,2 km/h (1 Bft)
27.06.2017 01:58 14,8 °C 14,8 °C 94 % 1009,0 hPa 0,0 mm 0,1 km/h (0 Bft) N-NO 26 ° 0 min 0,000 mm 0,0 UV-I 0 W/m² 13,8 °C 14,8 °C 1,6 km/h (1 Bft)
27.06.2017 01:59 14,8 °C 14,8 °C 94 % 1009,0 hPa 0,0 mm 0,0 km/h (0 Bft) N-NO 26 ° 0 min 0,000 mm 0,0 UV-I 0 W/m² 13,8 °C 14,8 °C 0,0 km/h (0 Bft)
27.06.2017 02:00 14,8 °C 14,8 °C 94 % 1008,9 hPa 0,0 mm 0,3 km/h (0 Bft) N-NO 26 ° 0 min 0,000 mm 0,0 UV-I 0 W/m² 13,8 °C 14,8 °C 1,6 km/h (1 Bft)
27.06.2017 02:01 14,8 °C 14,8 °C 94 % 1008,9 hPa 0,0 mm 2,1 km/h (1 Bft) W-NW 294 ° 0 min 0,000 mm 0,0 UV-I 0 W/m² 13,8 °C 14,8 °C 3,2 km/h (1 Bft)
27.06.2017 02:02 14,8 °C 14,8 °C 94 % 1008,9 hPa 0,0 mm 3,6 km/h (1 Bft) W-NW 294 ° 0 min 0,000 mm 0,0 UV-I 0 W/m² 13,8 °C 14,8 °C 4,8 km/h (1 Bft)
27.06.2017 02:03 14,8 °C 14,8 °C 94 % 1008,9 hPa 0,0 mm 2,0 km/h (1 Bft) W-NW 294 ° 0 min 0,000 mm 0,0 UV-I 0 W/m² 13,8 °C 14,8 °C 3,2 km/h (1 Bft)
27.06.2017 02:04 14,8 °C 14,8 °C 94 % 1008,9 hPa 0,0 mm 2,0 km/h (1 Bft) W-NW 294 ° 0 min 0,000 mm 0,0 UV-I 0 W/m² 13,8 °C 14,8 °C 3,2 km/h (1 Bft)
27.06.2017 02:05 14,8 °C 14,8 °C 94 % 1008,9 hPa 0,0 mm 2,4 km/h (1 Bft) W-NW 294 ° 0 min 0,000 mm 0,0 UV-I 0 W/m² 13,8 °C 14,8 °C 4,8 km/h (1 Bft)
27.06.2017 02:06 14,8 °C 14,8 °C 94 % 1008,9 hPa 0,0 mm 3,5 km/h (1 Bft) W 267 ° 0 min 0,000 mm 0,0 UV-I 0 W/m² 13,8 °C 14,8 °C 4,8 km/h (1 Bft)
27.06.2017 02:07 14,8 °C 14,8 °C 94 % 1009,0 hPa 0,0 mm 3,4 km/h (1 Bft) W-SW 249 ° 0 min 0,000 mm 0,0 UV-I 0 W/m² 13,8 °C 14,8 °C 4,8 km/h (1 Bft)
27.06.2017 02:08 14,8 °C 14,8 °C 94 % 1009,0 hPa 0,0 mm 0,4 km/h (0 Bft) W-SW 249 ° 0 min 0,000 mm 0,0 UV-I 0 W/m² 13,8 °C 14,8 °C 3,2 km/h (1 Bft)
27.06.2017 02:09 14,8 °C 14,8 °C 94 % 1009,0 hPa 0,0 mm 0,1 km/h (0 Bft) W-SW 249 ° 0 min 0,000 mm 0,0 UV-I 0 W/m² 13,8 °C 14,8 °C 1,6 km/h (1 Bft)
27.06.2017 02:10 14,8 °C 14,8 °C 94 % 1009,0 hPa 0,0 mm 1,4 km/h (1 Bft) W-SW 249 ° 0 min 0,000 mm 0,0 UV-I 0 W/m² 13,8 °C 14,8 °C 3,2 km/h (1 Bft)
27.06.2017 02:11 14,8 °C 14,8 °C 94 % 1009,0 hPa 0,0 mm 0,5 km/h (0 Bft) W-SW 249 ° 0 min 0,000 mm 0,0 UV-I 0 W/m² 13,8 °C 14,8 °C 1,6 km/h (1 Bft)
27.06.2017 02:12 14,8 °C 14,8 °C 94 % 1009,0 hPa 0,0 mm 1,1 km/h (1 Bft) W-SW 245 ° 0 min 0,000 mm 0,0 UV-I 0 W/m² 13,8 °C 14,8 °C 4,8 km/h (1 Bft)
27.06.2017 02:13 14,7 °C 14,8 °C 94 % 1009,0 hPa 0,0 mm 1,1 km/h (1 Bft) W-SW 245 ° 0 min 0,000 mm 0,0 UV-I 0 W/m² 13,7 °C 14,7 °C 3,2 km/h (1 Bft)
27.06.2017 02:14 14,8 °C 14,8 °C 94 % 1008,9 hPa 0,0 mm 0,0 km/h (0 Bft) W-SW 245 ° 0 min 0,000 mm 0,0 UV-I 0 W/m² 13,8 °C 14,8 °C 0,0 km/h (0 Bft)
27.06.2017 02:15 14,7 °C 14,8 °C 94 % 1008,9 hPa 0,0 mm 0,0 km/h (0 Bft) W-SW 246 ° 0 min 0,000 mm 0,0 UV-I 0 W/m² 13,7 °C 14,7 °C 0,0 km/h (0 Bft)
27.06.2017 02:16 14,7 °C 14,8 °C 94 % 1008,8 hPa 0,0 mm 0,0 km/h (0 Bft) W-SW 246 ° 0 min 0,000 mm 0,0 UV-I 0 W/m² 13,7 °C 14,7 °C 0,0 km/h (0 Bft)
27.06.2017 02:17 14,7 °C 14,8 °C 94 % 1008,8 hPa 0,0 mm 0,0 km/h (0 Bft) W-SW 246 ° 0 min 0,000 mm 0,0 UV-I 0 W/m² 13,7 °C 14,7 °C 0,0 km/h (0 Bft)
27.06.2017 02:18 14,8 °C 14,8 °C 94 % 1008,9 hPa 0,0 mm 0,0 km/h (0 Bft) W-SW 246 ° 0 min 0,000 mm 0,0 UV-I 0 W/m² 13,8 °C 14,8 °C 0,0 km/h (0 Bft)
27.06.2017 02:19 14,8 °C 14,8 °C 94 % 1008,9 hPa 0,0 mm 0,0 km/h (0 Bft) W-SW 246 ° 0 min 0,000 mm 0,0 UV-I 0 W/m² 13,8 °C 14,8 °C 0,0 km/h (0 Bft)
27.06.2017 02:20 14,7 °C 14,8 °C 94 % 1008,9 hPa 0,0 mm 0,0 km/h (0 Bft) W-SW 244 ° 0 min 0,000 mm 0,0 UV-I 0 W/m² 13,7 °C 14,7 °C 0,0 km/h (0 Bft)
27.06.2017 02:21 14,7 °C 14,7 °C 94 % 1009,0 hPa 0,0 mm 2,3 km/h (1 Bft) S-SW 200 ° 0 min 0,000 mm 0,0 UV-I 0 W/m² 13,7 °C 14,7 °C 3,2 km/h (1 Bft)
27.06.2017 02:22 14,7 °C 14,7 °C 94 % 1009,0 hPa 0,0 mm 1,7 km/h (1 Bft) S 191 ° 0 min 0,000 mm 0,0 UV-I 0 W/m² 13,7 °C 14,7 °C 4,8 km/h (1 Bft)
27.06.2017 02:23 14,7 °C 14,7 °C 94 % 1009,0 hPa 0,0 mm 2,1 km/h (1 Bft) S 191 ° 0 min 0,000 mm 0,0 UV-I 0 W/m² 13,7 °C 14,7 °C 3,2 km/h (1 Bft)
27.06.2017 02:24 14,7 °C 14,7 °C 94 % 1009,0 hPa 0,0 mm 0,8 km/h (0 Bft) S 191 ° 0 min 0,000 mm 0,0 UV-I 0 W/m² 13,7 °C 14,7 °C 3,2 km/h (1 Bft)
27.06.2017 02:25 14,7 °C 14,7 °C 94 % 1009,0 hPa 0,0 mm 1,1 km/h (1 Bft) S-SW 195 ° 0 min 0,000 mm 0,0 UV-I 0 W/m² 13,7 °C 14,7 °C 3,2 km/h (1 Bft)
27.06.2017 02:26 14,7 °C 14,7 °C 94 % 1009,0 hPa 0,0 mm 1,1 km/h (1 Bft) S-SW 195 ° 0 min 0,000 mm 0,0 UV-I 0 W/m² 13,7 °C 14,7 °C 1,6 km/h (1 Bft)
27.06.2017 02:27 14,7 °C 14,7 °C 94 % 1009,0 hPa 0,0 mm 2,4 km/h (1 Bft) S-SW 195 ° 0 min 0,000 mm 0,0 UV-I 0 W/m² 13,7 °C 14,7 °C 3,2 km/h (1 Bft)
27.06.2017 02:28 14,7 °C 14,7 °C 94 % 1009,0 hPa 0,0 mm 2,8 km/h (1 Bft) S 176 ° 0 min 0,000 mm 0,0 UV-I 0 W/m² 13,7 °C 14,7 °C 3,2 km/h (1 Bft)
27.06.2017 02:29 14,7 °C 14,7 °C 94 % 1009,0 hPa 0,0 mm 1,9 km/h (1 Bft) S 175 ° 0 min 0,000 mm 0,0 UV-I 0 W/m² 13,7 °C 14,7 °C 3,2 km/h (1 Bft)
27.06.2017 02:30 14,7 °C 14,7 °C 94 % 1009,0 hPa 0,0 mm 1,5 km/h (1 Bft) S 176 ° 0 min 0,000 mm 0,0 UV-I 0 W/m² 13,7 °C 14,7 °C 3,2 km/h (1 Bft)
27.06.2017 02:31 14,7 °C 14,7 °C 94 % 1009,0 hPa 0,0 mm 1,1 km/h (1 Bft) S-SW 200 ° 0 min 0,000 mm 0,0 UV-I 0 W/m² 13,7 °C 14,7 °C 3,2 km/h (1 Bft)
27.06.2017 02:32 14,7 °C 14,7 °C 94 % 1009,0 hPa 0,0 mm 0,1 km/h (0 Bft) S-SW 200 ° 0 min 0,000 mm 0,0 UV-I 0 W/m² 13,7 °C 14,7 °C 1,6 km/h (1 Bft)
27.06.2017 02:33 14,7 °C 14,7 °C 94 % 1009,0 hPa 0,0 mm 0,0 km/h (0 Bft) S-SW 200 ° 0 min 0,000 mm 0,0 UV-I 0 W/m² 13,7 °C 14,7 °C 0,0 km/h (0 Bft)
27.06.2017 02:34 14,7 °C 14,7 °C 94 % 1009,0 hPa 0,0 mm 0,5 km/h (0 Bft) S 177 ° 0 min 0,000 mm 0,0 UV-I 0 W/m² 13,7 °C 14,7 °C 3,2 km/h (1 Bft)
27.06.2017 02:35 14,7 °C 14,7 °C 94 % 1009,1 hPa 0,0 mm 0,9 km/h (0 Bft) SO 130 ° 0 min 0,000 mm 0,0 UV-I 0 W/m² 13,7 °C 14,7 °C 3,2 km/h (1 Bft)
27.06.2017 02:36 14,7 °C 14,7 °C 94 % 1009,1 hPa 0,0 mm 3,5 km/h (1 Bft) W 266 ° 0 min 0,000 mm 0,0 UV-I 0 W/m² 13,7 °C 14,7 °C 4,8 km/h (1 Bft)
27.06.2017 02:37 14,7 °C 14,7 °C 95 % 1009,2 hPa 0,0 mm 3,8 km/h (1 Bft) W-NW 290 ° 0 min 0,000 mm 0,0 UV-I 0 W/m² 13,9 °C 14,7 °C 6,4 km/h (2 Bft)
27.06.2017 02:38 14,7 °C 14,7 °C 95 % 1009,2 hPa 0,0 mm 1,5 km/h (1 Bft) W-SW 257 ° 0 min 0,000 mm 0,0 UV-I 0 W/m² 13,9 °C 14,7 °C 3,2 km/h (1 Bft)
27.06.2017 02:39 14,7 °C 14,7 °C 94 % 1009,2 hPa 0,0 mm 1,9 km/h (1 Bft) W 266 ° 0 min 0,000 mm 0,0 UV-I 0 W/m² 13,7 °C 14,7 °C 4,8 km/h (1 Bft)
27.06.2017 02:40 14,7 °C 14,7 °C 94 % 1009,1 hPa 0,0 mm 1,1 km/h (1 Bft) W-SW 253 ° 0 min 0,000 mm 0,0 UV-I 0 W/m² 13,7 °C 14,7 °C 1,6 km/h (1 Bft)
27.06.2017 02:41 14,7 °C 14,8 °C 94 % 1009,2 hPa 0,0 mm 0,7 km/h (0 Bft) SW 214 ° 0 min 0,000 mm 0,0 UV-I 0 W/m² 13,7 °C 14,7 °C 3,2 km/h (1 Bft)
27.06.2017 02:42 14,8 °C 14,8 °C 94 % 1009,2 hPa 0,0 mm 2,1 km/h (1 Bft) W 259 ° 0 min 0,000 mm 0,0 UV-I 0 W/m² 13,8 °C 14,8 °C 6,4 km/h (2 Bft)
27.06.2017 02:43 14,8 °C 14,8 °C 94 % 1009,2 hPa 0,0 mm 1,2 km/h (1 Bft) W 259 ° 0 min 0,000 mm 0,0 UV-I 0 W/m² 13,8 °C 14,8 °C 3,2 km/h (1 Bft)
27.06.2017 02:44 14,8 °C 14,8 °C 94 % 1009,2 hPa 0,0 mm 3,3 km/h (1 Bft) W 271 ° 0 min 0,000 mm 0,0 UV-I 0 W/m² 13,8 °C 14,8 °C 4,8 km/h (1 Bft)
27.06.2017 02:45 14,8 °C 14,8 °C 94 % 1009,2 hPa 0,0 mm 3,8 km/h (1 Bft) W 269 ° 0 min 0,000 mm 0,0 UV-I 0 W/m² 13,8 °C 14,8 °C 6,4 km/h (2 Bft)
27.06.2017 02:46 14,8 °C 14,9 °C 94 % 1009,2 hPa 0,0 mm 2,0 km/h (1 Bft) W 269 ° 0 min 0,000 mm 0,0 UV-I 0 W/m² 13,8 °C 14,8 °C 3,2 km/h (1 Bft)
27.06.2017 02:47 14,8 °C 14,8 °C 94 % 1009,1 hPa 0,0 mm 0,5 km/h (0 Bft) W 269 ° 0 min 0,000 mm 0,0 UV-I 0 W/m² 13,8 °C 14,8 °C 1,6 km/h (1 Bft)
27.06.2017 02:48 14,8 °C 14,8 °C 94 % 1009,1 hPa 0,0 mm 1,1 km/h (1 Bft) S-SW 196 ° 0 min 0,000 mm 0,0 UV-I 0 W/m² 13,8 °C 14,8 °C 3,2 km/h (1 Bft)
27.06.2017 02:49 14,8 °C 14,8 °C 94 % 1009,1 hPa 0,0 mm 1,3 km/h (1 Bft) S 183 ° 0 min 0,000 mm 0,0 UV-I 0 W/m² 13,8 °C 14,8 °C 4,8 km/h (1 Bft)
27.06.2017 02:50 14,8 °C 14,8 °C 94 % 1009,1 hPa 0,0 mm 2,1 km/h (1 Bft) W-SW 252 ° 0 min 0,000 mm 0,0 UV-I 0 W/m² 13,8 °C 14,8 °C 6,4 km/h (2 Bft)
27.06.2017 02:51 14,8 °C 14,8 °C 94 % 1009,2 hPa 0,0 mm 5,0 km/h (1 Bft) W-SW 250 ° 0 min 0,000 mm 0,0 UV-I 0 W/m² 13,8 °C 14,8 °C 6,4 km/h (2 Bft)
27.06.2017 02:52 14,9 °C 14,9 °C 94 % 1009,1 hPa 0,2 mm 1,6 km/h (1 Bft) W-SW 250 ° 0 min 0,000 mm 0,0 UV-I 0 W/m² 13,9 °C 14,9 °C 3,2 km/h (1 Bft)
27.06.2017 02:53 14,8 °C 14,9 °C 94 % 1009,2 hPa 0,0 mm 1,2 km/h (1 Bft) W-SW 250 ° 0 min 0,000 mm 0,0 UV-I 0 W/m² 13,8 °C 14,8 °C 3,2 km/h (1 Bft)
27.06.2017 02:54 14,9 °C 14,9 °C 94 % 1009,2 hPa 0,0 mm 2,3 km/h (1 Bft) SW 231 ° 0 min 0,000 mm 0,0 UV-I 0 W/m² 13,9 °C 14,9 °C 4,8 km/h (1 Bft)
27.06.2017 02:55 14,9 °C 14,9 °C 94 % 1009,1 hPa 0,0 mm 0,0 km/h (0 Bft) SW 231 ° 0 min 0,000 mm 0,0 UV-I 0 W/m² 13,9 °C 14,9 °C 0,0 km/h (0 Bft)
27.06.2017 02:56 14,8 °C 14,9 °C 94 % 1009,2 hPa 0,2 mm 0,0 km/h (0 Bft) SW 231 ° 0 min 0,000 mm 0,0 UV-I 0 W/m² 13,8 °C 14,8 °C 0,0 km/h (0 Bft)
27.06.2017 02:57 14,8 °C 14,8 °C 94 % 1009,2 hPa 0,0 mm 3,8 km/h (1 Bft) O 98 ° 0 min 0,000 mm 0,0 UV-I 0 W/m² 13,8 °C 14,8 °C 6,4 km/h (2 Bft)
27.06.2017 02:58 14,8 °C 14,8 °C 94 % 1009,2 hPa 0,0 mm 0,5 km/h (0 Bft) NW 319 ° 0 min 0,000 mm 0,0 UV-I 0 W/m² 13,8 °C 14,8 °C 3,2 km/h (1 Bft)
27.06.2017 02:59 14,8 °C 14,8 °C 94 % 1009,2 hPa 0,0 mm 1,7 km/h (1 Bft) S 174 ° 0 min 0,000 mm 0,0 UV-I 0 W/m² 13,8 °C 14,8 °C 3,2 km/h (1 Bft)
27.06.2017 03:00 14,8 °C 14,8 °C 94 % 1009,2 hPa 0,0 mm 0,9 km/h (0 Bft) S 174 ° 0 min 0,000 mm 0,0 UV-I 0 W/m² 13,8 °C 14,8 °C 3,2 km/h (1 Bft)
27.06.2017 03:01 14,8 °C 14,8 °C 94 % 1009,2 hPa 0,0 mm 2,3 km/h (1 Bft) SO 128 ° 0 min 0,000 mm 0,0 UV-I 0 W/m² 13,8 °C 14,8 °C 3,2 km/h (1 Bft)
27.06.2017 03:02 14,8 °C 14,8 °C 94 % 1009,2 hPa 0,2 mm 2,1 km/h (1 Bft) O-SO 120 ° 0 min 0,000 mm 0,0 UV-I 0 W/m² 13,8 °C 14,8 °C 3,2 km/h (1 Bft)
27.06.2017 03:03 14,8 °C 14,8 °C 94 % 1009,2 hPa 0,0 mm 1,3 km/h (1 Bft) O-SO 120 ° 0 min 0,000 mm 0,0 UV-I 0 W/m² 13,8 °C 14,8 °C 3,2 km/h (1 Bft)
27.06.2017 03:04 14,8 °C 14,8 °C 94 % 1009,2 hPa 0,2 mm 0,5 km/h (0 Bft) O-SO 120 ° 0 min 0,000 mm 0,0 UV-I 0 W/m² 13,8 °C 14,8 °C 1,6 km/h (1 Bft)
27.06.2017 03:05 14,8 °C 14,8 °C 94 % 1009,2 hPa 0,2 mm 0,0 km/h (0 Bft) O-SO 120 ° 0 min 0,000 mm 0,0 UV-I 0 W/m² 13,8 °C 14,8 °C 0,0 km/h (0 Bft)
27.06.2017 03:06 14,8 °C 14,8 °C 94 % 1009,2 hPa 0,0 mm 0,8 km/h (0 Bft) O-SO 121 ° 0 min 0,000 mm 0,0 UV-I 0 W/m² 13,8 °C 14,8 °C 1,6 km/h (1 Bft)
27.06.2017 03:07 14,8 °C 14,8 °C 94 % 1009,2 hPa 0,2 mm 0,0 km/h (0 Bft) O-SO 121 ° 0 min 0,000 mm 0,0 UV-I 0 W/m² 13,8 °C 14,8 °C 0,0 km/h (0 Bft)
27.06.2017 03:08 14,8 °C 14,8 °C 94 % 1009,2 hPa 0,0 mm 0,0 km/h (0 Bft) O-SO 121 ° 0 min 0,000 mm 0,0 UV-I 0 W/m² 13,8 °C 14,8 °C 0,0 km/h (0 Bft)
27.06.2017 03:09 14,8 °C 14,8 °C 94 % 1009,2 hPa 0,2 mm 0,4 km/h (0 Bft) O-SO 121 ° 0 min 0,000 mm 0,0 UV-I 0 W/m² 13,8 °C 14,8 °C 1,6 km/h (1 Bft)
27.06.2017 03:10 14,8 °C 14,8 °C 94 % 1009,1 hPa 0,2 mm 0,8 km/h (0 Bft) O-SO 121 ° 0 min 0,000 mm 0,0 UV-I 0 W/m² 13,8 °C 14,8 °C 3,2 km/h (1 Bft)
27.06.2017 03:11 14,8 °C 14,8 °C 94 % 1009,1 hPa 0,0 mm 1,9 km/h (1 Bft) O-SO 121 ° 0 min 0,000 mm 0,0 UV-I 0 W/m² 13,8 °C 14,8 °C 3,2 km/h (1 Bft)
27.06.2017 03:12 14,8 °C 14,8 °C 94 % 1009,1 hPa 0,2 mm 0,3 km/h (0 Bft) O-SO 121 ° 0 min 0,000 mm 0,0 UV-I 0 W/m² 13,8 °C 14,8 °C 1,6 km/h (1 Bft)
27.06.2017 03:13 14,7 °C 14,8 °C 94 % 1009,2 hPa 0,0 mm 0,0 km/h (0 Bft) O-SO 121 ° 0 min 0,000 mm 0,0 UV-I 0 W/m² 13,7 °C 14,7 °C 0,0 km/h (0 Bft)
27.06.2017 03:14 14,7 °C 14,8 °C 94 % 1009,2 hPa 0,0 mm 0,0 km/h (0 Bft) O-SO 121 ° 0 min 0,000 mm 0,0 UV-I 0 W/m² 13,7 °C 14,7 °C 0,0 km/h (0 Bft)
27.06.2017 03:15 14,7 °C 14,7 °C 94 % 1009,2 hPa 0,0 mm 0,0 km/h (0 Bft) O-SO 121 ° 0 min 0,000 mm 0,0 UV-I 0 W/m² 13,7 °C 14,7 °C 0,0 km/h (0 Bft)
27.06.2017 03:16 14,7 °C 14,7 °C 94 % 1009,1 hPa 0,0 mm 0,0 km/h (0 Bft) O-SO 121 ° 0 min 0,000 mm 0,0 UV-I 0 W/m² 13,7 °C 14,7 °C 0,0 km/h (0 Bft)
27.06.2017 03:17 14,7 °C 14,7 °C 94 % 1009,1 hPa 0,0 mm 0,0 km/h (0 Bft) O-SO 121 ° 0 min 0,000 mm 0,0 UV-I 0 W/m² 13,7 °C 14,7 °C 0,0 km/h (0 Bft)
27.06.2017 03:18 14,7 °C 14,7 °C 94 % 1009,1 hPa 0,0 mm 0,0 km/h (0 Bft) O-SO 121 ° 0 min 0,000 mm 0,0 UV-I 0 W/m² 13,7 °C 14,7 °C 0,0 km/h (0 Bft)
27.06.2017 03:19 14,7 °C 14,7 °C 94 % 1009,1 hPa 0,0 mm 0,0 km/h (0 Bft) O-SO 121 ° 0 min 0,000 mm 0,0 UV-I 0 W/m² 13,7 °C 14,7 °C 0,0 km/h (0 Bft)
27.06.2017 03:20 14,7 °C 14,7 °C 94 % 1009,1 hPa 0,0 mm 0,0 km/h (0 Bft) O-SO 121 ° 0 min 0,000 mm 0,0 UV-I 0 W/m² 13,7 °C 14,7 °C 0,0 km/h (0 Bft)
27.06.2017 03:21 14,7 °C 14,7 °C 94 % 1009,1 hPa 0,0 mm 0,0 km/h (0 Bft) O-SO 121 ° 0 min 0,000 mm 0,0 UV-I 0 W/m² 13,7 °C 14,7 °C 0,0 km/h (0 Bft)
27.06.2017 03:22 14,7 °C 14,7 °C 95 % 1009,0 hPa 0,0 mm 0,0 km/h (0 Bft) O-SO 121 ° 0 min 0,000 mm 0,0 UV-I 0 W/m² 13,9 °C 14,7 °C 0,0 km/h (0 Bft)
27.06.2017 03:23 14,7 °C 14,7 °C 95 % 1009,0 hPa 0,0 mm 0,0 km/h (0 Bft) O-SO 121 ° 0 min 0,000 mm 0,0 UV-I 0 W/m² 13,9 °C 14,7 °C 0,0 km/h (0 Bft)
27.06.2017 03:24 14,6 °C 14,7 °C 95 % 1009,0 hPa 0,0 mm 0,0 km/h (0 Bft) O-SO 121 ° 0 min 0,000 mm 0,0 UV-I 0 W/m² 13,8 °C 14,6 °C 0,0 km/h (0 Bft)
27.06.2017 03:25 14,6 °C 14,6 °C 95 % 1009,0 hPa 0,0 mm 0,0 km/h (0 Bft) O-SO 121 ° 0 min 0,000 mm 0,0 UV-I 0 W/m² 13,8 °C 14,6 °C 0,0 km/h (0 Bft)
27.06.2017 03:26 14,6 °C 14,7 °C 95 % 1009,0 hPa 0,0 mm 0,0 km/h (0 Bft) O-SO 121 ° 0 min 0,000 mm 0,0 UV-I 0 W/m² 13,8 °C 14,6 °C 0,0 km/h (0 Bft)
27.06.2017 03:27 14,6 °C 14,7 °C 95 % 1008,9 hPa 0,0 mm 0,0 km/h (0 Bft) S-SO 150 ° 0 min 0,000 mm 0,0 UV-I 0 W/m² 13,8 °C 14,6 °C 0,0 km/h (0 Bft)
27.06.2017 03:28 14,6 °C 14,7 °C 95 % 1008,9 hPa 0,0 mm 0,0 km/h (0 Bft) S-SO 150 ° 0 min 0,000 mm 0,0 UV-I 0 W/m² 13,8 °C 14,6 °C 0,0 km/h (0 Bft)
27.06.2017 03:29 14,6 °C 14,7 °C 95 % 1009,0 hPa 0,0 mm 0,0 km/h (0 Bft) S-SO 150 ° 0 min 0,000 mm 0,0 UV-I 0 W/m² 13,8 °C 14,6 °C 0,0 km/h (0 Bft)
27.06.2017 03:30 14,6 °C 14,7 °C 95 % 1009,0 hPa 0,0 mm 0,0 km/h (0 Bft) S-SO 150 ° 0 min 0,000 mm 0,0 UV-I 0 W/m² 13,8 °C 14,6 °C 0,0 km/h (0 Bft)
27.06.2017 03:31 14,6 °C 14,7 °C 95 % 1009,0 hPa 0,0 mm 0,0 km/h (0 Bft) S-SO 150 ° 0 min 0,000 mm 0,0 UV-I 0 W/m² 13,8 °C 14,6 °C 0,0 km/h (0 Bft)
27.06.2017 03:32 14,6 °C 14,6 °C 95 % 1008,9 hPa 0,0 mm 0,0 km/h (0 Bft) S-SO 150 ° 0 min 0,000 mm 0,0 UV-I 0 W/m² 13,8 °C 14,6 °C 0,0 km/h (0 Bft)
27.06.2017 03:33 14,6 °C 14,7 °C 95 % 1009,0 hPa 0,0 mm 0,0 km/h (0 Bft) S-SO 150 ° 0 min 0,000 mm 0,0 UV-I 0 W/m² 13,8 °C 14,6 °C 0,0 km/h (0 Bft)
27.06.2017 03:34 14,6 °C 14,6 °C 95 % 1008,9 hPa 0,0 mm 0,0 km/h (0 Bft) S-SO 150 ° 0 min 0,000 mm 0,0 UV-I 0 W/m² 13,8 °C 14,6 °C 0,0 km/h (0 Bft)
27.06.2017 03:35 14,6 °C 14,7 °C 95 % 1008,9 hPa 0,0 mm 0,0 km/h (0 Bft) S-SO 150 ° 0 min 0,000 mm 0,0 UV-I 0 W/m² 13,8 °C 14,6 °C 0,0 km/h (0 Bft)
27.06.2017 03:36 14,6 °C 14,6 °C 95 % 1008,9 hPa 0,0 mm 0,0 km/h (0 Bft) S-SO 150 ° 0 min 0,000 mm 0,0 UV-I 0 W/m² 13,8 °C 14,6 °C 0,0 km/h (0 Bft)
27.06.2017 03:37 14,6 °C 14,6 °C 95 % 1008,9 hPa 0,0 mm 0,0 km/h (0 Bft) S-SO 150 ° 0 min 0,000 mm 0,0 UV-I 0 W/m² 13,8 °C 14,6 °C 0,0 km/h (0 Bft)
27.06.2017 03:38 14,6 °C 14,7 °C 95 % 1008,8 hPa 0,0 mm 0,0 km/h (0 Bft) S-SO 150 ° 0 min 0,000 mm 0,0 UV-I 0 W/m² 13,8 °C 14,6 °C 0,0 km/h (0 Bft)
27.06.2017 03:39 14,6 °C 14,6 °C 95 % 1008,8 hPa 0,0 mm 0,0 km/h (0 Bft) S-SO 150 ° 0 min 0,000 mm 0,0 UV-I 0 W/m² 13,8 °C 14,6 °C 0,0 km/h (0 Bft)
27.06.2017 03:40 14,6 °C 14,6 °C 95 % 1008,9 hPa 0,0 mm 0,0 km/h (0 Bft) S-SO 150 ° 0 min 0,000 mm 0,0 UV-I 0 W/m² 13,8 °C 14,6 °C 0,0 km/h (0 Bft)
27.06.2017 03:41 14,6 °C 14,6 °C 95 % 1008,8 hPa 0,0 mm 0,0 km/h (0 Bft) S-SO 150 ° 0 min 0,000 mm 0,0 UV-I 0 W/m² 13,8 °C 14,6 °C 0,0 km/h (0 Bft)
27.06.2017 03:42 14,6 °C 14,6 °C 95 % 1008,8 hPa 0,0 mm 0,0 km/h (0 Bft) S-SO 150 ° 0 min 0,000 mm 0,0 UV-I 0 W/m² 13,8 °C 14,6 °C 0,0 km/h (0 Bft)
27.06.2017 03:43 14,6 °C 14,6 °C 95 % 1008,8 hPa 0,0 mm 2,3 km/h (1 Bft) S 184 ° 0 min 0,000 mm 0,0 UV-I 0 W/m² 13,8 °C 14,6 °C 6,4 km/h (2 Bft)
27.06.2017 03:44 14,6 °C 14,6 °C 95 % 1008,8 hPa 0,0 mm 3,3 km/h (1 Bft) S 183 ° 0 min 0,000 mm 0,0 UV-I 0 W/m² 13,8 °C 14,6 °C 6,4 km/h (2 Bft)
27.06.2017 03:45 14,6 °C 14,6 °C 95 % 1008,9 hPa 0,0 mm 1,9 km/h (1 Bft) S 169 ° 0 min 0,000 mm 0,0 UV-I 0 W/m² 13,8 °C 14,6 °C 3,2 km/h (1 Bft)
27.06.2017 03:46 14,6 °C 14,6 °C 95 % 1008,9 hPa 0,0 mm 1,2 km/h (1 Bft) S-SO 162 ° 0 min 0,000 mm 0,0 UV-I 0 W/m² 13,8 °C 14,6 °C 3,2 km/h (1 Bft)
27.06.2017 03:47 14,6 °C 14,6 °C 95 % 1008,8 hPa 0,0 mm 2,1 km/h (1 Bft) O 85 ° 0 min 0,000 mm 0,0 UV-I 0 W/m² 13,8 °C 14,6 °C 3,2 km/h (1 Bft)
27.06.2017 03:48 14,6 °C 14,6 °C 95 % 1008,8 hPa 0,0 mm 0,2 km/h (0 Bft) O 85 ° 0 min 0,000 mm 0,0 UV-I 0 W/m² 13,8 °C 14,6 °C 1,6 km/h (1 Bft)
27.06.2017 03:49 14,6 °C 14,6 °C 95 % 1008,9 hPa 0,0 mm 0,4 km/h (0 Bft) O 87 ° 0 min 0,000 mm 0,0 UV-I 0 W/m² 13,8 °C 14,6 °C 1,6 km/h (1 Bft)
27.06.2017 03:50 14,6 °C 14,6 °C 95 % 1008,9 hPa 0,0 mm 0,0 km/h (0 Bft) O 87 ° 0 min 0,000 mm 0,0 UV-I 0 W/m² 13,8 °C 14,6 °C 0,0 km/h (0 Bft)
27.06.2017 03:51 14,6 °C 14,6 °C 95 % 1008,9 hPa 0,0 mm 0,0 km/h (0 Bft) O 87 ° 0 min 0,000 mm 0,0 UV-I 0 W/m² 13,8 °C 14,6 °C 0,0 km/h (0 Bft)
27.06.2017 03:52 14,6 °C 14,6 °C 94 % 1008,9 hPa 0,2 mm 0,0 km/h (0 Bft) O 87 ° 0 min 0,000 mm 0,0 UV-I 0 W/m² 13,6 °C 14,6 °C 0,0 km/h (0 Bft)
27.06.2017 03:53 14,5 °C 14,6 °C 95 % 1008,9 hPa 0,0 mm 0,0 km/h (0 Bft) O 87 ° 0 min 0,000 mm 0,0 UV-I 0 W/m² 13,7 °C 14,5 °C 0,0 km/h (0 Bft)
27.06.2017 03:54 14,5 °C 14,5 °C 95 % 1008,9 hPa 0,0 mm 0,0 km/h (0 Bft) O 87 ° 0 min 0,000 mm 0,0 UV-I 0 W/m² 13,7 °C 14,5 °C 0,0 km/h (0 Bft)
27.06.2017 03:55 14,5 °C 14,5 °C 95 % 1008,9 hPa 0,0 mm 0,1 km/h (0 Bft) O 87 ° 0 min 0,000 mm 0,0 UV-I 0 W/m² 13,7 °C 14,5 °C 1,6 km/h (1 Bft)
27.06.2017 03:56 14,5 °C 14,5 °C 95 % 1008,8 hPa 0,0 mm 0,3 km/h (0 Bft) O 87 ° 0 min 0,000 mm 0,0 UV-I 0 W/m² 13,7 °C 14,5 °C 1,6 km/h (1 Bft)
27.06.2017 03:57 14,4 °C 14,5 °C 95 % 1008,8 hPa 0,0 mm 1,0 km/h (0 Bft) O 87 ° 0 min 0,000 mm 0,0 UV-I 0 W/m² 13,6 °C 14,4 °C 1,6 km/h (1 Bft)
27.06.2017 03:58 14,4 °C 14,5 °C 95 % 1008,7 hPa 0,0 mm 0,3 km/h (0 Bft) O 87 ° 0 min 0,000 mm 0,0 UV-I 0 W/m² 13,6 °C 14,4 °C 1,6 km/h (1 Bft)
27.06.2017 03:59 14,4 °C 14,4 °C 95 % 1008,7 hPa 0,0 mm 0,0 km/h (0 Bft) O 87 ° 0 min 0,000 mm 0,0 UV-I 0 W/m² 13,6 °C 14,4 °C 0,0 km/h (0 Bft)
27.06.2017 04:00 14,5 °C 14,5 °C 95 % 1008,7 hPa 0,0 mm 0,5 km/h (0 Bft) O 87 ° 0 min 0,000 mm 0,0 UV-I 0 W/m² 13,7 °C 14,5 °C 1,6 km/h (1 Bft)
27.06.2017 04:01 14,4 °C 14,5 °C 95 % 1008,7 hPa 0,0 mm 0,6 km/h (0 Bft) O 86 ° 0 min 0,000 mm 0,0 UV-I 0 W/m² 13,6 °C 14,4 °C 3,2 km/h (1 Bft)
27.06.2017 04:02 14,5 °C 14,6 °C 95 % 1008,8 hPa 0,0 mm 0,7 km/h (0 Bft) O 86 ° 0 min 0,000 mm 0,0 UV-I 0 W/m² 13,7 °C 14,5 °C 3,2 km/h (1 Bft)
27.06.2017 04:03 14,5 °C 14,6 °C 95 % 1008,8 hPa 0,2 mm 0,0 km/h (0 Bft) O 86 ° 0 min 0,000 mm 0,0 UV-I 0 W/m² 13,7 °C 14,5 °C 0,0 km/h (0 Bft)
27.06.2017 04:04 14,5 °C 14,6 °C 95 % 1008,7 hPa 0,0 mm 0,0 km/h (0 Bft) O 86 ° 0 min 0,000 mm 0,0 UV-I 0 W/m² 13,7 °C 14,5 °C 0,0 km/h (0 Bft)
27.06.2017 04:05 14,5 °C 14,5 °C 95 % 1008,7 hPa 0,0 mm 0,0 km/h (0 Bft) O 86 ° 0 min 0,000 mm 0,0 UV-I 0 W/m² 13,7 °C 14,5 °C 0,0 km/h (0 Bft)
27.06.2017 04:06 14,5 °C 14,5 °C 95 % 1008,7 hPa 0,0 mm 0,0 km/h (0 Bft) O 86 ° 0 min 0,000 mm 0,0 UV-I 0 W/m² 13,7 °C 14,5 °C 0,0 km/h (0 Bft)
27.06.2017 04:07 14,4 °C 14,5 °C 95 % 1008,7 hPa 0,0 mm 0,2 km/h (0 Bft) O 86 ° 0 min 0,000 mm 0,0 UV-I 0 W/m² 13,6 °C 14,4 °C 3,2 km/h (1 Bft)
27.06.2017 04:08 14,4 °C 14,4 °C 95 % 1008,6 hPa 0,0 mm 1,3 km/h (1 Bft) O 86 ° 0 min 0,000 mm 0,0 UV-I 0 W/m² 13,6 °C 14,4 °C 3,2 km/h (1 Bft)
27.06.2017 04:09 14,4 °C 14,4 °C 95 % 1008,6 hPa 0,0 mm 0,1 km/h (0 Bft) O 86 ° 0 min 0,000 mm 0,0 UV-I 0 W/m² 13,6 °C 14,4 °C 1,6 km/h (1 Bft)
27.06.2017 04:10 14,4 °C 14,4 °C 95 % 1008,5 hPa 0,0 mm 1,2 km/h (1 Bft) O 86 ° 0 min 0,000 mm 0,0 UV-I 0 W/m² 13,6 °C 14,4 °C 3,2 km/h (1 Bft)
27.06.2017 04:11 14,4 °C 14,4 °C 95 % 1008,4 hPa 0,0 mm 0,1 km/h (0 Bft) O 86 ° 0 min 0,000 mm 0,0 UV-I 0 W/m² 13,6 °C 14,4 °C 1,6 km/h (1 Bft)
27.06.2017 04:12 14,4 °C 14,4 °C 95 % 1008,3 hPa 0,0 mm 0,0 km/h (0 Bft) O 86 ° 0 min 0,000 mm 0,0 UV-I 0 W/m² 13,6 °C 14,4 °C 0,0 km/h (0 Bft)
27.06.2017 04:13 14,4 °C 14,4 °C 95 % 1008,3 hPa 0,0 mm 0,9 km/h (0 Bft) O 86 ° 0 min 0,000 mm 0,0 UV-I 0 W/m² 13,6 °C 14,4 °C 3,2 km/h (1 Bft)
27.06.2017 04:14 14,4 °C 14,4 °C 95 % 1008,2 hPa 0,0 mm 0,3 km/h (0 Bft) O 86 ° 0 min 0,000 mm 0,0 UV-I 0 W/m² 13,6 °C 14,4 °C 1,6 km/h (1 Bft)
27.06.2017 04:15 14,4 °C 14,4 °C 95 % 1008,2 hPa 0,0 mm 1,3 km/h (1 Bft) O 86 ° 0 min 0,000 mm 0,0 UV-I 0 W/m² 13,6 °C 14,4 °C 3,2 km/h (1 Bft)
27.06.2017 04:16 14,4 °C 14,4 °C 95 % 1008,1 hPa 0,0 mm 1,1 km/h (1 Bft) O 86 ° 0 min 0,000 mm 0,0 UV-I 0 W/m² 13,6 °C 14,4 °C 1,6 km/h (1 Bft)
27.06.2017 04:17 14,4 °C 14,4 °C 95 % 1008,1 hPa 0,0 mm 1,3 km/h (1 Bft) O 86 ° 0 min 0,000 mm 0,0 UV-I 0 W/m² 13,6 °C 14,4 °C 3,2 km/h (1 Bft)
27.06.2017 04:18 14,4 °C 14,4 °C 95 % 1008,0 hPa 0,2 mm 2,9 km/h (1 Bft) O-NO 61 ° 0 min 0,000 mm 0,0 UV-I 0 W/m² 13,6 °C 14,4 °C 4,8 km/h (1 Bft)
27.06.2017 04:19 14,4 °C 14,4 °C 95 % 1008,1 hPa 0,0 mm 2,5 km/h (1 Bft) O-NO 61 ° 0 min 0,000 mm 0,0 UV-I 0 W/m² 13,6 °C 14,4 °C 4,8 km/h (1 Bft)
27.06.2017 04:20 14,4 °C 14,4 °C 95 % 1008,1 hPa 0,0 mm 0,0 km/h (0 Bft) O-NO 61 ° 0 min 0,000 mm 0,0 UV-I 0 W/m² 13,6 °C 14,4 °C 0,0 km/h (0 Bft)
27.06.2017 04:21 14,4 °C 14,4 °C 95 % 1008,1 hPa 0,0 mm 2,0 km/h (1 Bft) O 79 ° 0 min 0,000 mm 0,0 UV-I 0 W/m² 13,6 °C 14,4 °C 6,4 km/h (2 Bft)
27.06.2017 04:22 14,4 °C 14,4 °C 95 % 1008,1 hPa 0,0 mm 1,2 km/h (1 Bft) O-NO 78 ° 0 min 0,000 mm 0,0 UV-I 0 W/m² 13,6 °C 14,4 °C 3,2 km/h (1 Bft)
27.06.2017 04:23 14,4 °C 14,4 °C 95 % 1008,2 hPa 0,0 mm 2,5 km/h (1 Bft) N 360 ° 0 min 0,000 mm 0,0 UV-I 0 W/m² 13,6 °C 14,4 °C 4,8 km/h (1 Bft)
27.06.2017 04:24 14,4 °C 14,4 °C 95 % 1008,2 hPa 0,0 mm 1,9 km/h (1 Bft) NO 35 ° 0 min 0,000 mm 0,0 UV-I 0 W/m² 13,6 °C 14,4 °C 4,8 km/h (1 Bft)
27.06.2017 04:25 14,4 °C 14,4 °C 95 % 1008,2 hPa 0,0 mm 0,5 km/h (0 Bft) NO 35 ° 0 min 0,000 mm 0,0 UV-I 0 W/m² 13,6 °C 14,4 °C 1,6 km/h (1 Bft)
27.06.2017 04:26 14,4 °C 14,4 °C 95 % 1008,3 hPa 0,2 mm 0,5 km/h (0 Bft) NO 35 ° 0 min 0,000 mm 0,0 UV-I 0 W/m² 13,6 °C 14,4 °C 1,6 km/h (1 Bft)
27.06.2017 04:27 14,4 °C 14,4 °C 95 % 1008,3 hPa 0,0 mm 0,5 km/h (0 Bft) NO 35 ° 0 min 0,000 mm 0,0 UV-I 0 W/m² 13,6 °C 14,4 °C 1,6 km/h (1 Bft)
27.06.2017 04:28 14,4 °C 14,4 °C 95 % 1008,4 hPa 0,0 mm 0,8 km/h (0 Bft) NO 35 ° 0 min 0,000 mm 0,0 UV-I 0 W/m² 13,6 °C 14,4 °C 3,2 km/h (1 Bft)
27.06.2017 04:29 14,4 °C 14,4 °C 95 % 1008,3 hPa 0,0 mm 1,5 km/h (1 Bft) NO 35 ° 0 min 0,000 mm 0,0 UV-I 0 W/m² 13,6 °C 14,4 °C 3,2 km/h (1 Bft)
27.06.2017 04:30 14,4 °C 14,5 °C 95 % 1008,4 hPa 0,0 mm 0,4 km/h (0 Bft) NO 35 ° 0 min 0,000 mm 0,0 UV-I 0 W/m² 13,6 °C 14,4 °C 1,6 km/h (1 Bft)
27.06.2017 04:31 14,4 °C 14,4 °C 95 % 1008,3 hPa 0,0 mm 0,0 km/h (0 Bft) NO 35 ° 0 min 0,000 mm 0,0 UV-I 0 W/m² 13,6 °C 14,4 °C 0,0 km/h (0 Bft)
27.06.2017 04:32 14,4 °C 14,4 °C 95 % 1008,3 hPa 0,0 mm 0,2 km/h (0 Bft) NO 35 ° 0 min 0,000 mm 0,0 UV-I 0 W/m² 13,6 °C 14,4 °C 1,6 km/h (1 Bft)
27.06.2017 04:33 14,4 °C 14,4 °C 95 % 1008,3 hPa 0,0 mm 0,0 km/h (0 Bft) NO 35 ° 0 min 0,000 mm 0,0 UV-I 0 W/m² 13,6 °C 14,4 °C 0,0 km/h (0 Bft)
27.06.2017 04:34 14,4 °C 14,4 °C 95 % 1008,3 hPa 0,0 mm 0,0 km/h (0 Bft) NO 35 ° 0 min 0,000 mm 0,0 UV-I 0 W/m² 13,6 °C 14,4 °C 0,0 km/h (0 Bft)
27.06.2017 04:35 14,4 °C 14,4 °C 95 % 1008,3 hPa 0,0 mm 0,0 km/h (0 Bft) NO 35 ° 0 min 0,000 mm 0,0 UV-I 0 W/m² 13,6 °C 14,4 °C 0,0 km/h (0 Bft)
27.06.2017 04:36 14,4 °C 14,4 °C 95 % 1008,3 hPa 0,0 mm 0,0 km/h (0 Bft) NO 35 ° 0 min 0,000 mm 0,0 UV-I 0 W/m² 13,6 °C 14,4 °C 0,0 km/h (0 Bft)
27.06.2017 04:37 14,4 °C 14,4 °C 95 % 1008,3 hPa 0,0 mm 0,0 km/h (0 Bft) NO 35 ° 0 min 0,000 mm 0,0 UV-I 0 W/m² 13,6 °C 14,4 °C 0,0 km/h (0 Bft)
27.06.2017 04:38 14,4 °C 14,4 °C 95 % 1008,3 hPa 0,0 mm 0,0 km/h (0 Bft) NO 35 ° 0 min 0,000 mm 0,0 UV-I 0 W/m² 13,6 °C 14,4 °C 0,0 km/h (0 Bft)
27.06.2017 04:39 14,4 °C 14,4 °C 95 % 1008,3 hPa 0,0 mm 0,0 km/h (0 Bft) NO 35 ° 0 min 0,000 mm 0,0 UV-I 0 W/m² 13,6 °C 14,4 °C 0,0 km/h (0 Bft)
27.06.2017 04:40 14,4 °C 14,4 °C 95 % 1008,3 hPa 0,0 mm 0,8 km/h (0 Bft) NO 35 ° 0 min 0,000 mm 0,0 UV-I 0 W/m² 13,6 °C 14,4 °C 3,2 km/h (1 Bft)
27.06.2017 04:41 14,5 °C 14,5 °C 95 % 1008,3 hPa 0,0 mm 2,5 km/h (1 Bft) NO 35 ° 0 min 0,000 mm 0,0 UV-I 0 W/m² 13,7 °C 14,5 °C 3,2 km/h (1 Bft)
27.06.2017 04:42 14,4 °C 14,5 °C 95 % 1008,3 hPa 0,0 mm 1,4 km/h (1 Bft) NO 35 ° 0 min 0,000 mm 0,0 UV-I 0 W/m² 13,6 °C 14,4 °C 4,8 km/h (1 Bft)
27.06.2017 04:43 14,5 °C 14,5 °C 95 % 1008,4 hPa 0,0 mm 1,5 km/h (1 Bft) NO 34 ° 0 min 0,000 mm 0,0 UV-I 0 W/m² 13,7 °C 14,5 °C 3,2 km/h (1 Bft)
27.06.2017 04:44 14,5 °C 14,5 °C 95 % 1008,4 hPa 0,0 mm 0,4 km/h (0 Bft) NO 34 ° 0 min 0,000 mm 0,0 UV-I 0 W/m² 13,7 °C 14,5 °C 1,6 km/h (1 Bft)
27.06.2017 04:45 14,4 °C 14,5 °C 95 % 1008,3 hPa 0,0 mm 0,0 km/h (0 Bft) NO 34 ° 0 min 0,000 mm 0,0 UV-I 0 W/m² 13,6 °C 14,4 °C 0,0 km/h (0 Bft)
27.06.2017 04:46 14,4 °C 14,4 °C 95 % 1008,3 hPa 0,0 mm 0,0 km/h (0 Bft) NO 34 ° 0 min 0,000 mm 0,0 UV-I 0 W/m² 13,6 °C 14,4 °C 0,0 km/h (0 Bft)
27.06.2017 04:47 14,4 °C 14,4 °C 95 % 1008,3 hPa 0,0 mm 0,0 km/h (0 Bft) NO 34 ° 0 min 0,000 mm 0,0 UV-I 0 W/m² 13,6 °C 14,4 °C 0,0 km/h (0 Bft)
27.06.2017 04:48 14,4 °C 14,4 °C 95 % 1008,3 hPa 0,0 mm 0,0 km/h (0 Bft) NO 34 ° 0 min 0,000 mm 0,0 UV-I 0 W/m² 13,6 °C 14,4 °C 0,0 km/h (0 Bft)
27.06.2017 04:49 14,4 °C 14,4 °C 95 % 1008,3 hPa 0,0 mm 0,0 km/h (0 Bft) NO 34 ° 0 min 0,000 mm 0,0 UV-I 0 W/m² 13,6 °C 14,4 °C 0,0 km/h (0 Bft)
27.06.2017 04:50 14,4 °C 14,4 °C 95 % 1008,3 hPa 0,0 mm 0,1 km/h (0 Bft) NO 34 ° 0 min 0,000 mm 0,0 UV-I 0 W/m² 13,6 °C 14,4 °C 1,6 km/h (1 Bft)
27.06.2017 04:51 14,4 °C 14,4 °C 95 % 1008,2 hPa 0,0 mm 0,4 km/h (0 Bft) NO 34 ° 0 min 0,000 mm 0,0 UV-I 0 W/m² 13,6 °C 14,4 °C 1,6 km/h (1 Bft)
27.06.2017 04:52 14,4 °C 14,4 °C 95 % 1008,2 hPa 0,0 mm 0,0 km/h (0 Bft) NO 34 ° 0 min 0,000 mm 0,0 UV-I 0 W/m² 13,6 °C 14,4 °C 0,0 km/h (0 Bft)
27.06.2017 04:53 14,4 °C 14,4 °C 95 % 1008,2 hPa 0,0 mm 0,0 km/h (0 Bft) NO 34 ° 0 min 0,000 mm 0,0 UV-I 0 W/m² 13,6 °C 14,4 °C 0,0 km/h (0 Bft)
27.06.2017 04:54 14,4 °C 14,4 °C 95 % 1008,2 hPa 0,0 mm 0,0 km/h (0 Bft) NO 34 ° 0 min 0,000 mm 0,0 UV-I 0 W/m² 13,6 °C 14,4 °C 0,0 km/h (0 Bft)
27.06.2017 04:55 14,4 °C 14,4 °C 95 % 1008,2 hPa 0,0 mm 1,4 km/h (1 Bft) O 98 ° 0 min 0,000 mm 0,0 UV-I 0 W/m² 13,6 °C 14,4 °C 4,8 km/h (1 Bft)
27.06.2017 04:56 14,4 °C 14,4 °C 95 % 1008,2 hPa 0,0 mm 1,9 km/h (1 Bft) O 98 ° 0 min 0,000 mm 0,0 UV-I 0 W/m² 13,6 °C 14,4 °C 3,2 km/h (1 Bft)
27.06.2017 04:57 14,4 °C 14,4 °C 95 % 1008,2 hPa 0,0 mm 2,6 km/h (1 Bft) O 98 ° 0 min 0,000 mm 0,0 UV-I 0 W/m² 13,6 °C 14,4 °C 4,8 km/h (1 Bft)
27.06.2017 04:58 14,4 °C 14,4 °C 95 % 1008,2 hPa 0,0 mm 3,2 km/h (1 Bft) O 98 ° 0 min 0,000 mm 0,0 UV-I 0 W/m² 13,6 °C 14,4 °C 4,8 km/h (1 Bft)
27.06.2017 04:59 14,4 °C 14,4 °C 95 % 1008,2 hPa 0,0 mm 0,5 km/h (0 Bft) O 98 ° 0 min 0,000 mm 0,0 UV-I 0 W/m² 13,6 °C 14,4 °C 1,6 km/h (1 Bft)
27.06.2017 05:00 14,4 °C 14,4 °C 95 % 1008,2 hPa 0,0 mm 0,1 km/h (0 Bft) O 98 ° 0 min 0,000 mm 0,0 UV-I 0 W/m² 13,6 °C 14,4 °C 1,6 km/h (1 Bft)
27.06.2017 05:01 14,4 °C 14,4 °C 95 % 1008,2 hPa 0,0 mm 2,3 km/h (1 Bft) O 98 ° 0 min 0,000 mm 0,0 UV-I 0 W/m² 13,6 °C 14,4 °C 3,2 km/h (1 Bft)
27.06.2017 05:02 14,4 °C 14,4 °C 95 % 1008,2 hPa 0,0 mm 0,1 km/h (0 Bft) O 98 ° 0 min 0,000 mm 0,0 UV-I 0 W/m² 13,6 °C 14,4 °C 1,6 km/h (1 Bft)
27.06.2017 05:03 14,4 °C 14,4 °C 95 % 1008,2 hPa 0,0 mm 0,0 km/h (0 Bft) O 98 ° 0 min 0,000 mm 0,0 UV-I 0 W/m² 13,6 °C 14,4 °C 0,0 km/h (0 Bft)
27.06.2017 05:04 14,4 °C 14,4 °C 95 % 1008,2 hPa 0,0 mm 0,0 km/h (0 Bft) O 98 ° 0 min 0,000 mm 0,0 UV-I 0 W/m² 13,6 °C 14,4 °C 0,0 km/h (0 Bft)
27.06.2017 05:05 14,4 °C 14,4 °C 95 % 1008,2 hPa 0,0 mm 0,0 km/h (0 Bft) O 98 ° 0 min 0,000 mm 0,0 UV-I 0 W/m² 13,6 °C 14,4 °C 0,0 km/h (0 Bft)
27.06.2017 05:06 14,4 °C 14,4 °C 95 % 1008,2 hPa 0,0 mm 0,0 km/h (0 Bft) O 98 ° 0 min 0,000 mm 0,0 UV-I 0 W/m² 13,6 °C 14,4 °C 0,0 km/h (0 Bft)
27.06.2017 05:07 14,4 °C 14,4 °C 95 % 1008,2 hPa 0,0 mm 0,0 km/h (0 Bft) O 98 ° 0 min 0,000 mm 0,0 UV-I 0 W/m² 13,6 °C 14,4 °C 0,0 km/h (0 Bft)
27.06.2017 05:08 14,4 °C 14,4 °C 95 % 1008,2 hPa 0,0 mm 0,0 km/h (0 Bft) O 98 ° 0 min 0,000 mm 0,0 UV-I 0 W/m² 13,6 °C 14,4 °C 0,0 km/h (0 Bft)
27.06.2017 05:09 14,4 °C 14,4 °C 95 % 1008,2 hPa 0,0 mm 0,0 km/h (0 Bft) O 98 ° 0 min 0,000 mm 0,0 UV-I 0 W/m² 13,6 °C 14,4 °C 0,0 km/h (0 Bft)
27.06.2017 05:10 14,4 °C 14,4 °C 95 % 1008,2 hPa 0,0 mm 0,0 km/h (0 Bft) O 98 ° 0 min 0,000 mm 0,0 UV-I 0 W/m² 13,6 °C 14,4 °C 0,0 km/h (0 Bft)
27.06.2017 05:11 14,4 °C 14,4 °C 95 % 1008,2 hPa 0,0 mm 0,0 km/h (0 Bft) O 98 ° 0 min 0,000 mm 0,0 UV-I 0 W/m² 13,6 °C 14,4 °C 0,0 km/h (0 Bft)
27.06.2017 05:12 14,4 °C 14,4 °C 95 % 1008,2 hPa 0,0 mm 0,0 km/h (0 Bft) O 98 ° 0 min 0,000 mm 0,0 UV-I 0 W/m² 13,6 °C 14,4 °C 0,0 km/h (0 Bft)
27.06.2017 05:13 14,4 °C 14,4 °C 95 % 1008,2 hPa 0,0 mm 0,0 km/h (0 Bft) O 98 ° 0 min 0,000 mm 0,0 UV-I 0 W/m² 13,6 °C 14,4 °C 0,0 km/h (0 Bft)
27.06.2017 05:14 14,4 °C 14,4 °C 95 % 1008,2 hPa 0,0 mm 0,0 km/h (0 Bft) O 98 ° 0 min 0,000 mm 0,0 UV-I 0 W/m² 13,6 °C 14,4 °C 0,0 km/h (0 Bft)
27.06.2017 05:15 14,4 °C 14,4 °C 95 % 1008,2 hPa 0,0 mm 0,0 km/h (0 Bft) O 98 ° 0 min 0,000 mm 0,0 UV-I 0 W/m² 13,6 °C 14,4 °C 0,0 km/h (0 Bft)
27.06.2017 05:16 14,4 °C 14,4 °C 95 % 1008,2 hPa 0,0 mm 0,0 km/h (0 Bft) O 98 ° 0 min 0,000 mm 0,0 UV-I 0 W/m² 13,6 °C 14,4 °C 0,0 km/h (0 Bft)
27.06.2017 05:17 14,4 °C 14,4 °C 95 % 1008,2 hPa 0,0 mm 0,0 km/h (0 Bft) O 98 ° 0 min 0,000 mm 0,0 UV-I 0 W/m² 13,6 °C 14,4 °C 0,0 km/h (0 Bft)
27.06.2017 05:18 14,4 °C 14,4 °C 95 % 1008,2 hPa 0,0 mm 0,0 km/h (0 Bft) O 98 ° 0 min 0,000 mm 0,0 UV-I 0 W/m² 13,6 °C 14,4 °C 0,0 km/h (0 Bft)
27.06.2017 05:19 14,4 °C 14,4 °C 95 % 1008,2 hPa 0,0 mm 0,0 km/h (0 Bft) O 98 ° 0 min 0,000 mm 0,0 UV-I 0 W/m² 13,6 °C 14,4 °C 0,0 km/h (0 Bft)
27.06.2017 05:20 14,3 °C 14,4 °C 95 % 1008,2 hPa 0,0 mm 0,0 km/h (0 Bft) O 98 ° 0 min 0,000 mm 0,0 UV-I 0 W/m² 13,5 °C 14,3 °C 0,0 km/h (0 Bft)
27.06.2017 05:21 14,3 °C 14,4 °C 95 % 1008,3 hPa 0,0 mm 0,0 km/h (0 Bft) O 98 ° 0 min 0,000 mm 0,0 UV-I 0 W/m² 13,5 °C 14,3 °C 0,0 km/h (0 Bft)
27.06.2017 05:22 14,3 °C 14,4 °C 95 % 1008,3 hPa 0,0 mm 0,0 km/h (0 Bft) O 98 ° 0 min 0,000 mm 0,0 UV-I 0 W/m² 13,5 °C 14,3 °C 0,0 km/h (0 Bft)
27.06.2017 05:23 14,3 °C 14,4 °C 95 % 1008,2 hPa 0,0 mm 0,0 km/h (0 Bft) O 98 ° 0 min 0,000 mm 0,0 UV-I 0 W/m² 13,5 °C 14,3 °C 0,0 km/h (0 Bft)
27.06.2017 05:24 14,3 °C 14,4 °C 95 % 1008,3 hPa 0,0 mm 0,0 km/h (0 Bft) O 98 ° 0 min 0,000 mm 0,0 UV-I 0 W/m² 13,5 °C 14,3 °C 0,0 km/h (0 Bft)
27.06.2017 05:25 14,4 °C 14,4 °C 95 % 1008,3 hPa 0,0 mm 0,0 km/h (0 Bft) O 98 ° 0 min 0,000 mm 0,0 UV-I 0 W/m² 13,6 °C 14,4 °C 0,0 km/h (0 Bft)
27.06.2017 05:26 14,4 °C 14,4 °C 95 % 1008,3 hPa 0,0 mm 0,0 km/h (0 Bft) O 98 ° 0 min 0,000 mm 0,0 UV-I 0 W/m² 13,6 °C 14,4 °C 0,0 km/h (0 Bft)
27.06.2017 05:27 14,4 °C 14,4 °C 95 % 1008,3 hPa 0,0 mm 0,9 km/h (0 Bft) O 98 ° 0 min 0,000 mm 0,0 UV-I 0 W/m² 13,6 °C 14,4 °C 3,2 km/h (1 Bft)
27.06.2017 05:28 14,4 °C 14,4 °C 95 % 1008,3 hPa 0,0 mm 0,9 km/h (0 Bft) O 98 ° 0 min 0,000 mm 0,0 UV-I 0 W/m² 13,6 °C 14,4 °C 1,6 km/h (1 Bft)
27.06.2017 05:29 14,3 °C 14,4 °C 95 % 1008,4 hPa 0,0 mm 0,7 km/h (0 Bft) O 98 ° 0 min 0,000 mm 0,0 UV-I 0 W/m² 13,5 °C 14,3 °C 3,2 km/h (1 Bft)
27.06.2017 05:30 14,3 °C 14,3 °C 95 % 1008,4 hPa 0,0 mm 0,5 km/h (0 Bft) O 98 ° 0 min 0,000 mm 0,0 UV-I 0 W/m² 13,5 °C 14,3 °C 1,6 km/h (1 Bft)
27.06.2017 05:31 14,3 °C 14,3 °C 95 % 1008,4 hPa 0,0 mm 0,3 km/h (0 Bft) O 98 ° 0 min 0,000 mm 0,0 UV-I 0 W/m² 13,5 °C 14,3 °C 1,6 km/h (1 Bft)
27.06.2017 05:32 14,3 °C 14,3 °C 95 % 1008,4 hPa 0,0 mm 1,4 km/h (1 Bft) O 98 ° 0 min 0,000 mm 0,0 UV-I 0 W/m² 13,5 °C 14,3 °C 3,2 km/h (1 Bft)
27.06.2017 05:33 14,3 °C 14,3 °C 95 % 1008,4 hPa 0,0 mm 0,8 km/h (0 Bft) O 98 ° 0 min 0,000 mm 0,0 UV-I 0 W/m² 13,5 °C 14,3 °C 1,6 km/h (1 Bft)
27.06.2017 05:34 14,3 °C 14,3 °C 95 % 1008,3 hPa 0,0 mm 0,2 km/h (0 Bft) O 98 ° 0 min 0,000 mm 0,0 UV-I 0 W/m² 13,5 °C 14,3 °C 1,6 km/h (1 Bft)
27.06.2017 05:35 14,3 °C 14,4 °C 95 % 1008,4 hPa 0,0 mm 1,9 km/h (1 Bft) O-SO 108 ° 0 min 0,000 mm 0,0 UV-I 5 W/m² 13,5 °C 14,3 °C 3,2 km/h (1 Bft)
27.06.2017 05:36 14,4 °C 14,4 °C 95 % 1008,4 hPa 0,0 mm 1,5 km/h (1 Bft) O-SO 108 ° 0 min 0,000 mm 0,0 UV-I 5 W/m² 13,6 °C 14,4 °C 3,2 km/h (1 Bft)
27.06.2017 05:37 14,4 °C 14,4 °C 95 % 1008,4 hPa 0,0 mm 0,2 km/h (0 Bft) O-SO 114 ° 0 min 0,000 mm 0,0 UV-I 5 W/m² 13,6 °C 14,4 °C 1,6 km/h (1 Bft)
27.06.2017 05:38 14,4 °C 14,4 °C 95 % 1008,4 hPa 0,0 mm 0,0 km/h (0 Bft) O-SO 114 ° 0 min 0,000 mm 0,0 UV-I 5 W/m² 13,6 °C 14,4 °C 0,0 km/h (0 Bft)
27.06.2017 05:39 14,4 °C 14,4 °C 95 % 1008,4 hPa 0,0 mm 0,3 km/h (0 Bft) O-SO 114 ° 0 min 0,000 mm 0,0 UV-I 5 W/m² 13,6 °C 14,4 °C 1,6 km/h (1 Bft)
27.06.2017 05:40 14,4 °C 14,4 °C 95 % 1008,4 hPa 0,0 mm 0,4 km/h (0 Bft) O-SO 114 ° 0 min 0,000 mm 0,0 UV-I 5 W/m² 13,6 °C 14,4 °C 1,6 km/h (1 Bft)
27.06.2017 05:41 14,4 °C 14,4 °C 95 % 1008,4 hPa 0,0 mm 0,0 km/h (0 Bft) O-SO 114 ° 0 min 0,000 mm 0,0 UV-I 5 W/m² 13,6 °C 14,4 °C 0,0 km/h (0 Bft)
27.06.2017 05:42 14,4 °C 14,4 °C 95 % 1008,4 hPa 0,0 mm 0,0 km/h (0 Bft) O-SO 115 ° 0 min 0,000 mm 0,0 UV-I 7 W/m² 13,6 °C 14,4 °C 0,0 km/h (0 Bft)
27.06.2017 05:43 14,4 °C 14,4 °C 95 % 1008,4 hPa 0,0 mm 0,0 km/h (0 Bft) O-SO 114 ° 0 min 0,000 mm 0,0 UV-I 7 W/m² 13,6 °C 14,4 °C 0,0 km/h (0 Bft)
27.06.2017 05:44 14,4 °C 14,4 °C 95 % 1008,3 hPa 0,0 mm 0,0 km/h (0 Bft) O-SO 114 ° 0 min 0,000 mm 0,0 UV-I 7 W/m² 13,6 °C 14,4 °C 0,0 km/h (0 Bft)
27.06.2017 05:45 14,4 °C 14,4 °C 95 % 1008,4 hPa 0,0 mm 0,0 km/h (0 Bft) O-SO 114 ° 0 min 0,000 mm 0,0 UV-I 7 W/m² 13,6 °C 14,4 °C 0,0 km/h (0 Bft)
27.06.2017 05:46 14,4 °C 14,4 °C 95 % 1008,3 hPa 0,0 mm 0,1 km/h (0 Bft) O-SO 114 ° 0 min 0,000 mm 0,0 UV-I 9 W/m² 13,6 °C 14,4 °C 1,6 km/h (1 Bft)
27.06.2017 05:47 14,4 °C 14,4 °C 95 % 1008,3 hPa 0,0 mm 1,8 km/h (1 Bft) O-SO 114 ° 0 min 0,000 mm 0,0 UV-I 9 W/m² 13,6 °C 14,4 °C 3,2 km/h (1 Bft)
27.06.2017 05:48 14,4 °C 14,4 °C 95 % 1008,4 hPa 0,0 mm 1,0 km/h (0 Bft) O-SO 114 ° 0 min 0,000 mm 0,0 UV-I 9 W/m² 13,6 °C 14,4 °C 3,2 km/h (1 Bft)
27.06.2017 05:49 14,4 °C 14,4 °C 95 % 1008,3 hPa 0,0 mm 1,2 km/h (1 Bft) O-SO 114 ° 0 min 0,000 mm 0,0 UV-I 9 W/m² 13,6 °C 14,4 °C 3,2 km/h (1 Bft)
27.06.2017 05:50 14,4 °C 14,4 °C 95 % 1008,3 hPa 0,0 mm 1,2 km/h (1 Bft) O-SO 114 ° 0 min 0,000 mm 0,0 UV-I 11 W/m² 13,6 °C 14,4 °C 3,2 km/h (1 Bft)
27.06.2017 05:51 14,4 °C 14,4 °C 95 % 1008,3 hPa 0,0 mm 1,0 km/h (0 Bft) O-SO 114 ° 0 min 0,000 mm 0,0 UV-I 11 W/m² 13,6 °C 14,4 °C 1,6 km/h (1 Bft)
27.06.2017 05:52 14,4 °C 14,5 °C 95 % 1008,3 hPa 0,0 mm 0,6 km/h (0 Bft) O-SO 114 ° 0 min 0,000 mm 0,0 UV-I 11 W/m² 13,6 °C 14,4 °C 1,6 km/h (1 Bft)
27.06.2017 05:53 14,4 °C 14,4 °C 95 % 1008,3 hPa 0,0 mm 0,7 km/h (0 Bft) O-SO 115 ° 0 min 0,000 mm 0,0 UV-I 11 W/m² 13,6 °C 14,4 °C 1,6 km/h (1 Bft)
27.06.2017 05:54 14,4 °C 14,5 °C 95 % 1008,3 hPa 0,0 mm 0,0 km/h (0 Bft) O-SO 115 ° 0 min 0,000 mm 0,0 UV-I 11 W/m² 13,6 °C 14,4 °C 0,0 km/h (0 Bft)
27.06.2017 05:55 14,5 °C 14,5 °C 95 % 1008,2 hPa 0,0 mm 0,0 km/h (0 Bft) O-SO 114 ° 0 min 0,000 mm 0,0 UV-I 12 W/m² 13,7 °C 14,5 °C 0,0 km/h (0 Bft)
27.06.2017 05:56 14,5 °C 14,5 °C 95 % 1008,3 hPa 0,0 mm 0,0 km/h (0 Bft) O-SO 114 ° 0 min 0,000 mm 0,0 UV-I 12 W/m² 13,7 °C 14,5 °C 0,0 km/h (0 Bft)
27.06.2017 05:57 14,4 °C 14,5 °C 95 % 1008,3 hPa 0,0 mm 0,0 km/h (0 Bft) O-SO 114 ° 0 min 0,000 mm 0,0 UV-I 12 W/m² 13,6 °C 14,4 °C 0,0 km/h (0 Bft)
27.06.2017 05:58 14,4 °C 14,5 °C 95 % 1008,3 hPa 0,0 mm 0,1 km/h (0 Bft) O-SO 114 ° 0 min 0,000 mm 0,0 UV-I 12 W/m² 13,6 °C 14,4 °C 1,6 km/h (1 Bft)
27.06.2017 05:59 14,5 °C 14,5 °C 95 % 1008,3 hPa 0,0 mm 0,0 km/h (0 Bft) O-SO 114 ° 0 min 0,000 mm 0,0 UV-I 12 W/m² 13,7 °C 14,5 °C 0,0 km/h (0 Bft)
27.06.2017 06:00 14,4 °C 14,5 °C 95 % 1008,3 hPa 0,0 mm 0,0 km/h (0 Bft) O-SO 114 ° 0 min 0,000 mm 0,0 UV-I 12 W/m² 13,6 °C 14,4 °C 0,0 km/h (0 Bft)
27.06.2017 06:01 14,5 °C 14,5 °C 95 % 1008,2 hPa 0,0 mm 0,0 km/h (0 Bft) O-SO 115 ° 0 min 0,000 mm 0,0 UV-I 14 W/m² 13,7 °C 14,5 °C 0,0 km/h (0 Bft)
27.06.2017 06:02 14,4 °C 14,5 °C 95 % 1008,2 hPa 0,0 mm 0,0 km/h (0 Bft) O-SO 114 ° 0 min 0,000 mm 0,0 UV-I 14 W/m² 13,6 °C 14,4 °C 0,0 km/h (0 Bft)
27.06.2017 06:03 14,4 °C 14,5 °C 95 % 1008,2 hPa 0,0 mm 0,1 km/h (0 Bft) O-SO 114 ° 0 min 0,000 mm 0,0 UV-I 14 W/m² 13,6 °C 14,4 °C 1,6 km/h (1 Bft)
27.06.2017 06:04 14,4 °C 14,4 °C 95 % 1008,2 hPa 0,0 mm 0,0 km/h (0 Bft) O-SO 115 ° 0 min 0,000 mm 0,0 UV-I 14 W/m² 13,6 °C 14,4 °C 0,0 km/h (0 Bft)
27.06.2017 06:05 14,4 °C 14,4 °C 95 % 1008,2 hPa 0,0 mm 0,0 km/h (0 Bft) O-SO 114 ° 0 min 0,000 mm 0,0 UV-I 16 W/m² 13,6 °C 14,4 °C 0,0 km/h (0 Bft)
27.06.2017 06:06 14,4 °C 14,4 °C 95 % 1008,2 hPa 0,0 mm 0,1 km/h (0 Bft) O-SO 114 ° 0 min 0,000 mm 0,0 UV-I 16 W/m² 13,6 °C 14,4 °C 1,6 km/h (1 Bft)
27.06.2017 06:07 14,4 °C 14,4 °C 95 % 1008,2 hPa 0,0 mm 0,5 km/h (0 Bft) O-SO 114 ° 0 min 0,000 mm 0,0 UV-I 16 W/m² 13,6 °C 14,4 °C 1,6 km/h (1 Bft)
27.06.2017 06:08 14,4 °C 14,4 °C 95 % 1008,2 hPa 0,0 mm 1,1 km/h (1 Bft) O-SO 114 ° 0 min 0,000 mm 0,0 UV-I 18 W/m² 13,6 °C 14,4 °C 3,2 km/h (1 Bft)
27.06.2017 06:09 14,4 °C 14,4 °C 95 % 1008,2 hPa 0,0 mm 0,0 km/h (0 Bft) O-SO 114 ° 0 min 0,000 mm 0,0 UV-I 18 W/m² 13,6 °C 14,4 °C 0,0 km/h (0 Bft)
27.06.2017 06:10 14,4 °C 14,4 °C 95 % 1008,2 hPa 0,0 mm 0,0 km/h (0 Bft) O-SO 114 ° 0 min 0,000 mm 0,0 UV-I 18 W/m² 13,6 °C 14,4 °C 0,0 km/h (0 Bft)
27.06.2017 06:11 14,4 °C 14,4 °C 95 % 1008,2 hPa 0,0 mm 0,0 km/h (0 Bft) O-SO 114 ° 0 min 0,000 mm 0,0 UV-I 19 W/m² 13,6 °C 14,4 °C 0,0 km/h (0 Bft)
27.06.2017 06:12 14,4 °C 14,5 °C 95 % 1008,2 hPa 0,0 mm 0,0 km/h (0 Bft) O-SO 114 ° 0 min 0,000 mm 0,0 UV-I 19 W/m² 13,6 °C 14,4 °C 0,0 km/h (0 Bft)
27.06.2017 06:13 14,4 °C 14,4 °C 95 % 1008,2 hPa 0,0 mm 0,0 km/h (0 Bft) O-SO 114 ° 0 min 0,000 mm 0,0 UV-I 21 W/m² 13,6 °C 14,4 °C 0,0 km/h (0 Bft)
27.06.2017 06:14 14,4 °C 14,4 °C 95 % 1008,2 hPa 0,0 mm 0,6 km/h (0 Bft) O-SO 115 ° 0 min 0,000 mm 0,0 UV-I 21 W/m² 13,6 °C 14,4 °C 3,2 km/h (1 Bft)
27.06.2017 06:15 14,5 °C 14,5 °C 95 % 1008,2 hPa 0,0 mm 2,9 km/h (1 Bft) O-SO 115 ° 0 min 0,000 mm 0,0 UV-I 19 W/m² 13,7 °C 14,5 °C 4,8 km/h (1 Bft)
27.06.2017 06:16 14,4 °C 14,5 °C 95 % 1008,2 hPa 0,0 mm 3,4 km/h (1 Bft) O-SO 115 ° 0 min 0,000 mm 0,0 UV-I 19 W/m² 13,6 °C 14,4 °C 4,8 km/h (1 Bft)
27.06.2017 06:17 14,5 °C 14,5 °C 95 % 1008,2 hPa 0,0 mm 1,9 km/h (1 Bft) O-SO 115 ° 0 min 0,000 mm 0,0 UV-I 18 W/m² 13,7 °C 14,5 °C 3,2 km/h (1 Bft)
27.06.2017 06:18 14,5 °C 14,5 °C 95 % 1008,2 hPa 0,0 mm 0,8 km/h (0 Bft) O-SO 115 ° 0 min 0,000 mm 0,0 UV-I 18 W/m² 13,7 °C 14,5 °C 1,6 km/h (1 Bft)
27.06.2017 06:19 14,5 °C 14,5 °C 95 % 1008,2 hPa 0,0 mm 0,0 km/h (0 Bft) O-SO 115 ° 0 min 0,000 mm 0,0 UV-I 19 W/m² 13,7 °C 14,5 °C 0,0 km/h (0 Bft)
27.06.2017 06:20 14,5 °C 14,5 °C 95 % 1008,2 hPa 0,0 mm 0,1 km/h (0 Bft) O-SO 115 ° 0 min 0,000 mm 0,0 UV-I 19 W/m² 13,7 °C 14,5 °C 1,6 km/h (1 Bft)
27.06.2017 06:21 14,5 °C 14,6 °C 95 % 1008,2 hPa 0,0 mm 0,0 km/h (0 Bft) O-SO 115 ° 0 min 0,000 mm 0,0 UV-I 21 W/m² 13,7 °C 14,5 °C 0,0 km/h (0 Bft)
27.06.2017 06:22 14,6 °C 14,6 °C 95 % 1008,2 hPa 0,0 mm 0,0 km/h (0 Bft) O-SO 115 ° 0 min 0,000 mm 0,0 UV-I 23 W/m² 13,8 °C 14,6 °C 0,0 km/h (0 Bft)
27.06.2017 06:23 14,6 °C 14,6 °C 95 % 1008,1 hPa 0,0 mm 0,0 km/h (0 Bft) O-SO 115 ° 0 min 0,000 mm 0,0 UV-I 25 W/m² 13,8 °C 14,6 °C 0,0 km/h (0 Bft)
27.06.2017 06:24 14,6 °C 14,6 °C 95 % 1008,1 hPa 0,0 mm 0,0 km/h (0 Bft) O-SO 115 ° 0 min 0,000 mm 0,0 UV-I 28 W/m² 13,8 °C 14,6 °C 0,0 km/h (0 Bft)
27.06.2017 06:25 14,6 °C 14,6 °C 95 % 1008,1 hPa 0,0 mm 0,0 km/h (0 Bft) O-SO 115 ° 0 min 0,000 mm 0,0 UV-I 30 W/m² 13,8 °C 14,6 °C 0,0 km/h (0 Bft)
27.06.2017 06:26 14,6 °C 14,6 °C 95 % 1008,2 hPa 0,0 mm 0,0 km/h (0 Bft) O-SO 115 ° 0 min 0,000 mm 0,0 UV-I 32 W/m² 13,8 °C 14,6 °C 0,0 km/h (0 Bft)
27.06.2017 06:27 14,6 °C 14,6 °C 95 % 1008,1 hPa 0,0 mm 0,0 km/h (0 Bft) O-SO 115 ° 0 min 0,000 mm 0,0 UV-I 33 W/m² 13,8 °C 14,6 °C 0,0 km/h (0 Bft)
27.06.2017 06:28 14,6 °C 14,6 °C 95 % 1008,1 hPa 0,0 mm 0,0 km/h (0 Bft) O-SO 115 ° 0 min 0,000 mm 0,0 UV-I 35 W/m² 13,8 °C 14,6 °C 0,0 km/h (0 Bft)
27.06.2017 06:29 14,6 °C 14,6 °C 95 % 1008,1 hPa 0,0 mm 0,0 km/h (0 Bft) O-SO 115 ° 0 min 0,000 mm 0,0 UV-I 35 W/m² 13,8 °C 14,6 °C 0,0 km/h (0 Bft)
27.06.2017 06:30 14,6 °C 14,6 °C 95 % 1008,1 hPa 0,0 mm 0,0 km/h (0 Bft) O-SO 115 ° 0 min 0,000 mm 0,0 UV-I 39 W/m² 13,8 °C 14,6 °C 0,0 km/h (0 Bft)
27.06.2017 06:31 14,6 °C 14,6 °C 95 % 1008,1 hPa 0,0 mm 0,0 km/h (0 Bft) O-SO 115 ° 0 min 0,000 mm 0,0 UV-I 39 W/m² 13,8 °C 14,6 °C 0,0 km/h (0 Bft)
27.06.2017 06:32 14,6 °C 14,6 °C 95 % 1008,1 hPa 0,0 mm 0,0 km/h (0 Bft) O-SO 115 ° 0 min 0,000 mm 0,0 UV-I 39 W/m² 13,8 °C 14,6 °C 0,0 km/h (0 Bft)
27.06.2017 06:33 14,6 °C 14,6 °C 95 % 1008,1 hPa 0,0 mm 0,0 km/h (0 Bft) O-SO 115 ° 0 min 0,000 mm 0,0 UV-I 40 W/m² 13,8 °C 14,6 °C 0,0 km/h (0 Bft)
27.06.2017 06:34 14,7 °C 14,7 °C 95 % 1008,1 hPa 0,0 mm 0,0 km/h (0 Bft) O-SO 115 ° 0 min 0,000 mm 0,0 UV-I 42 W/m² 13,9 °C 14,7 °C 0,0 km/h (0 Bft)
27.06.2017 06:35 14,7 °C 14,7 °C 95 % 1008,1 hPa 0,0 mm 0,0 km/h (0 Bft) O-SO 115 ° 0 min 0,000 mm 0,0 UV-I 42 W/m² 13,9 °C 14,7 °C 0,0 km/h (0 Bft)
27.06.2017 06:36 14,6 °C 14,7 °C 95 % 1008,1 hPa 0,0 mm 0,0 km/h (0 Bft) O-SO 115 ° 0 min 0,000 mm 0,0 UV-I 44 W/m² 13,8 °C 14,6 °C 0,0 km/h (0 Bft)
27.06.2017 06:37 14,6 °C 14,7 °C 95 % 1008,1 hPa 0,0 mm 0,0 km/h (0 Bft) O-SO 115 ° 0 min 0,000 mm 0,0 UV-I 44 W/m² 13,8 °C 14,6 °C 0,0 km/h (0 Bft)
27.06.2017 06:38 14,7 °C 14,7 °C 95 % 1008,1 hPa 0,0 mm 0,0 km/h (0 Bft) O-SO 115 ° 0 min 0,000 mm 0,0 UV-I 44 W/m² 13,9 °C 14,7 °C 0,0 km/h (0 Bft)
27.06.2017 06:39 14,7 °C 14,7 °C 96 % 1008,1 hPa 0,0 mm 0,0 km/h (0 Bft) O-SO 115 ° 0 min 0,000 mm 0,0 UV-I 46 W/m² 14,1 °C 14,7 °C 0,0 km/h (0 Bft)
27.06.2017 06:40 14,7 °C 14,8 °C 96 % 1008,1 hPa 0,0 mm 0,0 km/h (0 Bft) O-SO 115 ° 0 min 0,000 mm 0,0 UV-I 46 W/m² 14,1 °C 14,7 °C 0,0 km/h (0 Bft)
27.06.2017 06:41 14,7 °C 14,7 °C 96 % 1008,2 hPa 0,0 mm 0,0 km/h (0 Bft) O-SO 115 ° 0 min 0,000 mm 0,0 UV-I 47 W/m² 14,1 °C 14,7 °C 0,0 km/h (0 Bft)
27.06.2017 06:42 14,7 °C 14,7 °C 96 % 1008,2 hPa 0,0 mm 0,7 km/h (0 Bft) O-SO 115 ° 0 min 0,000 mm 0,0 UV-I 47 W/m² 14,1 °C 14,7 °C 3,2 km/h (1 Bft)
27.06.2017 06:43 14,7 °C 14,7 °C 96 % 1008,1 hPa 0,0 mm 1,2 km/h (1 Bft) O-SO 115 ° 0 min 0,000 mm 0,0 UV-I 47 W/m² 14,1 °C 14,7 °C 3,2 km/h (1 Bft)
27.06.2017 06:44 14,7 °C 14,8 °C 96 % 1008,1 hPa 0,0 mm 0,4 km/h (0 Bft) O-SO 115 ° 0 min 0,000 mm 0,0 UV-I 49 W/m² 14,1 °C 14,7 °C 1,6 km/h (1 Bft)
27.06.2017 06:45 14,8 °C 14,8 °C 95 % 1008,1 hPa 0,0 mm 0,0 km/h (0 Bft) O-SO 115 ° 0 min 0,000 mm 0,0 UV-I 49 W/m² 14,0 °C 14,8 °C 0,0 km/h (0 Bft)
27.06.2017 06:46 14,8 °C 14,8 °C 95 % 1008,1 hPa 0,0 mm 0,7 km/h (0 Bft) O-SO 115 ° 0 min 0,000 mm 0,0 UV-I 49 W/m² 14,0 °C 14,8 °C 1,6 km/h (1 Bft)
27.06.2017 06:47 14,8 °C 14,8 °C 95 % 1008,1 hPa 0,0 mm 0,8 km/h (0 Bft) O-SO 115 ° 0 min 0,000 mm 0,0 UV-I 51 W/m² 14,0 °C 14,8 °C 1,6 km/h (1 Bft)
27.06.2017 06:48 14,8 °C 14,8 °C 95 % 1008,0 hPa 0,0 mm 1,7 km/h (1 Bft) O-SO 115 ° 0 min 0,000 mm 0,0 UV-I 51 W/m² 14,0 °C 14,8 °C 3,2 km/h (1 Bft)
27.06.2017 06:49 14,8 °C 14,8 °C 95 % 1007,9 hPa 0,0 mm 1,5 km/h (1 Bft) O-SO 115 ° 0 min 0,000 mm 0,0 UV-I 53 W/m² 14,0 °C 14,8 °C 3,2 km/h (1 Bft)
27.06.2017 06:50 14,8 °C 14,8 °C 95 % 1008,0 hPa 0,0 mm 0,8 km/h (0 Bft) O-SO 115 ° 0 min 0,000 mm 0,0 UV-I 53 W/m² 14,0 °C 14,8 °C 1,6 km/h (1 Bft)
27.06.2017 06:51 14,8 °C 14,8 °C 95 % 1007,9 hPa 0,0 mm 0,1 km/h (0 Bft) O-SO 115 ° 0 min 0,000 mm 0,0 UV-I 54 W/m² 14,0 °C 14,8 °C 1,6 km/h (1 Bft)
27.06.2017 06:52 14,8 °C 14,8 °C 95 % 1008,0 hPa 0,0 mm 0,0 km/h (0 Bft) O-SO 115 ° 0 min 0,000 mm 0,0 UV-I 54 W/m² 14,0 °C 14,8 °C 0,0 km/h (0 Bft)
27.06.2017 06:53 14,8 °C 14,8 °C 95 % 1007,9 hPa 0,0 mm 0,0 km/h (0 Bft) O-SO 115 ° 0 min 0,000 mm 0,0 UV-I 54 W/m² 14,0 °C 14,8 °C 0,0 km/h (0 Bft)
27.06.2017 06:54 14,8 °C 14,8 °C 95 % 1007,9 hPa 0,0 mm 0,0 km/h (0 Bft) O-SO 115 ° 0 min 0,000 mm 0,0 UV-I 54 W/m² 14,0 °C 14,8 °C 0,0 km/h (0 Bft)
27.06.2017 06:55 14,8 °C 14,8 °C 95 % 1007,9 hPa 0,0 mm 0,0 km/h (0 Bft) O-SO 115 ° 0 min 0,000 mm 0,0 UV-I 54 W/m² 14,0 °C 14,8 °C 0,0 km/h (0 Bft)
27.06.2017 06:56 14,8 °C 14,8 °C 95 % 1008,0 hPa 0,0 mm 0,0 km/h (0 Bft) O-SO 115 ° 0 min 0,000 mm 0,0 UV-I 56 W/m² 14,0 °C 14,8 °C 0,0 km/h (0 Bft)
27.06.2017 06:57 14,8 °C 14,8 °C 95 % 1008,0 hPa 0,0 mm 0,0 km/h (0 Bft) O-SO 115 ° 0 min 0,000 mm 0,0 UV-I 54 W/m² 14,0 °C 14,8 °C 0,0 km/h (0 Bft)
27.06.2017 06:58 14,8 °C 14,8 °C 95 % 1008,0 hPa 0,0 mm 0,0 km/h (0 Bft) O-SO 115 ° 0 min 0,000 mm 0,0 UV-I 54 W/m² 14,0 °C 14,8 °C 0,0 km/h (0 Bft)
27.06.2017 06:59 14,8 °C 14,9 °C 95 % 1008,0 hPa 0,0 mm 0,0 km/h (0 Bft) O-SO 115 ° 0 min 0,000 mm 0,0 UV-I 54 W/m² 14,0 °C 14,8 °C 0,0 km/h (0 Bft)
27.06.2017 07:00 14,9 °C 14,9 °C 95 % 1008,0 hPa 0,0 mm 0,0 km/h (0 Bft) O-SO 115 ° 0 min 0,000 mm 0,0 UV-I 56 W/m² 14,1 °C 14,9 °C 0,0 km/h (0 Bft)
27.06.2017 07:01 14,9 °C 14,9 °C 95 % 1008,0 hPa 0,0 mm 0,0 km/h (0 Bft) O-SO 115 ° 0 min 0,025 mm 0,0 UV-I 56 W/m² 14,1 °C 14,9 °C 0,0 km/h (0 Bft)
27.06.2017 07:02 15,0 °C 15,0 °C 95 % 1008,0 hPa 0,0 mm 0,0 km/h (0 Bft) O-SO 115 ° 0 min 0,000 mm 0,0 UV-I 58 W/m² 14,2 °C 15,0 °C 0,0 km/h (0 Bft)
27.06.2017 07:03 15,0 °C 15,0 °C 96 % 1008,1 hPa 0,0 mm 0,0 km/h (0 Bft) O-SO 115 ° 0 min 0,000 mm 0,0 UV-I 60 W/m² 14,4 °C 15,0 °C 0,0 km/h (0 Bft)
27.06.2017 07:04 15,0 °C 15,0 °C 95 % 1008,0 hPa 0,0 mm 0,0 km/h (0 Bft) O-SO 115 ° 0 min 0,000 mm 0,0 UV-I 62 W/m² 14,2 °C 15,0 °C 0,0 km/h (0 Bft)
27.06.2017 07:05 15,1 °C 15,1 °C 95 % 1008,0 hPa 0,0 mm 0,0 km/h (0 Bft) O-SO 115 ° 0 min 0,000 mm 0,0 UV-I 67 W/m² 14,3 °C 15,1 °C 0,0 km/h (0 Bft)
27.06.2017 07:06 15,0 °C 15,1 °C 95 % 1008,0 hPa 0,0 mm 0,0 km/h (0 Bft) O-SO 115 ° 0 min 0,000 mm 0,0 UV-I 69 W/m² 14,2 °C 15,0 °C 0,0 km/h (0 Bft)
27.06.2017 07:07 15,1 °C 15,1 °C 95 % 1008,1 hPa 0,0 mm 0,0 km/h (0 Bft) O-SO 115 ° 0 min 0,000 mm 0,0 UV-I 70 W/m² 14,3 °C 15,1 °C 0,0 km/h (0 Bft)
27.06.2017 07:08 15,1 °C 15,1 °C 96 % 1008,0 hPa 0,0 mm 0,4 km/h (0 Bft) O-SO 115 ° 0 min 0,000 mm 0,0 UV-I 72 W/m² 14,5 °C 15,1 °C 1,6 km/h (1 Bft)
27.06.2017 07:09 15,1 °C 15,1 °C 95 % 1008,0 hPa 0,0 mm 0,3 km/h (0 Bft) O-SO 115 ° 0 min 0,000 mm 0,5 UV-I 74 W/m² 14,3 °C 15,1 °C 1,6 km/h (1 Bft)
27.06.2017 07:10 15,1 °C 15,1 °C 95 % 1008,0 hPa 0,0 mm 0,0 km/h (0 Bft) O-SO 115 ° 0 min 0,000 mm 0,5 UV-I 76 W/m² 14,3 °C 15,1 °C 0,0 km/h (0 Bft)
27.06.2017 07:11 15,1 °C 15,1 °C 95 % 1008,0 hPa 0,0 mm 0,0 km/h (0 Bft) O-SO 115 ° 0 min 0,000 mm 0,5 UV-I 77 W/m² 14,3 °C 15,1 °C 0,0 km/h (0 Bft)
27.06.2017 07:12 15,1 °C 15,1 °C 95 % 1008,0 hPa 0,0 mm 0,0 km/h (0 Bft) O-SO 115 ° 0 min 0,000 mm 0,5 UV-I 79 W/m² 14,3 °C 15,1 °C 0,0 km/h (0 Bft)
27.06.2017 07:13 15,1 °C 15,1 °C 95 % 1007,9 hPa 0,0 mm 0,0 km/h (0 Bft) O-SO 115 ° 0 min 0,000 mm 0,5 UV-I 79 W/m² 14,3 °C 15,1 °C 0,0 km/h (0 Bft)
27.06.2017 07:14 15,1 °C 15,1 °C 95 % 1007,9 hPa 0,0 mm 0,0 km/h (0 Bft) O-SO 115 ° 0 min 0,000 mm 0,5 UV-I 81 W/m² 14,3 °C 15,1 °C 0,0 km/h (0 Bft)
27.06.2017 07:15 15,1 °C 15,1 °C 95 % 1008,0 hPa 0,0 mm 0,0 km/h (0 Bft) O-SO 115 ° 0 min 0,000 mm 0,5 UV-I 83 W/m² 14,3 °C 15,1 °C 0,0 km/h (0 Bft)
27.06.2017 07:16 15,1 °C 15,1 °C 95 % 1008,0 hPa 0,0 mm 0,0 km/h (0 Bft) O-SO 115 ° 0 min 0,000 mm 0,5 UV-I 84 W/m² 14,3 °C 15,1 °C 0,0 km/h (0 Bft)
27.06.2017 07:17 15,1 °C 15,1 °C 95 % 1008,0 hPa 0,0 mm 0,0 km/h (0 Bft) O-SO 115 ° 0 min 0,000 mm 0,5 UV-I 86 W/m² 14,3 °C 15,1 °C 0,0 km/h (0 Bft)
27.06.2017 07:18 15,1 °C 15,1 °C 95 % 1008,0 hPa 0,0 mm 0,0 km/h (0 Bft) O-SO 115 ° 0 min 0,000 mm 0,5 UV-I 88 W/m² 14,3 °C 15,1 °C 0,0 km/h (0 Bft)
27.06.2017 07:19 15,2 °C 15,2 °C 95 % 1007,9 hPa 0,0 mm 0,0 km/h (0 Bft) O-SO 115 ° 0 min 0,000 mm 0,6 UV-I 90 W/m² 14,4 °C 15,2 °C 0,0 km/h (0 Bft)
27.06.2017 07:20 15,2 °C 15,2 °C 95 % 1007,9 hPa 0,0 mm 0,0 km/h (0 Bft) O-SO 115 ° 0 min 0,000 mm 0,6 UV-I 90 W/m² 14,4 °C 15,2 °C 0,0 km/h (0 Bft)
27.06.2017 07:21 15,1 °C 15,2 °C 95 % 1007,9 hPa 0,0 mm 0,0 km/h (0 Bft) O-SO 115 ° 0 min 0,000 mm 0,6 UV-I 91 W/m² 14,3 °C 15,1 °C 0,0 km/h (0 Bft)
27.06.2017 07:22 15,1 °C 15,1 °C 95 % 1007,9 hPa 0,0 mm 0,0 km/h (0 Bft) O-SO 115 ° 0 min 0,000 mm 0,6 UV-I 91 W/m² 14,3 °C 15,1 °C 0,0 km/h (0 Bft)
27.06.2017 07:23 15,2 °C 15,2 °C 95 % 1007,9 hPa 0,0 mm 0,0 km/h (0 Bft) O-SO 115 ° 0 min 0,000 mm 0,6 UV-I 93 W/m² 14,4 °C 15,2 °C 0,0 km/h (0 Bft)
27.06.2017 07:24 15,2 °C 15,2 °C 95 % 1007,9 hPa 0,0 mm 0,0 km/h (0 Bft) O-SO 115 ° 0 min 0,000 mm 0,6 UV-I 95 W/m² 14,4 °C 15,2 °C 0,0 km/h (0 Bft)
27.06.2017 07:25 15,2 °C 15,2 °C 95 % 1007,9 hPa 0,0 mm 0,0 km/h (0 Bft) O-SO 115 ° 0 min 0,000 mm 0,6 UV-I 95 W/m² 14,4 °C 15,2 °C 0,0 km/h (0 Bft)
27.06.2017 07:26 15,2 °C 15,2 °C 95 % 1007,9 hPa 0,0 mm 0,0 km/h (0 Bft) O-SO 115 ° 0 min 0,000 mm 0,6 UV-I 95 W/m² 14,4 °C 15,2 °C 0,0 km/h (0 Bft)
27.06.2017 07:27 15,2 °C 15,2 °C 95 % 1007,8 hPa 0,0 mm 0,0 km/h (0 Bft) O-SO 115 ° 0 min 0,000 mm 0,6 UV-I 95 W/m² 14,4 °C 15,2 °C 0,0 km/h (0 Bft)
27.06.2017 07:28 15,3 °C 15,3 °C 95 % 1007,9 hPa 0,0 mm 0,0 km/h (0 Bft) O-SO 115 ° 0 min 0,000 mm 0,6 UV-I 93 W/m² 14,5 °C 15,3 °C 0,0 km/h (0 Bft)
27.06.2017 07:29 15,3 °C 15,3 °C 94 % 1007,8 hPa 0,0 mm 0,0 km/h (0 Bft) O-SO 115 ° 0 min 0,000 mm 0,6 UV-I 95 W/m² 14,3 °C 15,3 °C 0,0 km/h (0 Bft)
27.06.2017 07:30 15,3 °C 15,3 °C 94 % 1007,9 hPa 0,0 mm 0,0 km/h (0 Bft) O-SO 115 ° 0 min 0,000 mm 0,6 UV-I 93 W/m² 14,3 °C 15,3 °C 0,0 km/h (0 Bft)
27.06.2017 07:31 15,3 °C 15,3 °C 94 % 1007,9 hPa 0,0 mm 0,0 km/h (0 Bft) O-SO 115 ° 0 min 0,000 mm 0,6 UV-I 95 W/m² 14,3 °C 15,3 °C 0,0 km/h (0 Bft)
27.06.2017 07:32 15,4 °C 15,4 °C 94 % 1007,8 hPa 0,0 mm 0,0 km/h (0 Bft) O-SO 115 ° 0 min 0,000 mm 0,6 UV-I 95 W/m² 14,4 °C 15,4 °C 0,0 km/h (0 Bft)
27.06.2017 07:33 15,4 °C 15,4 °C 94 % 1007,9 hPa 0,0 mm 0,0 km/h (0 Bft) O-SO 115 ° 0 min 0,000 mm 0,6 UV-I 95 W/m² 14,4 °C 15,4 °C 0,0 km/h (0 Bft)
27.06.2017 07:34 15,4 °C 15,4 °C 94 % 1007,9 hPa 0,0 mm 0,0 km/h (0 Bft) O-SO 115 ° 0 min 0,000 mm 0,6 UV-I 98 W/m² 14,4 °C 15,4 °C 0,0 km/h (0 Bft)
27.06.2017 07:35 15,4 °C 15,4 °C 94 % 1007,8 hPa 0,0 mm 0,0 km/h (0 Bft) O-SO 115 ° 0 min 0,000 mm 0,6 UV-I 100 W/m² 14,4 °C 15,4 °C 0,0 km/h (0 Bft)
27.06.2017 07:36 15,4 °C 15,4 °C 93 % 1007,8 hPa 0,0 mm 0,0 km/h (0 Bft) O-SO 115 ° 0 min 0,000 mm 0,7 UV-I 102 W/m² 14,3 °C 15,4 °C 0,0 km/h (0 Bft)
27.06.2017 07:37 15,5 °C 15,5 °C 94 % 1007,8 hPa 0,0 mm 0,0 km/h (0 Bft) O-SO 115 ° 0 min 0,000 mm 0,7 UV-I 104 W/m² 14,5 °C 15,5 °C 0,0 km/h (0 Bft)
27.06.2017 07:38 15,6 °C 15,6 °C 94 % 1007,8 hPa 0,0 mm 0,0 km/h (0 Bft) O-SO 115 ° 0 min 0,000 mm 0,7 UV-I 105 W/m² 14,6 °C 15,6 °C 0,0 km/h (0 Bft)
27.06.2017 07:39 15,6 °C 15,6 °C 94 % 1007,8 hPa 0,0 mm 0,0 km/h (0 Bft) O-SO 115 ° 0 min 0,000 mm 0,7 UV-I 109 W/m² 14,6 °C 15,6 °C 0,0 km/h (0 Bft)
27.06.2017 07:40 15,6 °C 15,6 °C 94 % 1007,9 hPa 0,0 mm 0,0 km/h (0 Bft) O-SO 115 ° 0 min 0,000 mm 0,8 UV-I 114 W/m² 14,6 °C 15,6 °C 0,0 km/h (0 Bft)
27.06.2017 07:41 15,6 °C 15,6 °C 94 % 1007,9 hPa 0,0 mm 0,0 km/h (0 Bft) O-SO 115 ° 0 min 0,000 mm 0,8 UV-I 118 W/m² 14,6 °C 15,6 °C 0,0 km/h (0 Bft)
27.06.2017 07:42 15,6 °C 15,6 °C 94 % 1007,8 hPa 0,0 mm 0,0 km/h (0 Bft) O-SO 115 ° 0 min 0,000 mm 0,8 UV-I 121 W/m² 14,6 °C 15,6 °C 0,0 km/h (0 Bft)
27.06.2017 07:43 15,6 °C 15,7 °C 94 % 1007,8 hPa 0,0 mm 0,0 km/h (0 Bft) O-SO 115 ° 0 min 0,000 mm 0,8 UV-I 125 W/m² 14,6 °C 15,6 °C 0,0 km/h (0 Bft)
27.06.2017 07:44 15,7 °C 15,7 °C 94 % 1007,8 hPa 0,0 mm 0,0 km/h (0 Bft) O-SO 115 ° 0 min 0,000 mm 0,8 UV-I 128 W/m² 14,7 °C 15,7 °C 0,0 km/h (0 Bft)
27.06.2017 07:45 15,7 °C 15,7 °C 94 % 1007,8 hPa 0,0 mm 0,0 km/h (0 Bft) O-SO 115 ° 0 min 0,000 mm 0,9 UV-I 132 W/m² 14,7 °C 15,7 °C 0,0 km/h (0 Bft)
27.06.2017 07:46 15,6 °C 15,7 °C 93 % 1007,8 hPa 0,0 mm 0,0 km/h (0 Bft) O-SO 115 ° 0 min 0,000 mm 0,9 UV-I 137 W/m² 14,5 °C 15,6 °C 0,0 km/h (0 Bft)
27.06.2017 07:47 15,6 °C 15,6 °C 93 % 1007,8 hPa 0,0 mm 0,0 km/h (0 Bft) O-SO 115 ° 0 min 0,000 mm 0,9 UV-I 137 W/m² 14,5 °C 15,6 °C 0,0 km/h (0 Bft)
27.06.2017 07:48 15,6 °C 15,6 °C 93 % 1007,8 hPa 0,0 mm 0,0 km/h (0 Bft) O-SO 115 ° 0 min 0,000 mm 0,9 UV-I 142 W/m² 14,5 °C 15,6 °C 0,0 km/h (0 Bft)
27.06.2017 07:49 15,7 °C 15,7 °C 94 % 1007,8 hPa 0,0 mm 0,0 km/h (0 Bft) O-SO 115 ° 0 min 0,000 mm 0,9 UV-I 146 W/m² 14,7 °C 15,7 °C 0,0 km/h (0 Bft)
27.06.2017 07:50 15,7 °C 15,7 °C 93 % 1007,8 hPa 0,0 mm 0,0 km/h (0 Bft) O-SO 114 ° 0 min 0,000 mm 0,9 UV-I 148 W/m² 14,6 °C 15,7 °C 0,0 km/h (0 Bft)
27.06.2017 07:51 15,7 °C 15,7 °C 93 % 1007,8 hPa 0,0 mm 0,0 km/h (0 Bft) O-SO 115 ° 0 min 0,000 mm 1,0 UV-I 151 W/m² 14,6 °C 15,7 °C 0,0 km/h (0 Bft)
27.06.2017 07:52 15,8 °C 15,8 °C 93 % 1007,8 hPa 0,0 mm 0,0 km/h (0 Bft) O-SO 114 ° 0 min 0,000 mm 1,0 UV-I 155 W/m² 14,7 °C 15,8 °C 0,0 km/h (0 Bft)
27.06.2017 07:53 15,8 °C 15,8 °C 93 % 1007,8 hPa 0,0 mm 0,0 km/h (0 Bft) O-SO 115 ° 0 min 0,000 mm 1,0 UV-I 158 W/m² 14,7 °C 15,8 °C 0,0 km/h (0 Bft)
27.06.2017 07:54 15,8 °C 15,8 °C 93 % 1007,8 hPa 0,0 mm 0,0 km/h (0 Bft) O-SO 115 ° 0 min 0,000 mm 1,0 UV-I 163 W/m² 14,7 °C 15,8 °C 0,0 km/h (0 Bft)
27.06.2017 07:55 15,8 °C 15,9 °C 93 % 1007,8 hPa 0,0 mm 0,0 km/h (0 Bft) O-SO 114 ° 0 min 0,000 mm 1,0 UV-I 160 W/m² 14,7 °C 15,8 °C 0,0 km/h (0 Bft)
27.06.2017 07:56 15,8 °C 15,8 °C 93 % 1007,8 hPa 0,0 mm 0,0 km/h (0 Bft) O-SO 114 ° 0 min 0,000 mm 1,0 UV-I 158 W/m² 14,7 °C 15,8 °C 0,0 km/h (0 Bft)
27.06.2017 07:57 15,9 °C 15,9 °C 93 % 1007,8 hPa 0,0 mm 0,0 km/h (0 Bft) O-SO 114 ° 0 min 0,000 mm 1,0 UV-I 158 W/m² 14,8 °C 15,9 °C 0,0 km/h (0 Bft)
27.06.2017 07:58 15,9 °C 15,9 °C 93 % 1007,9 hPa 0,0 mm 0,3 km/h (0 Bft) O-SO 111 ° 0 min 0,000 mm 1,0 UV-I 155 W/m² 14,8 °C 15,9 °C 1,6 km/h (1 Bft)
27.06.2017 07:59 16,1 °C 16,1 °C 93 % 1007,8 hPa 0,0 mm 0,1 km/h (0 Bft) O-SO 111 ° 0 min 0,000 mm 0,9 UV-I 151 W/m² 15,0 °C 16,1 °C 1,6 km/h (1 Bft)
27.06.2017 08:00 16,1 °C 16,1 °C 93 % 1007,8 hPa 0,0 mm 1,1 km/h (1 Bft) O-SO 111 ° 0 min 0,051 mm 0,9 UV-I 149 W/m² 15,0 °C 16,1 °C 1,6 km/h (1 Bft)
27.06.2017 08:01 16,1 °C 16,1 °C 93 % 1007,9 hPa 0,0 mm 0,8 km/h (0 Bft) O-SO 111 ° 0 min 0,000 mm 0,9 UV-I 149 W/m² 15,0 °C 16,1 °C 1,6 km/h (1 Bft)
27.06.2017 08:02 16,1 °C 16,1 °C 93 % 1007,8 hPa 0,0 mm 0,0 km/h (0 Bft) O-SO 111 ° 0 min 0,000 mm 0,9 UV-I 148 W/m² 15,0 °C 16,1 °C 0,0 km/h (0 Bft)
27.06.2017 08:03 16,1 °C 16,2 °C 93 % 1007,8 hPa 0,0 mm 0,1 km/h (0 Bft) O-SO 111 ° 0 min 0,000 mm 0,9 UV-I 146 W/m² 15,0 °C 16,1 °C 1,6 km/h (1 Bft)
27.06.2017 08:04 16,1 °C 16,2 °C 93 % 1007,8 hPa 0,0 mm 1,3 km/h (1 Bft) O-SO 111 ° 0 min 0,000 mm 0,9 UV-I 141 W/m² 15,0 °C 16,1 °C 3,2 km/h (1 Bft)
27.06.2017 08:05 16,2 °C 16,2 °C 93 % 1007,8 hPa 0,0 mm 0,9 km/h (0 Bft) O-NO 71 ° 0 min 0,000 mm 1,0 UV-I 142 W/m² 15,1 °C 16,2 °C 4,8 km/h (1 Bft)
27.06.2017 08:06 16,2 °C 16,2 °C 93 % 1007,8 hPa 0,0 mm 3,6 km/h (1 Bft) NO 49 ° 0 min 0,000 mm 1,0 UV-I 142 W/m² 15,1 °C 16,2 °C 4,8 km/h (1 Bft)
27.06.2017 08:07 16,2 °C 16,2 °C 93 % 1007,8 hPa 0,0 mm 3,6 km/h (1 Bft) NO 49 ° 0 min 0,000 mm 1,0 UV-I 144 W/m² 15,1 °C 16,2 °C 4,8 km/h (1 Bft)
27.06.2017 08:08 16,2 °C 16,2 °C 93 % 1007,8 hPa 0,0 mm 2,5 km/h (1 Bft) NO 49 ° 0 min 0,000 mm 1,0 UV-I 146 W/m² 15,1 °C 16,2 °C 4,8 km/h (1 Bft)
27.06.2017 08:09 16,1 °C 16,2 °C 93 % 1007,8 hPa 0,0 mm 2,7 km/h (1 Bft) NO 49 ° 0 min 0,000 mm 1,0 UV-I 148 W/m² 15,0 °C 16,1 °C 3,2 km/h (1 Bft)
27.06.2017 08:10 16,1 °C 16,1 °C 92 % 1007,9 hPa 0,0 mm 3,4 km/h (1 Bft) NO 49 ° 0 min 0,000 mm 1,0 UV-I 151 W/m² 14,8 °C 16,1 °C 4,8 km/h (1 Bft)
27.06.2017 08:11 16,1 °C 16,1 °C 92 % 1007,9 hPa 0,0 mm 2,9 km/h (1 Bft) NO 38 ° 0 min 0,000 mm 1,0 UV-I 148 W/m² 14,8 °C 16,1 °C 4,8 km/h (1 Bft)
27.06.2017 08:12 16,1 °C 16,1 °C 92 % 1007,9 hPa 0,0 mm 2,9 km/h (1 Bft) NO 38 ° 0 min 0,000 mm 1,0 UV-I 144 W/m² 14,8 °C 16,1 °C 3,2 km/h (1 Bft)
27.06.2017 08:13 16,2 °C 16,2 °C 93 % 1008,0 hPa 0,0 mm 2,0 km/h (1 Bft) NO 38 ° 0 min 0,000 mm 0,9 UV-I 141 W/m² 15,1 °C 16,2 °C 3,2 km/h (1 Bft)
27.06.2017 08:14 16,2 °C 16,2 °C 93 % 1007,9 hPa 0,0 mm 1,3 km/h (1 Bft) NO 38 ° 0 min 0,000 mm 0,9 UV-I 135 W/m² 15,1 °C 16,2 °C 1,6 km/h (1 Bft)
27.06.2017 08:15 16,2 °C 16,2 °C 93 % 1007,9 hPa 0,0 mm 1,5 km/h (1 Bft) NO 38 ° 0 min 0,000 mm 0,9 UV-I 123 W/m² 15,1 °C 16,2 °C 3,2 km/h (1 Bft)
27.06.2017 08:16 16,2 °C 16,2 °C 92 % 1007,9 hPa 0,0 mm 2,3 km/h (1 Bft) N-NW 329 ° 0 min 0,000 mm 0,8 UV-I 114 W/m² 14,9 °C 16,2 °C 4,8 km/h (1 Bft)
27.06.2017 08:17 16,2 °C 16,2 °C 92 % 1007,9 hPa 0,0 mm 1,8 km/h (1 Bft) N-NW 333 ° 0 min 0,000 mm 0,7 UV-I 105 W/m² 14,9 °C 16,2 °C 3,2 km/h (1 Bft)
27.06.2017 08:18 16,2 °C 16,2 °C 92 % 1007,9 hPa 0,0 mm 1,7 km/h (1 Bft) N-NW 337 ° 0 min 0,000 mm 0,6 UV-I 97 W/m² 14,9 °C 16,2 °C 3,2 km/h (1 Bft)
27.06.2017 08:19 16,1 °C 16,2 °C 92 % 1007,9 hPa 0,0 mm 1,2 km/h (1 Bft) N-NW 337 ° 0 min 0,000 mm 0,6 UV-I 91 W/m² 14,8 °C 16,1 °C 3,2 km/h (1 Bft)
27.06.2017 08:20 16,1 °C 16,1 °C 92 % 1007,9 hPa 0,0 mm 1,7 km/h (1 Bft) N-NW 337 ° 0 min 0,000 mm 0,6 UV-I 88 W/m² 14,8 °C 16,1 °C 3,2 km/h (1 Bft)
27.06.2017 08:21 16,2 °C 16,2 °C 92 % 1007,9 hPa 0,0 mm 1,3 km/h (1 Bft) N-NW 337 ° 0 min 0,000 mm 0,5 UV-I 81 W/m² 14,9 °C 16,2 °C 3,2 km/h (1 Bft)
27.06.2017 08:22 16,2 °C 16,2 °C 92 % 1007,9 hPa 0,0 mm 0,0 km/h (0 Bft) N-NW 337 ° 0 min 0,000 mm 0,5 UV-I 81 W/m² 14,9 °C 16,2 °C 0,0 km/h (0 Bft)
27.06.2017 08:23 16,2 °C 16,2 °C 92 % 1008,0 hPa 0,0 mm 0,0 km/h (0 Bft) N-NW 337 ° 0 min 0,000 mm 0,5 UV-I 81 W/m² 14,9 °C 16,2 °C 0,0 km/h (0 Bft)
27.06.2017 08:24 16,2 °C 16,2 °C 92 % 1008,0 hPa 0,0 mm 0,6 km/h (0 Bft) N-NW 337 ° 0 min 0,000 mm 0,5 UV-I 83 W/m² 14,9 °C 16,2 °C 1,6 km/h (1 Bft)
27.06.2017 08:25 16,2 °C 16,2 °C 93 % 1008,0 hPa 0,0 mm 0,4 km/h (0 Bft) N-NW 337 ° 0 min 0,000 mm 0,5 UV-I 83 W/m² 15,1 °C 16,2 °C 1,6 km/h (1 Bft)
27.06.2017 08:26 16,2 °C 16,2 °C 93 % 1007,9 hPa 0,0 mm 0,0 km/h (0 Bft) N-NW 337 ° 0 min 0,000 mm 0,6 UV-I 84 W/m² 15,1 °C 16,2 °C 0,0 km/h (0 Bft)
27.06.2017 08:27 16,2 °C 16,2 °C 93 % 1008,0 hPa 0,0 mm 0,1 km/h (0 Bft) N-NW 337 ° 0 min 0,000 mm 0,6 UV-I 90 W/m² 15,1 °C 16,2 °C 1,6 km/h (1 Bft)
27.06.2017 08:28 16,2 °C 16,2 °C 93 % 1007,9 hPa 0,0 mm 1,4 km/h (1 Bft) N-NO 28 ° 0 min 0,000 mm 0,6 UV-I 93 W/m² 15,1 °C 16,2 °C 4,8 km/h (1 Bft)
27.06.2017 08:29 16,1 °C 16,2 °C 93 % 1008,0 hPa 0,0 mm 2,5 km/h (1 Bft) NO 47 ° 0 min 0,000 mm 0,6 UV-I 95 W/m² 15,0 °C 16,1 °C 3,2 km/h (1 Bft)
27.06.2017 08:30 16,1 °C 16,1 °C 93 % 1008,0 hPa 0,0 mm 0,9 km/h (0 Bft) NO 47 ° 0 min 0,000 mm 0,7 UV-I 98 W/m² 15,0 °C 16,1 °C 1,6 km/h (1 Bft)
27.06.2017 08:31 16,0 °C 16,1 °C 93 % 1008,0 hPa 0,0 mm 0,0 km/h (0 Bft) NO 47 ° 0 min 0,000 mm 0,7 UV-I 102 W/m² 14,9 °C 16,0 °C 0,0 km/h (0 Bft)
27.06.2017 08:32 15,9 °C 16,0 °C 92 % 1007,9 hPa 0,0 mm 0,0 km/h (0 Bft) NO 47 ° 0 min 0,000 mm 0,7 UV-I 107 W/m² 14,6 °C 15,9 °C 0,0 km/h (0 Bft)
27.06.2017 08:33 15,9 °C 15,9 °C 92 % 1007,9 hPa 0,0 mm 0,0 km/h (0 Bft) NO 47 ° 0 min 0,000 mm 0,8 UV-I 118 W/m² 14,6 °C 15,9 °C 0,0 km/h (0 Bft)
27.06.2017 08:34 15,9 °C 15,9 °C 92 % 1007,9 hPa 0,0 mm 0,1 km/h (0 Bft) NO 47 ° 0 min 0,000 mm 0,8 UV-I 121 W/m² 14,6 °C 15,9 °C 1,6 km/h (1 Bft)
27.06.2017 08:35 15,9 °C 15,9 °C 93 % 1007,9 hPa 0,0 mm 0,1 km/h (0 Bft) NO 47 ° 0 min 0,000 mm 0,9 UV-I 125 W/m² 14,8 °C 15,9 °C 1,6 km/h (1 Bft)
27.06.2017 08:36 15,9 °C 16,0 °C 93 % 1007,9 hPa 0,0 mm 0,0 km/h (0 Bft) NO 47 ° 0 min 0,000 mm 0,9 UV-I 128 W/m² 14,8 °C 15,9 °C 0,0 km/h (0 Bft)
27.06.2017 08:37 16,0 °C 16,0 °C 92 % 1007,9 hPa 0,0 mm 0,0 km/h (0 Bft) NO 47 ° 0 min 0,000 mm 1,0 UV-I 134 W/m² 14,7 °C 16,0 °C 0,0 km/h (0 Bft)
27.06.2017 08:38 16,0 °C 16,0 °C 93 % 1007,9 hPa 0,0 mm 0,0 km/h (0 Bft) NO 47 ° 0 min 0,000 mm 1,0 UV-I 141 W/m² 14,9 °C 16,0 °C 0,0 km/h (0 Bft)
27.06.2017 08:39 16,1 °C 16,1 °C 93 % 1008,0 hPa 0,0 mm 0,0 km/h (0 Bft) NO 47 ° 0 min 0,000 mm 1,1 UV-I 162 W/m² 15,0 °C 16,1 °C 0,0 km/h (0 Bft)
27.06.2017 08:40 16,1 °C 16,1 °C 93 % 1008,0 hPa 0,0 mm 1,3 km/h (1 Bft) NO 47 ° 0 min 0,000 mm 1,2 UV-I 172 W/m² 15,0 °C 16,1 °C 3,2 km/h (1 Bft)
27.06.2017 08:41 16,1 °C 16,1 °C 93 % 1008,0 hPa 0,0 mm 1,2 km/h (1 Bft) NO 47 ° 0 min 0,000 mm 1,2 UV-I 181 W/m² 15,0 °C 16,1 °C 3,2 km/h (1 Bft)
27.06.2017 08:42 16,1 °C 16,1 °C 92 % 1008,0 hPa 0,0 mm 0,1 km/h (0 Bft) NO 47 ° 0 min 0,000 mm 1,2 UV-I 190 W/m² 14,8 °C 16,1 °C 1,6 km/h (1 Bft)
27.06.2017 08:43 16,1 °C 16,1 °C 92 % 1008,0 hPa 0,0 mm 1,5 km/h (1 Bft) NO 47 ° 0 min 0,000 mm 1,3 UV-I 202 W/m² 14,8 °C 16,1 °C 3,2 km/h (1 Bft)
27.06.2017 08:44 16,1 °C 16,1 °C 92 % 1008,0 hPa 0,0 mm 1,7 km/h (1 Bft) NO 47 ° 0 min 0,000 mm 1,4 UV-I 279 W/m² 14,8 °C 16,1 °C 3,2 km/h (1 Bft)
27.06.2017 08:45 16,1 °C 16,1 °C 92 % 1008,0 hPa 0,0 mm 0,3 km/h (0 Bft) NO 47 ° 0 min 0,000 mm 1,5 UV-I 258 W/m² 14,8 °C 16,1 °C 1,6 km/h (1 Bft)
27.06.2017 08:46 16,2 °C 16,2 °C 92 % 1008,0 hPa 0,0 mm 1,8 km/h (1 Bft) NO 47 ° 0 min 0,000 mm 1,3 UV-I 207 W/m² 14,9 °C 16,2 °C 3,2 km/h (1 Bft)
27.06.2017 08:47 16,2 °C 16,2 °C 93 % 1008,0 hPa 0,0 mm 1,5 km/h (1 Bft) NO 47 ° 0 min 0,000 mm 1,3 UV-I 202 W/m² 15,1 °C 16,2 °C 3,2 km/h (1 Bft)
27.06.2017 08:48 16,2 °C 16,2 °C 92 % 1007,9 hPa 0,0 mm 0,5 km/h (0 Bft) NO 47 ° 0 min 0,000 mm 1,3 UV-I 211 W/m² 14,9 °C 16,2 °C 3,2 km/h (1 Bft)
27.06.2017 08:49 16,2 °C 16,2 °C 93 % 1007,9 hPa 0,0 mm 2,4 km/h (1 Bft) NO 47 ° 0 min 0,000 mm 1,4 UV-I 218 W/m² 15,1 °C 16,2 °C 4,8 km/h (1 Bft)
27.06.2017 08:50 16,3 °C 16,3 °C 92 % 1007,9 hPa 0,0 mm 2,3 km/h (1 Bft) NO 47 ° 0 min 0,000 mm 1,5 UV-I 232 W/m² 15,0 °C 16,3 °C 4,8 km/h (1 Bft)
27.06.2017 08:51 16,3 °C 16,3 °C 92 % 1007,9 hPa 0,0 mm 1,7 km/h (1 Bft) NO 47 ° 0 min 0,000 mm 1,6 UV-I 279 W/m² 15,0 °C 16,3 °C 3,2 km/h (1 Bft)
27.06.2017 08:52 16,4 °C 16,4 °C 93 % 1007,8 hPa 0,0 mm 0,1 km/h (0 Bft) NO 47 ° 0 min 0,000 mm 1,7 UV-I 267 W/m² 15,3 °C 16,4 °C 1,6 km/h (1 Bft)
27.06.2017 08:53 16,4 °C 16,4 °C 92 % 1007,8 hPa 0,0 mm 1,0 km/h (0 Bft) NO 47 ° 0 min 0,000 mm 1,8 UV-I 274 W/m² 15,1 °C 16,4 °C 3,2 km/h (1 Bft)
27.06.2017 08:54 16,4 °C 16,4 °C 92 % 1007,9 hPa 0,0 mm 1,2 km/h (1 Bft) NO 47 ° 0 min 0,000 mm 1,9 UV-I 285 W/m² 15,1 °C 16,4 °C 3,2 km/h (1 Bft)
27.06.2017 08:55 16,6 °C 16,6 °C 93 % 1007,7 hPa 0,0 mm 3,1 km/h (1 Bft) NO 47 ° 1 min 0,000 mm 2,0 UV-I 299 W/m² 15,5 °C 16,6 °C 4,8 km/h (1 Bft)
27.06.2017 08:56 16,6 °C 16,6 °C 92 % 1007,7 hPa 0,0 mm 3,8 km/h (1 Bft) NO 47 ° 1 min 0,000 mm 2,0 UV-I 313 W/m² 15,3 °C 16,6 °C 4,8 km/h (1 Bft)
27.06.2017 08:57 16,6 °C 16,6 °C 92 % 1007,7 hPa 0,0 mm 3,4 km/h (1 Bft) NO 47 ° 0 min 0,000 mm 2,0 UV-I 288 W/m² 15,3 °C 16,6 °C 4,8 km/h (1 Bft)
27.06.2017 08:58 16,7 °C 16,7 °C 92 % 1007,8 hPa 0,0 mm 1,2 km/h (1 Bft) NO 47 ° 0 min 0,000 mm 1,9 UV-I 285 W/m² 15,4 °C 16,7 °C 3,2 km/h (1 Bft)
27.06.2017 08:59 16,7 °C 16,7 °C 92 % 1007,7 hPa 0,0 mm 2,1 km/h (1 Bft) NO 47 ° 0 min 0,000 mm 1,9 UV-I 278 W/m² 15,4 °C 16,7 °C 3,2 km/h (1 Bft)
27.06.2017 09:00 16,8 °C 16,8 °C 92 % 1007,7 hPa 0,0 mm 1,7 km/h (1 Bft) NO 47 ° 0 min 0,000 mm 1,9 UV-I 272 W/m² 15,5 °C 16,8 °C 3,2 km/h (1 Bft)
27.06.2017 09:01 16,8 °C 16,8 °C 92 % 1007,7 hPa 0,0 mm 1,3 km/h (1 Bft) NO 47 ° 0 min 0,102 mm 1,9 UV-I 274 W/m² 15,5 °C 16,8 °C 3,2 km/h (1 Bft)
27.06.2017 09:02 16,9 °C 16,9 °C 93 % 1007,9 hPa 0,0 mm 1,6 km/h (1 Bft) NO 47 ° 0 min 0,000 mm 1,8 UV-I 265 W/m² 15,8 °C 16,9 °C 4,8 km/h (1 Bft)
27.06.2017 09:03 16,9 °C 16,9 °C 92 % 1007,8 hPa 0,0 mm 4,2 km/h (1 Bft) NO 47 ° 0 min 0,000 mm 1,8 UV-I 257 W/m² 15,6 °C 16,9 °C 4,8 km/h (1 Bft)
27.06.2017 09:04 16,9 °C 16,9 °C 92 % 1007,8 hPa 0,0 mm 1,5 km/h (1 Bft) NO 47 ° 0 min 0,000 mm 1,7 UV-I 248 W/m² 15,6 °C 16,9 °C 3,2 km/h (1 Bft)
27.06.2017 09:05 16,8 °C 16,9 °C 91 % 1007,8 hPa 0,0 mm 3,1 km/h (1 Bft) NO 56 ° 0 min 0,000 mm 1,6 UV-I 236 W/m² 15,3 °C 16,8 °C 4,8 km/h (1 Bft)
27.06.2017 09:06 16,8 °C 16,9 °C 92 % 1007,8 hPa 0,0 mm 2,7 km/h (1 Bft) NO 53 ° 0 min 0,000 mm 1,5 UV-I 229 W/m² 15,5 °C 16,8 °C 4,8 km/h (1 Bft)
27.06.2017 09:07 16,8 °C 16,8 °C 92 % 1007,8 hPa 0,0 mm 2,7 km/h (1 Bft) NO 53 ° 0 min 0,000 mm 1,5 UV-I 211 W/m² 15,5 °C 16,8 °C 4,8 km/h (1 Bft)
27.06.2017 09:08 16,9 °C 16,9 °C 92 % 1007,8 hPa 0,0 mm 2,9 km/h (1 Bft) NO 53 ° 0 min 0,000 mm 1,4 UV-I 202 W/m² 15,6 °C 16,9 °C 4,8 km/h (1 Bft)
27.06.2017 09:09 16,9 °C 16,9 °C 92 % 1007,8 hPa 0,0 mm 4,2 km/h (1 Bft) O-NO 65 ° 0 min 0,000 mm 1,4 UV-I 200 W/m² 15,6 °C 16,9 °C 6,4 km/h (2 Bft)
27.06.2017 09:10 16,9 °C 16,9 °C 92 % 1007,7 hPa 0,0 mm 6,1 km/h (2 Bft) NO 49 ° 0 min 0,000 mm 1,4 UV-I 202 W/m² 15,6 °C 16,9 °C 8,0 km/h (2 Bft)
27.06.2017 09:11 16,9 °C 16,9 °C 92 % 1007,7 hPa 0,0 mm 3,4 km/h (1 Bft) O-NO 63 ° 0 min 0,000 mm 1,4 UV-I 202 W/m² 15,6 °C 16,9 °C 6,4 km/h (2 Bft)
27.06.2017 09:12 16,9 °C 16,9 °C 92 % 1007,7 hPa 0,0 mm 3,4 km/h (1 Bft) O-NO 63 ° 0 min 0,000 mm 1,5 UV-I 204 W/m² 15,6 °C 16,9 °C 4,8 km/h (1 Bft)
27.06.2017 09:13 16,9 °C 16,9 °C 92 % 1007,7 hPa 0,0 mm 3,4 km/h (1 Bft) O-NO 61 ° 0 min 0,000 mm 1,5 UV-I 204 W/m² 15,6 °C 16,9 °C 4,8 km/h (1 Bft)
27.06.2017 09:14 16,9 °C 16,9 °C 92 % 1007,7 hPa 0,0 mm 2,7 km/h (1 Bft) O-NO 61 ° 0 min 0,000 mm 1,4 UV-I 200 W/m² 15,6 °C 16,9 °C 4,8 km/h (1 Bft)
27.06.2017 09:15 16,9 °C 16,9 °C 91 % 1007,6 hPa 0,0 mm 4,8 km/h (1 Bft) O-NO 63 ° 0 min 0,000 mm 1,5 UV-I 207 W/m² 15,4 °C 16,9 °C 8,0 km/h (2 Bft)
27.06.2017 09:16 16,9 °C 16,9 °C 92 % 1007,6 hPa 0,0 mm 4,1 km/h (1 Bft) O-NO 67 ° 0 min 0,000 mm 1,6 UV-I 214 W/m² 15,6 °C 16,9 °C 6,4 km/h (2 Bft)
27.06.2017 09:17 16,9 °C 16,9 °C 91 % 1007,5 hPa 0,0 mm 5,4 km/h (1 Bft) NO 48 ° 0 min 0,000 mm 1,6 UV-I 221 W/m² 15,4 °C 16,9 °C 9,7 km/h (2 Bft)
27.06.2017 09:18 16,8 °C 16,9 °C 91 % 1007,6 hPa 0,0 mm 4,1 km/h (1 Bft) NO 39 ° 0 min 0,000 mm 1,6 UV-I 223 W/m² 15,3 °C 16,8 °C 6,4 km/h (2 Bft)
27.06.2017 09:19 16,8 °C 16,8 °C 91 % 1007,6 hPa 0,0 mm 4,7 km/h (1 Bft) NO 49 ° 0 min 0,000 mm 1,7 UV-I 227 W/m² 15,3 °C 16,8 °C 6,4 km/h (2 Bft)
27.06.2017 09:20 16,8 °C 16,8 °C 90 % 1007,5 hPa 0,0 mm 3,6 km/h (1 Bft) NO 40 ° 0 min 0,000 mm 1,7 UV-I 232 W/m² 15,1 °C 16,8 °C 6,4 km/h (2 Bft)
27.06.2017 09:21 16,8 °C 16,8 °C 91 % 1007,5 hPa 0,0 mm 4,3 km/h (1 Bft) NO 49 ° 0 min 0,000 mm 1,7 UV-I 229 W/m² 15,3 °C 16,8 °C 8,0 km/h (2 Bft)
27.06.2017 09:22 16,8 °C 16,8 °C 91 % 1007,5 hPa 0,0 mm 4,5 km/h (1 Bft) O-NO 60 ° 0 min 0,000 mm 1,7 UV-I 232 W/m² 15,3 °C 16,8 °C 8,0 km/h (2 Bft)
27.06.2017 09:23 16,8 °C 16,8 °C 91 % 1007,5 hPa 0,0 mm 4,7 km/h (1 Bft) O-NO 74 ° 0 min 0,000 mm 1,8 UV-I 253 W/m² 15,3 °C 16,8 °C 6,4 km/h (2 Bft)
27.06.2017 09:24 16,8 °C 16,8 °C 91 % 1007,5 hPa 0,0 mm 3,9 km/h (1 Bft) O-NO 61 ° 0 min 0,000 mm 1,8 UV-I 258 W/m² 15,3 °C 16,8 °C 6,4 km/h (2 Bft)
27.06.2017 09:25 16,9 °C 16,9 °C 91 % 1007,5 hPa 0,0 mm 4,5 km/h (1 Bft) NO 39 ° 0 min 0,000 mm 2,0 UV-I 278 W/m² 15,4 °C 16,9 °C 6,4 km/h (2 Bft)
27.06.2017 09:26 16,9 °C 16,9 °C 91 % 1007,5 hPa 0,0 mm 4,0 km/h (1 Bft) O-NO 73 ° 0 min 0,000 mm 1,8 UV-I 272 W/m² 15,4 °C 16,9 °C 4,8 km/h (1 Bft)
27.06.2017 09:27 16,9 °C 16,9 °C 91 % 1007,5 hPa 0,0 mm 5,0 km/h (1 Bft) O-SO 103 ° 1 min 0,000 mm 2,1 UV-I 301 W/m² 15,4 °C 16,9 °C 6,4 km/h (2 Bft)
27.06.2017 09:28 17,0 °C 17,0 °C 92 % 1007,5 hPa 0,0 mm 2,1 km/h (1 Bft) O-NO 71 ° 1 min 0,000 mm 2,5 UV-I 301 W/m² 15,7 °C 17,0 °C 4,8 km/h (1 Bft)
27.06.2017 09:29 17,0 °C 17,0 °C 91 % 1007,4 hPa 0,0 mm 2,8 km/h (1 Bft) O-NO 74 ° 1 min 0,000 mm 2,2 UV-I 301 W/m² 15,5 °C 17,0 °C 4,8 km/h (1 Bft)
27.06.2017 09:30 17,1 °C 17,1 °C 91 % 1007,5 hPa 0,0 mm 3,6 km/h (1 Bft) O 80 ° 1 min 0,000 mm 2,3 UV-I 315 W/m² 15,6 °C 17,1 °C 6,4 km/h (2 Bft)
27.06.2017 09:31 17,0 °C 17,1 °C 90 % 1007,5 hPa 0,0 mm 4,7 km/h (1 Bft) O 82 ° 1 min 0,000 mm 2,4 UV-I 315 W/m² 15,3 °C 17,0 °C 6,4 km/h (2 Bft)
27.06.2017 09:32 17,0 °C 17,0 °C 91 % 1007,5 hPa 0,0 mm 5,3 km/h (1 Bft) N-NO 26 ° 1 min 0,000 mm 2,3 UV-I 322 W/m² 15,5 °C 17,0 °C 8,0 km/h (2 Bft)
27.06.2017 09:33 17,1 °C 17,1 °C 91 % 1007,4 hPa 0,0 mm 3,1 km/h (1 Bft) N-NO 32 ° 1 min 0,000 mm 2,3 UV-I 308 W/m² 15,6 °C 17,1 °C 6,4 km/h (2 Bft)
27.06.2017 09:34 17,1 °C 17,1 °C 91 % 1007,4 hPa 0,0 mm 2,9 km/h (1 Bft) O-NO 74 ° 1 min 0,000 mm 2,4 UV-I 315 W/m² 15,6 °C 17,1 °C 4,8 km/h (1 Bft)
27.06.2017 09:35 17,2 °C 17,2 °C 91 % 1007,4 hPa 0,0 mm 2,8 km/h (1 Bft) O-NO 59 ° 1 min 0,000 mm 2,4 UV-I 323 W/m² 15,7 °C 17,2 °C 6,4 km/h (2 Bft)
27.06.2017 09:36 17,2 °C 17,2 °C 91 % 1007,4 hPa 0,0 mm 3,6 km/h (1 Bft) N-NO 17 ° 1 min 0,000 mm 2,6 UV-I 401 W/m² 15,7 °C 17,2 °C 6,4 km/h (2 Bft)
27.06.2017 09:37 17,2 °C 17,2 °C 91 % 1007,5 hPa 0,0 mm 3,1 km/h (1 Bft) NO 36 ° 0 min 0,000 mm 2,3 UV-I 262 W/m² 15,7 °C 17,2 °C 6,4 km/h (2 Bft)
27.06.2017 09:38 17,3 °C 17,3 °C 91 % 1007,5 hPa 0,0 mm 3,8 km/h (1 Bft) O 98 ° 0 min 0,000 mm 2,1 UV-I 260 W/m² 15,8 °C 17,3 °C 6,4 km/h (2 Bft)
27.06.2017 09:39 17,3 °C 17,3 °C 91 % 1007,4 hPa 0,0 mm 5,4 km/h (1 Bft) O-NO 59 ° 0 min 0,000 mm 2,1 UV-I 260 W/m² 15,8 °C 17,3 °C 6,4 km/h (2 Bft)
27.06.2017 09:40 17,2 °C 17,3 °C 90 % 1007,4 hPa 0,0 mm 3,1 km/h (1 Bft) N-NO 29 ° 0 min 0,000 mm 2,2 UV-I 274 W/m² 15,5 °C 17,2 °C 6,4 km/h (2 Bft)
27.06.2017 09:41 17,1 °C 17,2 °C 90 % 1007,4 hPa 0,0 mm 1,3 km/h (1 Bft) N-NO 28 ° 0 min 0,000 mm 2,2 UV-I 287 W/m² 15,4 °C 17,1 °C 4,8 km/h (1 Bft)
27.06.2017 09:42 17,1 °C 17,1 °C 90 % 1007,3 hPa 0,0 mm 5,4 km/h (1 Bft) O-NO 70 ° 1 min 0,000 mm 2,4 UV-I 311 W/m² 15,4 °C 17,1 °C 8,0 km/h (2 Bft)
27.06.2017 09:43 17,1 °C 17,1 °C 91 % 1007,4 hPa 0,0 mm 4,1 km/h (1 Bft) O-NO 71 ° 1 min 0,000 mm 2,6 UV-I 403 W/m² 15,6 °C 17,1 °C 4,8 km/h (1 Bft)
27.06.2017 09:44 17,2 °C 17,2 °C 91 % 1007,4 hPa 0,0 mm 4,5 km/h (1 Bft) NO 52 ° 1 min 0,000 mm 3,0 UV-I 462 W/m² 15,7 °C 17,2 °C 6,4 km/h (2 Bft)
27.06.2017 09:45 17,2 °C 17,2 °C 91 % 1007,3 hPa 0,0 mm 1,7 km/h (1 Bft) NO 49 ° 1 min 0,000 mm 3,3 UV-I 476 W/m² 15,7 °C 17,2 °C 4,8 km/h (1 Bft)
27.06.2017 09:46 17,3 °C 17,3 °C 90 % 1007,3 hPa 0,0 mm 3,8 km/h (1 Bft) NO 46 ° 1 min 0,000 mm 3,3 UV-I 476 W/m² 15,6 °C 17,3 °C 6,4 km/h (2 Bft)
27.06.2017 09:47 17,4 °C 17,4 °C 91 % 1007,3 hPa 0,0 mm 3,4 km/h (1 Bft) NO 38 ° 1 min 0,000 mm 3,1 UV-I 476 W/m² 15,9 °C 17,4 °C 6,4 km/h (2 Bft)
27.06.2017 09:48 17,5 °C 17,5 °C 90 % 1007,3 hPa 0,0 mm 4,6 km/h (1 Bft) NO 35 ° 1 min 0,000 mm 3,0 UV-I 445 W/m² 15,8 °C 17,5 °C 9,7 km/h (2 Bft)
27.06.2017 09:49 17,6 °C 17,6 °C 90 % 1007,3 hPa 0,0 mm 5,3 km/h (1 Bft) N-NO 30 ° 1 min 0,000 mm 3,0 UV-I 445 W/m² 15,9 °C 17,6 °C 8,0 km/h (2 Bft)
27.06.2017 09:50 17,6 °C 17,6 °C 90 % 1007,3 hPa 0,0 mm 5,0 km/h (1 Bft) O-SO 108 ° 1 min 0,000 mm 3,0 UV-I 450 W/m² 15,9 °C 17,6 °C 11,3 km/h (2 Bft)
27.06.2017 09:51 17,7 °C 17,7 °C 91 % 1007,3 hPa 0,0 mm 6,6 km/h (2 Bft) O-NO 75 ° 1 min 0,000 mm 2,8 UV-I 411 W/m² 16,2 °C 17,7 °C 12,9 km/h (3 Bft)
27.06.2017 09:52 17,7 °C 17,7 °C 90 % 1007,3 hPa 0,0 mm 5,2 km/h (1 Bft) O 80 ° 1 min 0,000 mm 3,0 UV-I 475 W/m² 16,0 °C 17,7 °C 8,0 km/h (2 Bft)
27.06.2017 09:53 17,7 °C 17,7 °C 89 % 1007,3 hPa 0,0 mm 5,8 km/h (2 Bft) O-NO 60 ° 1 min 0,000 mm 2,6 UV-I 396 W/m² 15,9 °C 17,7 °C 11,3 km/h (2 Bft)
27.06.2017 09:54 17,7 °C 17,7 °C 89 % 1007,3 hPa 0,0 mm 2,1 km/h (1 Bft) O-NO 62 ° 1 min 0,000 mm 2,6 UV-I 322 W/m² 15,9 °C 17,7 °C 3,2 km/h (1 Bft)
27.06.2017 09:55 17,7 °C 17,7 °C 89 % 1007,3 hPa 0,0 mm 3,1 km/h (1 Bft) O-NO 69 ° 0 min 0,000 mm 2,3 UV-I 287 W/m² 15,9 °C 17,7 °C 6,4 km/h (2 Bft)
27.06.2017 09:56 17,7 °C 17,7 °C 89 % 1007,3 hPa 0,0 mm 1,8 km/h (1 Bft) NO 54 ° 0 min 0,000 mm 2,2 UV-I 276 W/m² 15,9 °C 17,7 °C 3,2 km/h (1 Bft)
27.06.2017 09:57 17,7 °C 17,7 °C 89 % 1007,3 hPa 0,0 mm 3,3 km/h (1 Bft) NO 46 ° 0 min 0,000 mm 2,2 UV-I 274 W/m² 15,9 °C 17,7 °C 6,4 km/h (2 Bft)
27.06.2017 09:58 17,7 °C 17,7 °C 89 % 1007,2 hPa 0,0 mm 4,9 km/h (1 Bft) O-NO 61 ° 0 min 0,000 mm 2,2 UV-I 272 W/m² 15,9 °C 17,7 °C 8,0 km/h (2 Bft)
27.06.2017 09:59 17,7 °C 17,7 °C 89 % 1007,3 hPa 0,0 mm 5,0 km/h (1 Bft) O-NO 72 ° 1 min 0,000 mm 2,3 UV-I 290 W/m² 15,9 °C 17,7 °C 6,4 km/h (2 Bft)
27.06.2017 10:00 17,7 °C 17,7 °C 89 % 1007,2 hPa 0,0 mm 6,9 km/h (2 Bft) O-NO 63 ° 1 min 0,178 mm 2,5 UV-I 322 W/m² 15,9 °C 17,7 °C 9,7 km/h (2 Bft)
27.06.2017 10:01 17,6 °C 17,7 °C 89 % 1007,2 hPa 0,0 mm 4,1 km/h (1 Bft) O 81 ° 1 min 0,000 mm 2,4 UV-I 320 W/m² 15,8 °C 17,6 °C 6,4 km/h (2 Bft)
27.06.2017 10:02 17,6 °C 17,6 °C 89 % 1007,1 hPa 0,0 mm 4,6 km/h (1 Bft) N-NO 30 ° 1 min 0,000 mm 2,4 UV-I 327 W/m² 15,8 °C 17,6 °C 8,0 km/h (2 Bft)
27.06.2017 10:03 17,6 °C 17,6 °C 89 % 1007,2 hPa 0,0 mm 4,8 km/h (1 Bft) NO 51 ° 1 min 0,000 mm 2,3 UV-I 311 W/m² 15,8 °C 17,6 °C 9,7 km/h (2 Bft)
27.06.2017 10:04 17,6 °C 17,6 °C 89 % 1007,2 hPa 0,0 mm 2,4 km/h (1 Bft) N-NO 26 ° 1 min 0,000 mm 2,3 UV-I 301 W/m² 15,8 °C 17,6 °C 4,8 km/h (1 Bft)
27.06.2017 10:05 17,6 °C 17,6 °C 90 % 1007,2 hPa 0,0 mm 2,2 km/h (1 Bft) N-NO 21 ° 0 min 0,000 mm 2,2 UV-I 285 W/m² 15,9 °C 17,6 °C 4,8 km/h (1 Bft)
27.06.2017 10:06 17,7 °C 17,7 °C 89 % 1007,2 hPa 0,0 mm 4,8 km/h (1 Bft) N-NO 26 ° 0 min 0,000 mm 2,1 UV-I 271 W/m² 15,9 °C 17,7 °C 9,7 km/h (2 Bft)
27.06.2017 10:07 17,7 °C 17,7 °C 89 % 1007,2 hPa 0,0 mm 6,9 km/h (2 Bft) NO 55 ° 0 min 0,000 mm 2,0 UV-I 251 W/m² 15,9 °C 17,7 °C 9,7 km/h (2 Bft)
27.06.2017 10:08 17,7 °C 17,7 °C 89 % 1007,2 hPa 0,0 mm 5,0 km/h (1 Bft) N-NO 13 ° 0 min 0,000 mm 1,9 UV-I 244 W/m² 15,9 °C 17,7 °C 6,4 km/h (2 Bft)
27.06.2017 10:09 17,6 °C 17,7 °C 89 % 1007,2 hPa 0,0 mm 5,4 km/h (1 Bft) NO 55 ° 0 min 0,000 mm 1,9 UV-I 239 W/m² 15,8 °C 17,6 °C 6,4 km/h (2 Bft)
27.06.2017 10:10 17,6 °C 17,6 °C 89 % 1007,2 hPa 0,0 mm 3,8 km/h (1 Bft) O 82 ° 0 min 0,000 mm 1,9 UV-I 234 W/m² 15,8 °C 17,6 °C 6,4 km/h (2 Bft)
27.06.2017 10:11 17,7 °C 17,7 °C 89 % 1007,2 hPa 0,0 mm 2,2 km/h (1 Bft) O 82 ° 0 min 0,000 mm 1,8 UV-I 225 W/m² 15,9 °C 17,7 °C 4,8 km/h (1 Bft)
27.06.2017 10:12 17,6 °C 17,7 °C 89 % 1007,2 hPa 0,0 mm 4,5 km/h (1 Bft) O-NO 61 ° 0 min 0,000 mm 1,7 UV-I 218 W/m² 15,8 °C 17,6 °C 6,4 km/h (2 Bft)
27.06.2017 10:13 17,6 °C 17,7 °C 89 % 1007,3 hPa 0,0 mm 5,6 km/h (1 Bft) O-NO 75 ° 0 min 0,000 mm 1,7 UV-I 202 W/m² 15,8 °C 17,6 °C 8,0 km/h (2 Bft)
27.06.2017 10:14 17,6 °C 17,6 °C 89 % 1007,3 hPa 0,0 mm 3,2 km/h (1 Bft) O-NO 78 ° 0 min 0,000 mm 1,6 UV-I 199 W/m² 15,8 °C 17,6 °C 4,8 km/h (1 Bft)
27.06.2017 10:15 17,5 °C 17,6 °C 89 % 1007,3 hPa 0,0 mm 4,1 km/h (1 Bft) NO 44 ° 0 min 0,000 mm 1,6 UV-I 195 W/m² 15,7 °C 17,5 °C 6,4 km/h (2 Bft)
27.06.2017 10:16 17,4 °C 17,5 °C 89 % 1007,4 hPa 0,0 mm 4,0 km/h (1 Bft) O-NO 65 ° 0 min 0,000 mm 1,5 UV-I 188 W/m² 15,6 °C 17,4 °C 6,4 km/h (2 Bft)
27.06.2017 10:17 17,4 °C 17,4 °C 89 % 1007,3 hPa 0,0 mm 3,8 km/h (1 Bft) NO 54 ° 0 min 0,000 mm 1,4 UV-I 181 W/m² 15,6 °C 17,4 °C 6,4 km/h (2 Bft)
27.06.2017 10:18 17,4 °C 17,4 °C 89 % 1007,5 hPa 0,0 mm 0,7 km/h (0 Bft) NO 54 ° 0 min 0,000 mm 1,4 UV-I 178 W/m² 15,6 °C 17,4 °C 3,2 km/h (1 Bft)
27.06.2017 10:19 17,5 °C 17,5 °C 89 % 1007,4 hPa 0,0 mm 0,2 km/h (0 Bft) NO 54 ° 0 min 0,000 mm 1,4 UV-I 172 W/m² 15,7 °C 17,5 °C 1,6 km/h (1 Bft)
27.06.2017 10:20 17,6 °C 17,6 °C 90 % 1007,4 hPa 0,0 mm 1,4 km/h (1 Bft) NO 55 ° 0 min 0,000 mm 1,4 UV-I 169 W/m² 15,9 °C 17,6 °C 3,2 km/h (1 Bft)
27.06.2017 10:21 17,6 °C 17,6 °C 90 % 1007,5 hPa 0,0 mm 4,5 km/h (1 Bft) NO 35 ° 0 min 0,000 mm 1,3 UV-I 162 W/m² 15,9 °C 17,6 °C 8,0 km/h (2 Bft)
27.06.2017 10:22 17,6 °C 17,6 °C 89 % 1007,5 hPa 0,0 mm 4,2 km/h (1 Bft) O-NO 57 ° 0 min 0,000 mm 1,3 UV-I 155 W/m² 15,8 °C 17,6 °C 8,0 km/h (2 Bft)
27.06.2017 10:23 17,6 °C 17,6 °C 89 % 1007,5 hPa 0,0 mm 3,1 km/h (1 Bft) O-NO 57 ° 0 min 0,000 mm 1,3 UV-I 155 W/m² 15,8 °C 17,6 °C 4,8 km/h (1 Bft)
27.06.2017 10:24 17,6 °C 17,6 °C 90 % 1007,5 hPa 0,0 mm 2,5 km/h (1 Bft) O-NO 57 ° 0 min 0,000 mm 1,3 UV-I 158 W/m² 15,9 °C 17,6 °C 4,8 km/h (1 Bft)
27.06.2017 10:25 17,6 °C 17,6 °C 89 % 1007,5 hPa 0,0 mm 1,6 km/h (1 Bft) O-NO 57 ° 0 min 0,000 mm 1,4 UV-I 169 W/m² 15,8 °C 17,6 °C 3,2 km/h (1 Bft)
27.06.2017 10:26 17,6 °C 17,6 °C 90 % 1007,4 hPa 0,0 mm 3,1 km/h (1 Bft) O-NO 57 ° 0 min 0,000 mm 1,4 UV-I 183 W/m² 15,9 °C 17,6 °C 4,8 km/h (1 Bft)
27.06.2017 10:27 17,5 °C 17,6 °C 89 % 1007,4 hPa 0,0 mm 3,4 km/h (1 Bft) O-NO 65 ° 0 min 0,000 mm 1,7 UV-I 197 W/m² 15,7 °C 17,5 °C 4,8 km/h (1 Bft)
27.06.2017 10:28 17,4 °C 17,5 °C 90 % 1007,5 hPa 0,0 mm 3,0 km/h (1 Bft) O-NO 65 ° 0 min 0,000 mm 1,7 UV-I 206 W/m² 15,7 °C 17,4 °C 4,8 km/h (1 Bft)
27.06.2017 10:29 17,5 °C 17,5 °C 91 % 1007,4 hPa 0,0 mm 3,4 km/h (1 Bft) O-NO 76 ° 0 min 0,000 mm 1,7 UV-I 207 W/m² 16,0 °C 17,5 °C 6,4 km/h (2 Bft)
27.06.2017 10:30 17,5 °C 17,5 °C 90 % 1007,3 hPa 0,0 mm 5,4 km/h (1 Bft) O-NO 77 ° 0 min 0,000 mm 1,7 UV-I 193 W/m² 15,8 °C 17,5 °C 6,4 km/h (2 Bft)
27.06.2017 10:31 17,5 °C 17,5 °C 90 % 1007,4 hPa 0,0 mm 5,2 km/h (1 Bft) O-NO 57 ° 0 min 0,000 mm 1,4 UV-I 179 W/m² 15,8 °C 17,5 °C 8,0 km/h (2 Bft)
27.06.2017 10:32 17,4 °C 17,5 °C 90 % 1007,4 hPa 0,0 mm 4,1 km/h (1 Bft) O-NO 64 ° 0 min 0,000 mm 1,4 UV-I 169 W/m² 15,7 °C 17,4 °C 4,8 km/h (1 Bft)
27.06.2017 10:33 17,5 °C 17,5 °C 90 % 1007,4 hPa 0,0 mm 4,8 km/h (1 Bft) O 81 ° 0 min 0,000 mm 1,3 UV-I 165 W/m² 15,8 °C 17,5 °C 6,4 km/h (2 Bft)
27.06.2017 10:34 17,5 °C 17,5 °C 90 % 1007,3 hPa 0,0 mm 2,7 km/h (1 Bft) O-NO 71 ° 0 min 0,000 mm 1,2 UV-I 155 W/m² 15,8 °C 17,5 °C 4,8 km/h (1 Bft)
27.06.2017 10:35 17,5 °C 17,5 °C 90 % 1007,4 hPa 0,0 mm 5,5 km/h (1 Bft) O 84 ° 0 min 0,000 mm 1,2 UV-I 148 W/m² 15,8 °C 17,5 °C 11,3 km/h (2 Bft)
27.06.2017 10:36 17,4 °C 17,5 °C 90 % 1007,4 hPa 0,0 mm 5,6 km/h (1 Bft) O-NO 65 ° 0 min 0,000 mm 1,2 UV-I 165 W/m² 15,7 °C 17,4 °C 9,7 km/h (2 Bft)
27.06.2017 10:37 17,4 °C 17,4 °C 90 % 1007,4 hPa 0,0 mm 1,9 km/h (1 Bft) O-NO 71 ° 0 min 0,000 mm 1,5 UV-I 178 W/m² 15,7 °C 17,4 °C 8,0 km/h (2 Bft)
27.06.2017 10:38 17,3 °C 17,4 °C 90 % 1007,4 hPa 0,0 mm 5,7 km/h (1 Bft) NO 34 ° 0 min 0,000 mm 1,4 UV-I 176 W/m² 15,6 °C 17,3 °C 8,0 km/h (2 Bft)
27.06.2017 10:39 17,3 °C 17,3 °C 90 % 1007,4 hPa 0,0 mm 4,1 km/h (1 Bft) NO 49 ° 0 min 0,000 mm 1,4 UV-I 172 W/m² 15,6 °C 17,3 °C 6,4 km/h (2 Bft)
27.06.2017 10:40 17,3 °C 17,3 °C 90 % 1007,4 hPa 0,0 mm 2,6 km/h (1 Bft) NO 49 ° 0 min 0,000 mm 1,4 UV-I 169 W/m² 15,6 °C 17,3 °C 4,8 km/h (1 Bft)
27.06.2017 10:41 17,3 °C 17,3 °C 90 % 1007,4 hPa 0,0 mm 2,7 km/h (1 Bft) NO 49 ° 0 min 0,000 mm 1,3 UV-I 163 W/m² 15,6 °C 17,3 °C 4,8 km/h (1 Bft)
27.06.2017 10:42 17,3 °C 17,3 °C 90 % 1007,4 hPa 0,0 mm 2,3 km/h (1 Bft) NO 49 ° 0 min 0,000 mm 1,3 UV-I 158 W/m² 15,6 °C 17,3 °C 3,2 km/h (1 Bft)
27.06.2017 10:43 17,4 °C 17,4 °C 90 % 1007,4 hPa 0,0 mm 0,5 km/h (0 Bft) NO 49 ° 0 min 0,000 mm 1,2 UV-I 146 W/m² 15,7 °C 17,4 °C 1,6 km/h (1 Bft)
27.06.2017 10:44 17,4 °C 17,4 °C 90 % 1007,4 hPa 0,0 mm 2,7 km/h (1 Bft) N-NO 12 ° 0 min 0,000 mm 1,3 UV-I 151 W/m² 15,7 °C 17,4 °C 6,4 km/h (2 Bft)
27.06.2017 10:45 17,4 °C 17,4 °C 91 % 1007,4 hPa 0,0 mm 6,2 km/h (2 Bft) O-NO 64 ° 0 min 0,000 mm 1,3 UV-I 158 W/m² 15,9 °C 17,4 °C 9,7 km/h (2 Bft)
27.06.2017 10:46 17,4 °C 17,4 °C 90 % 1007,4 hPa 0,0 mm 5,2 km/h (1 Bft) O 82 ° 0 min 0,000 mm 1,3 UV-I 160 W/m² 15,7 °C 17,4 °C 6,4 km/h (2 Bft)
27.06.2017 10:47 17,4 °C 17,4 °C 90 % 1007,4 hPa 0,0 mm 3,6 km/h (1 Bft) O 80 ° 0 min 0,000 mm 1,3 UV-I 160 W/m² 15,7 °C 17,4 °C 4,8 km/h (1 Bft)
27.06.2017 10:48 17,4 °C 17,4 °C 90 % 1007,3 hPa 0,0 mm 1,5 km/h (1 Bft) O 80 ° 0 min 0,000 mm 1,4 UV-I 179 W/m² 15,7 °C 17,4 °C 3,2 km/h (1 Bft)
27.06.2017 10:49 17,4 °C 17,4 °C 91 % 1007,3 hPa 0,0 mm 1,6 km/h (1 Bft) O-NO 78 ° 0 min 0,000 mm 1,6 UV-I 186 W/m² 15,9 °C 17,4 °C 4,8 km/h (1 Bft)
27.06.2017 10:50 17,4 °C 17,4 °C 90 % 1007,4 hPa 0,0 mm 6,0 km/h (2 Bft) O 91 ° 0 min 0,000 mm 1,5 UV-I 183 W/m² 15,7 °C 17,4 °C 8,0 km/h (2 Bft)
27.06.2017 10:51 17,4 °C 17,4 °C 91 % 1007,3 hPa 0,0 mm 3,7 km/h (1 Bft) O 92 ° 0 min 0,000 mm 1,5 UV-I 176 W/m² 15,9 °C 17,4 °C 6,4 km/h (2 Bft)
27.06.2017 10:52 17,4 °C 17,4 °C 91 % 1007,3 hPa 0,0 mm 3,9 km/h (1 Bft) O-NO 65 ° 0 min 0,000 mm 1,5 UV-I 174 W/m² 15,9 °C 17,4 °C 6,4 km/h (2 Bft)
27.06.2017 10:53 17,4 °C 17,4 °C 91 % 1007,3 hPa 0,0 mm 2,6 km/h (1 Bft) O-NO 65 ° 0 min 0,000 mm 1,4 UV-I 174 W/m² 15,9 °C 17,4 °C 4,8 km/h (1 Bft)
27.06.2017 10:54 17,4 °C 17,4 °C 90 % 1007,3 hPa 0,0 mm 4,1 km/h (1 Bft) O 92 ° 0 min 0,000 mm 1,5 UV-I 174 W/m² 15,7 °C 17,4 °C 8,0 km/h (2 Bft)
27.06.2017 10:55 17,5 °C 17,5 °C 90 % 1007,3 hPa 0,0 mm 5,6 km/h (1 Bft) O 80 ° 0 min 0,000 mm 1,5 UV-I 176 W/m² 15,8 °C 17,5 °C 8,0 km/h (2 Bft)
27.06.2017 10:56 17,5 °C 17,5 °C 90 % 1007,3 hPa 0,0 mm 2,0 km/h (1 Bft) O 80 ° 0 min 0,000 mm 1,6 UV-I 185 W/m² 15,8 °C 17,5 °C 3,2 km/h (1 Bft)
27.06.2017 10:57 17,5 °C 17,5 °C 91 % 1007,4 hPa 0,0 mm 1,8 km/h (1 Bft) O 79 ° 0 min 0,000 mm 1,7 UV-I 193 W/m² 16,0 °C 17,5 °C 3,2 km/h (1 Bft)
27.06.2017 10:58 17,6 °C 17,6 °C 91 % 1007,4 hPa 0,0 mm 0,6 km/h (0 Bft) O 79 ° 0 min 0,000 mm 1,7 UV-I 200 W/m² 16,1 °C 17,6 °C 3,2 km/h (1 Bft)
27.06.2017 10:59 17,6 °C 17,6 °C 91 % 1007,4 hPa 0,0 mm 3,1 km/h (1 Bft) O 84 ° 0 min 0,000 mm 1,8 UV-I 225 W/m² 16,1 °C 17,6 °C 4,8 km/h (1 Bft)
27.06.2017 11:00 17,6 °C 17,6 °C 91 % 1007,4 hPa 0,0 mm 4,5 km/h (1 Bft) O-NO 78 ° 0 min 0,000 mm 2,0 UV-I 237 W/m² 16,1 °C 17,6 °C 6,4 km/h (2 Bft)
27.06.2017 11:01 17,6 °C 17,6 °C 90 % 1007,3 hPa 0,0 mm 1,4 km/h (1 Bft) O-NO 78 ° 0 min 0,101 mm 2,2 UV-I 251 W/m² 15,9 °C 17,6 °C 3,2 km/h (1 Bft)
27.06.2017 11:02 17,6 °C 17,7 °C 90 % 1007,3 hPa 0,0 mm 3,1 km/h (1 Bft) O-NO 78 ° 0 min 0,000 mm 2,2 UV-I 257 W/m² 15,9 °C 17,6 °C 3,2 km/h (1 Bft)
27.06.2017 11:03 17,7 °C 17,7 °C 90 % 1007,3 hPa 0,0 mm 3,5 km/h (1 Bft) NO 53 ° 0 min 0,000 mm 2,2 UV-I 258 W/m² 16,0 °C 17,7 °C 4,8 km/h (1 Bft)
27.06.2017 11:04 17,7 °C 17,7 °C 89 % 1007,3 hPa 0,0 mm 4,0 km/h (1 Bft) N-NO 24 ° 0 min 0,000 mm 2,2 UV-I 244 W/m² 15,9 °C 17,7 °C 6,4 km/h (2 Bft)
27.06.2017 11:05 17,7 °C 17,7 °C 90 % 1007,4 hPa 0,0 mm 4,4 km/h (1 Bft) O 80 ° 0 min 0,000 mm 2,0 UV-I 207 W/m² 16,0 °C 17,7 °C 6,4 km/h (2 Bft)
27.06.2017 11:06 17,8 °C 17,8 °C 90 % 1007,4 hPa 0,0 mm 3,6 km/h (1 Bft) O 84 ° 0 min 0,000 mm 1,7 UV-I 192 W/m² 16,1 °C 17,8 °C 4,8 km/h (1 Bft)
27.06.2017 11:07 17,8 °C 17,8 °C 90 % 1007,3 hPa 0,0 mm 3,2 km/h (1 Bft) O 84 ° 0 min 0,000 mm 1,6 UV-I 190 W/m² 16,1 °C 17,8 °C 4,8 km/h (1 Bft)
27.06.2017 11:08 17,8 °C 17,8 °C 90 % 1007,3 hPa 0,0 mm 2,6 km/h (1 Bft) O 79 ° 0 min 0,000 mm 1,7 UV-I 204 W/m² 16,1 °C 17,8 °C 4,8 km/h (1 Bft)
27.06.2017 11:09 17,8 °C 17,8 °C 90 % 1007,3 hPa 0,0 mm 4,4 km/h (1 Bft) NO 48 ° 0 min 0,000 mm 1,9 UV-I 220 W/m² 16,1 °C 17,8 °C 8,0 km/h (2 Bft)
27.06.2017 11:10 17,7 °C 17,8 °C 89 % 1007,3 hPa 0,0 mm 5,3 km/h (1 Bft) O-NO 63 ° 0 min 0,000 mm 2,1 UV-I 243 W/m² 15,9 °C 17,7 °C 8,0 km/h (2 Bft)
27.06.2017 11:11 17,8 °C 17,8 °C 90 % 1007,3 hPa 0,0 mm 4,5 km/h (1 Bft) O 79 ° 1 min 0,000 mm 2,4 UV-I 362 W/m² 16,1 °C 17,8 °C 6,4 km/h (2 Bft)
27.06.2017 11:12 17,8 °C 17,8 °C 90 % 1007,4 hPa 0,0 mm 5,7 km/h (1 Bft) O-NO 67 ° 1 min 0,000 mm 3,0 UV-I 399 W/m² 16,1 °C 17,8 °C 8,0 km/h (2 Bft)
27.06.2017 11:13 17,8 °C 17,8 °C 89 % 1007,3 hPa 0,0 mm 4,8 km/h (1 Bft) O-NO 67 ° 1 min 0,000 mm 3,2 UV-I 418 W/m² 16,0 °C 17,8 °C 6,4 km/h (2 Bft)
27.06.2017 11:14 17,8 °C 17,8 °C 90 % 1007,3 hPa 0,0 mm 3,7 km/h (1 Bft) O 88 ° 1 min 0,000 mm 3,2 UV-I 420 W/m² 16,1 °C 17,8 °C 6,4 km/h (2 Bft)
27.06.2017 11:15 17,9 °C 17,9 °C 90 % 1007,3 hPa 0,0 mm 2,1 km/h (1 Bft) O 88 ° 1 min 0,000 mm 3,0 UV-I 362 W/m² 16,2 °C 17,9 °C 4,8 km/h (1 Bft)
27.06.2017 11:16 17,9 °C 17,9 °C 90 % 1007,2 hPa 0,0 mm 3,4 km/h (1 Bft) O-NO 66 ° 1 min 0,000 mm 3,1 UV-I 367 W/m² 16,2 °C 17,9 °C 6,4 km/h (2 Bft)
27.06.2017 11:17 17,9 °C 17,9 °C 90 % 1007,3 hPa 0,0 mm 5,6 km/h (1 Bft) O-NO 77 ° 1 min 0,000 mm 2,8 UV-I 304 W/m² 16,2 °C 17,9 °C 8,0 km/h (2 Bft)
27.06.2017 11:18 17,9 °C 17,9 °C 90 % 1007,3 hPa 0,0 mm 2,4 km/h (1 Bft) O-NO 77 ° 1 min 0,000 mm 2,7 UV-I 304 W/m² 16,2 °C 17,9 °C 6,4 km/h (2 Bft)
27.06.2017 11:19 17,9 °C 17,9 °C 90 % 1007,3 hPa 0,0 mm 0,8 km/h (0 Bft) NO 53 ° 1 min 0,000 mm 2,7 UV-I 302 W/m² 16,2 °C 17,9 °C 1,6 km/h (1 Bft)
27.06.2017 11:20 17,9 °C 17,9 °C 90 % 1007,3 hPa 0,0 mm 5,6 km/h (1 Bft) O-NO 63 ° 1 min 0,000 mm 2,6 UV-I 301 W/m² 16,2 °C 17,9 °C 8,0 km/h (2 Bft)
27.06.2017 11:21 17,9 °C 17,9 °C 88 % 1007,3 hPa 0,0 mm 3,1 km/h (1 Bft) O 93 ° 1 min 0,000 mm 2,6 UV-I 295 W/m² 15,9 °C 17,9 °C 4,8 km/h (1 Bft)
27.06.2017 11:22 17,8 °C 17,9 °C 89 % 1007,3 hPa 0,0 mm 2,4 km/h (1 Bft) O 93 ° 1 min 0,000 mm 2,6 UV-I 294 W/m² 16,0 °C 17,8 °C 4,8 km/h (1 Bft)
27.06.2017 11:23 17,8 °C 17,8 °C 90 % 1007,3 hPa 0,0 mm 2,3 km/h (1 Bft) N-NO 30 ° 1 min 0,000 mm 2,6 UV-I 313 W/m² 16,1 °C 17,8 °C 6,4 km/h (2 Bft)
27.06.2017 11:24 17,9 °C 17,9 °C 89 % 1007,2 hPa 0,0 mm 3,3 km/h (1 Bft) O-NO 64 ° 1 min 0,000 mm 2,7 UV-I 311 W/m² 16,1 °C 17,9 °C 6,4 km/h (2 Bft)
27.06.2017 11:25 17,9 °C 17,9 °C 89 % 1007,2 hPa 0,0 mm 5,7 km/h (1 Bft) O 88 ° 1 min 0,000 mm 2,5 UV-I 294 W/m² 16,1 °C 17,9 °C 8,0 km/h (2 Bft)
27.06.2017 11:26 17,9 °C 18,0 °C 89 % 1007,2 hPa 0,0 mm 6,7 km/h (2 Bft) NO 38 ° 0 min 0,000 mm 2,4 UV-I 278 W/m² 16,1 °C 17,9 °C 11,3 km/h (2 Bft)
27.06.2017 11:27 17,9 °C 18,0 °C 89 % 1007,2 hPa 0,0 mm 4,0 km/h (1 Bft) O 92 ° 1 min 0,000 mm 2,6 UV-I 297 W/m² 16,1 °C 17,9 °C 6,4 km/h (2 Bft)
27.06.2017 11:28 18,0 °C 18,0 °C 89 % 1007,2 hPa 0,0 mm 5,1 km/h (1 Bft) NO 40 ° 1 min 0,000 mm 3,0 UV-I 345 W/m² 16,2 °C 18,0 °C 6,4 km/h (2 Bft)
27.06.2017 11:29 18,0 °C 18,1 °C 88 % 1007,2 hPa 0,0 mm 4,6 km/h (1 Bft) NO 36 ° 1 min 0,000 mm 3,4 UV-I 369 W/m² 16,0 °C 18,0 °C 6,4 km/h (2 Bft)
27.06.2017 11:30 18,1 °C 18,1 °C 89 % 1007,2 hPa 0,0 mm 2,9 km/h (1 Bft) O-NO 71 ° 1 min 0,000 mm 2,9 UV-I 332 W/m² 16,3 °C 18,1 °C 6,4 km/h (2 Bft)
27.06.2017 11:31 18,1 °C 18,1 °C 89 % 1007,1 hPa 0,0 mm 1,9 km/h (1 Bft) O-NO 73 ° 1 min 0,000 mm 2,7 UV-I 306 W/m² 16,3 °C 18,1 °C 4,8 km/h (1 Bft)
27.06.2017 11:32 18,1 °C 18,1 °C 89 % 1007,1 hPa 0,0 mm 1,7 km/h (1 Bft) O-NO 72 ° 1 min 0,000 mm 2,7 UV-I 302 W/m² 16,3 °C 18,1 °C 3,2 km/h (1 Bft)
27.06.2017 11:33 18,1 °C 18,1 °C 89 % 1007,1 hPa 0,0 mm 2,8 km/h (1 Bft) O-NO 59 ° 1 min 0,000 mm 2,6 UV-I 301 W/m² 16,3 °C 18,1 °C 8,0 km/h (2 Bft)
27.06.2017 11:34 18,1 °C 18,1 °C 88 % 1007,1 hPa 0,0 mm 3,9 km/h (1 Bft) NO 52 ° 1 min 0,000 mm 2,8 UV-I 309 W/m² 16,1 °C 18,1 °C 6,4 km/h (2 Bft)
27.06.2017 11:35 18,1 °C 18,1 °C 88 % 1007,1 hPa 0,0 mm 1,0 km/h (0 Bft) NO 52 ° 1 min 0,000 mm 3,2 UV-I 411 W/m² 16,1 °C 18,1 °C 1,6 km/h (1 Bft)
27.06.2017 11:36 18,2 °C 18,2 °C 88 % 1007,1 hPa 0,0 mm 1,3 km/h (1 Bft) NO 51 ° 1 min 0,000 mm 4,0 UV-I 461 W/m² 16,2 °C 18,2 °C 4,8 km/h (1 Bft)
27.06.2017 11:37 18,3 °C 18,3 °C 89 % 1007,0 hPa 0,0 mm 5,0 km/h (1 Bft) NO 47 ° 1 min 0,000 mm 4,4 UV-I 461 W/m² 16,5 °C 18,3 °C 8,0 km/h (2 Bft)
27.06.2017 11:38 18,3 °C 18,3 °C 88 % 1007,0 hPa 0,0 mm 5,7 km/h (1 Bft) O-NO 61 ° 1 min 0,000 mm 4,2 UV-I 476 W/m² 16,3 °C 18,3 °C 8,0 km/h (2 Bft)
27.06.2017 11:39 18,4 °C 18,4 °C 87 % 1007,0 hPa 0,2 mm 4,9 km/h (1 Bft) O-SO 109 ° 1 min 0,000 mm 4,4 UV-I 485 W/m² 16,2 °C 18,4 °C 6,4 km/h (2 Bft)
27.06.2017 11:40 18,4 °C 18,4 °C 87 % 1007,0 hPa 0,0 mm 0,5 km/h (0 Bft) O-SO 109 ° 1 min 0,000 mm 4,3 UV-I 434 W/m² 16,2 °C 18,4 °C 3,2 km/h (1 Bft)
27.06.2017 11:41 18,6 °C 18,6 °C 89 % 1007,0 hPa 0,0 mm 4,4 km/h (1 Bft) O 81 ° 1 min 0,000 mm 3,8 UV-I 403 W/m² 16,7 °C 18,6 °C 9,7 km/h (2 Bft)
27.06.2017 11:42 18,5 °C 18,6 °C 87 % 1007,0 hPa 0,0 mm 3,7 km/h (1 Bft) O-SO 113 ° 1 min 0,000 mm 3,9 UV-I 410 W/m² 16,3 °C 18,5 °C 4,8 km/h (1 Bft)
27.06.2017 11:43 18,6 °C 18,6 °C 87 % 1007,0 hPa 0,0 mm 1,8 km/h (1 Bft) O-SO 113 ° 1 min 0,000 mm 4,0 UV-I 431 W/m² 16,4 °C 18,6 °C 3,2 km/h (1 Bft)
27.06.2017 11:44 18,6 °C 18,6 °C 87 % 1007,0 hPa 0,0 mm 1,5 km/h (1 Bft) NO 47 ° 1 min 0,000 mm 4,0 UV-I 432 W/m² 16,4 °C 18,6 °C 4,8 km/h (1 Bft)
27.06.2017 11:45 18,6 °C 18,6 °C 88 % 1007,0 hPa 0,0 mm 3,9 km/h (1 Bft) O-NO 72 ° 1 min 0,000 mm 4,1 UV-I 443 W/m² 16,6 °C 18,6 °C 6,4 km/h (2 Bft)
27.06.2017 11:46 18,7 °C 18,7 °C 89 % 1006,9 hPa 0,0 mm 2,1 km/h (1 Bft) O-NO 73 ° 1 min 0,000 mm 4,4 UV-I 473 W/m² 16,8 °C 18,7 °C 3,2 km/h (1 Bft)
27.06.2017 11:47 18,7 °C 18,7 °C 87 % 1006,9 hPa 0,0 mm 3,5 km/h (1 Bft) NO 56 ° 1 min 0,000 mm 4,3 UV-I 520 W/m² 16,5 °C 18,7 °C 6,4 km/h (2 Bft)
27.06.2017 11:48 18,8 °C 18,8 °C 88 % 1006,9 hPa 0,0 mm 1,2 km/h (1 Bft) O-NO 67 ° 1 min 0,000 mm 4,7 UV-I 519 W/m² 16,8 °C 18,8 °C 3,2 km/h (1 Bft)
27.06.2017 11:49 18,8 °C 18,8 °C 87 % 1006,9 hPa 0,0 mm 4,0 km/h (1 Bft) O 92 ° 1 min 0,000 mm 4,7 UV-I 538 W/m² 16,6 °C 18,8 °C 12,9 km/h (3 Bft)
27.06.2017 11:50 18,7 °C 18,8 °C 86 % 1007,0 hPa 0,0 mm 4,4 km/h (1 Bft) NO 50 ° 1 min 0,000 mm 5,2 UV-I 575 W/m² 16,3 °C 18,7 °C 11,3 km/h (2 Bft)
27.06.2017 11:51 18,7 °C 18,7 °C 87 % 1007,0 hPa 0,0 mm 1,9 km/h (1 Bft) O 79 ° 1 min 0,000 mm 4,7 UV-I 527 W/m² 16,5 °C 18,7 °C 4,8 km/h (1 Bft)
27.06.2017 11:52 18,6 °C 18,7 °C 86 % 1007,0 hPa 0,0 mm 3,1 km/h (1 Bft) SO 134 ° 1 min 0,000 mm 5,1 UV-I 570 W/m² 16,2 °C 18,6 °C 6,4 km/h (2 Bft)
27.06.2017 11:53 18,7 °C 18,7 °C 87 % 1007,0 hPa 0,0 mm 5,2 km/h (1 Bft) O-SO 107 ° 1 min 0,000 mm 5,6 UV-I 654 W/m² 16,5 °C 18,7 °C 9,7 km/h (2 Bft)
27.06.2017 11:54 18,7 °C 18,7 °C 86 % 1006,9 hPa 0,0 mm 0,8 km/h (0 Bft) O-SO 107 ° 1 min 0,000 mm 5,6 UV-I 635 W/m² 16,3 °C 18,7 °C 3,2 km/h (1 Bft)
27.06.2017 11:55 18,8 °C 18,8 °C 87 % 1006,9 hPa 0,0 mm 1,3 km/h (1 Bft) O-SO 107 ° 1 min 0,000 mm 5,4 UV-I 673 W/m² 16,6 °C 18,8 °C 3,2 km/h (1 Bft)
27.06.2017 11:56 18,8 °C 18,8 °C 86 % 1006,9 hPa 0,0 mm 3,1 km/h (1 Bft) NO 51 ° 1 min 0,000 mm 5,5 UV-I 622 W/m² 16,4 °C 18,8 °C 4,8 km/h (1 Bft)
27.06.2017 11:57 18,9 °C 18,9 °C 86 % 1006,9 hPa 0,0 mm 2,3 km/h (1 Bft) NO 51 ° 1 min 0,000 mm 5,9 UV-I 631 W/m² 16,5 °C 18,9 °C 4,8 km/h (1 Bft)
27.06.2017 11:58 19,1 °C 19,1 °C 88 % 1006,9 hPa 0,0 mm 1,3 km/h (1 Bft) O 88 ° 1 min 0,000 mm 5,5 UV-I 638 W/m² 17,1 °C 19,1 °C 3,2 km/h (1 Bft)
27.06.2017 11:59 19,2 °C 19,2 °C 87 % 1006,9 hPa 0,0 mm 4,9 km/h (1 Bft) N-NO 28 ° 1 min 0,000 mm 4,9 UV-I 524 W/m² 17,0 °C 19,2 °C 8,0 km/h (2 Bft)
27.06.2017 12:00 19,3 °C 19,3 °C 85 % 1006,9 hPa 0,0 mm 2,3 km/h (1 Bft) O-NO 62 ° 1 min 0,000 mm 4,6 UV-I 503 W/m² 16,7 °C 19,3 °C 6,4 km/h (2 Bft)
27.06.2017 12:01 19,2 °C 19,3 °C 86 % 1006,9 hPa 0,0 mm 1,3 km/h (1 Bft) O-NO 62 ° 1 min 0,229 mm 4,6 UV-I 468 W/m² 16,8 °C 19,2 °C 3,2 km/h (1 Bft)
27.06.2017 12:02 19,2 °C 19,2 °C 87 % 1006,8 hPa 0,0 mm 1,4 km/h (1 Bft) O-SO 105 ° 1 min 0,000 mm 5,4 UV-I 522 W/m² 17,0 °C 19,2 °C 4,8 km/h (1 Bft)
27.06.2017 12:03 19,2 °C 19,2 °C 86 % 1006,9 hPa 0,0 mm 5,0 km/h (1 Bft) O-NO 77 ° 1 min 0,000 mm 5,7 UV-I 522 W/m² 16,8 °C 19,2 °C 8,0 km/h (2 Bft)
27.06.2017 12:04 19,2 °C 19,2 °C 87 % 1006,8 hPa 0,0 mm 3,5 km/h (1 Bft) O-NO 77 ° 1 min 0,000 mm 7,6 UV-I 765 W/m² 17,0 °C 19,2 °C 6,4 km/h (2 Bft)
27.06.2017 12:05 19,2 °C 19,2 °C 86 % 1006,8 hPa 0,0 mm 2,7 km/h (1 Bft) N-NO 29 ° 1 min 0,000 mm 8,0 UV-I 765 W/m² 16,8 °C 19,2 °C 3,2 km/h (1 Bft)
27.06.2017 12:06 19,5 °C 19,5 °C 87 % 1006,8 hPa 0,0 mm 5,6 km/h (1 Bft) NO 40 ° 1 min 0,000 mm 8,4 UV-I 765 W/m² 17,3 °C 19,5 °C 9,7 km/h (2 Bft)
27.06.2017 12:07 19,6 °C 19,6 °C 85 % 1006,8 hPa 0,0 mm 7,2 km/h (2 Bft) NO 48 ° 1 min 0,000 mm 8,1 UV-I 1141 W/m² 17,0 °C 19,6 °C 9,7 km/h (2 Bft)
27.06.2017 12:08 19,7 °C 19,7 °C 87 % 1006,7 hPa 0,0 mm 7,0 km/h (2 Bft) O 86 ° 1 min 0,000 mm 7,0 UV-I 1141 W/m² 17,5 °C 19,7 °C 11,3 km/h (2 Bft)
27.06.2017 12:09 19,9 °C 19,9 °C 85 % 1006,7 hPa 0,0 mm 8,9 km/h (2 Bft) O 98 ° 1 min 0,000 mm 7,3 UV-I 1141 W/m² 17,3 °C 19,9 °C 12,9 km/h (3 Bft)
27.06.2017 12:10 19,8 °C 19,9 °C 83 % 1006,7 hPa 0,0 mm 8,3 km/h (2 Bft) N-NO 32 ° 1 min 0,000 mm 6,2 UV-I 1141 W/m² 16,8 °C 19,8 °C 11,3 km/h (2 Bft)
27.06.2017 12:11 19,8 °C 19,8 °C 85 % 1006,7 hPa 0,0 mm 4,1 km/h (1 Bft) NO 46 ° 1 min 0,000 mm 7,1 UV-I 919 W/m² 17,2 °C 19,8 °C 8,0 km/h (2 Bft)
27.06.2017 12:12 19,8 °C 19,8 °C 83 % 1006,7 hPa 0,0 mm 1,9 km/h (1 Bft) NO 45 ° 1 min 0,000 mm 7,1 UV-I 921 W/m² 16,8 °C 19,8 °C 4,8 km/h (1 Bft)
27.06.2017 12:13 19,8 °C 19,8 °C 85 % 1006,7 hPa 0,0 mm 5,2 km/h (1 Bft) O-NO 76 ° 1 min 0,000 mm 7,9 UV-I 921 W/m² 17,2 °C 19,8 °C 11,3 km/h (2 Bft)
27.06.2017 12:14 19,7 °C 19,8 °C 84 % 1006,6 hPa 0,0 mm 1,0 km/h (0 Bft) O-NO 76 ° 1 min 0,000 mm 8,0 UV-I 1053 W/m² 16,9 °C 19,7 °C 3,2 km/h (1 Bft)
27.06.2017 12:15 19,7 °C 19,8 °C 85 % 1006,6 hPa 0,0 mm 8,6 km/h (2 Bft) O-NO 73 ° 1 min 0,000 mm 7,4 UV-I 969 W/m² 17,1 °C 19,7 °C 12,9 km/h (3 Bft)
27.06.2017 12:16 19,8 °C 19,8 °C 84 % 1006,6 hPa 0,0 mm 5,4 km/h (1 Bft) O 91 ° 1 min 0,000 mm 7,8 UV-I 990 W/m² 17,0 °C 19,8 °C 9,7 km/h (2 Bft)
27.06.2017 12:17 19,8 °C 19,8 °C 85 % 1006,6 hPa 0,0 mm 2,8 km/h (1 Bft) S-SO 155 ° 1 min 0,000 mm 7,8 UV-I 991 W/m² 17,2 °C 19,8 °C 4,8 km/h (1 Bft)
27.06.2017 12:18 19,8 °C 19,8 °C 85 % 1006,6 hPa 0,0 mm 6,3 km/h (2 Bft) SO 125 ° 1 min 0,000 mm 7,6 UV-I 969 W/m² 17,2 °C 19,8 °C 8,0 km/h (2 Bft)
27.06.2017 12:19 19,8 °C 19,8 °C 86 % 1006,6 hPa 0,0 mm 6,8 km/h (2 Bft) O-NO 60 ° 1 min 0,000 mm 7,6 UV-I 939 W/m² 17,4 °C 19,8 °C 14,5 km/h (3 Bft)
27.06.2017 12:20 20,1 °C 20,1 °C 87 % 1006,6 hPa 0,0 mm 7,4 km/h (2 Bft) O 81 ° 1 min 0,000 mm 7,5 UV-I 918 W/m² 17,9 °C 20,1 °C 11,3 km/h (2 Bft)
27.06.2017 12:21 20,1 °C 20,1 °C 83 % 1006,5 hPa 0,0 mm 3,8 km/h (1 Bft) NO 41 ° 1 min 0,000 mm 7,4 UV-I 895 W/m² 17,1 °C 20,1 °C 4,8 km/h (1 Bft)
27.06.2017 12:22 20,2 °C 20,2 °C 84 % 1006,6 hPa 0,0 mm 4,2 km/h (1 Bft) O-NO 67 ° 1 min 0,000 mm 7,3 UV-I 904 W/m² 17,4 °C 20,2 °C 6,4 km/h (2 Bft)
27.06.2017 12:23 20,2 °C 20,3 °C 85 % 1006,6 hPa 0,0 mm 5,2 km/h (1 Bft) NO 51 ° 1 min 0,000 mm 6,9 UV-I 849 W/m² 17,6 °C 20,2 °C 8,0 km/h (2 Bft)
27.06.2017 12:24 20,2 °C 20,2 °C 83 % 1006,5 hPa 0,0 mm 3,5 km/h (1 Bft) NO 40 ° 1 min 0,000 mm 5,8 UV-I 849 W/m² 17,2 °C 20,2 °C 6,4 km/h (2 Bft)
27.06.2017 12:25 20,1 °C 20,2 °C 83 % 1006,5 hPa 0,0 mm 3,3 km/h (1 Bft) NO 40 ° 1 min 0,000 mm 7,1 UV-I 717 W/m² 17,1 °C 20,1 °C 9,7 km/h (2 Bft)
27.06.2017 12:26 20,1 °C 20,1 °C 84 % 1006,5 hPa 0,0 mm 5,8 km/h (2 Bft) O 87 ° 1 min 0,000 mm 6,3 UV-I 657 W/m² 17,3 °C 20,1 °C 8,0 km/h (2 Bft)
27.06.2017 12:27 20,1 °C 20,1 °C 83 % 1006,5 hPa 0,0 mm 2,7 km/h (1 Bft) O-NO 78 ° 1 min 0,000 mm 5,8 UV-I 657 W/m² 17,1 °C 20,1 °C 4,8 km/h (1 Bft)
27.06.2017 12:28 20,1 °C 20,1 °C 83 % 1006,5 hPa 0,0 mm 5,7 km/h (1 Bft) O 92 ° 1 min 0,000 mm 6,3 UV-I 824 W/m² 17,1 °C 20,1 °C 11,3 km/h (2 Bft)
27.06.2017 12:29 19,9 °C 20,1 °C 83 % 1006,5 hPa 0,0 mm 4,8 km/h (1 Bft) O-SO 106 ° 1 min 0,000 mm 7,1 UV-I 896 W/m² 16,9 °C 19,9 °C 6,4 km/h (2 Bft)
27.06.2017 12:30 19,9 °C 19,9 °C 84 % 1006,5 hPa 0,0 mm 4,8 km/h (1 Bft) NO 34 ° 1 min 0,000 mm 7,1 UV-I 977 W/m² 17,1 °C 19,9 °C 8,0 km/h (2 Bft)
27.06.2017 12:31 20,0 °C 20,0 °C 84 % 1006,5 hPa 0,0 mm 6,6 km/h (2 Bft) NO 54 ° 1 min 0,000 mm 6,3 UV-I 977 W/m² 17,2 °C 20,0 °C 9,7 km/h (2 Bft)
27.06.2017 12:32 19,9 °C 20,0 °C 82 % 1006,5 hPa 0,0 mm 4,5 km/h (1 Bft) O-NO 69 ° 1 min 0,000 mm 4,9 UV-I 977 W/m² 16,7 °C 19,9 °C 6,4 km/h (2 Bft)
27.06.2017 12:33 20,0 °C 20,0 °C 84 % 1006,5 hPa 0,0 mm 3,1 km/h (1 Bft) O-NO 69 ° 1 min 0,000 mm 4,5 UV-I 446 W/m² 17,2 °C 20,0 °C 4,8 km/h (1 Bft)
27.06.2017 12:34 19,9 °C 20,0 °C 84 % 1006,5 hPa 0,0 mm 4,0 km/h (1 Bft) NO 51 ° 1 min 0,000 mm 7,1 UV-I 446 W/m² 17,1 °C 19,9 °C 6,4 km/h (2 Bft)
27.06.2017 12:35 20,1 °C 20,1 °C 84 % 1006,5 hPa 0,0 mm 8,9 km/h (2 Bft) N-NO 26 ° 1 min 0,000 mm 7,1 UV-I 849 W/m² 17,3 °C 20,1 °C 12,9 km/h (3 Bft)
27.06.2017 12:36 20,2 °C 20,2 °C 85 % 1006,5 hPa 0,0 mm 9,0 km/h (2 Bft) NO 34 ° 1 min 0,000 mm 7,1 UV-I 842 W/m² 17,6 °C 20,2 °C 12,9 km/h (3 Bft)
27.06.2017 12:37 20,2 °C 20,2 °C 83 % 1006,5 hPa 0,0 mm 5,8 km/h (2 Bft) O-NO 71 ° 1 min 0,000 mm 7,1 UV-I 840 W/m² 17,2 °C 20,2 °C 8,0 km/h (2 Bft)
27.06.2017 12:38 20,3 °C 20,3 °C 83 % 1006,5 hPa 0,0 mm 6,4 km/h (2 Bft) O 82 ° 1 min 0,000 mm 7,0 UV-I 835 W/m² 17,3 °C 20,3 °C 8,0 km/h (2 Bft)
27.06.2017 12:39 20,3 °C 20,3 °C 82 % 1006,4 hPa 0,0 mm 1,8 km/h (1 Bft) O 82 ° 1 min 0,000 mm 7,1 UV-I 847 W/m² 17,1 °C 20,3 °C 6,4 km/h (2 Bft)
27.06.2017 12:40 20,3 °C 20,3 °C 82 % 1006,4 hPa 0,0 mm 0,4 km/h (0 Bft) O 82 ° 1 min 0,000 mm 7,2 UV-I 854 W/m² 17,1 °C 20,3 °C 1,6 km/h (1 Bft)
27.06.2017 12:41 20,4 °C 20,4 °C 83 % 1006,4 hPa 0,0 mm 1,3 km/h (1 Bft) NO 39 ° 1 min 0,000 mm 6,0 UV-I 854 W/m² 17,4 °C 20,4 °C 4,8 km/h (1 Bft)
27.06.2017 12:42 20,5 °C 20,5 °C 83 % 1006,4 hPa 0,0 mm 6,6 km/h (2 Bft) O-NO 57 ° 1 min 0,000 mm 7,4 UV-I 854 W/m² 17,5 °C 20,5 °C 8,0 km/h (2 Bft)
27.06.2017 12:43 20,6 °C 20,6 °C 83 % 1006,4 hPa 0,0 mm 5,6 km/h (1 Bft) NO 52 ° 1 min 0,000 mm 7,3 UV-I 865 W/m² 17,6 °C 20,6 °C 9,7 km/h (2 Bft)
27.06.2017 12:44 20,6 °C 20,6 °C 82 % 1006,3 hPa 0,0 mm 7,2 km/h (2 Bft) NO 49 ° 1 min 0,000 mm 7,2 UV-I 875 W/m² 17,4 °C 20,6 °C 11,3 km/h (2 Bft)
27.06.2017 12:45 20,7 °C 20,7 °C 83 % 1006,3 hPa 0,0 mm 8,1 km/h (2 Bft) O-NO 78 ° 1 min 0,000 mm 6,9 UV-I 886 W/m² 17,7 °C 20,7 °C 11,3 km/h (2 Bft)
27.06.2017 12:46 20,6 °C 20,7 °C 82 % 1006,3 hPa 0,0 mm 7,0 km/h (2 Bft) O 90 ° 1 min 0,000 mm 7,4 UV-I 911 W/m² 17,4 °C 20,6 °C 9,7 km/h (2 Bft)
27.06.2017 12:47 20,6 °C 20,6 °C 85 % 1006,3 hPa 0,0 mm 2,7 km/h (1 Bft) O 90 ° 1 min 0,000 mm 7,5 UV-I 914 W/m² 18,0 °C 20,6 °C 4,8 km/h (1 Bft)
27.06.2017 12:48 20,5 °C 20,6 °C 83 % 1006,3 hPa 0,0 mm 3,5 km/h (1 Bft) O-NO 62 ° 1 min 0,000 mm 7,5 UV-I 914 W/m² 17,5 °C 20,5 °C 8,0 km/h (2 Bft)
27.06.2017 12:49 20,5 °C 20,5 °C 84 % 1006,3 hPa 0,0 mm 6,4 km/h (2 Bft) NO 49 ° 1 min 0,000 mm 7,4 UV-I 914 W/m² 17,7 °C 20,5 °C 11,3 km/h (2 Bft)
27.06.2017 12:50 20,6 °C 20,6 °C 83 % 1006,2 hPa 0,0 mm 5,6 km/h (1 Bft) O 86 ° 1 min 0,000 mm 7,5 UV-I 926 W/m² 17,6 °C 20,6 °C 9,7 km/h (2 Bft)
27.06.2017 12:51 20,8 °C 20,8 °C 84 % 1006,2 hPa 0,0 mm 5,4 km/h (1 Bft) N-NO 32 ° 1 min 0,000 mm 5,9 UV-I 926 W/m² 18,0 °C 20,8 °C 8,0 km/h (2 Bft)
27.06.2017 12:52 20,8 °C 20,8 °C 82 % 1006,2 hPa 0,0 mm 5,6 km/h (1 Bft) O-NO 63 ° 1 min 0,000 mm 7,6 UV-I 926 W/m² 17,6 °C 20,8 °C 8,0 km/h (2 Bft)
27.06.2017 12:53 20,8 °C 20,8 °C 81 % 1006,3 hPa 0,0 mm 5,0 km/h (1 Bft) NO 47 ° 1 min 0,000 mm 7,5 UV-I 902 W/m² 17,4 °C 20,8 °C 8,0 km/h (2 Bft)
27.06.2017 12:54 20,8 °C 20,8 °C 80 % 1006,3 hPa 0,0 mm 3,5 km/h (1 Bft) O 84 ° 1 min 0,000 mm 7,4 UV-I 895 W/m² 17,2 °C 20,8 °C 4,8 km/h (1 Bft)
27.06.2017 12:55 20,7 °C 20,8 °C 83 % 1006,3 hPa 0,0 mm 7,7 km/h (2 Bft) N-NO 26 ° 1 min 0,000 mm 7,3 UV-I 877 W/m² 17,7 °C 20,7 °C 12,9 km/h (3 Bft)
27.06.2017 12:56 20,7 °C 20,8 °C 81 % 1006,2 hPa 0,0 mm 8,4 km/h (2 Bft) O-NO 70 ° 1 min 0,000 mm 7,3 UV-I 877 W/m² 17,3 °C 20,7 °C 9,7 km/h (2 Bft)
27.06.2017 12:57 20,7 °C 20,7 °C 80 % 1006,2 hPa 0,0 mm 3,5 km/h (1 Bft) O 89 ° 1 min 0,000 mm 7,3 UV-I 889 W/m² 17,1 °C 20,7 °C 8,0 km/h (2 Bft)
27.06.2017 12:58 20,6 °C 20,7 °C 80 % 1006,2 hPa 0,0 mm 7,1 km/h (2 Bft) O-NO 78 ° 1 min 0,000 mm 7,4 UV-I 900 W/m² 17,0 °C 20,6 °C 11,3 km/h (2 Bft)
27.06.2017 12:59 20,7 °C 20,7 °C 82 % 1006,2 hPa 0,0 mm 6,5 km/h (2 Bft) O 81 ° 1 min 0,000 mm 7,4 UV-I 912 W/m² 17,5 °C 20,7 °C 11,3 km/h (2 Bft)
27.06.2017 13:00 20,7 °C 20,7 °C 80 % 1006,3 hPa 0,0 mm 4,7 km/h (1 Bft) O 81 ° 1 min 0,000 mm 6,9 UV-I 912 W/m² 17,1 °C 20,7 °C 8,0 km/h (2 Bft)
27.06.2017 13:01 20,7 °C 20,7 °C 77 % 1006,2 hPa 0,0 mm 1,2 km/h (1 Bft) O 81 ° 1 min 0,482 mm 7,3 UV-I 912 W/m² 16,5 °C 20,7 °C 3,2 km/h (1 Bft)
27.06.2017 13:02 20,7 °C 20,7 °C 82 % 1006,2 hPa 0,0 mm 0,1 km/h (0 Bft) O 81 ° 1 min 0,000 mm 7,2 UV-I 872 W/m² 17,5 °C 20,7 °C 1,6 km/h (1 Bft)
27.06.2017 13:03 20,9 °C 20,9 °C 82 % 1006,2 hPa 0,0 mm 1,3 km/h (1 Bft) O 81 ° 1 min 0,000 mm 7,2 UV-I 849 W/m² 17,7 °C 20,9 °C 3,2 km/h (1 Bft)
27.06.2017 13:04 20,9 °C 20,9 °C 78 % 1006,1 hPa 0,0 mm 0,1 km/h (0 Bft) O 81 ° 1 min 0,000 mm 7,1 UV-I 851 W/m² 16,9 °C 20,9 °C 1,6 km/h (1 Bft)
27.06.2017 13:05 21,0 °C 21,0 °C 81 % 1006,1 hPa 0,0 mm 2,3 km/h (1 Bft) O 89 ° 1 min 0,000 mm 7,1 UV-I 840 W/m² 17,6 °C 21,0 °C 3,2 km/h (1 Bft)
27.06.2017 13:06 21,1 °C 21,1 °C 81 % 1006,1 hPa 0,0 mm 2,5 km/h (1 Bft) O 84 ° 1 min 0,000 mm 7,1 UV-I 828 W/m² 17,7 °C 21,1 °C 4,8 km/h (1 Bft)
27.06.2017 13:07 21,2 °C 21,2 °C 81 % 1006,1 hPa 0,0 mm 5,0 km/h (1 Bft) NO 40 ° 1 min 0,000 mm 7,0 UV-I 816 W/m² 17,8 °C 21,2 °C 9,7 km/h (2 Bft)
27.06.2017 13:08 21,3 °C 21,3 °C 80 % 1006,1 hPa 0,0 mm 4,2 km/h (1 Bft) O-NO 61 ° 1 min 0,000 mm 6,7 UV-I 791 W/m² 17,7 °C 21,3 °C 6,4 km/h (2 Bft)
27.06.2017 13:09 21,3 °C 21,4 °C 79 % 1006,1 hPa 0,0 mm 4,3 km/h (1 Bft) N-NO 24 ° 1 min 0,000 mm 6,7 UV-I 791 W/m² 17,5 °C 21,3 °C 8,0 km/h (2 Bft)
27.06.2017 13:10 21,3 °C 21,3 °C 81 % 1006,1 hPa 0,0 mm 6,9 km/h (2 Bft) N-NO 32 ° 1 min 0,000 mm 6,7 UV-I 782 W/m² 17,9 °C 21,3 °C 11,3 km/h (2 Bft)
27.06.2017 13:11 21,4 °C 21,4 °C 80 % 1006,1 hPa 0,0 mm 3,6 km/h (1 Bft) N-NO 31 ° 1 min 0,000 mm 6,7 UV-I 768 W/m² 17,8 °C 21,4 °C 6,4 km/h (2 Bft)
27.06.2017 13:12 21,3 °C 21,4 °C 77 % 1006,1 hPa 0,0 mm 4,0 km/h (1 Bft) NO 44 ° 1 min 0,000 mm 6,5 UV-I 747 W/m² 17,1 °C 21,3 °C 6,4 km/h (2 Bft)
27.06.2017 13:13 21,2 °C 21,3 °C 77 % 1006,1 hPa 0,0 mm 2,7 km/h (1 Bft) N-NO 19 ° 1 min 0,000 mm 6,5 UV-I 788 W/m² 17,0 °C 21,2 °C 4,8 km/h (1 Bft)
27.06.2017 13:14 21,4 °C 21,4 °C 82 % 1006,1 hPa 0,0 mm 2,3 km/h (1 Bft) N-NW 348 ° 1 min 0,000 mm 6,5 UV-I 817 W/m² 18,2 °C 21,4 °C 3,2 km/h (1 Bft)
27.06.2017 13:15 21,4 °C 21,4 °C 80 % 1006,0 hPa 0,0 mm 3,5 km/h (1 Bft) N 355 ° 1 min 0,000 mm 4,0 UV-I 313 W/m² 17,8 °C 21,4 °C 6,4 km/h (2 Bft)
27.06.2017 13:16 21,4 °C 21,4 °C 79 % 1006,0 hPa 0,0 mm 3,2 km/h (1 Bft) O-NO 61 ° 1 min 0,000 mm 3,9 UV-I 306 W/m² 17,6 °C 21,4 °C 6,4 km/h (2 Bft)
27.06.2017 13:17 21,4 °C 21,4 °C 78 % 1006,0 hPa 0,0 mm 3,5 km/h (1 Bft) NO 46 ° 1 min 0,000 mm 6,9 UV-I 306 W/m² 17,4 °C 21,4 °C 4,8 km/h (1 Bft)
27.06.2017 13:18 21,4 °C 21,4 °C 82 % 1006,0 hPa 0,0 mm 3,1 km/h (1 Bft) SO 128 ° 1 min 0,000 mm 6,9 UV-I 816 W/m² 18,2 °C 21,4 °C 4,8 km/h (1 Bft)
27.06.2017 13:19 21,3 °C 21,4 °C 78 % 1006,0 hPa 0,0 mm 0,7 km/h (0 Bft) SO 128 ° 1 min 0,000 mm 6,7 UV-I 791 W/m² 17,3 °C 21,3 °C 4,8 km/h (1 Bft)
27.06.2017 13:20 21,3 °C 21,3 °C 83 % 1006,0 hPa 0,0 mm 4,0 km/h (1 Bft) NO 45 ° 1 min 0,000 mm 6,7 UV-I 784 W/m² 18,3 °C 21,3 °C 6,4 km/h (2 Bft)
27.06.2017 13:21 21,4 °C 21,4 °C 79 % 1006,0 hPa 0,0 mm 5,0 km/h (1 Bft) N-NO 31 ° 1 min 0,000 mm 6,7 UV-I 780 W/m² 17,6 °C 21,4 °C 11,3 km/h (2 Bft)
27.06.2017 13:22 21,6 °C 21,6 °C 80 % 1006,0 hPa 0,0 mm 5,1 km/h (1 Bft) N-NO 29 ° 1 min 0,000 mm 6,8 UV-I 805 W/m² 18,0 °C 21,6 °C 6,4 km/h (2 Bft)
27.06.2017 13:23 21,6 °C 21,6 °C 78 % 1006,0 hPa 0,0 mm 4,5 km/h (1 Bft) O-NO 63 ° 1 min 0,000 mm 6,7 UV-I 777 W/m² 17,6 °C 21,6 °C 8,0 km/h (2 Bft)
27.06.2017 13:24 21,6 °C 21,6 °C 77 % 1006,0 hPa 0,0 mm 1,0 km/h (0 Bft) O-NO 63 ° 1 min 0,000 mm 6,7 UV-I 761 W/m² 17,4 °C 21,6 °C 3,2 km/h (1 Bft)
27.06.2017 13:25 21,6 °C 21,7 °C 77 % 1006,0 hPa 0,0 mm 0,8 km/h (0 Bft) NO 43 ° 1 min 0,000 mm 6,3 UV-I 721 W/m² 17,4 °C 21,6 °C 3,2 km/h (1 Bft)
27.06.2017 13:26 21,6 °C 21,6 °C 77 % 1006,0 hPa 0,0 mm 3,8 km/h (1 Bft) N-NO 30 ° 1 min 0,000 mm 6,1 UV-I 647 W/m² 17,4 °C 21,6 °C 6,4 km/h (2 Bft)
27.06.2017 13:27 21,8 °C 21,8 °C 78 % 1006,0 hPa 0,0 mm 3,8 km/h (1 Bft) O-NO 59 ° 1 min 0,000 mm 5,8 UV-I 612 W/m² 17,8 °C 21,8 °C 6,4 km/h (2 Bft)
27.06.2017 13:28 21,7 °C 21,8 °C 76 % 1005,9 hPa 0,0 mm 1,2 km/h (1 Bft) O-NO 59 ° 1 min 0,000 mm 5,6 UV-I 592 W/m² 17,3 °C 21,7 °C 4,8 km/h (1 Bft)
27.06.2017 13:29 21,7 °C 21,7 °C 78 % 1005,9 hPa 0,0 mm 4,6 km/h (1 Bft) N-NW 348 ° 1 min 0,000 mm 5,4 UV-I 547 W/m² 17,7 °C 21,7 °C 6,4 km/h (2 Bft)
27.06.2017 13:30 21,7 °C 21,7 °C 78 % 1006,0 hPa 0,0 mm 4,8 km/h (1 Bft) N-NO 29 ° 1 min 0,000 mm 5,8 UV-I 615 W/m² 17,7 °C 21,7 °C 9,7 km/h (2 Bft)
27.06.2017 13:31 21,7 °C 21,7 °C 78 % 1005,9 hPa 0,0 mm 7,6 km/h (2 Bft) N-NO 21 ° 1 min 0,000 mm 6,9 UV-I 615 W/m² 17,7 °C 21,7 °C 11,3 km/h (2 Bft)
27.06.2017 13:32 21,8 °C 21,8 °C 78 % 1005,9 hPa 0,0 mm 4,9 km/h (1 Bft) N-NO 24 ° 1 min 0,000 mm 7,3 UV-I 886 W/m² 17,8 °C 21,8 °C 6,4 km/h (2 Bft)
27.06.2017 13:33 21,8 °C 21,8 °C 77 % 1005,9 hPa 0,0 mm 4,5 km/h (1 Bft) N-NO 32 ° 1 min 0,000 mm 7,5 UV-I 886 W/m² 17,6 °C 21,8 °C 6,4 km/h (2 Bft)
27.06.2017 13:34 21,8 °C 21,8 °C 76 % 1005,8 hPa 0,0 mm 5,7 km/h (1 Bft) O 89 ° 1 min 0,000 mm 4,0 UV-I 939 W/m² 17,4 °C 21,8 °C 8,0 km/h (2 Bft)
27.06.2017 13:35 21,8 °C 21,8 °C 78 % 1005,8 hPa 0,0 mm 3,1 km/h (1 Bft) N-NO 21 ° 1 min 0,000 mm 8,0 UV-I 939 W/m² 17,8 °C 21,8 °C 4,8 km/h (1 Bft)
27.06.2017 13:36 21,7 °C 21,8 °C 76 % 1005,8 hPa 0,0 mm 2,2 km/h (1 Bft) O 85 ° 1 min 0,000 mm 8,1 UV-I 976 W/m² 17,3 °C 21,7 °C 4,8 km/h (1 Bft)
27.06.2017 13:37 21,8 °C 21,8 °C 75 % 1005,8 hPa 0,0 mm 5,6 km/h (1 Bft) O-NO 71 ° 1 min 0,000 mm 8,1 UV-I 986 W/m² 17,2 °C 21,8 °C 12,9 km/h (3 Bft)
27.06.2017 13:38 21,9 °C 21,9 °C 76 % 1005,8 hPa 0,0 mm 6,7 km/h (2 Bft) O-NO 66 ° 1 min 0,000 mm 8,1 UV-I 986 W/m² 17,5 °C 21,9 °C 9,7 km/h (2 Bft)
27.06.2017 13:39 21,9 °C 21,9 °C 76 % 1005,8 hPa 0,0 mm 7,3 km/h (2 Bft) N-NO 13 ° 1 min 0,000 mm 8,1 UV-I 979 W/m² 17,5 °C 21,9 °C 9,7 km/h (2 Bft)
27.06.2017 13:40 21,9 °C 21,9 °C 76 % 1005,8 hPa 0,0 mm 7,4 km/h (2 Bft) N-NO 30 ° 1 min 0,000 mm 8,1 UV-I 974 W/m² 17,5 °C 21,9 °C 12,9 km/h (3 Bft)
27.06.2017 13:41 21,8 °C 21,9 °C 77 % 1005,7 hPa 0,0 mm 6,7 km/h (2 Bft) N-NO 17 ° 1 min 0,000 mm 8,1 UV-I 974 W/m² 17,6 °C 21,8 °C 11,3 km/h (2 Bft)
27.06.2017 13:42 21,8 °C 21,8 °C 76 % 1005,7 hPa 0,0 mm 3,0 km/h (1 Bft) N-NO 29 ° 1 min 0,000 mm 8,1 UV-I 970 W/m² 17,4 °C 21,8 °C 8,0 km/h (2 Bft)
27.06.2017 13:43 21,8 °C 21,8 °C 78 % 1005,7 hPa 0,0 mm 5,8 km/h (2 Bft) N-NO 30 ° 1 min 0,000 mm 8,0 UV-I 949 W/m² 17,8 °C 21,8 °C 11,3 km/h (2 Bft)
27.06.2017 13:44 21,9 °C 21,9 °C 76 % 1005,7 hPa 0,0 mm 3,9 km/h (1 Bft) N-NO 21 ° 1 min 0,000 mm 8,0 UV-I 944 W/m² 17,5 °C 21,9 °C 6,4 km/h (2 Bft)
27.06.2017 13:45 22,1 °C 22,1 °C 79 % 1005,7 hPa 0,0 mm 4,3 km/h (1 Bft) N-NW 341 ° 1 min 0,000 mm 7,9 UV-I 942 W/m² 18,3 °C 22,1 °C 8,0 km/h (2 Bft)
27.06.2017 13:46 22,3 °C 22,3 °C 78 % 1005,7 hPa 0,0 mm 6,2 km/h (2 Bft) N 5 ° 1 min 0,000 mm 8,0 UV-I 946 W/m² 18,3 °C 22,3 °C 11,3 km/h (2 Bft)
27.06.2017 13:47 22,4 °C 22,4 °C 77 % 1005,7 hPa 0,0 mm 7,8 km/h (2 Bft) N 360 ° 1 min 0,000 mm 8,0 UV-I 949 W/m² 18,2 °C 22,4 °C 12,9 km/h (3 Bft)
27.06.2017 13:48 22,5 °C 22,5 °C 78 % 1005,7 hPa 0,0 mm 6,6 km/h (2 Bft) NO 46 ° 1 min 0,000 mm 8,0 UV-I 958 W/m² 18,5 °C 22,5 °C 11,3 km/h (2 Bft)
27.06.2017 13:49 22,4 °C 22,5 °C 75 % 1005,7 hPa 0,0 mm 5,3 km/h (1 Bft) O-NO 65 ° 1 min 0,000 mm 8,0 UV-I 942 W/m² 17,7 °C 22,4 °C 8,0 km/h (2 Bft)
27.06.2017 13:50 22,3 °C 22,4 °C 74 % 1005,7 hPa 0,0 mm 5,8 km/h (2 Bft) O-NO 61 ° 1 min 0,000 mm 7,3 UV-I 946 W/m² 17,4 °C 22,3 °C 9,7 km/h (2 Bft)
27.06.2017 13:51 22,2 °C 22,3 °C 74 % 1005,7 hPa 0,0 mm 3,7 km/h (1 Bft) O-NO 72 ° 1 min 0,000 mm 8,0 UV-I 928 W/m² 17,3 °C 22,2 °C 6,4 km/h (2 Bft)
27.06.2017 13:52 21,9 °C 22,2 °C 73 % 1005,7 hPa 0,0 mm 1,3 km/h (1 Bft) O-NO 71 ° 1 min 0,000 mm 8,1 UV-I 935 W/m² 16,8 °C 21,9 °C 4,8 km/h (1 Bft)
27.06.2017 13:53 21,8 °C 21,9 °C 74 % 1005,7 hPa 0,0 mm 5,5 km/h (1 Bft) N-NW 336 ° 1 min 0,000 mm 8,0 UV-I 969 W/m² 17,0 °C 21,8 °C 8,0 km/h (2 Bft)
27.06.2017 13:54 21,9 °C 21,9 °C 75 % 1005,7 hPa 0,0 mm 4,2 km/h (1 Bft) N-NO 16 ° 1 min 0,000 mm 8,0 UV-I 969 W/m² 17,3 °C 21,9 °C 8,0 km/h (2 Bft)
27.06.2017 13:55 21,8 °C 21,9 °C 72 % 1005,7 hPa 0,0 mm 1,7 km/h (1 Bft) N-NO 16 ° 1 min 0,000 mm 4,0 UV-I 969 W/m² 16,5 °C 21,8 °C 3,2 km/h (1 Bft)
27.06.2017 13:56 21,7 °C 21,8 °C 76 % 1005,7 hPa 0,0 mm 2,1 km/h (1 Bft) O 85 ° 1 min 0,000 mm 8,0 UV-I 969 W/m² 17,3 °C 21,7 °C 6,4 km/h (2 Bft)
27.06.2017 13:57 21,8 °C 21,8 °C 77 % 1005,7 hPa 0,0 mm 5,6 km/h (1 Bft) NO 48 ° 1 min 0,000 mm 7,7 UV-I 969 W/m² 17,6 °C 21,8 °C 9,7 km/h (2 Bft)
27.06.2017 13:58 21,8 °C 21,8 °C 73 % 1005,7 hPa 0,0 mm 3,3 km/h (1 Bft) NO 54 ° 1 min 0,000 mm 5,3 UV-I 969 W/m² 16,7 °C 21,8 °C 6,4 km/h (2 Bft)
27.06.2017 13:59 21,8 °C 21,8 °C 73 % 1005,7 hPa 0,0 mm 1,6 km/h (1 Bft) NO 54 ° 1 min 0,000 mm 5,1 UV-I 969 W/m² 16,7 °C 21,8 °C 4,8 km/h (1 Bft)
27.06.2017 14:00 21,8 °C 21,8 °C 73 % 1005,7 hPa 0,0 mm 2,0 km/h (1 Bft) NO 54 ° 1 min 0,000 mm 5,1 UV-I 969 W/m² 16,7 °C 21,8 °C 3,2 km/h (1 Bft)
27.06.2017 14:01 21,9 °C 21,9 °C 76 % 1005,7 hPa 0,0 mm 4,8 km/h (1 Bft) N-NO 22 ° 1 min 0,483 mm 7,8 UV-I 944 W/m² 17,5 °C 21,9 °C 6,4 km/h (2 Bft)
27.06.2017 14:02 22,1 °C 22,1 °C 72 % 1005,7 hPa 0,0 mm 4,0 km/h (1 Bft) N 9 ° 1 min 0,000 mm 7,8 UV-I 940 W/m² 16,8 °C 22,1 °C 6,4 km/h (2 Bft)
27.06.2017 14:03 22,1 °C 22,2 °C 72 % 1005,7 hPa 0,0 mm 1,6 km/h (1 Bft) NO 47 ° 1 min 0,000 mm 7,8 UV-I 942 W/m² 16,8 °C 22,1 °C 3,2 km/h (1 Bft)
27.06.2017 14:04 22,1 °C 22,2 °C 72 % 1005,7 hPa 0,0 mm 1,0 km/h (0 Bft) NO 47 ° 1 min 0,000 mm 7,8 UV-I 942 W/m² 16,8 °C 22,1 °C 3,2 km/h (1 Bft)
27.06.2017 14:05 22,2 °C 22,2 °C 76 % 1005,6 hPa 0,0 mm 0,0 km/h (0 Bft) NO 47 ° 1 min 0,000 mm 7,7 UV-I 933 W/m² 17,8 °C 22,2 °C 0,0 km/h (0 Bft)
27.06.2017 14:06 22,3 °C 22,3 °C 74 % 1005,6 hPa 0,0 mm 1,5 km/h (1 Bft) NO 45 ° 1 min 0,000 mm 7,8 UV-I 942 W/m² 17,4 °C 22,3 °C 4,8 km/h (1 Bft)
27.06.2017 14:07 22,3 °C 22,3 °C 75 % 1005,6 hPa 0,0 mm 3,4 km/h (1 Bft) O-NO 73 ° 1 min 0,000 mm 7,8 UV-I 956 W/m² 17,6 °C 22,3 °C 8,0 km/h (2 Bft)
27.06.2017 14:08 22,4 °C 22,4 °C 74 % 1005,6 hPa 0,0 mm 7,1 km/h (2 Bft) NO 37 ° 1 min 0,000 mm 5,1 UV-I 956 W/m² 17,5 °C 22,4 °C 9,7 km/h (2 Bft)
27.06.2017 14:09 22,3 °C 22,4 °C 73 % 1005,6 hPa 0,0 mm 5,6 km/h (1 Bft) N-NO 21 ° 1 min 0,000 mm 3,5 UV-I 956 W/m² 17,2 °C 22,3 °C 8,0 km/h (2 Bft)
27.06.2017 14:10 22,3 °C 22,3 °C 72 % 1005,6 hPa 0,0 mm 5,2 km/h (1 Bft) NO 49 ° 1 min 0,000 mm 3,5 UV-I 956 W/m² 17,0 °C 22,3 °C 9,7 km/h (2 Bft)
27.06.2017 14:11 22,2 °C 22,3 °C 74 % 1005,6 hPa 0,0 mm 2,3 km/h (1 Bft) NO 55 ° 1 min 0,000 mm 7,8 UV-I 976 W/m² 17,3 °C 22,2 °C 6,4 km/h (2 Bft)
27.06.2017 14:12 22,3 °C 22,3 °C 74 % 1005,6 hPa 0,0 mm 3,1 km/h (1 Bft) NO 53 ° 1 min 0,000 mm 7,7 UV-I 958 W/m² 17,4 °C 22,3 °C 8,0 km/h (2 Bft)
27.06.2017 14:13 22,3 °C 22,4 °C 72 % 1005,6 hPa 0,0 mm 5,0 km/h (1 Bft) O 80 ° 1 min 0,000 mm 7,7 UV-I 949 W/m² 17,0 °C 22,3 °C 6,4 km/h (2 Bft)
27.06.2017 14:14 22,3 °C 22,4 °C 75 % 1005,6 hPa 0,0 mm 6,6 km/h (2 Bft) O 94 ° 1 min 0,000 mm 7,6 UV-I 949 W/m² 17,6 °C 22,3 °C 8,0 km/h (2 Bft)
27.06.2017 14:15 22,3 °C 22,4 °C 74 % 1005,6 hPa 0,0 mm 1,9 km/h (1 Bft) O 94 ° 1 min 0,000 mm 7,6 UV-I 949 W/m² 17,4 °C 22,3 °C 4,8 km/h (1 Bft)
27.06.2017 14:16 22,3 °C 22,3 °C 70 % 1005,6 hPa 0,0 mm 2,7 km/h (1 Bft) O 82 ° 1 min 0,000 mm 7,5 UV-I 921 W/m² 16,6 °C 22,3 °C 3,2 km/h (1 Bft)
27.06.2017 14:17 22,3 °C 22,3 °C 70 % 1005,5 hPa 0,0 mm 0,5 km/h (0 Bft) O 82 ° 1 min 0,000 mm 7,5 UV-I 925 W/m² 16,6 °C 22,3 °C 1,6 km/h (1 Bft)
27.06.2017 14:18 22,3 °C 22,3 °C 70 % 1005,5 hPa 0,0 mm 1,5 km/h (1 Bft) SO 143 ° 1 min 0,000 mm 7,5 UV-I 930 W/m² 16,6 °C 22,3 °C 3,2 km/h (1 Bft)
27.06.2017 14:19 22,3 °C 22,3 °C 69 % 1005,5 hPa 0,0 mm 2,4 km/h (1 Bft) S 170 ° 1 min 0,000 mm 7,6 UV-I 947 W/m² 16,3 °C 22,3 °C 6,4 km/h (2 Bft)
27.06.2017 14:20 22,4 °C 22,4 °C 70 % 1005,4 hPa 0,0 mm 1,2 km/h (1 Bft) S 170 ° 1 min 0,000 mm 7,6 UV-I 954 W/m² 16,7 °C 22,4 °C 3,2 km/h (1 Bft)
27.06.2017 14:21 22,7 °C 22,7 °C 74 % 1005,4 hPa 0,0 mm 0,8 km/h (0 Bft) S-SO 165 ° 1 min 0,000 mm 7,6 UV-I 958 W/m² 17,8 °C 22,7 °C 3,2 km/h (1 Bft)
27.06.2017 14:22 22,9 °C 22,9 °C 76 % 1005,4 hPa 0,0 mm 3,7 km/h (1 Bft) S-SW 211 ° 1 min 0,000 mm 7,6 UV-I 960 W/m² 18,4 °C 22,9 °C 4,8 km/h (1 Bft)
27.06.2017 14:23 22,9 °C 22,9 °C 74 % 1005,4 hPa 0,0 mm 1,6 km/h (1 Bft) S-SO 154 ° 1 min 0,000 mm 7,7 UV-I 963 W/m² 18,0 °C 22,9 °C 3,2 km/h (1 Bft)
27.06.2017 14:24 23,0 °C 23,0 °C 72 % 1005,4 hPa 0,0 mm 1,0 km/h (0 Bft) NO 46 ° 1 min 0,000 mm 7,7 UV-I 963 W/m² 17,7 °C 23,0 °C 4,8 km/h (1 Bft)
27.06.2017 14:25 23,1 °C 23,1 °C 74 % 1005,3 hPa 0,0 mm 5,6 km/h (1 Bft) N-NO 27 ° 1 min 0,000 mm 7,7 UV-I 960 W/m² 18,2 °C 23,1 °C 9,7 km/h (2 Bft)
27.06.2017 14:26 23,2 °C 23,2 °C 71 % 1005,3 hPa 0,0 mm 5,2 km/h (1 Bft) O-NO 63 ° 1 min 0,000 mm 7,7 UV-I 958 W/m² 17,6 °C 23,2 °C 8,0 km/h (2 Bft)
27.06.2017 14:27 23,3 °C 23,3 °C 71 % 1005,3 hPa 0,0 mm 5,3 km/h (1 Bft) N-NO 13 ° 1 min 0,000 mm 7,6 UV-I 949 W/m² 17,7 °C 23,3 °C 9,7 km/h (2 Bft)
27.06.2017 14:28 23,3 °C 23,3 °C 70 % 1005,3 hPa 0,0 mm 7,2 km/h (2 Bft) NO 34 ° 1 min 0,000 mm 7,6 UV-I 944 W/m² 17,5 °C 23,3 °C 11,3 km/h (2 Bft)
27.06.2017 14:29 23,3 °C 23,3 °C 68 % 1005,3 hPa 0,0 mm 8,9 km/h (2 Bft) O 88 ° 1 min 0,000 mm 7,6 UV-I 935 W/m² 17,1 °C 23,3 °C 14,5 km/h (3 Bft)
27.06.2017 14:30 23,1 °C 23,3 °C 68 % 1005,4 hPa 0,0 mm 6,1 km/h (2 Bft) O-NO 78 ° 1 min 0,000 mm 7,6 UV-I 925 W/m² 16,9 °C 23,1 °C 9,7 km/h (2 Bft)
27.06.2017 14:31 23,1 °C 23,1 °C 69 % 1005,4 hPa 0,0 mm 3,6 km/h (1 Bft) O-NO 67 ° 1 min 0,000 mm 7,3 UV-I 925 W/m² 17,1 °C 23,1 °C 6,4 km/h (2 Bft)
27.06.2017 14:32 22,9 °C 23,1 °C 69 % 1005,3 hPa 0,0 mm 1,3 km/h (1 Bft) O 95 ° 1 min 0,000 mm 7,5 UV-I 925 W/m² 16,9 °C 22,9 °C 3,2 km/h (1 Bft)
27.06.2017 14:33 22,8 °C 22,9 °C 68 % 1005,3 hPa 0,0 mm 1,1 km/h (1 Bft) O 95 ° 1 min 0,000 mm 7,6 UV-I 967 W/m² 16,6 °C 22,8 °C 3,2 km/h (1 Bft)
27.06.2017 14:34 22,8 °C 22,8 °C 70 % 1005,4 hPa 0,0 mm 0,1 km/h (0 Bft) O 95 ° 1 min 0,000 mm 7,6 UV-I 940 W/m² 17,0 °C 22,8 °C 1,6 km/h (1 Bft)
27.06.2017 14:35 22,8 °C 22,8 °C 70 % 1005,3 hPa 0,0 mm 0,0 km/h (0 Bft) O 95 ° 1 min 0,000 mm 7,5 UV-I 984 W/m² 17,0 °C 22,8 °C 0,0 km/h (0 Bft)
27.06.2017 14:36 22,8 °C 22,9 °C 71 % 1005,3 hPa 0,0 mm 0,5 km/h (0 Bft) N-NO 16 ° 1 min 0,000 mm 7,5 UV-I 983 W/m² 17,3 °C 22,8 °C 3,2 km/h (1 Bft)
27.06.2017 14:37 22,9 °C 22,9 °C 71 % 1005,3 hPa 0,0 mm 3,9 km/h (1 Bft) N-NO 17 ° 1 min 0,000 mm 4,4 UV-I 983 W/m² 17,4 °C 22,9 °C 6,4 km/h (2 Bft)
27.06.2017 14:38 22,9 °C 22,9 °C 72 % 1005,2 hPa 0,0 mm 4,9 km/h (1 Bft) N 360 ° 1 min 0,000 mm 5,0 UV-I 983 W/m² 17,6 °C 22,9 °C 6,4 km/h (2 Bft)
27.06.2017 14:39 23,0 °C 23,0 °C 72 % 1005,2 hPa 0,0 mm 3,0 km/h (1 Bft) N-NW 338 ° 1 min 0,000 mm 7,6 UV-I 983 W/m² 17,7 °C 23,0 °C 6,4 km/h (2 Bft)
27.06.2017 14:40 23,0 °C 23,1 °C 72 % 1005,2 hPa 0,0 mm 5,7 km/h (1 Bft) N-NO 13 ° 1 min 0,000 mm 5,6 UV-I 983 W/m² 17,7 °C 23,0 °C 8,0 km/h (2 Bft)
27.06.2017 14:41 22,9 °C 23,0 °C 71 % 1005,3 hPa 0,0 mm 6,5 km/h (2 Bft) NO 34 ° 1 min 0,000 mm 5,6 UV-I 983 W/m² 17,4 °C 22,9 °C 9,7 km/h (2 Bft)
27.06.2017 14:42 23,1 °C 23,1 °C 73 % 1005,2 hPa 0,0 mm 6,4 km/h (2 Bft) O 91 ° 1 min 0,000 mm 7,2 UV-I 886 W/m² 18,0 °C 23,1 °C 9,7 km/h (2 Bft)
27.06.2017 14:43 22,9 °C 23,1 °C 73 % 1005,2 hPa 0,0 mm 3,8 km/h (1 Bft) O-NO 62 ° 1 min 0,000 mm 7,2 UV-I 888 W/m² 17,8 °C 22,9 °C 4,8 km/h (1 Bft)
27.06.2017 14:44 23,0 °C 23,0 °C 68 % 1005,3 hPa 0,0 mm 1,2 km/h (1 Bft) O-NO 62 ° 1 min 0,000 mm 7,2 UV-I 891 W/m² 16,8 °C 23,0 °C 3,2 km/h (1 Bft)
27.06.2017 14:45 23,1 °C 23,1 °C 68 % 1005,3 hPa 0,0 mm 2,6 km/h (1 Bft) O-NO 62 ° 1 min 0,000 mm 7,2 UV-I 888 W/m² 16,9 °C 23,1 °C 4,8 km/h (1 Bft)
27.06.2017 14:46 23,0 °C 23,1 °C 71 % 1005,2 hPa 0,0 mm 3,1 km/h (1 Bft) N 360 ° 1 min 0,000 mm 7,1 UV-I 882 W/m² 17,4 °C 23,0 °C 6,4 km/h (2 Bft)
27.06.2017 14:47 23,1 °C 23,1 °C 71 % 1005,2 hPa 0,0 mm 6,4 km/h (2 Bft) O 80 ° 1 min 0,000 mm 7,0 UV-I 877 W/m² 17,5 °C 23,1 °C 11,3 km/h (2 Bft)
27.06.2017 14:48 23,2 °C 23,2 °C 69 % 1005,2 hPa 0,0 mm 5,9 km/h (2 Bft) O-NO 69 ° 1 min 0,000 mm 7,1 UV-I 886 W/m² 17,2 °C 23,2 °C 6,4 km/h (2 Bft)
27.06.2017 14:49 23,1 °C 23,2 °C 70 % 1005,2 hPa 0,0 mm 3,8 km/h (1 Bft) O-NO 69 ° 1 min 0,000 mm 7,2 UV-I 898 W/m² 17,3 °C 23,1 °C 6,4 km/h (2 Bft)
27.06.2017 14:50 23,1 °C 23,1 °C 72 % 1005,2 hPa 0,0 mm 2,6 km/h (1 Bft) O-NO 63 ° 1 min 0,000 mm 7,3 UV-I 898 W/m² 17,8 °C 23,1 °C 4,8 km/h (1 Bft)
27.06.2017 14:51 23,1 °C 23,1 °C 72 % 1005,2 hPa 0,0 mm 2,5 km/h (1 Bft) O 88 ° 1 min 0,000 mm 7,3 UV-I 926 W/m² 17,8 °C 23,1 °C 8,0 km/h (2 Bft)
27.06.2017 14:52 23,2 °C 23,2 °C 71 % 1005,2 hPa 0,0 mm 6,4 km/h (2 Bft) O-NO 71 ° 1 min 0,000 mm 7,2 UV-I 933 W/m² 17,6 °C 23,2 °C 9,7 km/h (2 Bft)
27.06.2017 14:53 23,3 °C 23,3 °C 77 % 1005,2 hPa 0,0 mm 6,0 km/h (2 Bft) NO 53 ° 1 min 0,000 mm 6,8 UV-I 972 W/m² 19,0 °C 23,3 °C 11,3 km/h (2 Bft)
27.06.2017 14:54 23,4 °C 23,4 °C 69 % 1005,2 hPa 0,0 mm 1,9 km/h (1 Bft) NO 53 ° 1 min 0,000 mm 6,8 UV-I 1018 W/m² 17,4 °C 23,4 °C 3,2 km/h (1 Bft)
27.06.2017 14:55 23,4 °C 23,4 °C 71 % 1005,1 hPa 0,0 mm 2,4 km/h (1 Bft) NO 53 ° 1 min 0,000 mm 4,1 UV-I 1018 W/m² 17,8 °C 23,4 °C 3,2 km/h (1 Bft)
27.06.2017 14:56 23,3 °C 23,4 °C 70 % 1005,1 hPa 0,0 mm 1,1 km/h (1 Bft) NO 53 ° 1 min 0,000 mm 7,0 UV-I 1018 W/m² 17,5 °C 23,3 °C 3,2 km/h (1 Bft)
27.06.2017 14:57 23,3 °C 23,3 °C 71 % 1005,1 hPa 0,0 mm 1,7 km/h (1 Bft) NO 54 ° 1 min 0,000 mm 7,5 UV-I 1018 W/m² 17,7 °C 23,3 °C 3,2 km/h (1 Bft)
27.06.2017 14:58 23,3 °C 23,3 °C 71 % 1005,2 hPa 0,0 mm 5,2 km/h (1 Bft) O-NO 76 ° 1 min 0,000 mm 7,3 UV-I 947 W/m² 17,7 °C 23,3 °C 9,7 km/h (2 Bft)
27.06.2017 14:59 23,3 °C 23,3 °C 70 % 1005,1 hPa 0,0 mm 2,5 km/h (1 Bft) O-NO 76 ° 1 min 0,000 mm 7,5 UV-I 947 W/m² 17,5 °C 23,3 °C 4,8 km/h (1 Bft)
27.06.2017 15:00 23,4 °C 23,4 °C 73 % 1005,2 hPa 0,0 mm 6,4 km/h (2 Bft) N-NW 331 ° 1 min 0,000 mm 7,3 UV-I 1093 W/m² 18,3 °C 23,4 °C 12,9 km/h (3 Bft)
27.06.2017 15:01 23,6 °C 23,6 °C 70 % 1005,2 hPa 0,0 mm 6,5 km/h (2 Bft) N-NW 344 ° 1 min 0,533 mm 7,2 UV-I 1093 W/m² 17,8 °C 23,6 °C 8,0 km/h (2 Bft)
27.06.2017 15:02 23,8 °C 23,8 °C 70 % 1005,2 hPa 0,0 mm 6,0 km/h (2 Bft) NO 46 ° 1 min 0,000 mm 4,6 UV-I 1093 W/m² 18,0 °C 23,8 °C 9,7 km/h (2 Bft)
27.06.2017 15:03 23,9 °C 23,9 °C 67 % 1005,1 hPa 0,0 mm 2,7 km/h (1 Bft) N 349 ° 1 min 0,000 mm 6,6 UV-I 1093 W/m² 17,4 °C 23,9 °C 4,8 km/h (1 Bft)
27.06.2017 15:04 23,9 °C 23,9 °C 69 % 1005,1 hPa 0,0 mm 4,5 km/h (1 Bft) N-NW 333 ° 1 min 0,000 mm 7,3 UV-I 1093 W/m² 17,9 °C 23,9 °C 6,4 km/h (2 Bft)
27.06.2017 15:05 23,8 °C 23,9 °C 67 % 1005,1 hPa 0,0 mm 3,8 km/h (1 Bft) N 360 ° 1 min 0,000 mm 4,7 UV-I 1093 W/m² 17,3 °C 23,8 °C 4,8 km/h (1 Bft)
27.06.2017 15:06 23,9 °C 23,9 °C 68 % 1005,1 hPa 0,0 mm 5,2 km/h (1 Bft) N-NW 346 ° 1 min 0,000 mm 7,2 UV-I 1093 W/m² 17,6 °C 23,9 °C 8,0 km/h (2 Bft)
27.06.2017 15:07 23,9 °C 23,9 °C 68 % 1005,1 hPa 0,0 mm 3,2 km/h (1 Bft) N 350 ° 1 min 0,000 mm 3,8 UV-I 1093 W/m² 17,6 °C 23,9 °C 4,8 km/h (1 Bft)
27.06.2017 15:08 23,9 °C 23,9 °C 67 % 1005,1 hPa 0,0 mm 2,7 km/h (1 Bft) N 349 ° 1 min 0,000 mm 6,6 UV-I 1093 W/m² 17,4 °C 23,9 °C 4,8 km/h (1 Bft)
27.06.2017 15:09 23,8 °C 23,9 °C 65 % 1005,2 hPa 0,0 mm 5,6 km/h (1 Bft) N 5 ° 1 min 0,000 mm 6,0 UV-I 1093 W/m² 16,8 °C 23,8 °C 8,0 km/h (2 Bft)
27.06.2017 15:10 23,8 °C 23,9 °C 68 % 1005,1 hPa 0,0 mm 5,0 km/h (1 Bft) N-NW 340 ° 1 min 0,000 mm 7,1 UV-I 1093 W/m² 17,5 °C 23,8 °C 6,4 km/h (2 Bft)
27.06.2017 15:11 23,9 °C 23,9 °C 68 % 1005,2 hPa 0,0 mm 2,7 km/h (1 Bft) NW 324 ° 1 min 0,000 mm 7,0 UV-I 969 W/m² 17,6 °C 23,9 °C 3,2 km/h (1 Bft)
27.06.2017 15:12 23,9 °C 23,9 °C 64 % 1005,1 hPa 0,0 mm 4,2 km/h (1 Bft) N-NW 329 ° 1 min 0,000 mm 6,9 UV-I 954 W/m² 16,7 °C 23,9 °C 6,4 km/h (2 Bft)
27.06.2017 15:13 23,9 °C 23,9 °C 68 % 1005,1 hPa 0,0 mm 2,7 km/h (1 Bft) N 360 ° 1 min 0,000 mm 6,9 UV-I 954 W/m² 17,6 °C 23,9 °C 4,8 km/h (1 Bft)
27.06.2017 15:14 23,9 °C 24,0 °C 64 % 1005,1 hPa 0,0 mm 4,7 km/h (1 Bft) N 349 ° 1 min 0,000 mm 6,9 UV-I 935 W/m² 16,7 °C 23,9 °C 6,4 km/h (2 Bft)
27.06.2017 15:15 24,0 °C 24,0 °C 63 % 1005,0 hPa 0,0 mm 4,2 km/h (1 Bft) N-NO 31 ° 1 min 0,000 mm 7,0 UV-I 944 W/m² 16,5 °C 24,0 °C 4,8 km/h (1 Bft)
27.06.2017 15:16 24,1 °C 24,1 °C 66 % 1005,0 hPa 0,0 mm 5,0 km/h (1 Bft) NW 321 ° 1 min 0,000 mm 7,0 UV-I 942 W/m² 17,3 °C 24,1 °C 6,4 km/h (2 Bft)
27.06.2017 15:17 24,2 °C 24,2 °C 63 % 1005,0 hPa 0,0 mm 4,5 km/h (1 Bft) NW 309 ° 1 min 0,000 mm 6,9 UV-I 907 W/m² 16,7 °C 24,2 °C 6,4 km/h (2 Bft)
27.06.2017 15:18 24,1 °C 24,2 °C 66 % 1005,0 hPa 0,0 mm 3,2 km/h (1 Bft) NW 309 ° 1 min 0,000 mm 6,8 UV-I 886 W/m² 17,3 °C 24,1 °C 6,4 km/h (2 Bft)
27.06.2017 15:19 24,1 °C 24,1 °C 66 % 1005,0 hPa 0,0 mm 4,6 km/h (1 Bft) NW 323 ° 1 min 0,000 mm 6,4 UV-I 872 W/m² 17,3 °C 24,1 °C 6,4 km/h (2 Bft)
27.06.2017 15:20 23,9 °C 24,1 °C 64 % 1004,9 hPa 0,0 mm 4,0 km/h (1 Bft) N 5 ° 1 min 0,000 mm 6,7 UV-I 870 W/m² 16,7 °C 23,9 °C 6,4 km/h (2 Bft)
27.06.2017 15:21 23,9 °C 23,9 °C 65 % 1005,0 hPa 0,0 mm 4,5 km/h (1 Bft) N-NW 340 ° 1 min 0,000 mm 6,6 UV-I 870 W/m² 16,9 °C 23,9 °C 6,4 km/h (2 Bft)
27.06.2017 15:22 23,9 °C 23,9 °C 64 % 1004,9 hPa 0,0 mm 7,4 km/h (2 Bft) N-NO 16 ° 1 min 0,000 mm 6,6 UV-I 861 W/m² 16,7 °C 23,9 °C 11,3 km/h (2 Bft)
27.06.2017 15:23 24,0 °C 24,0 °C 65 % 1004,9 hPa 0,0 mm 11,9 km/h (2 Bft) N 5 ° 1 min 0,000 mm 6,6 UV-I 884 W/m² 17,0 °C 24,0 °C 14,5 km/h (3 Bft)
27.06.2017 15:24 23,9 °C 24,0 °C 63 % 1004,9 hPa 0,0 mm 4,8 km/h (1 Bft) NO 46 ° 1 min 0,000 mm 3,8 UV-I 884 W/m² 16,4 °C 23,9 °C 8,0 km/h (2 Bft)
27.06.2017 15:25 23,9 °C 23,9 °C 65 % 1004,9 hPa 0,0 mm 3,5 km/h (1 Bft) N-NO 17 ° 1 min 0,000 mm 3,4 UV-I 884 W/m² 16,9 °C 23,9 °C 4,8 km/h (1 Bft)
27.06.2017 15:26 23,9 °C 23,9 °C 68 % 1004,9 hPa 0,0 mm 4,4 km/h (1 Bft) N-NW 333 ° 0 min 0,000 mm 3,3 UV-I 197 W/m² 17,6 °C 23,9 °C 8,0 km/h (2 Bft)
27.06.2017 15:27 23,7 °C 23,9 °C 64 % 1004,9 hPa 0,0 mm 5,5 km/h (1 Bft) NW 320 ° 0 min 0,000 mm 3,4 UV-I 195 W/m² 16,5 °C 23,7 °C 8,0 km/h (2 Bft)
27.06.2017 15:28 23,5 °C 23,7 °C 63 % 1004,9 hPa 0,0 mm 3,0 km/h (1 Bft) NW 307 ° 0 min 0,000 mm 3,4 UV-I 207 W/m² 16,0 °C 23,5 °C 4,8 km/h (1 Bft)
27.06.2017 15:29 23,3 °C 23,5 °C 65 % 1004,9 hPa 0,0 mm 3,8 km/h (1 Bft) N-NW 328 ° 1 min 0,000 mm 4,0 UV-I 294 W/m² 16,3 °C 23,3 °C 4,8 km/h (1 Bft)
27.06.2017 15:30 23,2 °C 23,3 °C 66 % 1004,9 hPa 0,0 mm 5,0 km/h (1 Bft) W 281 ° 1 min 0,000 mm 6,2 UV-I 294 W/m² 16,5 °C 23,2 °C 6,4 km/h (2 Bft)
27.06.2017 15:31 23,1 °C 23,2 °C 66 % 1004,8 hPa 0,0 mm 6,0 km/h (2 Bft) N-NW 341 ° 1 min 0,000 mm 6,4 UV-I 294 W/m² 16,4 °C 23,1 °C 9,7 km/h (2 Bft)
27.06.2017 15:32 23,2 °C 23,2 °C 67 % 1004,8 hPa 0,0 mm 7,0 km/h (2 Bft) NW 323 ° 1 min 0,000 mm 4,1 UV-I 294 W/m² 16,7 °C 23,2 °C 11,3 km/h (2 Bft)
27.06.2017 15:33 23,4 °C 23,4 °C 68 % 1004,9 hPa 0,0 mm 5,9 km/h (2 Bft) NW 312 ° 1 min 0,000 mm 6,3 UV-I 294 W/m² 17,1 °C 23,4 °C 9,7 km/h (2 Bft)
27.06.2017 15:34 23,5 °C 23,5 °C 66 % 1004,9 hPa 0,0 mm 5,3 km/h (1 Bft) W-NW 302 ° 1 min 0,000 mm 6,2 UV-I 896 W/m² 16,8 °C 23,5 °C 8,0 km/h (2 Bft)
27.06.2017 15:35 23,6 °C 23,6 °C 69 % 1004,9 hPa 0,0 mm 4,6 km/h (1 Bft) W-NW 288 ° 1 min 0,000 mm 3,8 UV-I 896 W/m² 17,6 °C 23,6 °C 9,7 km/h (2 Bft)
27.06.2017 15:36 23,6 °C 23,6 °C 65 % 1004,9 hPa 0,0 mm 4,9 km/h (1 Bft) NW 325 ° 0 min 0,000 mm 2,6 UV-I 167 W/m² 16,6 °C 23,6 °C 6,4 km/h (2 Bft)
27.06.2017 15:37 23,4 °C 23,6 °C 63 % 1004,9 hPa 0,0 mm 8,4 km/h (2 Bft) NW 323 ° 0 min 0,000 mm 3,0 UV-I 251 W/m² 15,9 °C 23,4 °C 12,9 km/h (3 Bft)
27.06.2017 15:38 23,3 °C 23,4 °C 66 % 1004,9 hPa 0,0 mm 5,8 km/h (2 Bft) N-NW 331 ° 0 min 0,000 mm 2,7 UV-I 206 W/m² 16,6 °C 23,3 °C 8,0 km/h (2 Bft)
27.06.2017 15:39 23,2 °C 23,3 °C 64 % 1004,9 hPa 0,0 mm 4,8 km/h (1 Bft) W-NW 299 ° 0 min 0,000 mm 2,8 UV-I 230 W/m² 16,0 °C 23,2 °C 8,0 km/h (2 Bft)
27.06.2017 15:40 23,1 °C 23,2 °C 65 % 1004,9 hPa 0,0 mm 3,1 km/h (1 Bft) NW 315 ° 0 min 0,000 mm 3,0 UV-I 220 W/m² 16,2 °C 23,1 °C 4,8 km/h (1 Bft)
27.06.2017 15:41 23,0 °C 23,1 °C 67 % 1004,9 hPa 0,0 mm 3,7 km/h (1 Bft) NW 310 ° 0 min 0,000 mm 2,7 UV-I 227 W/m² 16,5 °C 23,0 °C 6,4 km/h (2 Bft)
27.06.2017 15:42 22,9 °C 23,0 °C 65 % 1004,9 hPa 0,0 mm 5,0 km/h (1 Bft) W-NW 286 ° 0 min 0,000 mm 2,9 UV-I 248 W/m² 16,0 °C 22,9 °C 6,4 km/h (2 Bft)
27.06.2017 15:43 22,8 °C 22,9 °C 67 % 1004,9 hPa 0,0 mm 2,7 km/h (1 Bft) W-NW 296 ° 1 min 0,000 mm 2,9 UV-I 295 W/m² 16,3 °C 22,8 °C 4,8 km/h (1 Bft)
27.06.2017 15:44 22,9 °C 22,9 °C 68 % 1004,9 hPa 0,0 mm 2,5 km/h (1 Bft) NW 305 ° 0 min 0,000 mm 3,1 UV-I 250 W/m² 16,7 °C 22,9 °C 4,8 km/h (1 Bft)
27.06.2017 15:45 22,9 °C 22,9 °C 68 % 1004,9 hPa 0,0 mm 2,7 km/h (1 Bft) NW 305 ° 0 min 0,000 mm 2,8 UV-I 248 W/m² 16,7 °C 22,9 °C 4,8 km/h (1 Bft)
27.06.2017 15:46 22,9 °C 22,9 °C 66 % 1004,9 hPa 0,0 mm 4,8 km/h (1 Bft) W-NW 299 ° 0 min 0,000 mm 2,8 UV-I 241 W/m² 16,2 °C 22,9 °C 8,0 km/h (2 Bft)
27.06.2017 15:47 22,9 °C 22,9 °C 66 % 1004,9 hPa 0,0 mm 3,9 km/h (1 Bft) W-NW 297 ° 0 min 0,000 mm 2,8 UV-I 234 W/m² 16,2 °C 22,9 °C 4,8 km/h (1 Bft)
27.06.2017 15:48 22,9 °C 22,9 °C 64 % 1004,9 hPa 0,0 mm 2,1 km/h (1 Bft) W-NW 297 ° 0 min 0,000 mm 2,8 UV-I 237 W/m² 15,7 °C 22,9 °C 4,8 km/h (1 Bft)
27.06.2017 15:49 22,8 °C 22,9 °C 65 % 1004,9 hPa 0,0 mm 1,7 km/h (1 Bft) W-NW 297 ° 0 min 0,000 mm 2,7 UV-I 237 W/m² 15,9 °C 22,8 °C 3,2 km/h (1 Bft)
27.06.2017 15:50 22,8 °C 22,8 °C 66 % 1004,9 hPa 0,0 mm 2,3 km/h (1 Bft) W-NW 297 ° 0 min 0,000 mm 2,7 UV-I 232 W/m² 16,1 °C 22,8 °C 3,2 km/h (1 Bft)
27.06.2017 15:51 22,8 °C 22,8 °C 66 % 1004,9 hPa 0,0 mm 2,3 km/h (1 Bft) W-NW 297 ° 0 min 0,000 mm 2,5 UV-I 227 W/m² 16,1 °C 22,8 °C 3,2 km/h (1 Bft)
27.06.2017 15:52 22,8 °C 22,8 °C 64 % 1004,9 hPa 0,0 mm 2,2 km/h (1 Bft) W-NW 297 ° 0 min 0,000 mm 2,5 UV-I 214 W/m² 15,6 °C 22,8 °C 3,2 km/h (1 Bft)
27.06.2017 15:53 22,8 °C 22,8 °C 69 % 1004,9 hPa 0,0 mm 2,2 km/h (1 Bft) W-NW 297 ° 0 min 0,000 mm 2,4 UV-I 209 W/m² 16,8 °C 22,8 °C 3,2 km/h (1 Bft)
27.06.2017 15:54 22,8 °C 22,8 °C 69 % 1004,9 hPa 0,0 mm 1,4 km/h (1 Bft) W-NW 297 ° 0 min 0,000 mm 2,2 UV-I 206 W/m² 16,8 °C 22,8 °C 1,6 km/h (1 Bft)
27.06.2017 15:55 22,8 °C 22,9 °C 71 % 1004,9 hPa 0,0 mm 0,3 km/h (0 Bft) W-NW 297 ° 0 min 0,000 mm 2,2 UV-I 204 W/m² 17,3 °C 22,8 °C 1,6 km/h (1 Bft)
27.06.2017 15:56 22,8 °C 22,8 °C 68 % 1004,8 hPa 0,0 mm 0,0 km/h (0 Bft) W-NW 297 ° 0 min 0,000 mm 2,1 UV-I 204 W/m² 16,6 °C 22,8 °C 0,0 km/h (0 Bft)
27.06.2017 15:57 22,8 °C 22,8 °C 71 % 1004,9 hPa 0,0 mm 0,1 km/h (0 Bft) W-NW 297 ° 0 min 0,000 mm 2,1 UV-I 207 W/m² 17,3 °C 22,8 °C 1,6 km/h (1 Bft)
27.06.2017 15:58 22,7 °C 22,8 °C 70 % 1004,8 hPa 0,0 mm 0,0 km/h (0 Bft) W-NW 297 ° 0 min 0,000 mm 2,2 UV-I 220 W/m² 16,9 °C 22,7 °C 0,0 km/h (0 Bft)
27.06.2017 15:59 22,6 °C 22,7 °C 69 % 1004,8 hPa 0,0 mm 0,0 km/h (0 Bft) W-NW 297 ° 0 min 0,000 mm 2,2 UV-I 234 W/m² 16,6 °C 22,6 °C 0,0 km/h (0 Bft)
27.06.2017 16:00 22,5 °C 22,6 °C 69 % 1004,8 hPa 0,0 mm 0,4 km/h (0 Bft) W-NW 297 ° 0 min 0,000 mm 2,4 UV-I 251 W/m² 16,5 °C 22,5 °C 3,2 km/h (1 Bft)
27.06.2017 16:01 22,3 °C 22,5 °C 70 % 1004,7 hPa 0,0 mm 2,1 km/h (1 Bft) NW 306 ° 1 min 0,331 mm 2,7 UV-I 304 W/m² 16,6 °C 22,3 °C 3,2 km/h (1 Bft)
27.06.2017 16:02 22,2 °C 22,3 °C 74 % 1004,7 hPa 0,0 mm 1,2 km/h (1 Bft) NW 321 ° 1 min 0,000 mm 3,4 UV-I 338 W/m² 17,3 °C 22,2 °C 3,2 km/h (1 Bft)
27.06.2017 16:03 22,2 °C 22,2 °C 72 % 1004,7 hPa 0,0 mm 0,2 km/h (0 Bft) NW 321 ° 1 min 0,000 mm 3,4 UV-I 438 W/m² 16,9 °C 22,2 °C 1,6 km/h (1 Bft)
27.06.2017 16:04 22,4 °C 22,4 °C 77 % 1004,7 hPa 0,0 mm 0,0 km/h (0 Bft) N-NW 336 ° 1 min 0,000 mm 5,8 UV-I 438 W/m² 18,2 °C 22,4 °C 0,0 km/h (0 Bft)
27.06.2017 16:05 22,7 °C 22,7 °C 76 % 1004,7 hPa 0,0 mm 4,1 km/h (1 Bft) NO 42 ° 1 min 0,000 mm 6,1 UV-I 438 W/m² 18,2 °C 22,7 °C 6,4 km/h (2 Bft)
27.06.2017 16:06 22,9 °C 22,9 °C 70 % 1004,7 hPa 0,0 mm 6,0 km/h (2 Bft) N 5 ° 1 min 0,000 mm 5,2 UV-I 923 W/m² 17,1 °C 22,9 °C 12,9 km/h (3 Bft)
27.06.2017 16:07 23,2 °C 23,2 °C 66 % 1004,6 hPa 0,0 mm 5,2 km/h (1 Bft) NO 49 ° 1 min 0,000 mm 5,9 UV-I 921 W/m² 16,5 °C 23,2 °C 8,0 km/h (2 Bft)
27.06.2017 16:08 23,5 °C 23,5 °C 68 % 1004,6 hPa 0,0 mm 3,9 km/h (1 Bft) NO 36 ° 1 min 0,000 mm 5,8 UV-I 877 W/m² 17,2 °C 23,5 °C 6,4 km/h (2 Bft)
27.06.2017 16:09 23,6 °C 23,6 °C 63 % 1004,6 hPa 0,0 mm 3,8 km/h (1 Bft) N 355 ° 1 min 0,000 mm 5,7 UV-I 854 W/m² 16,1 °C 23,6 °C 4,8 km/h (1 Bft)
27.06.2017 16:10 23,6 °C 23,6 °C 66 % 1004,6 hPa 0,0 mm 2,7 km/h (1 Bft) N 355 ° 1 min 0,000 mm 5,6 UV-I 810 W/m² 16,9 °C 23,6 °C 4,8 km/h (1 Bft)
27.06.2017 16:11 23,6 °C 23,6 °C 68 % 1004,6 hPa 0,0 mm 2,9 km/h (1 Bft) NW 325 ° 1 min 0,000 mm 5,3 UV-I 798 W/m² 17,3 °C 23,6 °C 4,8 km/h (1 Bft)
27.06.2017 16:12 23,7 °C 23,7 °C 67 % 1004,7 hPa 0,0 mm 3,7 km/h (1 Bft) NW 325 ° 1 min 0,000 mm 5,1 UV-I 798 W/m² 17,2 °C 23,7 °C 4,8 km/h (1 Bft)
27.06.2017 16:13 23,7 °C 23,7 °C 67 % 1004,7 hPa 0,0 mm 3,8 km/h (1 Bft) N 355 ° 1 min 0,000 mm 3,2 UV-I 798 W/m² 17,2 °C 23,7 °C 6,4 km/h (2 Bft)
27.06.2017 16:14 23,7 °C 23,7 °C 67 % 1004,7 hPa 0,0 mm 5,5 km/h (1 Bft) N-NO 26 ° 1 min 0,000 mm 4,1 UV-I 334 W/m² 17,2 °C 23,7 °C 8,0 km/h (2 Bft)
27.06.2017 16:15 23,7 °C 23,7 °C 66 % 1004,7 hPa 0,0 mm 3,6 km/h (1 Bft) NW 323 ° 1 min 0,000 mm 3,2 UV-I 334 W/m² 17,0 °C 23,7 °C 6,4 km/h (2 Bft)
27.06.2017 16:16 23,6 °C 23,7 °C 64 % 1004,7 hPa 0,0 mm 3,3 km/h (1 Bft) NW 323 ° 0 min 0,000 mm 3,1 UV-I 264 W/m² 16,4 °C 23,6 °C 4,8 km/h (1 Bft)
27.06.2017 16:17 23,4 °C 23,6 °C 66 % 1004,7 hPa 0,0 mm 5,0 km/h (1 Bft) NW 317 ° 0 min 0,000 mm 2,8 UV-I 246 W/m² 16,7 °C 23,4 °C 8,0 km/h (2 Bft)
27.06.2017 16:18 23,3 °C 23,4 °C 68 % 1004,7 hPa 0,0 mm 7,2 km/h (2 Bft) NW 318 ° 0 min 0,000 mm 2,6 UV-I 225 W/m² 17,1 °C 23,3 °C 9,7 km/h (2 Bft)
27.06.2017 16:19 23,3 °C 23,3 °C 68 % 1004,7 hPa 0,0 mm 4,8 km/h (1 Bft) NW 313 ° 0 min 0,000 mm 2,5 UV-I 209 W/m² 17,1 °C 23,3 °C 6,4 km/h (2 Bft)
27.06.2017 16:20 23,3 °C 23,3 °C 67 % 1004,7 hPa 0,0 mm 4,0 km/h (1 Bft) N 355 ° 0 min 0,000 mm 2,4 UV-I 204 W/m² 16,8 °C 23,3 °C 6,4 km/h (2 Bft)
27.06.2017 16:21 23,3 °C 23,3 °C 69 % 1004,7 hPa 0,0 mm 6,2 km/h (2 Bft) N 5 ° 0 min 0,000 mm 2,4 UV-I 218 W/m² 17,3 °C 23,3 °C 12,9 km/h (3 Bft)
27.06.2017 16:22 23,3 °C 23,3 °C 68 % 1004,7 hPa 0,0 mm 4,6 km/h (1 Bft) N-NO 33 ° 0 min 0,000 mm 2,4 UV-I 230 W/m² 17,1 °C 23,3 °C 8,0 km/h (2 Bft)
27.06.2017 16:23 23,4 °C 23,4 °C 67 % 1004,7 hPa 0,0 mm 4,0 km/h (1 Bft) N 355 ° 0 min 0,000 mm 2,4 UV-I 239 W/m² 16,9 °C 23,4 °C 4,8 km/h (1 Bft)
27.06.2017 16:24 23,3 °C 23,4 °C 68 % 1004,8 hPa 0,0 mm 4,8 km/h (1 Bft) NO 34 ° 0 min 0,000 mm 2,3 UV-I 227 W/m² 17,1 °C 23,3 °C 8,0 km/h (2 Bft)
27.06.2017 16:25 23,3 °C 23,3 °C 68 % 1004,8 hPa 0,0 mm 4,5 km/h (1 Bft) NO 44 ° 0 min 0,000 mm 2,2 UV-I 214 W/m² 17,1 °C 23,3 °C 6,4 km/h (2 Bft)
27.06.2017 16:26 23,3 °C 23,3 °C 67 % 1004,7 hPa 0,0 mm 2,6 km/h (1 Bft) O-NO 73 ° 0 min 0,000 mm 2,2 UV-I 213 W/m² 16,8 °C 23,3 °C 6,4 km/h (2 Bft)
27.06.2017 16:27 23,3 °C 23,3 °C 69 % 1004,7 hPa 0,0 mm 5,5 km/h (1 Bft) O-NO 57 ° 0 min 0,000 mm 2,1 UV-I 197 W/m² 17,3 °C 23,3 °C 9,7 km/h (2 Bft)
27.06.2017 16:28 23,2 °C 23,3 °C 67 % 1004,7 hPa 0,0 mm 4,6 km/h (1 Bft) O-NO 69 ° 0 min 0,000 mm 2,1 UV-I 195 W/m² 16,7 °C 23,2 °C 6,4 km/h (2 Bft)
27.06.2017 16:29 23,2 °C 23,2 °C 68 % 1004,7 hPa 0,0 mm 1,2 km/h (1 Bft) O-NO 70 ° 0 min 0,000 mm 2,0 UV-I 195 W/m² 17,0 °C 23,2 °C 3,2 km/h (1 Bft)
27.06.2017 16:30 23,1 °C 23,2 °C 68 % 1004,8 hPa 0,0 mm 2,7 km/h (1 Bft) O-NO 70 ° 0 min 0,000 mm 2,0 UV-I 200 W/m² 16,9 °C 23,1 °C 3,2 km/h (1 Bft)
27.06.2017 16:31 23,0 °C 23,1 °C 67 % 1004,7 hPa 0,0 mm 2,5 km/h (1 Bft) O-NO 71 ° 0 min 0,000 mm 2,1 UV-I 207 W/m² 16,5 °C 23,0 °C 3,2 km/h (1 Bft)
27.06.2017 16:32 22,9 °C 23,0 °C 66 % 1004,7 hPa 0,0 mm 4,3 km/h (1 Bft) O-NO 59 ° 0 min 0,000 mm 2,1 UV-I 221 W/m² 16,2 °C 22,9 °C 6,4 km/h (2 Bft)
27.06.2017 16:33 23,0 °C 23,0 °C 68 % 1004,7 hPa 0,0 mm 1,3 km/h (1 Bft) O-NO 59 ° 0 min 0,000 mm 2,2 UV-I 276 W/m² 16,8 °C 23,0 °C 4,8 km/h (1 Bft)
27.06.2017 16:34 22,9 °C 23,0 °C 67 % 1004,7 hPa 0,0 mm 0,0 km/h (0 Bft) O-NO 59 ° 1 min 0,000 mm 2,5 UV-I 294 W/m² 16,4 °C 22,9 °C 0,0 km/h (0 Bft)
27.06.2017 16:35 22,9 °C 22,9 °C 69 % 1004,7 hPa 0,0 mm 1,4 km/h (1 Bft) O-SO 107 ° 1 min 0,000 mm 2,5 UV-I 290 W/m² 16,9 °C 22,9 °C 4,8 km/h (1 Bft)
27.06.2017 16:36 22,9 °C 22,9 °C 68 % 1004,7 hPa 0,0 mm 0,1 km/h (0 Bft) O-SO 107 ° 0 min 0,000 mm 2,4 UV-I 269 W/m² 16,7 °C 22,9 °C 1,6 km/h (1 Bft)
27.06.2017 16:37 22,9 °C 22,9 °C 70 % 1004,7 hPa 0,0 mm 1,0 km/h (0 Bft) S-SO 150 ° 0 min 0,000 mm 2,2 UV-I 248 W/m² 17,1 °C 22,9 °C 3,2 km/h (1 Bft)
27.06.2017 16:38 22,8 °C 22,9 °C 69 % 1004,7 hPa 0,0 mm 2,2 km/h (1 Bft) O-SO 104 ° 0 min 0,000 mm 2,1 UV-I 230 W/m² 16,8 °C 22,8 °C 4,8 km/h (1 Bft)
27.06.2017 16:39 22,8 °C 22,9 °C 68 % 1004,7 hPa 0,0 mm 4,6 km/h (1 Bft) O-SO 121 ° 0 min 0,000 mm 2,0 UV-I 197 W/m² 16,6 °C 22,8 °C 6,4 km/h (2 Bft)
27.06.2017 16:40 22,8 °C 22,8 °C 69 % 1004,7 hPa 0,0 mm 1,3 km/h (1 Bft) O-SO 121 ° 0 min 0,000 mm 1,7 UV-I 181 W/m² 16,8 °C 22,8 °C 4,8 km/h (1 Bft)
27.06.2017 16:41 22,7 °C 22,8 °C 70 % 1004,7 hPa 0,0 mm 0,7 km/h (0 Bft) O-SO 121 ° 0 min 0,000 mm 1,6 UV-I 171 W/m² 16,9 °C 22,7 °C 1,6 km/h (1 Bft)
27.06.2017 16:42 22,7 °C 22,7 °C 73 % 1004,7 hPa 0,0 mm 4,0 km/h (1 Bft) N 349 ° 0 min 0,000 mm 1,5 UV-I 162 W/m² 17,6 °C 22,7 °C 6,4 km/h (2 Bft)
27.06.2017 16:43 22,7 °C 22,7 °C 70 % 1004,7 hPa 0,0 mm 2,9 km/h (1 Bft) N 349 ° 0 min 0,000 mm 1,4 UV-I 153 W/m² 16,9 °C 22,7 °C 4,8 km/h (1 Bft)
27.06.2017 16:44 22,7 °C 22,7 °C 69 % 1004,7 hPa 0,0 mm 1,3 km/h (1 Bft) N 349 ° 0 min 0,000 mm 1,3 UV-I 142 W/m² 16,7 °C 22,7 °C 3,2 km/h (1 Bft)
27.06.2017 16:45 22,7 °C 22,7 °C 68 % 1004,7 hPa 0,0 mm 2,0 km/h (1 Bft) N 360 ° 0 min 0,000 mm 1,2 UV-I 114 W/m² 16,5 °C 22,7 °C 3,2 km/h (1 Bft)
27.06.2017 16:46 22,7 °C 22,7 °C 69 % 1004,6 hPa 0,0 mm 1,8 km/h (1 Bft) N 360 ° 0 min 0,000 mm 1,0 UV-I 104 W/m² 16,7 °C 22,7 °C 3,2 km/h (1 Bft)
27.06.2017 16:47 22,7 °C 22,7 °C 69 % 1004,7 hPa 0,0 mm 2,5 km/h (1 Bft) N 9 ° 0 min 0,000 mm 0,9 UV-I 86 W/m² 16,7 °C 22,7 °C 4,8 km/h (1 Bft)
27.06.2017 16:48 22,7 °C 22,7 °C 67 % 1004,7 hPa 0,0 mm 0,6 km/h (0 Bft) N 5 ° 0 min 0,000 mm 0,9 UV-I 74 W/m² 16,2 °C 22,7 °C 3,2 km/h (1 Bft)
27.06.2017 16:49 22,7 °C 22,7 °C 69 % 1004,7 hPa 0,0 mm 2,2 km/h (1 Bft) N-NO 20 ° 0 min 0,000 mm 0,8 UV-I 69 W/m² 16,7 °C 22,7 °C 4,8 km/h (1 Bft)
27.06.2017 16:50 22,7 °C 22,7 °C 71 % 1004,7 hPa 0,0 mm 0,9 km/h (0 Bft) N-NO 20 ° 0 min 0,000 mm 0,7 UV-I 84 W/m² 17,2 °C 22,7 °C 3,2 km/h (1 Bft)
27.06.2017 16:51 22,6 °C 22,7 °C 71 % 1004,7 hPa 0,0 mm 0,9 km/h (0 Bft) N-NO 20 ° 0 min 0,000 mm 0,7 UV-I 76 W/m² 17,1 °C 22,6 °C 3,2 km/h (1 Bft)
27.06.2017 16:52 22,6 °C 22,6 °C 70 % 1004,7 hPa 0,0 mm 1,4 km/h (1 Bft) N-NO 20 ° 0 min 0,000 mm 0,6 UV-I 74 W/m² 16,8 °C 22,6 °C 3,2 km/h (1 Bft)
27.06.2017 16:53 22,4 °C 22,6 °C 71 % 1004,7 hPa 0,0 mm 3,3 km/h (1 Bft) N-NO 22 ° 0 min 0,000 mm 0,6 UV-I 70 W/m² 16,9 °C 22,4 °C 4,8 km/h (1 Bft)
27.06.2017 16:54 22,3 °C 22,4 °C 76 % 1004,7 hPa 0,0 mm 1,0 km/h (0 Bft) N-NO 22 ° 0 min 0,000 mm 0,6 UV-I 67 W/m² 17,9 °C 22,3 °C 3,2 km/h (1 Bft)
27.06.2017 16:55 22,1 °C 22,3 °C 76 % 1004,7 hPa 0,0 mm 0,4 km/h (0 Bft) N-NO 19 ° 0 min 0,000 mm 0,5 UV-I 63 W/m² 17,7 °C 22,1 °C 1,6 km/h (1 Bft)
27.06.2017 16:56 21,9 °C 22,1 °C 75 % 1004,7 hPa 0,0 mm 4,1 km/h (1 Bft) N 349 ° 0 min 0,000 mm 0,5 UV-I 58 W/m² 17,3 °C 21,9 °C 6,4 km/h (2 Bft)
27.06.2017 16:57 21,8 °C 21,9 °C 74 % 1004,6 hPa 0,0 mm 5,2 km/h (1 Bft) N-NW 342 ° 0 min 0,000 mm 0,0 UV-I 47 W/m² 17,0 °C 21,8 °C 8,0 km/h (2 Bft)
27.06.2017 16:58 21,8 °C 21,9 °C 74 % 1004,7 hPa 0,0 mm 4,0 km/h (1 Bft) N 349 ° 0 min 0,000 mm 0,0 UV-I 42 W/m² 17,0 °C 21,8 °C 6,4 km/h (2 Bft)
27.06.2017 16:59 21,8 °C 21,8 °C 76 % 1004,7 hPa 0,0 mm 3,3 km/h (1 Bft) N 355 ° 0 min 0,000 mm 0,0 UV-I 37 W/m² 17,4 °C 21,8 °C 4,8 km/h (1 Bft)
27.06.2017 17:00 21,8 °C 21,8 °C 75 % 1004,7 hPa 0,0 mm 3,4 km/h (1 Bft) N 349 ° 0 min 0,000 mm 0,0 UV-I 33 W/m² 17,2 °C 21,8 °C 4,8 km/h (1 Bft)
27.06.2017 17:01 21,8 °C 21,8 °C 75 % 1004,8 hPa 0,0 mm 1,6 km/h (1 Bft) N 349 ° 0 min 0,177 mm 0,0 UV-I 33 W/m² 17,2 °C 21,8 °C 1,6 km/h (1 Bft)
27.06.2017 17:02 21,7 °C 21,7 °C 76 % 1004,8 hPa 0,0 mm 0,0 km/h (0 Bft) N 360 ° 0 min 0,000 mm 0,0 UV-I 28 W/m² 17,3 °C 21,7 °C 1,6 km/h (1 Bft)
27.06.2017 17:03 21,6 °C 21,7 °C 79 % 1004,8 hPa 0,0 mm 0,0 km/h (0 Bft) N 0 ° 0 min 0,000 mm 0,0 UV-I 25 W/m² 17,8 °C 21,6 °C 0,0 km/h (0 Bft)
27.06.2017 17:04 21,4 °C 21,6 °C 79 % 1004,9 hPa 0,0 mm 0,0 km/h (0 Bft) N 0 ° 0 min 0,000 mm 0,0 UV-I 25 W/m² 17,6 °C 21,4 °C 0,0 km/h (0 Bft)
27.06.2017 17:05 21,1 °C 21,3 °C 80 % 1004,9 hPa 0,0 mm 1,6 km/h (1 Bft) N 360 ° 0 min 0,000 mm 0,0 UV-I 25 W/m² 17,5 °C 21,1 °C 3,2 km/h (1 Bft)
27.06.2017 17:06 20,8 °C 21,1 °C 82 % 1004,8 hPa 0,0 mm 1,6 km/h (1 Bft) N 360 ° 0 min 0,000 mm 0,0 UV-I 25 W/m² 17,6 °C 20,8 °C 3,2 km/h (1 Bft)
27.06.2017 17:07 20,6 °C 20,8 °C 83 % 1004,8 hPa 0,0 mm 1,6 km/h (1 Bft) O-NO 67 ° 0 min 0,000 mm 0,0 UV-I 26 W/m² 17,6 °C 20,6 °C 3,2 km/h (1 Bft)
27.06.2017 17:08 20,4 °C 20,6 °C 83 % 1004,8 hPa 0,0 mm 0,0 km/h (0 Bft) O 90 ° 0 min 0,000 mm 0,0 UV-I 30 W/m² 17,4 °C 20,4 °C 1,6 km/h (1 Bft)
27.06.2017 17:09 20,3 °C 20,4 °C 83 % 1004,8 hPa 0,0 mm 1,6 km/h (1 Bft) O 90 ° 0 min 0,000 mm 0,0 UV-I 33 W/m² 17,3 °C 20,3 °C 3,2 km/h (1 Bft)
27.06.2017 17:10 20,2 °C 20,3 °C 83 % 1004,7 hPa 0,0 mm 1,6 km/h (1 Bft) O 90 ° 0 min 0,000 mm 0,0 UV-I 37 W/m² 17,2 °C 20,2 °C 3,2 km/h (1 Bft)
27.06.2017 17:11 20,1 °C 20,2 °C 83 % 1004,7 hPa 0,0 mm 1,6 km/h (1 Bft) O-SO 112 ° 0 min 0,000 mm 0,0 UV-I 40 W/m² 17,1 °C 20,1 °C 3,2 km/h (1 Bft)
27.06.2017 17:13 19,9 °C 20,2 °C 86 % 1004,7 hPa 0,2 mm 1,4 km/h (1 Bft) O-SO 105 ° 0 min 0,000 mm 0,0 UV-I 49 W/m² 17,5 °C 19,9 °C 3,2 km/h (1 Bft)
27.06.2017 17:14 19,8 °C 19,9 °C 86 % 1004,7 hPa 0,0 mm 0,6 km/h (0 Bft) O-SO 105 ° 0 min 0,000 mm 0,0 UV-I 60 W/m² 17,4 °C 19,8 °C 1,6 km/h (1 Bft)
27.06.2017 17:15 19,7 °C 19,8 °C 86 % 1004,7 hPa 0,2 mm 0,8 km/h (0 Bft) O-SO 105 ° 0 min 0,000 mm 0,5 UV-I 69 W/m² 17,3 °C 19,7 °C 1,6 km/h (1 Bft)
27.06.2017 17:16 19,7 °C 19,7 °C 86 % 1004,7 hPa 0,0 mm 1,6 km/h (1 Bft) O-SO 105 ° 0 min 0,000 mm 0,7 UV-I 77 W/m² 17,3 °C 19,7 °C 3,2 km/h (1 Bft)
27.06.2017 17:17 19,7 °C 19,7 °C 86 % 1004,6 hPa 0,0 mm 2,9 km/h (1 Bft) SO 141 ° 0 min 0,000 mm 0,7 UV-I 88 W/m² 17,3 °C 19,7 °C 4,8 km/h (1 Bft)
27.06.2017 17:18 19,7 °C 19,7 °C 86 % 1004,6 hPa 0,2 mm 3,8 km/h (1 Bft) S-SO 168 ° 0 min 0,000 mm 0,8 UV-I 97 W/m² 17,3 °C 19,7 °C 6,4 km/h (2 Bft)
27.06.2017 17:19 19,7 °C 19,7 °C 87 % 1004,6 hPa 0,0 mm 4,1 km/h (1 Bft) S-SO 158 ° 0 min 0,000 mm 0,9 UV-I 107 W/m² 17,5 °C 19,7 °C 8,0 km/h (2 Bft)
27.06.2017 17:20 19,6 °C 19,7 °C 87 % 1004,6 hPa 0,0 mm 2,9 km/h (1 Bft) S-SO 158 ° 0 min 0,000 mm 1,0 UV-I 125 W/m² 17,4 °C 19,6 °C 4,8 km/h (1 Bft)
27.06.2017 17:21 19,5 °C 19,6 °C 87 % 1004,5 hPa 0,0 mm 3,6 km/h (1 Bft) S-SO 159 ° 0 min 0,000 mm 1,1 UV-I 132 W/m² 17,3 °C 19,5 °C 8,0 km/h (2 Bft)
27.06.2017 17:22 19,4 °C 19,5 °C 88 % 1004,5 hPa 0,0 mm 3,2 km/h (1 Bft) S-SO 159 ° 0 min 0,000 mm 1,2 UV-I 139 W/m² 17,4 °C 19,4 °C 6,4 km/h (2 Bft)
27.06.2017 17:23 19,4 °C 19,4 °C 88 % 1004,5 hPa 0,0 mm 2,4 km/h (1 Bft) S-SO 159 ° 0 min 0,000 mm 1,3 UV-I 160 W/m² 17,4 °C 19,4 °C 3,2 km/h (1 Bft)
27.06.2017 17:24 19,4 °C 19,4 °C 90 % 1004,5 hPa 0,0 mm 2,0 km/h (1 Bft) S-SO 159 ° 0 min 0,000 mm 1,3 UV-I 162 W/m² 17,7 °C 19,4 °C 3,2 km/h (1 Bft)
27.06.2017 17:25 19,6 °C 19,6 °C 89 % 1004,4 hPa 0,0 mm 0,2 km/h (0 Bft) S-SO 159 ° 0 min 0,000 mm 1,3 UV-I 169 W/m² 17,7 °C 19,6 °C 1,6 km/h (1 Bft)
27.06.2017 17:26 19,6 °C 19,6 °C 89 % 1004,4 hPa 0,2 mm 2,0 km/h (1 Bft) S-SO 159 ° 0 min 0,000 mm 1,4 UV-I 188 W/m² 17,7 °C 19,6 °C 6,4 km/h (2 Bft)
27.06.2017 17:27 19,7 °C 19,7 °C 89 % 1004,3 hPa 0,0 mm 1,7 km/h (1 Bft) S-SO 159 ° 0 min 0,000 mm 1,5 UV-I 190 W/m² 17,8 °C 19,7 °C 3,2 km/h (1 Bft)
27.06.2017 17:29 19,7 °C 19,7 °C 89 % 1004,4 hPa 0,0 mm 3,6 km/h (1 Bft) S-SO 161 ° 0 min 0,000 mm 1,4 UV-I 183 W/m² 17,8 °C 19,7 °C 8,0 km/h (2 Bft)
27.06.2017 17:30 19,7 °C 19,7 °C 89 % 1004,4 hPa 0,0 mm 5,2 km/h (1 Bft) S-SO 162 ° 0 min 0,000 mm 1,3 UV-I 176 W/m² 17,8 °C 19,7 °C 6,4 km/h (2 Bft)
27.06.2017 17:31 19,7 °C 19,7 °C 89 % 1004,4 hPa 0,0 mm 4,8 km/h (1 Bft) S-SO 162 ° 0 min 0,000 mm 1,2 UV-I 167 W/m² 17,8 °C 19,7 °C 6,4 km/h (2 Bft)
27.06.2017 17:32 19,7 °C 19,7 °C 89 % 1004,4 hPa 0,0 mm 3,6 km/h (1 Bft) S-SO 162 ° 0 min 0,000 mm 1,2 UV-I 151 W/m² 17,8 °C 19,7 °C 6,4 km/h (2 Bft)
27.06.2017 17:33 19,7 °C 19,7 °C 89 % 1004,4 hPa 0,0 mm 4,9 km/h (1 Bft) S 178 ° 0 min 0,000 mm 1,0 UV-I 142 W/m² 17,8 °C 19,7 °C 6,4 km/h (2 Bft)
27.06.2017 17:34 19,8 °C 19,8 °C 87 % 1004,4 hPa 0,0 mm 4,2 km/h (1 Bft) S 171 ° 0 min 0,000 mm 1,0 UV-I 137 W/m² 17,6 °C 19,8 °C 6,4 km/h (2 Bft)
27.06.2017 17:35 19,8 °C 19,8 °C 87 % 1004,4 hPa 0,0 mm 3,8 km/h (1 Bft) S 170 ° 0 min 0,000 mm 1,0 UV-I 135 W/m² 17,6 °C 19,8 °C 6,4 km/h (2 Bft)
27.06.2017 17:36 19,8 °C 19,8 °C 88 % 1004,5 hPa 0,0 mm 5,0 km/h (1 Bft) S 185 ° 0 min 0,000 mm 0,9 UV-I 134 W/m² 17,8 °C 19,8 °C 6,4 km/h (2 Bft)
27.06.2017 17:37 19,9 °C 19,9 °C 86 % 1004,4 hPa 0,0 mm 3,1 km/h (1 Bft) S 176 ° 0 min 0,000 mm 0,9 UV-I 134 W/m² 17,5 °C 19,9 °C 4,8 km/h (1 Bft)
27.06.2017 17:38 19,9 °C 19,9 °C 87 % 1004,4 hPa 0,0 mm 3,5 km/h (1 Bft) S-SO 153 ° 0 min 0,000 mm 0,9 UV-I 134 W/m² 17,7 °C 19,9 °C 4,8 km/h (1 Bft)
27.06.2017 17:39 19,8 °C 19,9 °C 89 % 1004,4 hPa 0,0 mm 2,3 km/h (1 Bft) S-SO 153 ° 0 min 0,000 mm 0,9 UV-I 137 W/m² 17,9 °C 19,8 °C 4,8 km/h (1 Bft)
27.06.2017 17:40 19,7 °C 19,8 °C 89 % 1004,4 hPa 0,0 mm 2,3 km/h (1 Bft) S-SO 153 ° 0 min 0,000 mm 1,0 UV-I 141 W/m² 17,8 °C 19,7 °C 3,2 km/h (1 Bft)
27.06.2017 17:41 19,7 °C 19,7 °C 89 % 1004,4 hPa 0,0 mm 2,4 km/h (1 Bft) S-SO 153 ° 0 min 0,000 mm 1,0 UV-I 146 W/m² 17,8 °C 19,7 °C 3,2 km/h (1 Bft)
27.06.2017 17:42 19,6 °C 19,7 °C 90 % 1004,4 hPa 0,0 mm 2,4 km/h (1 Bft) S-SO 153 ° 0 min 0,000 mm 1,0 UV-I 151 W/m² 17,9 °C 19,6 °C 3,2 km/h (1 Bft)
27.06.2017 17:43 19,6 °C 19,6 °C 90 % 1004,3 hPa 0,0 mm 1,5 km/h (1 Bft) S-SO 153 ° 0 min 0,000 mm 1,1 UV-I 163 W/m² 17,9 °C 19,6 °C 3,2 km/h (1 Bft)
27.06.2017 17:44 19,6 °C 19,6 °C 91 % 1004,3 hPa 0,0 mm 2,5 km/h (1 Bft) S-SO 153 ° 0 min 0,000 mm 1,2 UV-I 171 W/m² 18,1 °C 19,6 °C 4,8 km/h (1 Bft)
27.06.2017 17:45 19,6 °C 19,6 °C 90 % 1004,4 hPa 0,0 mm 1,3 km/h (1 Bft) S-SO 153 ° 0 min 0,000 mm 1,3 UV-I 174 W/m² 17,9 °C 19,6 °C 1,6 km/h (1 Bft)
27.06.2017 17:46 19,5 °C 19,6 °C 91 % 1004,4 hPa 0,0 mm 1,5 km/h (1 Bft) S-SO 153 ° 0 min 0,000 mm 1,3 UV-I 176 W/m² 18,0 °C 19,5 °C 3,2 km/h (1 Bft)
27.06.2017 17:47 19,5 °C 19,5 °C 91 % 1004,4 hPa 0,0 mm 1,3 km/h (1 Bft) S-SO 153 ° 0 min 0,000 mm 1,3 UV-I 176 W/m² 18,0 °C 19,5 °C 1,6 km/h (1 Bft)
27.06.2017 17:48 19,5 °C 19,5 °C 91 % 1004,3 hPa 0,0 mm 0,9 km/h (0 Bft) S-SO 153 ° 0 min 0,000 mm 1,3 UV-I 172 W/m² 18,0 °C 19,5 °C 1,6 km/h (1 Bft)
27.06.2017 17:49 19,5 °C 19,5 °C 91 % 1004,3 hPa 0,0 mm 0,0 km/h (0 Bft) S-SO 153 ° 0 min 0,000 mm 1,2 UV-I 158 W/m² 18,0 °C 19,5 °C 0,0 km/h (0 Bft)
27.06.2017 17:50 19,6 °C 19,6 °C 91 % 1004,3 hPa 0,0 mm 2,5 km/h (1 Bft) SO 126 ° 0 min 0,000 mm 1,2 UV-I 155 W/m² 18,1 °C 19,6 °C 4,8 km/h (1 Bft)
27.06.2017 17:51 19,7 °C 19,7 °C 92 % 1004,2 hPa 0,0 mm 1,9 km/h (1 Bft) SO 126 ° 0 min 0,000 mm 1,2 UV-I 151 W/m² 18,4 °C 19,7 °C 3,2 km/h (1 Bft)
27.06.2017 17:52 19,7 °C 19,7 °C 91 % 1004,2 hPa 0,0 mm 1,5 km/h (1 Bft) SO 126 ° 0 min 0,000 mm 1,2 UV-I 151 W/m² 18,2 °C 19,7 °C 3,2 km/h (1 Bft)
27.06.2017 17:53 19,7 °C 19,7 °C 91 % 1004,1 hPa 0,0 mm 1,4 km/h (1 Bft) SO 126 ° 0 min 0,000 mm 1,2 UV-I 153 W/m² 18,2 °C 19,7 °C 1,6 km/h (1 Bft)
27.06.2017 17:54 19,8 °C 19,8 °C 91 % 1004,1 hPa 0,0 mm 1,7 km/h (1 Bft) SO 126 ° 0 min 0,000 mm 1,2 UV-I 156 W/m² 18,3 °C 19,8 °C 3,2 km/h (1 Bft)
27.06.2017 17:55 19,7 °C 19,8 °C 91 % 1004,1 hPa 0,0 mm 2,6 km/h (1 Bft) SO 126 ° 0 min 0,000 mm 1,2 UV-I 169 W/m² 18,2 °C 19,7 °C 3,2 km/h (1 Bft)
27.06.2017 17:56 19,7 °C 19,7 °C 89 % 1004,1 hPa 0,0 mm 3,8 km/h (1 Bft) SO 130 ° 0 min 0,000 mm 1,3 UV-I 174 W/m² 17,8 °C 19,7 °C 6,4 km/h (2 Bft)
27.06.2017 17:57 19,8 °C 19,8 °C 90 % 1004,1 hPa 0,0 mm 1,8 km/h (1 Bft) SO 130 ° 0 min 0,000 mm 1,3 UV-I 181 W/m² 18,1 °C 19,8 °C 3,2 km/h (1 Bft)
27.06.2017 17:58 19,9 °C 19,9 °C 90 % 1004,1 hPa 0,0 mm 0,2 km/h (0 Bft) SO 130 ° 0 min 0,000 mm 1,3 UV-I 181 W/m² 18,2 °C 19,9 °C 1,6 km/h (1 Bft)
27.06.2017 17:59 19,9 °C 19,9 °C 91 % 1004,1 hPa 0,0 mm 0,0 km/h (0 Bft) SO 130 ° 0 min 0,000 mm 1,3 UV-I 181 W/m² 18,4 °C 19,9 °C 0,0 km/h (0 Bft)
27.06.2017 18:00 20,0 °C 20,0 °C 91 % 1004,2 hPa 0,0 mm 0,0 km/h (0 Bft) SO 130 ° 0 min 0,000 mm 1,3 UV-I 165 W/m² 18,5 °C 20,0 °C 0,0 km/h (0 Bft)
27.06.2017 18:01 20,0 °C 20,0 °C 91 % 1004,2 hPa 0,0 mm 0,0 km/h (0 Bft) SO 130 ° 0 min 0,077 mm 1,2 UV-I 137 W/m² 18,5 °C 20,0 °C 0,0 km/h (0 Bft)
27.06.2017 18:02 20,1 °C 20,1 °C 91 % 1004,2 hPa 0,0 mm 1,9 km/h (1 Bft) SW 223 ° 0 min 0,000 mm 1,1 UV-I 127 W/m² 18,6 °C 20,1 °C 3,2 km/h (1 Bft)
27.06.2017 18:03 20,1 °C 20,1 °C 90 % 1004,2 hPa 0,0 mm 1,5 km/h (1 Bft) S-SW 200 ° 0 min 0,000 mm 1,0 UV-I 120 W/m² 18,4 °C 20,1 °C 3,2 km/h (1 Bft)
27.06.2017 18:04 20,1 °C 20,1 °C 90 % 1004,2 hPa 0,0 mm 0,4 km/h (0 Bft) S-SW 200 ° 0 min 0,000 mm 0,9 UV-I 111 W/m² 18,4 °C 20,1 °C 1,6 km/h (1 Bft)
27.06.2017 18:05 20,1 °C 20,1 °C 90 % 1004,3 hPa 0,0 mm 0,0 km/h (0 Bft) S-SW 200 ° 0 min 0,000 mm 0,8 UV-I 104 W/m² 18,4 °C 20,1 °C 0,0 km/h (0 Bft)
27.06.2017 18:06 20,1 °C 20,1 °C 90 % 1004,3 hPa 0,0 mm 0,0 km/h (0 Bft) S-SW 200 ° 0 min 0,000 mm 0,7 UV-I 95 W/m² 18,4 °C 20,1 °C 0,0 km/h (0 Bft)
27.06.2017 18:07 20,0 °C 20,1 °C 90 % 1004,3 hPa 0,0 mm 0,0 km/h (0 Bft) S-SW 200 ° 0 min 0,000 mm 0,7 UV-I 77 W/m² 18,3 °C 20,0 °C 0,0 km/h (0 Bft)
27.06.2017 18:08 19,9 °C 20,0 °C 90 % 1004,3 hPa 0,0 mm 0,0 km/h (0 Bft) S-SW 200 ° 0 min 0,000 mm 0,5 UV-I 70 W/m² 18,2 °C 19,9 °C 0,0 km/h (0 Bft)
27.06.2017 18:09 19,8 °C 19,9 °C 90 % 1004,3 hPa 0,0 mm 0,0 km/h (0 Bft) S-SW 200 ° 0 min 0,000 mm 0,5 UV-I 63 W/m² 18,1 °C 19,8 °C 0,0 km/h (0 Bft)
27.06.2017 18:10 19,8 °C 19,8 °C 91 % 1004,3 hPa 0,0 mm 0,0 km/h (0 Bft) S-SW 200 ° 0 min 0,000 mm 0,0 UV-I 58 W/m² 18,3 °C 19,8 °C 0,0 km/h (0 Bft)
27.06.2017 18:11 19,8 °C 19,8 °C 91 % 1004,4 hPa 0,0 mm 0,0 km/h (0 Bft) S-SW 200 ° 0 min 0,000 mm 0,0 UV-I 56 W/m² 18,3 °C 19,8 °C 0,0 km/h (0 Bft)
27.06.2017 18:12 19,7 °C 19,8 °C 91 % 1004,3 hPa 0,0 mm 0,0 km/h (0 Bft) S-SW 200 ° 0 min 0,000 mm 0,0 UV-I 54 W/m² 18,2 °C 19,7 °C 0,0 km/h (0 Bft)
27.06.2017 18:13 19,6 °C 19,7 °C 91 % 1004,4 hPa 0,0 mm 0,0 km/h (0 Bft) S-SW 200 ° 0 min 0,000 mm 0,0 UV-I 51 W/m² 18,1 °C 19,6 °C 0,0 km/h (0 Bft)
27.06.2017 18:14 19,6 °C 19,6 °C 91 % 1004,4 hPa 0,0 mm 0,0 km/h (0 Bft) S-SW 200 ° 0 min 0,000 mm 0,0 UV-I 51 W/m² 18,1 °C 19,6 °C 0,0 km/h (0 Bft)
27.06.2017 18:15 19,6 °C 19,6 °C 91 % 1004,4 hPa 0,0 mm 0,0 km/h (0 Bft) S-SW 200 ° 0 min 0,000 mm 0,0 UV-I 51 W/m² 18,1 °C 19,6 °C 0,0 km/h (0 Bft)
27.06.2017 18:16 19,6 °C 19,6 °C 92 % 1004,5 hPa 0,0 mm 0,0 km/h (0 Bft) S-SW 200 ° 0 min 0,000 mm 0,0 UV-I 51 W/m² 18,3 °C 19,6 °C 0,0 km/h (0 Bft)
27.06.2017 18:17 19,6 °C 19,6 °C 92 % 1004,5 hPa 0,0 mm 0,0 km/h (0 Bft) S-SW 200 ° 0 min 0,000 mm 0,0 UV-I 51 W/m² 18,3 °C 19,6 °C 0,0 km/h (0 Bft)
27.06.2017 18:18 19,6 °C 19,6 °C 92 % 1004,6 hPa 0,0 mm 0,0 km/h (0 Bft) S-SW 200 ° 0 min 0,000 mm 0,0 UV-I 53 W/m² 18,3 °C 19,6 °C 0,0 km/h (0 Bft)
27.06.2017 18:19 19,6 °C 19,6 °C 92 % 1004,6 hPa 0,0 mm 0,0 km/h (0 Bft) S-SW 200 ° 0 min 0,000 mm 0,0 UV-I 58 W/m² 18,3 °C 19,6 °C 0,0 km/h (0 Bft)
27.06.2017 18:20 19,6 °C 19,6 °C 92 % 1004,6 hPa 0,0 mm 0,0 km/h (0 Bft) S-SW 200 ° 0 min 0,000 mm 0,0 UV-I 58 W/m² 18,3 °C 19,6 °C 0,0 km/h (0 Bft)
27.06.2017 18:21 19,6 °C 19,6 °C 92 % 1004,7 hPa 0,2 mm 0,0 km/h (0 Bft) S-SW 200 ° 0 min 0,000 mm 0,0 UV-I 60 W/m² 18,3 °C 19,6 °C 0,0 km/h (0 Bft)
27.06.2017 18:22 19,5 °C 19,6 °C 92 % 1004,7 hPa 0,0 mm 0,1 km/h (0 Bft) O-NO 69 ° 0 min 0,000 mm 0,0 UV-I 60 W/m² 18,2 °C 19,5 °C 1,6 km/h (1 Bft)
27.06.2017 18:23 19,4 °C 19,5 °C 92 % 1004,7 hPa 0,0 mm 2,0 km/h (1 Bft) NO 40 ° 0 min 0,000 mm 0,0 UV-I 58 W/m² 18,1 °C 19,4 °C 4,8 km/h (1 Bft)
27.06.2017 18:24 19,4 °C 19,4 °C 92 % 1004,7 hPa 0,0 mm 0,8 km/h (0 Bft) NO 49 ° 0 min 0,000 mm 0,0 UV-I 56 W/m² 18,1 °C 19,4 °C 3,2 km/h (1 Bft)
27.06.2017 18:25 19,3 °C 19,4 °C 92 % 1004,7 hPa 0,0 mm 0,7 km/h (0 Bft) NO 49 ° 0 min 0,000 mm 0,0 UV-I 54 W/m² 18,0 °C 19,3 °C 1,6 km/h (1 Bft)
27.06.2017 18:26 19,3 °C 19,3 °C 92 % 1004,6 hPa 0,2 mm 0,8 km/h (0 Bft) NO 49 ° 0 min 0,000 mm 0,0 UV-I 53 W/m² 18,0 °C 19,3 °C 1,6 km/h (1 Bft)
27.06.2017 18:27 19,2 °C 19,3 °C 92 % 1004,6 hPa 0,0 mm 2,5 km/h (1 Bft) O-NO 66 ° 0 min 0,000 mm 0,0 UV-I 53 W/m² 17,9 °C 19,2 °C 4,8 km/h (1 Bft)
27.06.2017 18:28 19,2 °C 19,2 °C 92 % 1004,6 hPa 0,0 mm 2,0 km/h (1 Bft) O-NO 67 ° 0 min 0,000 mm 0,0 UV-I 51 W/m² 17,9 °C 19,2 °C 4,8 km/h (1 Bft)
27.06.2017 18:29 19,2 °C 19,2 °C 93 % 1004,6 hPa 0,0 mm 1,5 km/h (1 Bft) NO 35 ° 0 min 0,000 mm 0,0 UV-I 51 W/m² 18,0 °C 19,2 °C 3,2 km/h (1 Bft)
27.06.2017 18:30 19,1 °C 19,2 °C 93 % 1004,6 hPa 0,0 mm 0,6 km/h (0 Bft) NO 35 ° 0 min 0,000 mm 0,0 UV-I 49 W/m² 17,9 °C 19,1 °C 1,6 km/h (1 Bft)
27.06.2017 18:31 19,1 °C 19,1 °C 92 % 1004,6 hPa 0,2 mm 0,0 km/h (0 Bft) NO 35 ° 0 min 0,000 mm 0,0 UV-I 47 W/m² 17,8 °C 19,1 °C 0,0 km/h (0 Bft)
27.06.2017 18:32 19,0 °C 19,1 °C 92 % 1004,6 hPa 0,0 mm 0,8 km/h (0 Bft) NO 35 ° 0 min 0,000 mm 0,0 UV-I 47 W/m² 17,7 °C 19,0 °C 3,2 km/h (1 Bft)
27.06.2017 18:33 18,9 °C 19,0 °C 91 % 1004,6 hPa 0,0 mm 0,1 km/h (0 Bft) NO 35 ° 0 min 0,000 mm 0,0 UV-I 47 W/m² 17,4 °C 18,9 °C 1,6 km/h (1 Bft)
27.06.2017 18:34 18,8 °C 18,9 °C 91 % 1004,6 hPa 0,0 mm 0,5 km/h (0 Bft) NO 35 ° 0 min 0,000 mm 0,0 UV-I 47 W/m² 17,3 °C 18,8 °C 1,6 km/h (1 Bft)
27.06.2017 18:35 18,8 °C 18,9 °C 91 % 1004,6 hPa 0,0 mm 0,0 km/h (0 Bft) NO 35 ° 0 min 0,000 mm 0,0 UV-I 47 W/m² 17,3 °C 18,8 °C 0,0 km/h (0 Bft)
27.06.2017 18:36 18,7 °C 18,8 °C 91 % 1004,6 hPa 0,0 mm 0,0 km/h (0 Bft) NO 35 ° 0 min 0,000 mm 0,0 UV-I 46 W/m² 17,2 °C 18,7 °C 0,0 km/h (0 Bft)
27.06.2017 18:37 18,6 °C 18,7 °C 91 % 1004,5 hPa 0,0 mm 0,0 km/h (0 Bft) NO 35 ° 0 min 0,000 mm 0,0 UV-I 44 W/m² 17,1 °C 18,6 °C 0,0 km/h (0 Bft)
27.06.2017 18:38 18,5 °C 18,6 °C 91 % 1004,5 hPa 0,0 mm 2,5 km/h (1 Bft) O-NO 69 ° 0 min 0,000 mm 0,0 UV-I 44 W/m² 17,0 °C 18,5 °C 4,8 km/h (1 Bft)
27.06.2017 18:39 18,3 °C 18,5 °C 91 % 1004,4 hPa 0,0 mm 0,5 km/h (0 Bft) O-NO 69 ° 0 min 0,000 mm 0,0 UV-I 46 W/m² 16,8 °C 18,3 °C 1,6 km/h (1 Bft)
27.06.2017 18:40 18,2 °C 18,3 °C 91 % 1004,4 hPa 0,0 mm 2,3 km/h (1 Bft) O-NO 69 ° 0 min 0,000 mm 0,0 UV-I 46 W/m² 16,7 °C 18,2 °C 3,2 km/h (1 Bft)
27.06.2017 18:41 18,2 °C 18,2 °C 91 % 1004,4 hPa 0,2 mm 4,4 km/h (1 Bft) O 98 ° 0 min 0,000 mm 0,0 UV-I 47 W/m² 16,7 °C 18,2 °C 4,8 km/h (1 Bft)
27.06.2017 18:42 18,1 °C 18,2 °C 92 % 1004,3 hPa 0,2 mm 6,4 km/h (2 Bft) O 79 ° 0 min 0,000 mm 0,0 UV-I 53 W/m² 16,8 °C 18,1 °C 11,3 km/h (2 Bft)
27.06.2017 18:43 18,0 °C 18,1 °C 92 % 1004,2 hPa 0,0 mm 2,3 km/h (1 Bft) O 79 ° 0 min 0,000 mm 0,0 UV-I 56 W/m² 16,7 °C 18,0 °C 4,8 km/h (1 Bft)
27.06.2017 18:44 17,9 °C 18,0 °C 92 % 1004,1 hPa 0,4 mm 2,7 km/h (1 Bft) NO 53 ° 0 min 0,000 mm 0,0 UV-I 60 W/m² 16,6 °C 17,9 °C 6,4 km/h (2 Bft)
27.06.2017 18:45 17,9 °C 17,9 °C 92 % 1004,1 hPa 0,2 mm 3,0 km/h (1 Bft) O-NO 67 ° 0 min 0,000 mm 0,0 UV-I 63 W/m² 16,6 °C 17,9 °C 4,8 km/h (1 Bft)
27.06.2017 18:46 17,9 °C 17,9 °C 92 % 1004,0 hPa 0,2 mm 5,8 km/h (2 Bft) O-SO 117 ° 0 min 0,000 mm 0,0 UV-I 67 W/m² 16,6 °C 17,9 °C 9,7 km/h (2 Bft)
27.06.2017 18:47 17,8 °C 17,9 °C 92 % 1004,1 hPa 0,0 mm 3,5 km/h (1 Bft) SO 132 ° 0 min 0,000 mm 0,0 UV-I 69 W/m² 16,5 °C 17,8 °C 4,8 km/h (1 Bft)
27.06.2017 18:48 17,7 °C 17,8 °C 92 % 1004,1 hPa 0,0 mm 0,9 km/h (0 Bft) O 94 ° 0 min 0,000 mm 0,0 UV-I 70 W/m² 16,4 °C 17,7 °C 3,2 km/h (1 Bft)
27.06.2017 18:49 17,7 °C 17,7 °C 92 % 1004,1 hPa 0,0 mm 1,7 km/h (1 Bft) O 94 ° 0 min 0,000 mm 0,0 UV-I 70 W/m² 16,4 °C 17,7 °C 3,2 km/h (1 Bft)
27.06.2017 18:50 17,7 °C 17,7 °C 92 % 1004,0 hPa 0,0 mm 3,0 km/h (1 Bft) NO 54 ° 0 min 0,000 mm 0,0 UV-I 72 W/m² 16,4 °C 17,7 °C 4,8 km/h (1 Bft)
27.06.2017 18:51 17,6 °C 17,7 °C 92 % 1004,0 hPa 0,0 mm 2,5 km/h (1 Bft) O-NO 71 ° 0 min 0,000 mm 0,0 UV-I 72 W/m² 16,3 °C 17,6 °C 4,8 km/h (1 Bft)
27.06.2017 18:52 17,6 °C 17,6 °C 92 % 1004,0 hPa 0,0 mm 1,4 km/h (1 Bft) O-NO 71 ° 0 min 0,000 mm 0,0 UV-I 74 W/m² 16,3 °C 17,6 °C 3,2 km/h (1 Bft)
27.06.2017 18:53 17,6 °C 17,6 °C 93 % 1004,1 hPa 0,2 mm 0,0 km/h (0 Bft) O-NO 71 ° 0 min 0,000 mm 0,0 UV-I 74 W/m² 16,5 °C 17,6 °C 0,0 km/h (0 Bft)
27.06.2017 18:54 17,6 °C 17,6 °C 93 % 1004,1 hPa 0,0 mm 0,0 km/h (0 Bft) O-NO 71 ° 0 min 0,000 mm 0,0 UV-I 74 W/m² 16,5 °C 17,6 °C 0,0 km/h (0 Bft)
27.06.2017 18:55 17,5 °C 17,6 °C 93 % 1004,1 hPa 0,0 mm 0,9 km/h (0 Bft) O-NO 71 ° 0 min 0,000 mm 0,0 UV-I 74 W/m² 16,4 °C 17,5 °C 3,2 km/h (1 Bft)
27.06.2017 18:56 17,6 °C 17,6 °C 93 % 1004,1 hPa 0,0 mm 1,6 km/h (1 Bft) O-NO 71 ° 0 min 0,000 mm 0,0 UV-I 72 W/m² 16,5 °C 17,6 °C 3,2 km/h (1 Bft)
27.06.2017 18:57 17,6 °C 17,6 °C 93 % 1004,1 hPa 0,0 mm 2,2 km/h (1 Bft) O-NO 71 ° 0 min 0,000 mm 0,0 UV-I 70 W/m² 16,5 °C 17,6 °C 4,8 km/h (1 Bft)
27.06.2017 18:58 17,6 °C 17,6 °C 93 % 1004,0 hPa 0,0 mm 3,6 km/h (1 Bft) O-NO 76 ° 0 min 0,000 mm 0,0 UV-I 69 W/m² 16,5 °C 17,6 °C 6,4 km/h (2 Bft)
27.06.2017 18:59 17,6 °C 17,6 °C 93 % 1003,9 hPa 0,0 mm 2,1 km/h (1 Bft) O-NO 76 ° 0 min 0,000 mm 0,0 UV-I 67 W/m² 16,5 °C 17,6 °C 4,8 km/h (1 Bft)
27.06.2017 19:00 17,6 °C 17,6 °C 93 % 1003,9 hPa 0,0 mm 0,8 km/h (0 Bft) O-NO 76 ° 0 min 0,050 mm 0,0 UV-I 65 W/m² 16,5 °C 17,6 °C 1,6 km/h (1 Bft)
27.06.2017 19:01 17,6 °C 17,6 °C 93 % 1003,9 hPa 0,0 mm 0,0 km/h (0 Bft) O-NO 76 ° 0 min 0,000 mm 0,0 UV-I 65 W/m² 16,5 °C 17,6 °C 0,0 km/h (0 Bft)
27.06.2017 19:02 17,6 °C 17,6 °C 93 % 1003,9 hPa 0,0 mm 0,1 km/h (0 Bft) O-NO 76 ° 0 min 0,000 mm 0,0 UV-I 63 W/m² 16,5 °C 17,6 °C 1,6 km/h (1 Bft)
27.06.2017 19:03 17,6 °C 17,6 °C 93 % 1003,9 hPa 0,0 mm 0,4 km/h (0 Bft) O-NO 76 ° 0 min 0,000 mm 0,0 UV-I 63 W/m² 16,5 °C 17,6 °C 1,6 km/h (1 Bft)
27.06.2017 19:04 17,6 °C 17,6 °C 93 % 1003,9 hPa 0,0 mm 0,1 km/h (0 Bft) O-NO 76 ° 0 min 0,000 mm 0,0 UV-I 63 W/m² 16,5 °C 17,6 °C 1,6 km/h (1 Bft)
27.06.2017 19:05 17,6 °C 17,6 °C 93 % 1003,9 hPa 0,0 mm 0,0 km/h (0 Bft) O-NO 76 ° 0 min 0,000 mm 0,0 UV-I 65 W/m² 16,5 °C 17,6 °C 0,0 km/h (0 Bft)
27.06.2017 19:06 17,6 °C 17,6 °C 93 % 1004,0 hPa 0,0 mm 0,0 km/h (0 Bft) O-NO 76 ° 0 min 0,000 mm 0,0 UV-I 65 W/m² 16,5 °C 17,6 °C 0,0 km/h (0 Bft)
27.06.2017 19:07 17,6 °C 17,6 °C 94 % 1004,0 hPa 0,0 mm 0,0 km/h (0 Bft) O-NO 76 ° 0 min 0,000 mm 0,0 UV-I 65 W/m² 16,6 °C 17,6 °C 0,0 km/h (0 Bft)
27.06.2017 19:08 17,6 °C 17,6 °C 93 % 1004,0 hPa 0,0 mm 0,0 km/h (0 Bft) O-NO 76 ° 0 min 0,000 mm 0,0 UV-I 69 W/m² 16,5 °C 17,6 °C 0,0 km/h (0 Bft)
27.06.2017 19:09 17,6 °C 17,6 °C 93 % 1003,9 hPa 0,0 mm 0,1 km/h (0 Bft) O-NO 76 ° 0 min 0,000 mm 0,0 UV-I 69 W/m² 16,5 °C 17,6 °C 1,6 km/h (1 Bft)
27.06.2017 19:10 17,6 °C 17,6 °C 93 % 1004,0 hPa 0,0 mm 0,0 km/h (0 Bft) O-NO 76 ° 0 min 0,000 mm 0,0 UV-I 69 W/m² 16,5 °C 17,6 °C 0,0 km/h (0 Bft)
27.06.2017 19:11 17,6 °C 17,6 °C 93 % 1004,0 hPa 0,0 mm 0,0 km/h (0 Bft) O-NO 76 ° 0 min 0,000 mm 0,0 UV-I 56 W/m² 16,5 °C 17,6 °C 0,0 km/h (0 Bft)
27.06.2017 19:12 17,6 °C 17,6 °C 93 % 1004,0 hPa 0,0 mm 0,0 km/h (0 Bft) O-NO 76 ° 0 min 0,000 mm 0,0 UV-I 56 W/m² 16,5 °C 17,6 °C 0,0 km/h (0 Bft)
27.06.2017 19:13 17,6 °C 17,6 °C 93 % 1004,0 hPa 0,0 mm 0,0 km/h (0 Bft) O-NO 76 ° 0 min 0,000 mm 0,0 UV-I 58 W/m² 16,5 °C 17,6 °C 0,0 km/h (0 Bft)
27.06.2017 19:14 17,6 °C 17,7 °C 93 % 1004,0 hPa 0,0 mm 0,0 km/h (0 Bft) O-NO 76 ° 0 min 0,000 mm 0,0 UV-I 62 W/m² 16,5 °C 17,6 °C 0,0 km/h (0 Bft)
27.06.2017 19:15 17,7 °C 17,7 °C 93 % 1004,0 hPa 0,0 mm 0,2 km/h (0 Bft) O-NO 76 ° 0 min 0,000 mm 0,0 UV-I 65 W/m² 16,6 °C 17,7 °C 1,6 km/h (1 Bft)
27.06.2017 19:16 17,7 °C 17,7 °C 93 % 1004,0 hPa 0,0 mm 0,0 km/h (0 Bft) O-NO 76 ° 0 min 0,000 mm 0,0 UV-I 69 W/m² 16,6 °C 17,7 °C 0,0 km/h (0 Bft)
27.06.2017 19:17 17,7 °C 17,7 °C 93 % 1003,9 hPa 0,0 mm 0,0 km/h (0 Bft) O-NO 76 ° 0 min 0,000 mm 0,0 UV-I 70 W/m² 16,6 °C 17,7 °C 0,0 km/h (0 Bft)
27.06.2017 19:18 17,7 °C 17,7 °C 93 % 1003,9 hPa 0,0 mm 0,9 km/h (0 Bft) S 171 ° 0 min 0,000 mm 0,0 UV-I 70 W/m² 16,6 °C 17,7 °C 3,2 km/h (1 Bft)
27.06.2017 19:19 17,8 °C 17,8 °C 93 % 1003,9 hPa 0,0 mm 0,5 km/h (0 Bft) S 171 ° 0 min 0,000 mm 0,0 UV-I 67 W/m² 16,7 °C 17,8 °C 3,2 km/h (1 Bft)
27.06.2017 19:20 17,8 °C 17,8 °C 94 % 1003,9 hPa 0,0 mm 0,0 km/h (0 Bft) S 171 ° 0 min 0,000 mm 0,0 UV-I 63 W/m² 16,8 °C 17,8 °C 0,0 km/h (0 Bft)
27.06.2017 19:21 17,8 °C 17,8 °C 94 % 1003,9 hPa 0,0 mm 0,6 km/h (0 Bft) S 171 ° 0 min 0,000 mm 0,0 UV-I 60 W/m² 16,8 °C 17,8 °C 1,6 km/h (1 Bft)
27.06.2017 19:22 17,9 °C 17,9 °C 94 % 1004,0 hPa 0,0 mm 0,3 km/h (0 Bft) S 171 ° 0 min 0,000 mm 0,0 UV-I 58 W/m² 16,9 °C 17,9 °C 1,6 km/h (1 Bft)
27.06.2017 19:23 18,1 °C 18,1 °C 94 % 1004,0 hPa 0,0 mm 1,6 km/h (1 Bft) W 261 ° 0 min 0,000 mm 0,0 UV-I 53 W/m² 17,1 °C 18,1 °C 6,4 km/h (2 Bft)
27.06.2017 19:24 18,1 °C 18,1 °C 94 % 1004,0 hPa 0,0 mm 2,1 km/h (1 Bft) W-SW 244 ° 0 min 0,000 mm 0,0 UV-I 54 W/m² 17,1 °C 18,1 °C 9,7 km/h (2 Bft)
27.06.2017 19:25 18,2 °C 18,2 °C 94 % 1004,0 hPa 0,0 mm 1,8 km/h (1 Bft) W 262 ° 0 min 0,000 mm 0,0 UV-I 56 W/m² 17,2 °C 18,2 °C 3,2 km/h (1 Bft)
27.06.2017 19:26 18,2 °C 18,2 °C 94 % 1004,0 hPa 0,0 mm 0,9 km/h (0 Bft) W-SW 239 ° 0 min 0,000 mm 0,0 UV-I 104 W/m² 17,2 °C 18,2 °C 3,2 km/h (1 Bft)
27.06.2017 19:27 18,2 °C 18,2 °C 94 % 1003,9 hPa 0,0 mm 0,0 km/h (0 Bft) W-SW 239 ° 0 min 0,000 mm 0,0 UV-I 104 W/m² 17,2 °C 18,2 °C 0,0 km/h (0 Bft)
27.06.2017 19:28 18,2 °C 18,2 °C 94 % 1004,0 hPa 0,0 mm 0,0 km/h (0 Bft) N 0 ° 0 min 0,000 mm 0,0 UV-I 70 W/m² 17,2 °C 18,2 °C 0,0 km/h (0 Bft)
27.06.2017 19:29 18,2 °C 18,2 °C 93 % 1003,9 hPa 0,0 mm 0,0 km/h (0 Bft) N 0 ° 0 min 0,000 mm 0,0 UV-I 107 W/m² 17,0 °C 18,2 °C 0,0 km/h (0 Bft)
27.06.2017 19:30 18,1 °C 18,2 °C 93 % 1003,9 hPa 0,0 mm 0,0 km/h (0 Bft) N 0 ° 0 min 0,000 mm 0,0 UV-I 76 W/m² 16,9 °C 18,1 °C 0,0 km/h (0 Bft)
27.06.2017 19:31 18,2 °C 18,2 °C 93 % 1003,9 hPa 0,0 mm 0,0 km/h (0 Bft) N 0 ° 0 min 0,000 mm 0,0 UV-I 76 W/m² 17,0 °C 18,2 °C 0,0 km/h (0 Bft)
27.06.2017 19:32 18,2 °C 18,2 °C 94 % 1003,9 hPa 0,0 mm 0,0 km/h (0 Bft) N 0 ° 0 min 0,000 mm 0,0 UV-I 77 W/m² 17,2 °C 18,2 °C 0,0 km/h (0 Bft)
27.06.2017 19:33 18,2 °C 18,2 °C 94 % 1003,8 hPa 0,0 mm 0,0 km/h (0 Bft) N 0 ° 0 min 0,000 mm 0,0 UV-I 77 W/m² 17,2 °C 18,2 °C 0,0 km/h (0 Bft)
27.06.2017 19:34 18,3 °C 18,3 °C 93 % 1003,8 hPa 0,0 mm 0,0 km/h (0 Bft) N 0 ° 0 min 0,000 mm 0,0 UV-I 77 W/m² 17,1 °C 18,3 °C 0,0 km/h (0 Bft)
27.06.2017 19:35 18,2 °C 18,3 °C 93 % 1003,7 hPa 0,0 mm 0,0 km/h (0 Bft) N 0 ° 0 min 0,000 mm 0,0 UV-I 79 W/m² 17,0 °C 18,2 °C 0,0 km/h (0 Bft)
27.06.2017 19:36 18,3 °C 18,3 °C 93 % 1003,7 hPa 0,0 mm 1,6 km/h (1 Bft) O 90 ° 0 min 0,000 mm 0,0 UV-I 77 W/m² 17,1 °C 18,3 °C 6,4 km/h (2 Bft)
27.06.2017 19:37 18,3 °C 18,3 °C 93 % 1003,7 hPa 0,0 mm 3,2 km/h (1 Bft) O-NO 67 ° 0 min 0,000 mm 0,0 UV-I 88 W/m² 17,1 °C 18,3 °C 4,8 km/h (1 Bft)
27.06.2017 19:39 18,4 °C 18,4 °C 93 % 1003,8 hPa 0,0 mm 0,5 km/h (0 Bft) N-NW 342 ° 0 min 0,000 mm 0,0 UV-I 79 W/m² 17,2 °C 18,4 °C 3,2 km/h (1 Bft)
27.06.2017 19:40 18,4 °C 18,4 °C 93 % 1003,8 hPa 0,0 mm 2,0 km/h (1 Bft) NW 312 ° 0 min 0,000 mm 0,0 UV-I 81 W/m² 17,2 °C 18,4 °C 4,8 km/h (1 Bft)
27.06.2017 19:41 18,5 °C 18,5 °C 93 % 1003,8 hPa 0,2 mm 1,7 km/h (1 Bft) N-NW 332 ° 0 min 0,000 mm 0,0 UV-I 95 W/m² 17,3 °C 18,5 °C 3,2 km/h (1 Bft)
27.06.2017 19:42 18,6 °C 18,6 °C 93 % 1003,7 hPa 0,0 mm 2,0 km/h (1 Bft) N-NW 332 ° 0 min 0,000 mm 0,0 UV-I 118 W/m² 17,4 °C 18,6 °C 3,2 km/h (1 Bft)
27.06.2017 19:43 18,6 °C 18,6 °C 93 % 1003,7 hPa 0,0 mm 3,7 km/h (1 Bft) SW 224 ° 0 min 0,000 mm 0,0 UV-I 91 W/m² 17,4 °C 18,6 °C 6,4 km/h (2 Bft)
27.06.2017 19:44 18,5 °C 18,6 °C 93 % 1003,7 hPa 0,0 mm 1,9 km/h (1 Bft) SW 224 ° 0 min 0,000 mm 0,0 UV-I 77 W/m² 17,3 °C 18,5 °C 3,2 km/h (1 Bft)
27.06.2017 19:45 18,6 °C 18,6 °C 93 % 1003,7 hPa 0,0 mm 1,4 km/h (1 Bft) SW 233 ° 0 min 0,000 mm 0,0 UV-I 74 W/m² 17,4 °C 18,6 °C 3,2 km/h (1 Bft)
27.06.2017 19:46 18,6 °C 18,6 °C 93 % 1003,7 hPa 0,2 mm 0,1 km/h (0 Bft) SW 233 ° 0 min 0,000 mm 0,0 UV-I 69 W/m² 17,4 °C 18,6 °C 1,6 km/h (1 Bft)
27.06.2017 19:47 18,5 °C 18,6 °C 93 % 1003,7 hPa 0,0 mm 0,3 km/h (0 Bft) SW 232 ° 0 min 0,000 mm 0,0 UV-I 65 W/m² 17,3 °C 18,5 °C 1,6 km/h (1 Bft)
27.06.2017 19:49 18,5 °C 18,6 °C 93 % 1003,7 hPa 0,0 mm 0,1 km/h (0 Bft) SW 233 ° 0 min 0,000 mm 0,0 UV-I 58 W/m² 17,3 °C 18,5 °C 1,6 km/h (1 Bft)
27.06.2017 19:50 18,6 °C 18,6 °C 93 % 1003,7 hPa 0,0 mm 0,9 km/h (0 Bft) SW 233 ° 0 min 0,000 mm 0,0 UV-I 54 W/m² 17,4 °C 18,6 °C 3,2 km/h (1 Bft)
27.06.2017 19:51 18,5 °C 18,6 °C 93 % 1003,7 hPa 0,0 mm 0,3 km/h (0 Bft) SW 233 ° 0 min 0,000 mm 0,0 UV-I 53 W/m² 17,3 °C 18,5 °C 1,6 km/h (1 Bft)
27.06.2017 19:52 18,5 °C 18,5 °C 93 % 1003,7 hPa 0,0 mm 0,0 km/h (0 Bft) SW 233 ° 0 min 0,000 mm 0,0 UV-I 53 W/m² 17,3 °C 18,5 °C 0,0 km/h (0 Bft)
27.06.2017 19:54 18,5 °C 18,6 °C 93 % 1003,7 hPa 0,0 mm 0,9 km/h (0 Bft) NW 322 ° 0 min 0,000 mm 0,0 UV-I 58 W/m² 17,3 °C 18,5 °C 3,2 km/h (1 Bft)
27.06.2017 19:55 18,5 °C 18,5 °C 93 % 1003,7 hPa 0,0 mm 0,0 km/h (0 Bft) NW 322 ° 0 min 0,000 mm 0,0 UV-I 60 W/m² 17,3 °C 18,5 °C 0,0 km/h (0 Bft)
27.06.2017 19:56 18,5 °C 18,5 °C 93 % 1003,7 hPa 0,0 mm 0,5 km/h (0 Bft) NW 322 ° 0 min 0,000 mm 0,0 UV-I 63 W/m² 17,3 °C 18,5 °C 1,6 km/h (1 Bft)
27.06.2017 19:57 18,4 °C 18,5 °C 93 % 1003,7 hPa 0,0 mm 0,1 km/h (0 Bft) NW 321 ° 0 min 0,000 mm 0,0 UV-I 69 W/m² 17,2 °C 18,4 °C 1,6 km/h (1 Bft)
27.06.2017 19:59 18,3 °C 18,4 °C 92 % 1003,6 hPa 0,0 mm 2,6 km/h (1 Bft) W-SW 256 ° 0 min 0,000 mm 0,0 UV-I 113 W/m² 17,0 °C 18,3 °C 4,8 km/h (1 Bft)
27.06.2017 20:00 18,4 °C 18,4 °C 92 % 1003,6 hPa 0,0 mm 1,4 km/h (1 Bft) W-NW 290 ° 0 min 0,051 mm 0,0 UV-I 105 W/m² 17,1 °C 18,4 °C 3,2 km/h (1 Bft)
27.06.2017 20:01 18,4 °C 18,4 °C 92 % 1003,6 hPa 0,0 mm 2,3 km/h (1 Bft) W 271 ° 0 min 0,000 mm 0,0 UV-I 123 W/m² 17,1 °C 18,4 °C 3,2 km/h (1 Bft)
27.06.2017 20:03 18,4 °C 18,4 °C 92 % 1003,6 hPa 0,0 mm 1,9 km/h (1 Bft) W 273 ° 0 min 0,000 mm 0,0 UV-I 130 W/m² 17,1 °C 18,4 °C 3,2 km/h (1 Bft)
27.06.2017 20:04 18,5 °C 18,5 °C 92 % 1003,6 hPa 0,0 mm 0,8 km/h (0 Bft) W 273 ° 0 min 0,000 mm 0,0 UV-I 127 W/m² 17,2 °C 18,5 °C 1,6 km/h (1 Bft)
27.06.2017 20:05 18,5 °C 18,5 °C 92 % 1003,6 hPa 0,0 mm 0,0 km/h (0 Bft) W 273 ° 0 min 0,000 mm 0,0 UV-I 125 W/m² 17,2 °C 18,5 °C 0,0 km/h (0 Bft)
27.06.2017 20:06 18,6 °C 18,6 °C 93 % 1003,6 hPa 0,0 mm 0,0 km/h (0 Bft) W 273 ° 0 min 0,000 mm 0,0 UV-I 120 W/m² 17,4 °C 18,6 °C 0,0 km/h (0 Bft)
27.06.2017 20:07 18,6 °C 18,6 °C 92 % 1003,6 hPa 0,0 mm 0,3 km/h (0 Bft) W 273 ° 0 min 0,000 mm 0,0 UV-I 116 W/m² 17,3 °C 18,6 °C 1,6 km/h (1 Bft)
27.06.2017 20:08 18,6 °C 18,6 °C 93 % 1003,5 hPa 0,0 mm 0,2 km/h (0 Bft) W 273 ° 0 min 0,000 mm 0,0 UV-I 97 W/m² 17,4 °C 18,6 °C 1,6 km/h (1 Bft)
27.06.2017 20:09 18,5 °C 18,6 °C 92 % 1003,4 hPa 0,0 mm 0,0 km/h (0 Bft) W 273 ° 0 min 0,000 mm 0,0 UV-I 76 W/m² 17,2 °C 18,5 °C 0,0 km/h (0 Bft)
27.06.2017 20:10 18,4 °C 18,5 °C 93 % 1003,4 hPa 0,0 mm 0,0 km/h (0 Bft) W 273 ° 0 min 0,000 mm 0,0 UV-I 72 W/m² 17,2 °C 18,4 °C 0,0 km/h (0 Bft)
27.06.2017 20:11 18,4 °C 18,4 °C 93 % 1003,4 hPa 0,0 mm 0,0 km/h (0 Bft) W 273 ° 0 min 0,000 mm 0,0 UV-I 86 W/m² 17,2 °C 18,4 °C 0,0 km/h (0 Bft)
27.06.2017 20:12 18,3 °C 18,4 °C 92 % 1003,4 hPa 0,0 mm 0,0 km/h (0 Bft) W 273 ° 0 min 0,000 mm 0,0 UV-I 77 W/m² 17,0 °C 18,3 °C 0,0 km/h (0 Bft)
27.06.2017 20:13 18,3 °C 18,3 °C 93 % 1003,5 hPa 0,0 mm 0,3 km/h (0 Bft) W 273 ° 0 min 0,000 mm 0,0 UV-I 63 W/m² 17,1 °C 18,3 °C 1,6 km/h (1 Bft)
27.06.2017 20:14 18,2 °C 18,3 °C 93 % 1003,4 hPa 0,0 mm 0,0 km/h (0 Bft) W 273 ° 0 min 0,000 mm 0,0 UV-I 63 W/m² 17,0 °C 18,2 °C 0,0 km/h (0 Bft)
27.06.2017 20:15 18,2 °C 18,2 °C 93 % 1003,4 hPa 0,0 mm 0,0 km/h (0 Bft) W 273 ° 0 min 0,000 mm 0,0 UV-I 53 W/m² 17,0 °C 18,2 °C 0,0 km/h (0 Bft)
27.06.2017 20:16 18,2 °C 18,2 °C 93 % 1003,4 hPa 0,0 mm 0,0 km/h (0 Bft) W 273 ° 0 min 0,000 mm 0,0 UV-I 49 W/m² 17,0 °C 18,2 °C 0,0 km/h (0 Bft)
27.06.2017 20:17 18,1 °C 18,2 °C 93 % 1003,4 hPa 0,0 mm 0,5 km/h (0 Bft) W 270 ° 0 min 0,000 mm 0,0 UV-I 40 W/m² 16,9 °C 18,1 °C 1,6 km/h (1 Bft)
27.06.2017 20:18 18,1 °C 18,1 °C 93 % 1003,4 hPa 0,0 mm 0,1 km/h (0 Bft) W 275 ° 0 min 0,000 mm 0,0 UV-I 40 W/m² 16,9 °C 18,1 °C 1,6 km/h (1 Bft)
27.06.2017 20:19 18,1 °C 18,1 °C 93 % 1003,4 hPa 0,0 mm 0,0 km/h (0 Bft) W 272 ° 0 min 0,000 mm 0,0 UV-I 53 W/m² 16,9 °C 18,1 °C 0,0 km/h (0 Bft)
27.06.2017 20:20 18,0 °C 18,1 °C 93 % 1003,3 hPa 0,0 mm 0,0 km/h (0 Bft) W 272 ° 0 min 0,000 mm 0,0 UV-I 44 W/m² 16,8 °C 18,0 °C 0,0 km/h (0 Bft)
27.06.2017 20:21 17,9 °C 18,0 °C 93 % 1003,3 hPa 0,0 mm 0,0 km/h (0 Bft) W 272 ° 0 min 0,000 mm 0,0 UV-I 40 W/m² 16,8 °C 17,9 °C 0,0 km/h (0 Bft)
27.06.2017 20:22 17,9 °C 17,9 °C 93 % 1003,3 hPa 0,0 mm 0,0 km/h (0 Bft) W 272 ° 0 min 0,000 mm 0,0 UV-I 54 W/m² 16,8 °C 17,9 °C 0,0 km/h (0 Bft)
27.06.2017 20:23 17,9 °C 17,9 °C 93 % 1003,3 hPa 0,0 mm 0,0 km/h (0 Bft) W 272 ° 0 min 0,000 mm 0,0 UV-I 58 W/m² 16,8 °C 17,9 °C 0,0 km/h (0 Bft)
27.06.2017 20:24 17,8 °C 17,9 °C 93 % 1003,3 hPa 0,0 mm 0,0 km/h (0 Bft) W 272 ° 0 min 0,000 mm 0,0 UV-I 49 W/m² 16,7 °C 17,8 °C 0,0 km/h (0 Bft)
27.06.2017 20:25 17,8 °C 17,8 °C 93 % 1003,3 hPa 0,0 mm 0,0 km/h (0 Bft) W 272 ° 0 min 0,000 mm 0,0 UV-I 44 W/m² 16,7 °C 17,8 °C 0,0 km/h (0 Bft)
27.06.2017 20:26 17,8 °C 17,8 °C 94 % 1003,3 hPa 0,0 mm 0,0 km/h (0 Bft) W 272 ° 0 min 0,000 mm 0,0 UV-I 39 W/m² 16,8 °C 17,8 °C 0,0 km/h (0 Bft)
27.06.2017 20:27 17,8 °C 17,8 °C 93 % 1003,3 hPa 0,0 mm 0,0 km/h (0 Bft) W 272 ° 0 min 0,000 mm 0,0 UV-I 49 W/m² 16,7 °C 17,8 °C 0,0 km/h (0 Bft)
27.06.2017 20:28 17,8 °C 17,8 °C 93 % 1003,3 hPa 0,0 mm 0,5 km/h (0 Bft) W 272 ° 0 min 0,000 mm 0,0 UV-I 47 W/m² 16,7 °C 17,8 °C 1,6 km/h (1 Bft)
27.06.2017 20:29 17,8 °C 17,8 °C 93 % 1003,3 hPa 0,0 mm 0,4 km/h (0 Bft) W 272 ° 0 min 0,000 mm 0,0 UV-I 46 W/m² 16,7 °C 17,8 °C 1,6 km/h (1 Bft)
27.06.2017 20:30 17,7 °C 17,8 °C 94 % 1003,3 hPa 0,0 mm 0,0 km/h (0 Bft) W 272 ° 0 min 0,000 mm 0,0 UV-I 44 W/m² 16,7 °C 17,7 °C 0,0 km/h (0 Bft)
27.06.2017 20:31 17,7 °C 17,7 °C 93 % 1003,3 hPa 0,0 mm 0,0 km/h (0 Bft) W 272 ° 0 min 0,000 mm 0,0 UV-I 42 W/m² 16,6 °C 17,7 °C 0,0 km/h (0 Bft)
27.06.2017 20:32 17,7 °C 17,7 °C 94 % 1003,3 hPa 0,0 mm 0,7 km/h (0 Bft) W-NW 296 ° 0 min 0,000 mm 0,0 UV-I 35 W/m² 16,7 °C 17,7 °C 3,2 km/h (1 Bft)
27.06.2017 20:33 17,7 °C 17,7 °C 94 % 1003,3 hPa 0,0 mm 0,4 km/h (0 Bft) W-NW 296 ° 0 min 0,000 mm 0,0 UV-I 28 W/m² 16,7 °C 17,7 °C 1,6 km/h (1 Bft)
27.06.2017 20:34 17,7 °C 17,7 °C 93 % 1003,3 hPa 0,0 mm 1,3 km/h (1 Bft) W-NW 296 ° 0 min 0,000 mm 0,0 UV-I 28 W/m² 16,6 °C 17,7 °C 1,6 km/h (1 Bft)
27.06.2017 20:35 17,7 °C 17,7 °C 93 % 1003,3 hPa 0,0 mm 0,0 km/h (0 Bft) W-NW 296 ° 0 min 0,000 mm 0,0 UV-I 25 W/m² 16,6 °C 17,7 °C 0,0 km/h (0 Bft)
27.06.2017 20:36 17,6 °C 17,7 °C 93 % 1003,2 hPa 0,0 mm 0,0 km/h (0 Bft) W-NW 296 ° 0 min 0,000 mm 0,0 UV-I 21 W/m² 16,5 °C 17,6 °C 0,0 km/h (0 Bft)
27.06.2017 20:37 17,6 °C 17,6 °C 93 % 1003,2 hPa 0,0 mm 0,0 km/h (0 Bft) W-NW 296 ° 0 min 0,000 mm 0,0 UV-I 21 W/m² 16,5 °C 17,6 °C 0,0 km/h (0 Bft)
27.06.2017 20:38 17,5 °C 17,6 °C 93 % 1003,3 hPa 0,0 mm 0,0 km/h (0 Bft) W-NW 296 ° 0 min 0,000 mm 0,0 UV-I 21 W/m² 16,4 °C 17,5 °C 0,0 km/h (0 Bft)
27.06.2017 20:39 17,5 °C 17,6 °C 94 % 1003,3 hPa 0,0 mm 0,0 km/h (0 Bft) W-NW 296 ° 0 min 0,000 mm 0,0 UV-I 21 W/m² 16,5 °C 17,5 °C 0,0 km/h (0 Bft)
27.06.2017 20:40 17,4 °C 17,5 °C 94 % 1003,3 hPa 0,0 mm 0,0 km/h (0 Bft) W-NW 296 ° 0 min 0,000 mm 0,0 UV-I 21 W/m² 16,4 °C 17,4 °C 0,0 km/h (0 Bft)
27.06.2017 20:41 17,4 °C 17,4 °C 94 % 1003,3 hPa 0,0 mm 0,6 km/h (0 Bft) N-NW 340 ° 0 min 0,000 mm 0,0 UV-I 23 W/m² 16,4 °C 17,4 °C 1,6 km/h (1 Bft)
27.06.2017 20:42 17,4 °C 17,4 °C 94 % 1003,3 hPa 0,0 mm 0,2 km/h (0 Bft) N-NW 340 ° 0 min 0,000 mm 0,0 UV-I 23 W/m² 16,4 °C 17,4 °C 1,6 km/h (1 Bft)
27.06.2017 20:43 17,4 °C 17,4 °C 94 % 1003,3 hPa 0,0 mm 1,0 km/h (0 Bft) W-NW 300 ° 0 min 0,000 mm 0,0 UV-I 23 W/m² 16,4 °C 17,4 °C 3,2 km/h (1 Bft)
27.06.2017 20:44 17,4 °C 17,4 °C 94 % 1003,3 hPa 0,0 mm 0,0 km/h (0 Bft) W-NW 300 ° 0 min 0,000 mm 0,0 UV-I 23 W/m² 16,4 °C 17,4 °C 0,0 km/h (0 Bft)
27.06.2017 20:45 17,4 °C 17,4 °C 94 % 1003,3 hPa 0,0 mm 0,0 km/h (0 Bft) W-NW 300 ° 0 min 0,000 mm 0,0 UV-I 21 W/m² 16,4 °C 17,4 °C 0,0 km/h (0 Bft)
27.06.2017 20:46 17,3 °C 17,4 °C 94 % 1003,3 hPa 0,0 mm 0,0 km/h (0 Bft) W-NW 300 ° 0 min 0,000 mm 0,0 UV-I 19 W/m² 16,3 °C 17,3 °C 0,0 km/h (0 Bft)
27.06.2017 20:47 17,3 °C 17,3 °C 94 % 1003,2 hPa 0,0 mm 0,0 km/h (0 Bft) W-NW 300 ° 0 min 0,000 mm 0,0 UV-I 19 W/m² 16,3 °C 17,3 °C 0,0 km/h (0 Bft)
27.06.2017 20:48 17,3 °C 17,3 °C 94 % 1003,2 hPa 0,0 mm 0,0 km/h (0 Bft) W-NW 300 ° 0 min 0,000 mm 0,0 UV-I 18 W/m² 16,3 °C 17,3 °C 0,0 km/h (0 Bft)
27.06.2017 20:49 17,3 °C 17,3 °C 94 % 1003,2 hPa 0,0 mm 0,0 km/h (0 Bft) W-NW 300 ° 0 min 0,000 mm 0,0 UV-I 18 W/m² 16,3 °C 17,3 °C 0,0 km/h (0 Bft)
27.06.2017 20:50 17,3 °C 17,3 °C 94 % 1003,2 hPa 0,0 mm 0,0 km/h (0 Bft) W-NW 300 ° 0 min 0,000 mm 0,0 UV-I 16 W/m² 16,3 °C 17,3 °C 0,0 km/h (0 Bft)
27.06.2017 20:51 17,3 °C 17,3 °C 94 % 1003,2 hPa 0,0 mm 0,0 km/h (0 Bft) W-NW 300 ° 0 min 0,000 mm 0,0 UV-I 16 W/m² 16,3 °C 17,3 °C 0,0 km/h (0 Bft)
27.06.2017 20:52 17,3 °C 17,3 °C 94 % 1003,1 hPa 0,0 mm 0,3 km/h (0 Bft) W-NW 300 ° 0 min 0,000 mm 0,0 UV-I 16 W/m² 16,3 °C 17,3 °C 1,6 km/h (1 Bft)
27.06.2017 20:53 17,3 °C 17,3 °C 94 % 1003,1 hPa 0,0 mm 0,0 km/h (0 Bft) W-NW 300 ° 0 min 0,000 mm 0,0 UV-I 14 W/m² 16,3 °C 17,3 °C 0,0 km/h (0 Bft)
27.06.2017 20:54 17,3 °C 17,3 °C 94 % 1003,1 hPa 0,0 mm 0,0 km/h (0 Bft) W-NW 300 ° 0 min 0,000 mm 0,0 UV-I 14 W/m² 16,3 °C 17,3 °C 0,0 km/h (0 Bft)
27.06.2017 20:55 17,2 °C 17,3 °C 94 % 1003,1 hPa 0,0 mm 0,0 km/h (0 Bft) W-NW 300 ° 0 min 0,000 mm 0,0 UV-I 12 W/m² 16,2 °C 17,2 °C 0,0 km/h (0 Bft)
27.06.2017 20:56 17,2 °C 17,3 °C 94 % 1003,1 hPa 0,0 mm 0,0 km/h (0 Bft) W-NW 300 ° 0 min 0,000 mm 0,0 UV-I 12 W/m² 16,2 °C 17,2 °C 0,0 km/h (0 Bft)
27.06.2017 20:57 17,2 °C 17,2 °C 94 % 1003,1 hPa 0,0 mm 0,0 km/h (0 Bft) W-NW 300 ° 0 min 0,000 mm 0,0 UV-I 12 W/m² 16,2 °C 17,2 °C 0,0 km/h (0 Bft)
27.06.2017 20:58 17,2 °C 17,2 °C 94 % 1003,0 hPa 0,0 mm 0,0 km/h (0 Bft) W-NW 300 ° 0 min 0,000 mm 0,0 UV-I 12 W/m² 16,2 °C 17,2 °C 0,0 km/h (0 Bft)
27.06.2017 20:59 17,2 °C 17,2 °C 94 % 1003,0 hPa 0,0 mm 0,0 km/h (0 Bft) W-NW 300 ° 0 min 0,000 mm 0,0 UV-I 12 W/m² 16,2 °C 17,2 °C 0,0 km/h (0 Bft)
27.06.2017 21:00 17,2 °C 17,2 °C 94 % 1002,9 hPa 0,0 mm 0,0 km/h (0 Bft) W-NW 300 ° 0 min 0,026 mm 0,0 UV-I 12 W/m² 16,2 °C 17,2 °C 0,0 km/h (0 Bft)
27.06.2017 21:01 17,2 °C 17,2 °C 94 % 1002,9 hPa 0,0 mm 0,0 km/h (0 Bft) W-NW 300 ° 0 min 0,000 mm 0,0 UV-I 12 W/m² 16,2 °C 17,2 °C 0,0 km/h (0 Bft)
27.06.2017 21:02 17,2 °C 17,2 °C 94 % 1002,9 hPa 0,0 mm 0,0 km/h (0 Bft) W-NW 300 ° 0 min 0,000 mm 0,0 UV-I 12 W/m² 16,2 °C 17,2 °C 0,0 km/h (0 Bft)
27.06.2017 21:03 17,2 °C 17,2 °C 94 % 1002,9 hPa 0,0 mm 0,0 km/h (0 Bft) W-NW 300 ° 0 min 0,000 mm 0,0 UV-I 14 W/m² 16,2 °C 17,2 °C 0,0 km/h (0 Bft)
27.06.2017 21:04 17,2 °C 17,2 °C 94 % 1002,9 hPa 0,0 mm 0,0 km/h (0 Bft) W-NW 300 ° 0 min 0,000 mm 0,0 UV-I 16 W/m² 16,2 °C 17,2 °C 0,0 km/h (0 Bft)
27.06.2017 21:05 17,2 °C 17,2 °C 94 % 1002,9 hPa 0,0 mm 0,0 km/h (0 Bft) W-NW 300 ° 0 min 0,000 mm 0,0 UV-I 16 W/m² 16,2 °C 17,2 °C 0,0 km/h (0 Bft)
27.06.2017 21:06 17,2 °C 17,2 °C 94 % 1002,8 hPa 0,0 mm 0,0 km/h (0 Bft) W-NW 300 ° 0 min 0,000 mm 0,0 UV-I 14 W/m² 16,2 °C 17,2 °C 0,0 km/h (0 Bft)
27.06.2017 21:07 17,2 °C 17,2 °C 94 % 1002,8 hPa 0,0 mm 0,0 km/h (0 Bft) W-NW 300 ° 0 min 0,000 mm 0,0 UV-I 12 W/m² 16,2 °C 17,2 °C 0,0 km/h (0 Bft)
27.06.2017 21:08 17,1 °C 17,2 °C 94 % 1002,8 hPa 0,0 mm 0,0 km/h (0 Bft) W-NW 300 ° 0 min 0,000 mm 0,0 UV-I 11 W/m² 16,1 °C 17,1 °C 0,0 km/h (0 Bft)
27.06.2017 21:09 17,2 °C 17,2 °C 94 % 1002,8 hPa 0,0 mm 0,0 km/h (0 Bft) W-NW 300 ° 0 min 0,000 mm 0,0 UV-I 9 W/m² 16,2 °C 17,2 °C 0,0 km/h (0 Bft)
27.06.2017 21:10 17,1 °C 17,2 °C 94 % 1002,7 hPa 0,0 mm 0,0 km/h (0 Bft) W-NW 300 ° 0 min 0,000 mm 0,0 UV-I 7 W/m² 16,1 °C 17,1 °C 0,0 km/h (0 Bft)
27.06.2017 21:11 17,1 °C 17,1 °C 94 % 1002,7 hPa 0,0 mm 0,0 km/h (0 Bft) W-NW 300 ° 0 min 0,000 mm 0,0 UV-I 7 W/m² 16,1 °C 17,1 °C 0,0 km/h (0 Bft)
27.06.2017 21:12 17,1 °C 17,1 °C 94 % 1002,7 hPa 0,0 mm 0,0 km/h (0 Bft) W-NW 300 ° 0 min 0,000 mm 0,0 UV-I 7 W/m² 16,1 °C 17,1 °C 0,0 km/h (0 Bft)
27.06.2017 21:13 17,1 °C 17,1 °C 94 % 1002,6 hPa 0,0 mm 0,0 km/h (0 Bft) W-NW 300 ° 0 min 0,000 mm 0,0 UV-I 5 W/m² 16,1 °C 17,1 °C 0,0 km/h (0 Bft)
27.06.2017 21:14 17,1 °C 17,1 °C 94 % 1002,6 hPa 0,0 mm 0,0 km/h (0 Bft) W-NW 300 ° 0 min 0,000 mm 0,0 UV-I 5 W/m² 16,1 °C 17,1 °C 0,0 km/h (0 Bft)
27.06.2017 21:15 17,1 °C 17,1 °C 94 % 1002,6 hPa 0,0 mm 0,0 km/h (0 Bft) W-NW 300 ° 0 min 0,000 mm 0,0 UV-I 0 W/m² 16,1 °C 17,1 °C 0,0 km/h (0 Bft)
27.06.2017 21:16 17,0 °C 17,1 °C 94 % 1002,6 hPa 0,0 mm 0,0 km/h (0 Bft) W-NW 300 ° 0 min 0,000 mm 0,0 UV-I 0 W/m² 16,0 °C 17,0 °C 0,0 km/h (0 Bft)
27.06.2017 21:17 17,0 °C 17,0 °C 94 % 1002,6 hPa 0,0 mm 0,0 km/h (0 Bft) W-NW 300 ° 0 min 0,000 mm 0,0 UV-I 0 W/m² 16,0 °C 17,0 °C 0,0 km/h (0 Bft)
27.06.2017 21:18 17,0 °C 17,0 °C 94 % 1002,6 hPa 0,0 mm 0,0 km/h (0 Bft) W-NW 300 ° 0 min 0,000 mm 0,0 UV-I 0 W/m² 16,0 °C 17,0 °C 0,0 km/h (0 Bft)
27.06.2017 21:19 16,9 °C 17,0 °C 94 % 1002,6 hPa 0,0 mm 0,0 km/h (0 Bft) W-NW 300 ° 0 min 0,000 mm 0,0 UV-I 0 W/m² 15,9 °C 16,9 °C 0,0 km/h (0 Bft)
27.06.2017 21:20 16,9 °C 16,9 °C 94 % 1002,6 hPa 0,0 mm 0,0 km/h (0 Bft) W-NW 300 ° 0 min 0,000 mm 0,0 UV-I 0 W/m² 15,9 °C 16,9 °C 0,0 km/h (0 Bft)
27.06.2017 21:21 16,9 °C 16,9 °C 94 % 1002,6 hPa 0,0 mm 0,0 km/h (0 Bft) W-NW 300 ° 0 min 0,000 mm 0,0 UV-I 0 W/m² 15,9 °C 16,9 °C 0,0 km/h (0 Bft)
27.06.2017 21:22 16,8 °C 16,9 °C 94 % 1002,6 hPa 0,0 mm 2,8 km/h (1 Bft) N-NO 25 ° 0 min 0,000 mm 0,0 UV-I 0 W/m² 15,8 °C 16,8 °C 6,4 km/h (2 Bft)
27.06.2017 21:23 16,8 °C 16,8 °C 94 % 1002,6 hPa 0,0 mm 2,3 km/h (1 Bft) O 92 ° 0 min 0,000 mm 0,0 UV-I 0 W/m² 15,8 °C 16,8 °C 6,4 km/h (2 Bft)
27.06.2017 21:24 16,8 °C 16,8 °C 95 % 1002,6 hPa 0,0 mm 2,8 km/h (1 Bft) O 92 ° 0 min 0,000 mm 0,0 UV-I 0 W/m² 16,0 °C 16,8 °C 4,8 km/h (1 Bft)
27.06.2017 21:25 16,8 °C 16,8 °C 94 % 1002,6 hPa 0,0 mm 0,1 km/h (0 Bft) O 92 ° 0 min 0,000 mm 0,0 UV-I 0 W/m² 15,8 °C 16,8 °C 1,6 km/h (1 Bft)
27.06.2017 21:26 16,7 °C 16,8 °C 95 % 1002,7 hPa 0,0 mm 0,0 km/h (0 Bft) O 92 ° 0 min 0,000 mm 0,0 UV-I 0 W/m² 15,9 °C 16,7 °C 0,0 km/h (0 Bft)
27.06.2017 21:27 16,7 °C 16,8 °C 95 % 1002,6 hPa 0,0 mm 0,0 km/h (0 Bft) O 92 ° 0 min 0,000 mm 0,0 UV-I 0 W/m² 15,9 °C 16,7 °C 0,0 km/h (0 Bft)
27.06.2017 21:28 16,7 °C 16,7 °C 95 % 1002,6 hPa 0,0 mm 0,3 km/h (0 Bft) O 101 ° 0 min 0,000 mm 0,0 UV-I 0 W/m² 15,9 °C 16,7 °C 3,2 km/h (1 Bft)
27.06.2017 21:29 16,7 °C 16,7 °C 95 % 1002,6 hPa 0,0 mm 1,5 km/h (1 Bft) O 101 ° 0 min 0,000 mm 0,0 UV-I 0 W/m² 15,9 °C 16,7 °C 3,2 km/h (1 Bft)
27.06.2017 21:30 16,7 °C 16,7 °C 95 % 1002,6 hPa 0,0 mm 0,1 km/h (0 Bft) O 101 ° 0 min 0,000 mm 0,0 UV-I 0 W/m² 15,9 °C 16,7 °C 1,6 km/h (1 Bft)
27.06.2017 21:31 16,7 °C 16,7 °C 95 % 1002,6 hPa 0,0 mm 0,9 km/h (0 Bft) O 101 ° 0 min 0,000 mm 0,0 UV-I 0 W/m² 15,9 °C 16,7 °C 1,6 km/h (1 Bft)
27.06.2017 21:32 16,7 °C 16,7 °C 95 % 1002,6 hPa 0,0 mm 0,0 km/h (0 Bft) O 101 ° 0 min 0,000 mm 0,0 UV-I 0 W/m² 15,9 °C 16,7 °C 0,0 km/h (0 Bft)
27.06.2017 21:33 16,7 °C 16,7 °C 95 % 1002,5 hPa 0,0 mm 0,7 km/h (0 Bft) S-SO 155 ° 0 min 0,000 mm 0,0 UV-I 0 W/m² 15,9 °C 16,7 °C 1,6 km/h (1 Bft)
27.06.2017 21:34 16,6 °C 16,7 °C 95 % 1002,5 hPa 0,0 mm 1,0 km/h (0 Bft) O 94 ° 0 min 0,000 mm 0,0 UV-I 0 W/m² 15,8 °C 16,6 °C 1,6 km/h (1 Bft)
27.06.2017 21:35 16,6 °C 16,6 °C 94 % 1002,5 hPa 0,0 mm 0,0 km/h (0 Bft) O 94 ° 0 min 0,000 mm 0,0 UV-I 0 W/m² 15,6 °C 16,6 °C 0,0 km/h (0 Bft)
27.06.2017 21:36 16,6 °C 16,6 °C 95 % 1002,5 hPa 0,0 mm 2,0 km/h (1 Bft) O-NO 64 ° 0 min 0,000 mm 0,0 UV-I 0 W/m² 15,8 °C 16,6 °C 4,8 km/h (1 Bft)
27.06.2017 21:37 16,6 °C 16,6 °C 95 % 1002,6 hPa 0,0 mm 0,0 km/h (0 Bft) O-NO 64 ° 0 min 0,000 mm 0,0 UV-I 0 W/m² 15,8 °C 16,6 °C 0,0 km/h (0 Bft)
27.06.2017 21:38 16,5 °C 16,6 °C 95 % 1002,6 hPa 0,0 mm 0,1 km/h (0 Bft) O-NO 64 ° 0 min 0,000 mm 0,0 UV-I 0 W/m² 15,7 °C 16,5 °C 1,6 km/h (1 Bft)
27.06.2017 21:39 16,4 °C 16,5 °C 95 % 1002,6 hPa 0,0 mm 0,2 km/h (0 Bft) O-NO 64 ° 0 min 0,000 mm 0,0 UV-I 0 W/m² 15,6 °C 16,4 °C 1,6 km/h (1 Bft)
27.06.2017 21:40 16,4 °C 16,4 °C 95 % 1002,5 hPa 0,0 mm 0,1 km/h (0 Bft) O-NO 64 ° 0 min 0,000 mm 0,0 UV-I 0 W/m² 15,6 °C 16,4 °C 1,6 km/h (1 Bft)
27.06.2017 21:41 16,4 °C 16,4 °C 95 % 1002,5 hPa 0,0 mm 0,0 km/h (0 Bft) O-NO 64 ° 0 min 0,000 mm 0,0 UV-I 0 W/m² 15,6 °C 16,4 °C 0,0 km/h (0 Bft)
27.06.2017 21:42 16,4 °C 16,4 °C 95 % 1002,5 hPa 0,0 mm 0,0 km/h (0 Bft) O-NO 64 ° 0 min 0,000 mm 0,0 UV-I 0 W/m² 15,6 °C 16,4 °C 0,0 km/h (0 Bft)
27.06.2017 21:43 16,4 °C 16,4 °C 95 % 1002,6 hPa 0,0 mm 0,3 km/h (0 Bft) O-NO 64 ° 0 min 0,000 mm 0,0 UV-I 0 W/m² 15,6 °C 16,4 °C 1,6 km/h (1 Bft)
27.06.2017 21:44 16,4 °C 16,4 °C 95 % 1002,6 hPa 0,0 mm 0,9 km/h (0 Bft) O-NO 64 ° 0 min 0,000 mm 0,0 UV-I 0 W/m² 15,6 °C 16,4 °C 1,6 km/h (1 Bft)
27.06.2017 21:45 16,4 °C 16,4 °C 95 % 1002,6 hPa 0,0 mm 1,3 km/h (1 Bft) O-NO 64 ° 0 min 0,000 mm 0,0 UV-I 0 W/m² 15,6 °C 16,4 °C 3,2 km/h (1 Bft)
27.06.2017 21:46 16,3 °C 16,4 °C 95 % 1002,6 hPa 0,0 mm 2,8 km/h (1 Bft) O-NO 64 ° 0 min 0,000 mm 0,0 UV-I 0 W/m² 15,5 °C 16,3 °C 4,8 km/h (1 Bft)
27.06.2017 21:47 16,3 °C 16,3 °C 95 % 1002,6 hPa 0,0 mm 0,7 km/h (0 Bft) O-NO 64 ° 0 min 0,000 mm 0,0 UV-I 0 W/m² 15,5 °C 16,3 °C 3,2 km/h (1 Bft)
27.06.2017 21:48 16,3 °C 16,3 °C 95 % 1002,6 hPa 0,0 mm 0,0 km/h (0 Bft) O-NO 64 ° 0 min 0,000 mm 0,0 UV-I 0 W/m² 15,5 °C 16,3 °C 0,0 km/h (0 Bft)
27.06.2017 21:49 16,3 °C 16,3 °C 95 % 1002,6 hPa 0,0 mm 0,8 km/h (0 Bft) O-NO 64 ° 0 min 0,000 mm 0,0 UV-I 0 W/m² 15,5 °C 16,3 °C 3,2 km/h (1 Bft)
27.06.2017 21:50 16,3 °C 16,3 °C 95 % 1002,6 hPa 0,0 mm 1,7 km/h (1 Bft) O-NO 64 ° 0 min 0,000 mm 0,0 UV-I 0 W/m² 15,5 °C 16,3 °C 3,2 km/h (1 Bft)
27.06.2017 21:51 16,3 °C 16,3 °C 95 % 1002,6 hPa 0,0 mm 2,1 km/h (1 Bft) O-NO 64 ° 0 min 0,000 mm 0,0 UV-I 0 W/m² 15,5 °C 16,3 °C 3,2 km/h (1 Bft)
27.06.2017 21:52 16,2 °C 16,3 °C 95 % 1002,6 hPa 0,0 mm 0,5 km/h (0 Bft) O-NO 64 ° 0 min 0,000 mm 0,0 UV-I 0 W/m² 15,4 °C 16,2 °C 3,2 km/h (1 Bft)
27.06.2017 21:53 16,3 °C 16,3 °C 95 % 1002,6 hPa 0,0 mm 1,4 km/h (1 Bft) O-NO 64 ° 0 min 0,000 mm 0,0 UV-I 0 W/m² 15,5 °C 16,3 °C 3,2 km/h (1 Bft)
27.06.2017 21:54 16,2 °C 16,3 °C 95 % 1002,6 hPa 0,0 mm 0,3 km/h (0 Bft) O-NO 64 ° 0 min 0,000 mm 0,0 UV-I 0 W/m² 15,4 °C 16,2 °C 1,6 km/h (1 Bft)
27.06.2017 21:55 16,1 °C 16,2 °C 95 % 1002,6 hPa 0,0 mm 1,0 km/h (0 Bft) O-NO 64 ° 0 min 0,000 mm 0,0 UV-I 0 W/m² 15,3 °C 16,1 °C 1,6 km/h (1 Bft)
27.06.2017 21:56 16,1 °C 16,2 °C 95 % 1002,5 hPa 0,0 mm 0,0 km/h (0 Bft) O-NO 64 ° 0 min 0,000 mm 0,0 UV-I 0 W/m² 15,3 °C 16,1 °C 0,0 km/h (0 Bft)
27.06.2017 21:57 16,1 °C 16,1 °C 95 % 1002,5 hPa 0,0 mm 0,0 km/h (0 Bft) O-NO 64 ° 0 min 0,000 mm 0,0 UV-I 0 W/m² 15,3 °C 16,1 °C 0,0 km/h (0 Bft)
27.06.2017 21:58 16,2 °C 16,2 °C 95 % 1002,6 hPa 0,0 mm 0,0 km/h (0 Bft) O-NO 64 ° 0 min 0,000 mm 0,0 UV-I 0 W/m² 15,4 °C 16,2 °C 0,0 km/h (0 Bft)
27.06.2017 21:59 16,2 °C 16,2 °C 95 % 1002,6 hPa 0,0 mm 0,0 km/h (0 Bft) O-NO 64 ° 0 min 0,000 mm 0,0 UV-I 0 W/m² 15,4 °C 16,2 °C 0,0 km/h (0 Bft)
27.06.2017 22:00 16,2 °C 16,2 °C 95 % 1002,6 hPa 0,0 mm 1,3 km/h (1 Bft) O-SO 111 ° 0 min 0,000 mm 0,0 UV-I 0 W/m² 15,4 °C 16,2 °C 4,8 km/h (1 Bft)
27.06.2017 22:01 16,2 °C 16,2 °C 95 % 1002,6 hPa 0,0 mm 0,2 km/h (0 Bft) O-SO 111 ° 0 min 0,000 mm 0,0 UV-I 0 W/m² 15,4 °C 16,2 °C 1,6 km/h (1 Bft)
27.06.2017 22:02 16,2 °C 16,2 °C 95 % 1002,6 hPa 0,0 mm 0,0 km/h (0 Bft) O-SO 111 ° 0 min 0,000 mm 0,0 UV-I 0 W/m² 15,4 °C 16,2 °C 0,0 km/h (0 Bft)
27.06.2017 22:03 16,2 °C 16,2 °C 95 % 1002,6 hPa 0,0 mm 0,0 km/h (0 Bft) O-SO 111 ° 0 min 0,000 mm 0,0 UV-I 0 W/m² 15,4 °C 16,2 °C 0,0 km/h (0 Bft)
27.06.2017 22:04 16,2 °C 16,2 °C 95 % 1002,6 hPa 0,0 mm 0,0 km/h (0 Bft) O-SO 111 ° 0 min 0,000 mm 0,0 UV-I 0 W/m² 15,4 °C 16,2 °C 0,0 km/h (0 Bft)
27.06.2017 22:05 16,1 °C 16,2 °C 95 % 1002,6 hPa 0,0 mm 0,0 km/h (0 Bft) O-SO 111 ° 0 min 0,000 mm 0,0 UV-I 0 W/m² 15,3 °C 16,1 °C 0,0 km/h (0 Bft)
27.06.2017 22:06 16,1 °C 16,1 °C 95 % 1002,7 hPa 0,0 mm 0,0 km/h (0 Bft) O-SO 111 ° 0 min 0,000 mm 0,0 UV-I 0 W/m² 15,3 °C 16,1 °C 0,0 km/h (0 Bft)
27.06.2017 22:07 16,2 °C 16,2 °C 95 % 1002,7 hPa 0,0 mm 0,0 km/h (0 Bft) O-SO 111 ° 0 min 0,000 mm 0,0 UV-I 0 W/m² 15,4 °C 16,2 °C 0,0 km/h (0 Bft)
27.06.2017 22:08 16,1 °C 16,2 °C 95 % 1002,7 hPa 0,0 mm 0,0 km/h (0 Bft) O-SO 111 ° 0 min 0,000 mm 0,0 UV-I 0 W/m² 15,3 °C 16,1 °C 0,0 km/h (0 Bft)
27.06.2017 22:09 16,1 °C 16,2 °C 95 % 1002,7 hPa 0,0 mm 0,0 km/h (0 Bft) O-SO 111 ° 0 min 0,000 mm 0,0 UV-I 0 W/m² 15,3 °C 16,1 °C 0,0 km/h (0 Bft)
27.06.2017 22:10 16,1 °C 16,1 °C 95 % 1002,6 hPa 0,0 mm 0,0 km/h (0 Bft) O-SO 111 ° 0 min 0,000 mm 0,0 UV-I 0 W/m² 15,3 °C 16,1 °C 0,0 km/h (0 Bft)
27.06.2017 22:11 16,1 °C 16,2 °C 95 % 1002,7 hPa 0,0 mm 0,0 km/h (0 Bft) O-SO 111 ° 0 min 0,000 mm 0,0 UV-I 0 W/m² 15,3 °C 16,1 °C 0,0 km/h (0 Bft)
27.06.2017 22:12 16,1 °C 16,2 °C 95 % 1002,7 hPa 0,0 mm 0,0 km/h (0 Bft) O-SO 111 ° 0 min 0,000 mm 0,0 UV-I 0 W/m² 15,3 °C 16,1 °C 0,0 km/h (0 Bft)
27.06.2017 22:13 16,1 °C 16,1 °C 95 % 1002,7 hPa 0,0 mm 0,0 km/h (0 Bft) O-SO 111 ° 0 min 0,000 mm 0,0 UV-I 0 W/m² 15,3 °C 16,1 °C 0,0 km/h (0 Bft)
27.06.2017 22:14 16,1 °C 16,1 °C 95 % 1002,7 hPa 0,0 mm 0,0 km/h (0 Bft) O-SO 111 ° 0 min 0,000 mm 0,0 UV-I 0 W/m² 15,3 °C 16,1 °C 0,0 km/h (0 Bft)
27.06.2017 22:15 16,1 °C 16,1 °C 95 % 1002,7 hPa 0,0 mm 0,0 km/h (0 Bft) O-SO 111 ° 0 min 0,000 mm 0,0 UV-I 0 W/m² 15,3 °C 16,1 °C 0,0 km/h (0 Bft)
27.06.2017 22:16 16,1 °C 16,1 °C 95 % 1002,6 hPa 0,0 mm 0,0 km/h (0 Bft) O-SO 111 ° 0 min 0,000 mm 0,0 UV-I 0 W/m² 15,3 °C 16,1 °C 0,0 km/h (0 Bft)
27.06.2017 22:17 16,1 °C 16,1 °C 95 % 1002,6 hPa 0,0 mm 0,0 km/h (0 Bft) O-SO 111 ° 0 min 0,000 mm 0,0 UV-I 0 W/m² 15,3 °C 16,1 °C 0,0 km/h (0 Bft)
27.06.2017 22:18 16,1 °C 16,1 °C 95 % 1002,6 hPa 0,0 mm 0,0 km/h (0 Bft) O-SO 111 ° 0 min 0,000 mm 0,0 UV-I 0 W/m² 15,3 °C 16,1 °C 0,0 km/h (0 Bft)
27.06.2017 22:19 16,1 °C 16,1 °C 95 % 1002,7 hPa 0,0 mm 0,0 km/h (0 Bft) O-SO 111 ° 0 min 0,000 mm 0,0 UV-I 0 W/m² 15,3 °C 16,1 °C 0,0 km/h (0 Bft)
27.06.2017 22:20 16,1 °C 16,1 °C 95 % 1002,7 hPa 0,0 mm 0,0 km/h (0 Bft) O-SO 111 ° 0 min 0,000 mm 0,0 UV-I 0 W/m² 15,3 °C 16,1 °C 0,0 km/h (0 Bft)
27.06.2017 22:21 16,0 °C 16,1 °C 95 % 1002,6 hPa 0,0 mm 1,9 km/h (1 Bft) NW 320 ° 0 min 0,000 mm 0,0 UV-I 0 W/m² 15,2 °C 16,0 °C 4,8 km/h (1 Bft)
27.06.2017 22:22 16,0 °C 16,0 °C 95 % 1002,7 hPa 0,0 mm 1,0 km/h (0 Bft) NW 320 ° 0 min 0,000 mm 0,0 UV-I 0 W/m² 15,2 °C 16,0 °C 3,2 km/h (1 Bft)
27.06.2017 22:23 16,0 °C 16,0 °C 95 % 1002,7 hPa 0,0 mm 0,3 km/h (0 Bft) NW 321 ° 0 min 0,000 mm 0,0 UV-I 0 W/m² 15,2 °C 16,0 °C 1,6 km/h (1 Bft)
27.06.2017 22:24 16,0 °C 16,0 °C 95 % 1002,7 hPa 0,0 mm 1,1 km/h (1 Bft) NW 321 ° 0 min 0,000 mm 0,0 UV-I 0 W/m² 15,2 °C 16,0 °C 3,2 km/h (1 Bft)
27.06.2017 22:25 15,9 °C 16,0 °C 95 % 1002,7 hPa 0,0 mm 0,6 km/h (0 Bft) NW 321 ° 0 min 0,000 mm 0,0 UV-I 0 W/m² 15,1 °C 15,9 °C 1,6 km/h (1 Bft)
27.06.2017 22:26 15,9 °C 15,9 °C 95 % 1002,7 hPa 0,0 mm 0,0 km/h (0 Bft) NW 321 ° 0 min 0,000 mm 0,0 UV-I 0 W/m² 15,1 °C 15,9 °C 0,0 km/h (0 Bft)
27.06.2017 22:27 16,0 °C 16,0 °C 95 % 1002,7 hPa 0,0 mm 0,3 km/h (0 Bft) NW 321 ° 0 min 0,000 mm 0,0 UV-I 0 W/m² 15,2 °C 16,0 °C 1,6 km/h (1 Bft)
27.06.2017 22:28 15,9 °C 16,0 °C 95 % 1002,7 hPa 0,0 mm 0,1 km/h (0 Bft) NW 321 ° 0 min 0,000 mm 0,0 UV-I 0 W/m² 15,1 °C 15,9 °C 1,6 km/h (1 Bft)
27.06.2017 22:29 15,9 °C 15,9 °C 95 % 1002,7 hPa 0,0 mm 0,0 km/h (0 Bft) NW 321 ° 0 min 0,000 mm 0,0 UV-I 0 W/m² 15,1 °C 15,9 °C 0,0 km/h (0 Bft)
27.06.2017 22:30 15,9 °C 15,9 °C 95 % 1002,7 hPa 0,0 mm 1,7 km/h (1 Bft) NW 321 ° 0 min 0,000 mm 0,0 UV-I 0 W/m² 15,1 °C 15,9 °C 3,2 km/h (1 Bft)
27.06.2017 22:31 15,9 °C 15,9 °C 95 % 1002,8 hPa 0,0 mm 0,3 km/h (0 Bft) NW 321 ° 0 min 0,000 mm 0,0 UV-I 0 W/m² 15,1 °C 15,9 °C 1,6 km/h (1 Bft)
27.06.2017 22:32 15,9 °C 15,9 °C 95 % 1002,8 hPa 0,0 mm 0,0 km/h (0 Bft) NW 321 ° 0 min 0,000 mm 0,0 UV-I 0 W/m² 15,1 °C 15,9 °C 0,0 km/h (0 Bft)
27.06.2017 22:33 15,9 °C 15,9 °C 95 % 1002,8 hPa 0,0 mm 0,0 km/h (0 Bft) NW 321 ° 0 min 0,000 mm 0,0 UV-I 0 W/m² 15,1 °C 15,9 °C 0,0 km/h (0 Bft)
27.06.2017 22:34 15,8 °C 15,9 °C 95 % 1002,7 hPa 0,0 mm 0,0 km/h (0 Bft) NW 321 ° 0 min 0,000 mm 0,0 UV-I 0 W/m² 15,0 °C 15,8 °C 0,0 km/h (0 Bft)
27.06.2017 22:35 15,8 °C 15,9 °C 95 % 1002,7 hPa 0,0 mm 0,0 km/h (0 Bft) NW 321 ° 0 min 0,000 mm 0,0 UV-I 0 W/m² 15,0 °C 15,8 °C 0,0 km/h (0 Bft)
27.06.2017 22:36 15,8 °C 15,8 °C 95 % 1002,7 hPa 0,0 mm 0,0 km/h (0 Bft) NW 321 ° 0 min 0,000 mm 0,0 UV-I 0 W/m² 15,0 °C 15,8 °C 0,0 km/h (0 Bft)
27.06.2017 22:37 15,8 °C 15,9 °C 95 % 1002,7 hPa 0,0 mm 0,0 km/h (0 Bft) NW 321 ° 0 min 0,000 mm 0,0 UV-I 0 W/m² 15,0 °C 15,8 °C 0,0 km/h (0 Bft)
27.06.2017 22:38 15,8 °C 15,8 °C 95 % 1002,7 hPa 0,0 mm 0,0 km/h (0 Bft) NW 321 ° 0 min 0,000 mm 0,0 UV-I 0 W/m² 15,0 °C 15,8 °C 0,0 km/h (0 Bft)
27.06.2017 22:39 15,8 °C 15,8 °C 95 % 1002,7 hPa 0,0 mm 0,0 km/h (0 Bft) NW 321 ° 0 min 0,000 mm 0,0 UV-I 0 W/m² 15,0 °C 15,8 °C 0,0 km/h (0 Bft)
27.06.2017 22:40 15,8 °C 15,8 °C 95 % 1002,7 hPa 0,0 mm 0,0 km/h (0 Bft) NW 321 ° 0 min 0,000 mm 0,0 UV-I 0 W/m² 15,0 °C 15,8 °C 0,0 km/h (0 Bft)
27.06.2017 22:41 15,8 °C 15,9 °C 95 % 1002,6 hPa 0,0 mm 0,7 km/h (0 Bft) NW 324 ° 0 min 0,000 mm 0,0 UV-I 0 W/m² 15,0 °C 15,8 °C 3,2 km/h (1 Bft)
27.06.2017 22:42 15,9 °C 15,9 °C 95 % 1002,7 hPa 0,0 mm 0,0 km/h (0 Bft) NW 324 ° 0 min 0,000 mm 0,0 UV-I 0 W/m² 15,1 °C 15,9 °C 0,0 km/h (0 Bft)
27.06.2017 22:43 15,8 °C 15,9 °C 95 % 1002,7 hPa 0,0 mm 0,0 km/h (0 Bft) NW 324 ° 0 min 0,000 mm 0,0 UV-I 0 W/m² 15,0 °C 15,8 °C 0,0 km/h (0 Bft)
27.06.2017 22:44 15,9 °C 15,9 °C 95 % 1002,7 hPa 0,0 mm 0,0 km/h (0 Bft) NW 324 ° 0 min 0,000 mm 0,0 UV-I 0 W/m² 15,1 °C 15,9 °C 0,0 km/h (0 Bft)
27.06.2017 22:45 15,9 °C 15,9 °C 95 % 1002,6 hPa 0,0 mm 0,0 km/h (0 Bft) NW 324 ° 0 min 0,000 mm 0,0 UV-I 0 W/m² 15,1 °C 15,9 °C 0,0 km/h (0 Bft)
27.06.2017 22:46 15,9 °C 15,9 °C 95 % 1002,7 hPa 0,0 mm 0,9 km/h (0 Bft) NW 317 ° 0 min 0,000 mm 0,0 UV-I 0 W/m² 15,1 °C 15,9 °C 3,2 km/h (1 Bft)
27.06.2017 22:47 15,9 °C 15,9 °C 95 % 1002,7 hPa 0,0 mm 1,9 km/h (1 Bft) NW 317 ° 0 min 0,000 mm 0,0 UV-I 0 W/m² 15,1 °C 15,9 °C 3,2 km/h (1 Bft)
27.06.2017 22:48 15,9 °C 15,9 °C 95 % 1002,7 hPa 0,0 mm 3,1 km/h (1 Bft) W 269 ° 0 min 0,000 mm 0,0 UV-I 0 W/m² 15,1 °C 15,9 °C 4,8 km/h (1 Bft)
27.06.2017 22:49 15,9 °C 15,9 °C 95 % 1002,7 hPa 0,0 mm 2,4 km/h (1 Bft) W 277 ° 0 min 0,000 mm 0,0 UV-I 0 W/m² 15,1 °C 15,9 °C 4,8 km/h (1 Bft)
27.06.2017 22:50 15,9 °C 15,9 °C 95 % 1002,7 hPa 0,0 mm 0,4 km/h (0 Bft) W 277 ° 0 min 0,000 mm 0,0 UV-I 0 W/m² 15,1 °C 15,9 °C 1,6 km/h (1 Bft)
27.06.2017 22:51 15,9 °C 15,9 °C 95 % 1002,7 hPa 0,0 mm 0,3 km/h (0 Bft) W 277 ° 0 min 0,000 mm 0,0 UV-I 0 W/m² 15,1 °C 15,9 °C 1,6 km/h (1 Bft)
27.06.2017 22:52 16,0 °C 16,0 °C 95 % 1002,8 hPa 0,0 mm 0,0 km/h (0 Bft) W 277 ° 0 min 0,000 mm 0,0 UV-I 0 W/m² 15,2 °C 16,0 °C 0,0 km/h (0 Bft)
27.06.2017 22:53 15,9 °C 16,0 °C 95 % 1002,8 hPa 0,0 mm 0,0 km/h (0 Bft) W 277 ° 0 min 0,000 mm 0,0 UV-I 0 W/m² 15,1 °C 15,9 °C 0,0 km/h (0 Bft)
27.06.2017 22:54 15,9 °C 15,9 °C 95 % 1002,8 hPa 0,0 mm 0,0 km/h (0 Bft) W 277 ° 0 min 0,000 mm 0,0 UV-I 0 W/m² 15,1 °C 15,9 °C 0,0 km/h (0 Bft)
27.06.2017 22:55 15,9 °C 15,9 °C 95 % 1002,8 hPa 0,0 mm 0,0 km/h (0 Bft) W 277 ° 0 min 0,000 mm 0,0 UV-I 0 W/m² 15,1 °C 15,9 °C 0,0 km/h (0 Bft)
27.06.2017 22:56 15,9 °C 15,9 °C 95 % 1002,8 hPa 0,0 mm 2,1 km/h (1 Bft) W 277 ° 0 min 0,000 mm 0,0 UV-I 0 W/m² 15,1 °C 15,9 °C 3,2 km/h (1 Bft)
27.06.2017 22:57 15,9 °C 15,9 °C 95 % 1002,8 hPa 0,0 mm 1,2 km/h (1 Bft) W 277 ° 0 min 0,000 mm 0,0 UV-I 0 W/m² 15,1 °C 15,9 °C 3,2 km/h (1 Bft)
27.06.2017 22:58 15,9 °C 15,9 °C 95 % 1002,8 hPa 0,0 mm 0,3 km/h (0 Bft) W 277 ° 0 min 0,000 mm 0,0 UV-I 0 W/m² 15,1 °C 15,9 °C 1,6 km/h (1 Bft)
27.06.2017 22:59 15,9 °C 15,9 °C 95 % 1002,8 hPa 0,0 mm 0,1 km/h (0 Bft) W 277 ° 0 min 0,000 mm 0,0 UV-I 0 W/m² 15,1 °C 15,9 °C 1,6 km/h (1 Bft)
27.06.2017 23:00 15,8 °C 15,9 °C 95 % 1002,8 hPa 0,0 mm 0,5 km/h (0 Bft) W 277 ° 0 min 0,000 mm 0,0 UV-I 0 W/m² 15,0 °C 15,8 °C 1,6 km/h (1 Bft)
27.06.2017 23:01 15,8 °C 15,8 °C 95 % 1002,7 hPa 0,0 mm 0,9 km/h (0 Bft) W 277 ° 0 min 0,000 mm 0,0 UV-I 0 W/m² 15,0 °C 15,8 °C 1,6 km/h (1 Bft)
27.06.2017 23:02 15,9 °C 15,9 °C 95 % 1002,8 hPa 0,0 mm 0,0 km/h (0 Bft) W 277 ° 0 min 0,000 mm 0,0 UV-I 0 W/m² 15,1 °C 15,9 °C 0,0 km/h (0 Bft)
27.06.2017 23:03 15,9 °C 15,9 °C 95 % 1002,8 hPa 0,0 mm 0,0 km/h (0 Bft) W 277 ° 0 min 0,000 mm 0,0 UV-I 0 W/m² 15,1 °C 15,9 °C 0,0 km/h (0 Bft)
27.06.2017 23:04 15,9 °C 15,9 °C 95 % 1002,8 hPa 0,0 mm 0,0 km/h (0 Bft) W 277 ° 0 min 0,000 mm 0,0 UV-I 0 W/m² 15,1 °C 15,9 °C 0,0 km/h (0 Bft)
27.06.2017 23:05 15,8 °C 15,9 °C 95 % 1002,8 hPa 0,0 mm 0,0 km/h (0 Bft) W 277 ° 0 min 0,000 mm 0,0 UV-I 0 W/m² 15,0 °C 15,8 °C 0,0 km/h (0 Bft)
27.06.2017 23:06 15,8 °C 15,8 °C 95 % 1002,8 hPa 0,0 mm 0,0 km/h (0 Bft) W 278 ° 0 min 0,000 mm 0,0 UV-I 0 W/m² 15,0 °C 15,8 °C 0,0 km/h (0 Bft)
27.06.2017 23:07 15,8 °C 15,8 °C 95 % 1002,8 hPa 0,0 mm 1,5 km/h (1 Bft) W 278 ° 0 min 0,000 mm 0,0 UV-I 0 W/m² 15,0 °C 15,8 °C 3,2 km/h (1 Bft)
27.06.2017 23:08 15,8 °C 15,8 °C 95 % 1002,8 hPa 0,0 mm 1,0 km/h (0 Bft) W 278 ° 0 min 0,000 mm 0,0 UV-I 0 W/m² 15,0 °C 15,8 °C 3,2 km/h (1 Bft)
27.06.2017 23:09 15,8 °C 15,8 °C 95 % 1002,8 hPa 0,0 mm 2,0 km/h (1 Bft) NW 312 ° 0 min 0,000 mm 0,0 UV-I 0 W/m² 15,0 °C 15,8 °C 3,2 km/h (1 Bft)
27.06.2017 23:10 15,8 °C 15,8 °C 95 % 1002,8 hPa 0,0 mm 0,3 km/h (0 Bft) NW 312 ° 0 min 0,000 mm 0,0 UV-I 0 W/m² 15,0 °C 15,8 °C 1,6 km/h (1 Bft)
27.06.2017 23:11 15,8 °C 15,8 °C 95 % 1002,7 hPa 0,0 mm 0,7 km/h (0 Bft) N-NW 330 ° 0 min 0,000 mm 0,0 UV-I 0 W/m² 15,0 °C 15,8 °C 3,2 km/h (1 Bft)
27.06.2017 23:12 15,8 °C 15,8 °C 95 % 1002,8 hPa 0,0 mm 0,9 km/h (0 Bft) N-NW 331 ° 0 min 0,000 mm 0,0 UV-I 0 W/m² 15,0 °C 15,8 °C 3,2 km/h (1 Bft)
27.06.2017 23:13 15,8 °C 15,8 °C 95 % 1002,8 hPa 0,0 mm 0,0 km/h (0 Bft) N-NW 331 ° 0 min 0,000 mm 0,0 UV-I 0 W/m² 15,0 °C 15,8 °C 0,0 km/h (0 Bft)
27.06.2017 23:14 15,8 °C 15,8 °C 95 % 1002,7 hPa 0,0 mm 0,0 km/h (0 Bft) N-NW 331 ° 0 min 0,000 mm 0,0 UV-I 0 W/m² 15,0 °C 15,8 °C 0,0 km/h (0 Bft)
27.06.2017 23:15 15,8 °C 15,8 °C 95 % 1002,8 hPa 0,0 mm 1,4 km/h (1 Bft) N-NW 335 ° 0 min 0,000 mm 0,0 UV-I 0 W/m² 15,0 °C 15,8 °C 3,2 km/h (1 Bft)
27.06.2017 23:16 15,8 °C 15,8 °C 95 % 1002,7 hPa 0,0 mm 0,2 km/h (0 Bft) N-NW 335 ° 0 min 0,000 mm 0,0 UV-I 0 W/m² 15,0 °C 15,8 °C 1,6 km/h (1 Bft)
27.06.2017 23:17 15,8 °C 15,8 °C 95 % 1002,7 hPa 0,0 mm 0,0 km/h (0 Bft) N-NW 339 ° 0 min 0,000 mm 0,0 UV-I 0 W/m² 15,0 °C 15,8 °C 0,0 km/h (0 Bft)
27.06.2017 23:18 15,8 °C 15,8 °C 95 % 1002,7 hPa 0,0 mm 0,3 km/h (0 Bft) N-NW 339 ° 0 min 0,000 mm 0,0 UV-I 0 W/m² 15,0 °C 15,8 °C 1,6 km/h (1 Bft)
27.06.2017 23:19 15,8 °C 15,8 °C 95 % 1002,7 hPa 0,0 mm 0,0 km/h (0 Bft) N-NW 339 ° 0 min 0,000 mm 0,0 UV-I 0 W/m² 15,0 °C 15,8 °C 0,0 km/h (0 Bft)
27.06.2017 23:20 15,7 °C 15,8 °C 95 % 1002,7 hPa 0,0 mm 0,0 km/h (0 Bft) N-NW 339 ° 0 min 0,000 mm 0,0 UV-I 0 W/m² 14,9 °C 15,7 °C 0,0 km/h (0 Bft)
27.06.2017 23:21 15,7 °C 15,7 °C 95 % 1002,7 hPa 0,0 mm 0,0 km/h (0 Bft) N-NW 339 ° 0 min 0,000 mm 0,0 UV-I 0 W/m² 14,9 °C 15,7 °C 0,0 km/h (0 Bft)
27.06.2017 23:22 15,7 °C 15,7 °C 95 % 1002,8 hPa 0,0 mm 0,0 km/h (0 Bft) N-NW 339 ° 0 min 0,000 mm 0,0 UV-I 0 W/m² 14,9 °C 15,7 °C 0,0 km/h (0 Bft)
27.06.2017 23:23 15,7 °C 15,7 °C 95 % 1002,7 hPa 0,0 mm 0,0 km/h (0 Bft) N-NW 339 ° 0 min 0,000 mm 0,0 UV-I 0 W/m² 14,9 °C 15,7 °C 0,0 km/h (0 Bft)
27.06.2017 23:24 15,7 °C 15,7 °C 95 % 1002,7 hPa 0,0 mm 0,0 km/h (0 Bft) N-NW 339 ° 0 min 0,000 mm 0,0 UV-I 0 W/m² 14,9 °C 15,7 °C 0,0 km/h (0 Bft)
27.06.2017 23:25 15,6 °C 15,7 °C 95 % 1002,8 hPa 0,0 mm 0,0 km/h (0 Bft) N-NW 339 ° 0 min 0,000 mm 0,0 UV-I 0 W/m² 14,8 °C 15,6 °C 0,0 km/h (0 Bft)
27.06.2017 23:26 15,7 °C 15,7 °C 95 % 1002,8 hPa 0,0 mm 0,0 km/h (0 Bft) N-NW 339 ° 0 min 0,000 mm 0,0 UV-I 0 W/m² 14,9 °C 15,7 °C 0,0 km/h (0 Bft)
27.06.2017 23:27 15,7 °C 15,7 °C 95 % 1002,7 hPa 0,0 mm 0,0 km/h (0 Bft) N-NW 339 ° 0 min 0,000 mm 0,0 UV-I 0 W/m² 14,9 °C 15,7 °C 0,0 km/h (0 Bft)
27.06.2017 23:28 15,6 °C 15,7 °C 95 % 1002,6 hPa 0,0 mm 0,0 km/h (0 Bft) N-NW 339 ° 0 min 0,000 mm 0,0 UV-I 0 W/m² 14,8 °C 15,6 °C 0,0 km/h (0 Bft)
27.06.2017 23:29 15,6 °C 15,6 °C 95 % 1002,6 hPa 0,0 mm 0,0 km/h (0 Bft) N-NW 339 ° 0 min 0,000 mm 0,0 UV-I 0 W/m² 14,8 °C 15,6 °C 0,0 km/h (0 Bft)
27.06.2017 23:30 15,6 °C 15,6 °C 95 % 1002,7 hPa 0,0 mm 0,0 km/h (0 Bft) N-NW 339 ° 0 min 0,000 mm 0,0 UV-I 0 W/m² 14,8 °C 15,6 °C 0,0 km/h (0 Bft)
27.06.2017 23:31 15,6 °C 15,6 °C 95 % 1002,6 hPa 0,0 mm 0,0 km/h (0 Bft) N-NW 339 ° 0 min 0,000 mm 0,0 UV-I 0 W/m² 14,8 °C 15,6 °C 0,0 km/h (0 Bft)
27.06.2017 23:32 15,5 °C 15,6 °C 95 % 1002,6 hPa 0,0 mm 0,0 km/h (0 Bft) N-NW 339 ° 0 min 0,000 mm 0,0 UV-I 0 W/m² 14,7 °C 15,5 °C 0,0 km/h (0 Bft)
27.06.2017 23:33 15,4 °C 15,5 °C 95 % 1002,5 hPa 0,0 mm 0,2 km/h (0 Bft) N-NW 339 ° 0 min 0,000 mm 0,0 UV-I 0 W/m² 14,6 °C 15,4 °C 1,6 km/h (1 Bft)
27.06.2017 23:34 15,4 °C 15,4 °C 95 % 1002,5 hPa 0,0 mm 0,0 km/h (0 Bft) N-NW 339 ° 0 min 0,000 mm 0,0 UV-I 0 W/m² 14,6 °C 15,4 °C 0,0 km/h (0 Bft)
27.06.2017 23:35 15,4 °C 15,4 °C 95 % 1002,5 hPa 0,0 mm 0,0 km/h (0 Bft) N-NW 339 ° 0 min 0,000 mm 0,0 UV-I 0 W/m² 14,6 °C 15,4 °C 0,0 km/h (0 Bft)
27.06.2017 23:36 15,3 °C 15,4 °C 95 % 1002,5 hPa 0,0 mm 0,0 km/h (0 Bft) N-NW 339 ° 0 min 0,000 mm 0,0 UV-I 0 W/m² 14,5 °C 15,3 °C 0,0 km/h (0 Bft)
27.06.2017 23:37 15,3 °C 15,3 °C 95 % 1002,5 hPa 0,0 mm 0,0 km/h (0 Bft) N-NW 339 ° 0 min 0,000 mm 0,0 UV-I 0 W/m² 14,5 °C 15,3 °C 0,0 km/h (0 Bft)
27.06.2017 23:38 15,4 °C 15,4 °C 95 % 1002,5 hPa 0,0 mm 0,0 km/h (0 Bft) N-NW 339 ° 0 min 0,000 mm 0,0 UV-I 0 W/m² 14,6 °C 15,4 °C 0,0 km/h (0 Bft)
27.06.2017 23:39 15,3 °C 15,4 °C 95 % 1002,4 hPa 0,0 mm 0,0 km/h (0 Bft) N-NW 339 ° 0 min 0,000 mm 0,0 UV-I 0 W/m² 14,5 °C 15,3 °C 0,0 km/h (0 Bft)
27.06.2017 23:40 15,4 °C 15,4 °C 95 % 1002,4 hPa 0,0 mm 0,0 km/h (0 Bft) N-NW 339 ° 0 min 0,000 mm 0,0 UV-I 0 W/m² 14,6 °C 15,4 °C 0,0 km/h (0 Bft)
27.06.2017 23:41 15,4 °C 15,4 °C 95 % 1002,4 hPa 0,0 mm 0,0 km/h (0 Bft) N-NW 339 ° 0 min 0,000 mm 0,0 UV-I 0 W/m² 14,6 °C 15,4 °C 0,0 km/h (0 Bft)
27.06.2017 23:42 15,4 °C 15,4 °C 95 % 1002,4 hPa 0,0 mm 0,0 km/h (0 Bft) N-NW 339 ° 0 min 0,000 mm 0,0 UV-I 0 W/m² 14,6 °C 15,4 °C 0,0 km/h (0 Bft)
27.06.2017 23:43 15,4 °C 15,4 °C 95 % 1002,4 hPa 0,0 mm 0,0 km/h (0 Bft) N-NW 339 ° 0 min 0,000 mm 0,0 UV-I 0 W/m² 14,6 °C 15,4 °C 0,0 km/h (0 Bft)
27.06.2017 23:44 15,4 °C 15,4 °C 95 % 1002,4 hPa 0,0 mm 0,0 km/h (0 Bft) N-NW 339 ° 0 min 0,000 mm 0,0 UV-I 0 W/m² 14,6 °C 15,4 °C 0,0 km/h (0 Bft)
27.06.2017 23:45 15,3 °C 15,4 °C 95 % 1002,4 hPa 0,0 mm 0,0 km/h (0 Bft) N-NW 339 ° 0 min 0,000 mm 0,0 UV-I 0 W/m² 14,5 °C 15,3 °C 0,0 km/h (0 Bft)
27.06.2017 23:46 15,3 °C 15,3 °C 95 % 1002,3 hPa 0,0 mm 0,0 km/h (0 Bft) N-NW 339 ° 0 min 0,000 mm 0,0 UV-I 0 W/m² 14,5 °C 15,3 °C 0,0 km/h (0 Bft)
27.06.2017 23:47 15,3 °C 15,3 °C 95 % 1002,3 hPa 0,0 mm 0,0 km/h (0 Bft) N-NW 339 ° 0 min 0,000 mm 0,0 UV-I 0 W/m² 14,5 °C 15,3 °C 0,0 km/h (0 Bft)
27.06.2017 23:48 15,3 °C 15,3 °C 95 % 1002,2 hPa 0,0 mm 0,0 km/h (0 Bft) N-NW 339 ° 0 min 0,000 mm 0,0 UV-I 0 W/m² 14,5 °C 15,3 °C 0,0 km/h (0 Bft)
27.06.2017 23:49 15,2 °C 15,3 °C 95 % 1002,2 hPa 0,0 mm 0,0 km/h (0 Bft) N-NW 339 ° 0 min 0,000 mm 0,0 UV-I 0 W/m² 14,4 °C 15,2 °C 0,0 km/h (0 Bft)
27.06.2017 23:50 15,3 °C 15,3 °C 95 % 1002,2 hPa 0,0 mm 0,0 km/h (0 Bft) N-NW 339 ° 0 min 0,000 mm 0,0 UV-I 0 W/m² 14,5 °C 15,3 °C 0,0 km/h (0 Bft)
27.06.2017 23:51 15,3 °C 15,3 °C 95 % 1002,2 hPa 0,0 mm 0,0 km/h (0 Bft) N-NW 339 ° 0 min 0,000 mm 0,0 UV-I 0 W/m² 14,5 °C 15,3 °C 0,0 km/h (0 Bft)
27.06.2017 23:52 15,2 °C 15,3 °C 95 % 1002,2 hPa 0,0 mm 0,0 km/h (0 Bft) N-NW 339 ° 0 min 0,000 mm 0,0 UV-I 0 W/m² 14,4 °C 15,2 °C 0,0 km/h (0 Bft)
27.06.2017 23:53 15,2 °C 15,2 °C 95 % 1002,2 hPa 0,0 mm 0,0 km/h (0 Bft) N-NW 339 ° 0 min 0,000 mm 0,0 UV-I 0 W/m² 14,4 °C 15,2 °C 0,0 km/h (0 Bft)
27.06.2017 23:54 15,2 °C 15,2 °C 95 % 1002,2 hPa 0,0 mm 0,0 km/h (0 Bft) N-NW 339 ° 0 min 0,000 mm 0,0 UV-I 0 W/m² 14,4 °C 15,2 °C 0,0 km/h (0 Bft)
27.06.2017 23:55 15,2 °C 15,2 °C 95 % 1002,2 hPa 0,0 mm 0,0 km/h (0 Bft) N-NW 339 ° 0 min 0,000 mm 0,0 UV-I 0 W/m² 14,4 °C 15,2 °C 0,0 km/h (0 Bft)
27.06.2017 23:56 15,2 °C 15,2 °C 95 % 1002,2 hPa 0,0 mm 0,0 km/h (0 Bft) N-NW 339 ° 0 min 0,000 mm 0,0 UV-I 0 W/m² 14,4 °C 15,2 °C 0,0 km/h (0 Bft)
27.06.2017 23:57 15,1 °C 15,2 °C 95 % 1002,1 hPa 0,0 mm 0,0 km/h (0 Bft) N-NW 339 ° 0 min 0,000 mm 0,0 UV-I 0 W/m² 14,3 °C 15,1 °C 0,0 km/h (0 Bft)
27.06.2017 23:58 15,0 °C 15,1 °C 95 % 1002,1 hPa 0,0 mm 0,0 km/h (0 Bft) N-NW 339 ° 0 min 0,000 mm 0,0 UV-I 0 W/m² 14,2 °C 15,0 °C 0,0 km/h (0 Bft)
27.06.2017 23:59 14,9 °C 15,0 °C 95 % 1002,1 hPa 0,0 mm 0,0 km/h (0 Bft) N-NW 339 ° 0 min 0,000 mm 0,0 UV-I 0 W/m² 14,1 °C 14,9 °C 0,0 km/h (0 Bft)
_ Min-Zeit 05:35 05:34 16:09 23:59 - 23:59 - - - - - - 05:35 05:35 23:59
Minimum _ 14,3 °C 14,3 °C 63 % 1002,1 hPa - 0,0 km/h (0 Bft) - - - - - - 13,5 °C 14,3 °C 0,0 km/h (0 Bft)
_ Max-Zeit 15:17 15:18 07:08 00:02 18:44 15:23 - - 16:35 15:01 12:06 12:10 14:53 15:17 15:23
Maximum _ 24,2 °C 24,2 °C 96 % 1009,8 hPa 0,4 mm 11,9 km/h
N (2 Bft)
- - 1 min 0,533 mm 8,4 UV-I 1141 W/m² 19,0 °C 24,2 °C 14,5 km/h
N-NO (3 Bft)
Durchschnitt _ 17,5 °C 17,6 °C 89 % 1006,2 hPa #9,2 mm 1,8 km/h (1 Bft) O-NO - #5:10 h #2,896 mm 3,5 UV-I 208 W/m² 15,6 °C 17,5 °C 3,3 km/h (1 Bft)